<?xml version="1.0" encoding="UTF-8"?>
<gpx version="1.0" creator="Trackator" xmlns:xsi="http://www.w3.org/2001/XMLSchema-instance" xmlns="http://www.topografix.com/GPX/1/0" xmlns:topografix="http://www.topografix.com/GPX/Private/TopoGrafix/0/1" xsi:schemaLocation="http://www.topografix.com/GPX/1/0 http://www.topografix.com/GPX/1/0/gpx.xsd http://www.topografix.com/GPX/Private/TopoGrafix/0/1 http://www.topografix.com/GPX/Private/TopoGrafix/0/1/topografix.xsd">
<metadata>
<link href="http://www.trackator.com">
<text>Trackator</text>
</link>
</metadata>
<time>2017-03-29T:48:25Z</time>
<trk>
<name>Track: </name>
<desc>Paragliding</desc>
<trkseg>
<trkpt lat="38.08727017221063" lon="-1.490304523322129">
<ele>685</ele>
<time>2017-03-29T:48:25Z</time>
</trkpt>
<trkpt lat="38.087075291384025" lon="-1.4901745628292604">
<ele>705</ele>
<time>2017-03-29T18:48:30Z</time>
</trkpt>
<trkpt lat="38.08709573643169" lon="-1.4899689777132035">
<ele>692</ele>
<time>2017-03-29T18:48:34Z</time>
</trkpt>
<trkpt lat="38.087211762459326" lon="-1.4897770122356107">
<ele>681</ele>
<time>2017-03-29T18:48:38Z</time>
</trkpt>
<trkpt lat="38.08730450239995" lon="-1.4896466917017708">
<ele>685</ele>
<time>2017-03-29T18:48:42Z</time>
</trkpt>
<trkpt lat="38.08728809787963" lon="-1.4894217819465834">
<ele>686</ele>
<time>2017-03-29T18:48:46Z</time>
</trkpt>
<trkpt lat="38.08728149822719" lon="-1.4893024568058992">
<ele>696</ele>
<time>2017-03-29T18:48:50Z</time>
</trkpt>
<trkpt lat="38.08726238905387" lon="-1.4890915131299038">
<ele>706</ele>
<time>2017-03-29T18:48:54Z</time>
</trkpt>
<trkpt lat="38.08731464190098" lon="-1.488972725749275">
<ele>712</ele>
<time>2017-03-29T18:48:58Z</time>
</trkpt>
<trkpt lat="38.08734165820813" lon="-1.4887874995987775">
<ele>715</ele>
<time>2017-03-29T18:49:02Z</time>
</trkpt>
<trkpt lat="38.08738063348166" lon="-1.4886088839409102">
<ele>717</ele>
<time>2017-03-29T18:49:06Z</time>
</trkpt>
<trkpt lat="38.08740985045298" lon="-1.4884607694777912">
<ele>718</ele>
<time>2017-03-29T18:49:10Z</time>
</trkpt>
<trkpt lat="38.08741665604049" lon="-1.4882870867483573">
<ele>724</ele>
<time>2017-03-29T18:49:14Z</time>
</trkpt>
<trkpt lat="38.08737579379128" lon="-1.488173471278973">
<ele>726</ele>
<time>2017-03-29T18:49:18Z</time>
</trkpt>
<trkpt lat="38.08732781499029" lon="-1.4881039190710923">
<ele>729</ele>
<time>2017-03-29T18:49:22Z</time>
</trkpt>
<trkpt lat="38.0872823153768" lon="-1.487927769628679">
<ele>732</ele>
<time>2017-03-29T18:49:26Z</time>
</trkpt>
<trkpt lat="38.08729403217432" lon="-1.487822716974022">
<ele>735</ele>
<time>2017-03-29T18:49:30Z</time>
</trkpt>
<trkpt lat="38.087280073534814" lon="-1.4877905530519697">
<ele>739</ele>
<time>2017-03-29T18:49:34Z</time>
</trkpt>
<trkpt lat="38.08728698679069" lon="-1.4877048781113793">
<ele>742</ele>
<time>2017-03-29T18:49:38Z</time>
</trkpt>
<trkpt lat="38.087361393336614" lon="-1.4875870697242457">
<ele>745</ele>
<time>2017-03-29T18:49:42Z</time>
</trkpt>
<trkpt lat="38.087407101455106" lon="-1.4874448979804389">
<ele>747</ele>
<time>2017-03-29T18:49:46Z</time>
</trkpt>
<trkpt lat="38.08744977674085" lon="-1.4873191433964708">
<ele>752</ele>
<time>2017-03-29T18:49:50Z</time>
</trkpt>
<trkpt lat="38.08749541864006" lon="-1.487162411833555">
<ele>757</ele>
<time>2017-03-29T18:49:54Z</time>
</trkpt>
<trkpt lat="38.08751934835269" lon="-1.4869983487829506">
<ele>758</ele>
<time>2017-03-29T18:49:58Z</time>
</trkpt>
<trkpt lat="38.0875684961447" lon="-1.4868546922875283">
<ele>759</ele>
<time>2017-03-29T18:50:02Z</time>
</trkpt>
<trkpt lat="38.08761921872819" lon="-1.4866898309888867">
<ele>761</ele>
<time>2017-03-29T18:50:06Z</time>
</trkpt>
<trkpt lat="38.08768758010069" lon="-1.4865173173984725">
<ele>767</ele>
<time>2017-03-29T18:50:10Z</time>
</trkpt>
<trkpt lat="38.08777532661926" lon="-1.4863317224693584">
<ele>773</ele>
<time>2017-03-29T18:50:14Z</time>
</trkpt>
<trkpt lat="38.08785290523792" lon="-1.4861325107652297">
<ele>776</ele>
<time>2017-03-29T18:50:18Z</time>
</trkpt>
<trkpt lat="38.08793049553032" lon="-1.4859363183081822">
<ele>776</ele>
<time>2017-03-29T18:50:22Z</time>
</trkpt>
<trkpt lat="38.08803918689557" lon="-1.4857322178220322">
<ele>776</ele>
<time>2017-03-29T18:50:26Z</time>
</trkpt>
<trkpt lat="38.08814759332424" lon="-1.485558403777747">
<ele>775</ele>
<time>2017-03-29T18:50:30Z</time>
</trkpt>
<trkpt lat="38.088251595193896" lon="-1.4853862775281428">
<ele>774</ele>
<time>2017-03-29T18:50:34Z</time>
</trkpt>
<trkpt lat="38.08834221555646" lon="-1.4851995607518091">
<ele>772</ele>
<time>2017-03-29T18:50:38Z</time>
</trkpt>
<trkpt lat="38.08841952272489" lon="-1.4850464250113629">
<ele>772</ele>
<time>2017-03-29T18:50:42Z</time>
</trkpt>
<trkpt lat="38.088493084660676" lon="-1.4848836395954625">
<ele>771</ele>
<time>2017-03-29T18:50:46Z</time>
</trkpt>
<trkpt lat="38.08858518657628" lon="-1.4847239406344035">
<ele>770</ele>
<time>2017-03-29T18:50:50Z</time>
</trkpt>
<trkpt lat="38.088657516167444" lon="-1.4845322228183004">
<ele>769</ele>
<time>2017-03-29T18:50:54Z</time>
</trkpt>
<trkpt lat="38.088723691529864" lon="-1.484396386035422">
<ele>769</ele>
<time>2017-03-29T18:50:58Z</time>
</trkpt>
<trkpt lat="38.08879276819383" lon="-1.4842386680761626">
<ele>768</ele>
<time>2017-03-29T18:51:02Z</time>
</trkpt>
<trkpt lat="38.0888648086699" lon="-1.484067353952368">
<ele>770</ele>
<time>2017-03-29T18:51:06Z</time>
</trkpt>
<trkpt lat="38.0889154886792" lon="-1.483900124767898">
<ele>772</ele>
<time>2017-03-29T18:51:10Z</time>
</trkpt>
<trkpt lat="38.08893674483112" lon="-1.4837782909479782">
<ele>773</ele>
<time>2017-03-29T18:51:14Z</time>
</trkpt>
<trkpt lat="38.08896620383345" lon="-1.4836588176589465">
<ele>773</ele>
<time>2017-03-29T18:51:18Z</time>
</trkpt>
<trkpt lat="38.08899418924463" lon="-1.4835509118470116">
<ele>775</ele>
<time>2017-03-29T18:51:22Z</time>
</trkpt>
<trkpt lat="38.089005645062635" lon="-1.4834611007737875">
<ele>776</ele>
<time>2017-03-29T18:51:26Z</time>
</trkpt>
<trkpt lat="38.08903621007673" lon="-1.4833386782966393">
<ele>778</ele>
<time>2017-03-29T18:51:30Z</time>
</trkpt>
<trkpt lat="38.089129202308555" lon="-1.4831768559561094">
<ele>787</ele>
<time>2017-03-29T18:51:34Z</time>
</trkpt>
<trkpt lat="38.08924591855635" lon="-1.4830679463267071">
<ele>790</ele>
<time>2017-03-29T18:51:38Z</time>
</trkpt>
<trkpt lat="38.0893332186793" lon="-1.482899496398628">
<ele>798</ele>
<time>2017-03-29T18:51:42Z</time>
</trkpt>
<trkpt lat="38.08937449604314" lon="-1.4827638466186495">
<ele>799</ele>
<time>2017-03-29T18:51:46Z</time>
</trkpt>
<trkpt lat="38.089422536710515" lon="-1.4826006682544604">
<ele>803</ele>
<time>2017-03-29T18:51:50Z</time>
</trkpt>
<trkpt lat="38.08949259970811" lon="-1.4824503493308798">
<ele>808</ele>
<time>2017-03-29T18:51:54Z</time>
</trkpt>
<trkpt lat="38.08957484660428" lon="-1.4822673703443385">
<ele>814</ele>
<time>2017-03-29T18:51:58Z</time>
</trkpt>
<trkpt lat="38.08965028558652" lon="-1.482119991778195">
<ele>814</ele>
<time>2017-03-29T18:52:02Z</time>
</trkpt>
<trkpt lat="38.089703806890256" lon="-1.4819884238698955">
<ele>816</ele>
<time>2017-03-29T18:52:06Z</time>
</trkpt>
<trkpt lat="38.08975023072535" lon="-1.4818562763996483">
<ele>817</ele>
<time>2017-03-29T18:52:10Z</time>
</trkpt>
<trkpt lat="38.08981393738056" lon="-1.4817597273725076">
<ele>819</ele>
<time>2017-03-29T18:52:14Z</time>
</trkpt>
<trkpt lat="38.089883959478726" lon="-1.4816485575301404">
<ele>821</ele>
<time>2017-03-29T18:52:18Z</time>
</trkpt>
<trkpt lat="38.08991228663464" lon="-1.4815024824959535">
<ele>822</ele>
<time>2017-03-29T18:52:22Z</time>
</trkpt>
<trkpt lat="38.08994121293789" lon="-1.4813532554994595">
<ele>825</ele>
<time>2017-03-29T18:52:26Z</time>
</trkpt>
<trkpt lat="38.08995375592451" lon="-1.4812568697890411">
<ele>828</ele>
<time>2017-03-29T18:52:30Z</time>
</trkpt>
<trkpt lat="38.089936315156095" lon="-1.4811832379090364">
<ele>831</ele>
<time>2017-03-29T18:52:34Z</time>
</trkpt>
<trkpt lat="38.09002870661457" lon="-1.4810349095802973">
<ele>834</ele>
<time>2017-03-29T18:52:38Z</time>
</trkpt>
<trkpt lat="38.09007967382822" lon="-1.4809034734810778">
<ele>842</ele>
<time>2017-03-29T18:52:42Z</time>
</trkpt>
<trkpt lat="38.09010942260942" lon="-1.4807456849235547">
<ele>844</ele>
<time>2017-03-29T18:52:46Z</time>
</trkpt>
<trkpt lat="38.0901437326243" lon="-1.4805796636140762">
<ele>850</ele>
<time>2017-03-29T18:52:50Z</time>
</trkpt>
<trkpt lat="38.090825091603875" lon="-1.4789805880279947">
<ele>892</ele>
<time>2017-03-29T18:53:28Z</time>
</trkpt>
<trkpt lat="38.09085539840442" lon="-1.4788433081880497">
<ele>894</ele>
<time>2017-03-29T18:53:30Z</time>
</trkpt>
<trkpt lat="38.09087074099945" lon="-1.4787175739161824">
<ele>896</ele>
<time>2017-03-29T18:53:32Z</time>
</trkpt>
<trkpt lat="38.09090121630308" lon="-1.47860994858718">
<ele>899</ele>
<time>2017-03-29T18:53:34Z</time>
</trkpt>
<trkpt lat="38.09092019634007" lon="-1.4785104390596826">
<ele>902</ele>
<time>2017-03-29T18:53:36Z</time>
</trkpt>
<trkpt lat="38.090923021870275" lon="-1.4783752124107734">
<ele>902</ele>
<time>2017-03-29T18:53:38Z</time>
</trkpt>
<trkpt lat="38.090949522352986" lon="-1.4782396306803123">
<ele>903</ele>
<time>2017-03-29T18:53:40Z</time>
</trkpt>
<trkpt lat="38.09098816055315" lon="-1.4781340300212469">
<ele>905</ele>
<time>2017-03-29T18:53:42Z</time>
</trkpt>
<trkpt lat="38.09102361362674" lon="-1.4780491728228364">
<ele>905</ele>
<time>2017-03-29T18:53:44Z</time>
</trkpt>
<trkpt lat="38.09106180605858" lon="-1.477942754549158">
<ele>905</ele>
<time>2017-03-29T18:53:46Z</time>
</trkpt>
<trkpt lat="38.091105551645946" lon="-1.4778070297602413">
<ele>906</ele>
<time>2017-03-29T18:53:48Z</time>
</trkpt>
<trkpt lat="38.09114344463401" lon="-1.4776896065241019">
<ele>907</ele>
<time>2017-03-29T18:53:50Z</time>
</trkpt>
<trkpt lat="38.091185351885784" lon="-1.4775676413477947">
<ele>907</ele>
<time>2017-03-29T18:53:52Z</time>
</trkpt>
<trkpt lat="38.09123280904143" lon="-1.4774482463119258">
<ele>907</ele>
<time>2017-03-29T18:53:54Z</time>
</trkpt>
<trkpt lat="38.091273914979816" lon="-1.4773363375171962">
<ele>909</ele>
<time>2017-03-29T18:53:56Z</time>
</trkpt>
<trkpt lat="38.09130262771871" lon="-1.4772335826614047">
<ele>910</ele>
<time>2017-03-29T18:53:58Z</time>
</trkpt>
<trkpt lat="38.091329906329584" lon="-1.4771380659157314">
<ele>911</ele>
<time>2017-03-29T18:54:00Z</time>
</trkpt>
<trkpt lat="38.09135030052906" lon="-1.4770260874446117">
<ele>912</ele>
<time>2017-03-29T18:54:02Z</time>
</trkpt>
<trkpt lat="38.091363461838874" lon="-1.4769409064203307">
<ele>912</ele>
<time>2017-03-29T18:54:04Z</time>
</trkpt>
<trkpt lat="38.09140832953207" lon="-1.476854024499596">
<ele>912</ele>
<time>2017-03-29T18:54:06Z</time>
</trkpt>
<trkpt lat="38.09145333058114" lon="-1.4767550467709956">
<ele>912</ele>
<time>2017-03-29T18:54:08Z</time>
</trkpt>
<trkpt lat="38.09147165295023" lon="-1.4766151196271802">
<ele>913</ele>
<time>2017-03-29T18:54:10Z</time>
</trkpt>
<trkpt lat="38.09150923040756" lon="-1.4765112006311838">
<ele>914</ele>
<time>2017-03-29T18:54:12Z</time>
</trkpt>
<trkpt lat="38.09154834911777" lon="-1.4764332619899732">
<ele>914</ele>
<time>2017-03-29T18:54:14Z</time>
</trkpt>
<trkpt lat="38.09158868491536" lon="-1.4763352593293155">
<ele>914</ele>
<time>2017-03-29T18:54:16Z</time>
</trkpt>
<trkpt lat="38.091636373078636" lon="-1.4762314593886339">
<ele>914</ele>
<time>2017-03-29T18:54:18Z</time>
</trkpt>
<trkpt lat="38.091675928806964" lon="-1.476129390176966">
<ele>915</ele>
<time>2017-03-29T18:54:20Z</time>
</trkpt>
<trkpt lat="38.09169065851535" lon="-1.4760158247873598">
<ele>916</ele>
<time>2017-03-29T18:54:22Z</time>
</trkpt>
<trkpt lat="38.091708645440775" lon="-1.4759431987042286">
<ele>916</ele>
<time>2017-03-29T18:54:24Z</time>
</trkpt>
<trkpt lat="38.09172151658027" lon="-1.475863985149425">
<ele>916</ele>
<time>2017-03-29T18:54:26Z</time>
</trkpt>
<trkpt lat="38.09172194442952" lon="-1.4757978578516393">
<ele>916</ele>
<time>2017-03-29T18:54:28Z</time>
</trkpt>
<trkpt lat="38.091718847774374" lon="-1.4757242331051958">
<ele>917</ele>
<time>2017-03-29T18:54:30Z</time>
</trkpt>
<trkpt lat="38.09171217787685" lon="-1.4756368609467905">
<ele>918</ele>
<time>2017-03-29T18:54:32Z</time>
</trkpt>
<trkpt lat="38.09170349611524" lon="-1.4755435388397669">
<ele>919</ele>
<time>2017-03-29T18:54:34Z</time>
</trkpt>
<trkpt lat="38.09169806337367" lon="-1.4754757647515164">
<ele>919</ele>
<time>2017-03-29T18:54:36Z</time>
</trkpt>
<trkpt lat="38.091696830036256" lon="-1.4754188392830394">
<ele>920</ele>
<time>2017-03-29T18:54:38Z</time>
</trkpt>
<trkpt lat="38.09173563725238" lon="-1.4753904434530678">
<ele>920</ele>
<time>2017-03-29T18:54:40Z</time>
</trkpt>
<trkpt lat="38.09175589701405" lon="-1.475336758594757">
<ele>921</ele>
<time>2017-03-29T18:54:42Z</time>
</trkpt>
<trkpt lat="38.09178520814211" lon="-1.4752531445501427">
<ele>923</ele>
<time>2017-03-29T18:54:44Z</time>
</trkpt>
<trkpt lat="38.09181347552181" lon="-1.4751708890188249">
<ele>925</ele>
<time>2017-03-29T18:54:46Z</time>
</trkpt>
<trkpt lat="38.09185535799785" lon="-1.4750627226120172">
<ele>926</ele>
<time>2017-03-29T18:54:48Z</time>
</trkpt>
<trkpt lat="38.09190917989791" lon="-1.4749582270223731">
<ele>927</ele>
<time>2017-03-29T18:54:50Z</time>
</trkpt>
<trkpt lat="38.091980609844285" lon="-1.4748418636543001">
<ele>928</ele>
<time>2017-03-29T18:54:52Z</time>
</trkpt>
<trkpt lat="38.092054827801356" lon="-1.474727757957144">
<ele>929</ele>
<time>2017-03-29T18:54:54Z</time>
</trkpt>
<trkpt lat="38.09212410637122" lon="-1.474622127271895">
<ele>931</ele>
<time>2017-03-29T18:54:56Z</time>
</trkpt>
<trkpt lat="38.09218425145454" lon="-1.4745218768346686">
<ele>932</ele>
<time>2017-03-29T18:54:58Z</time>
</trkpt>
<trkpt lat="38.092249153881035" lon="-1.4744114474919812">
<ele>933</ele>
<time>2017-03-29T18:55:00Z</time>
</trkpt>
<trkpt lat="38.092301751621065" lon="-1.4743045689445269">
<ele>934</ele>
<time>2017-03-29T18:55:02Z</time>
</trkpt>
<trkpt lat="38.09233575320313" lon="-1.4742128472313452">
<ele>934</ele>
<time>2017-03-29T18:55:04Z</time>
</trkpt>
<trkpt lat="38.092353771808" lon="-1.4741146486452101">
<ele>936</ele>
<time>2017-03-29T18:55:06Z</time>
</trkpt>
<trkpt lat="38.092373761191524" lon="-1.474000935792783">
<ele>938</ele>
<time>2017-03-29T18:55:08Z</time>
</trkpt>
<trkpt lat="38.09238847789078" lon="-1.4739094162580848">
<ele>938</ele>
<time>2017-03-29T18:55:10Z</time>
</trkpt>
<trkpt lat="38.09240526710927" lon="-1.473820154069101">
<ele>938</ele>
<time>2017-03-29T18:55:12Z</time>
</trkpt>
<trkpt lat="38.09243231723192" lon="-1.473745261206507">
<ele>939</ele>
<time>2017-03-29T18:55:14Z</time>
</trkpt>
<trkpt lat="38.09246594316582" lon="-1.4736873602703666">
<ele>939</ele>
<time>2017-03-29T18:55:16Z</time>
</trkpt>
<trkpt lat="38.092494120626945" lon="-1.4735890322736125">
<ele>943</ele>
<time>2017-03-29T18:55:18Z</time>
</trkpt>
<trkpt lat="38.09252321748871" lon="-1.473490446705709">
<ele>945</ele>
<time>2017-03-29T18:55:20Z</time>
</trkpt>
<trkpt lat="38.09255888002038" lon="-1.473392356878474">
<ele>947</ele>
<time>2017-03-29T18:55:22Z</time>
</trkpt>
<trkpt lat="38.09260006567125" lon="-1.4732992670702798">
<ele>948</ele>
<time>2017-03-29T18:55:24Z</time>
</trkpt>
<trkpt lat="38.09263588324761" lon="-1.4732199667959347">
<ele>949</ele>
<time>2017-03-29T18:55:26Z</time>
</trkpt>
<trkpt lat="38.09267971608483" lon="-1.473126374032568">
<ele>951</ele>
<time>2017-03-29T18:55:28Z</time>
</trkpt>
<trkpt lat="38.09273385393758" lon="-1.4730262497406663">
<ele>953</ele>
<time>2017-03-29T18:55:30Z</time>
</trkpt>
<trkpt lat="38.0927765075466" lon="-1.4729416367205483">
<ele>954</ele>
<time>2017-03-29T18:55:32Z</time>
</trkpt>
<trkpt lat="38.092823601903305" lon="-1.4728498757054955">
<ele>954</ele>
<time>2017-03-29T18:55:34Z</time>
</trkpt>
<trkpt lat="38.09288846662832" lon="-1.472736690511365">
<ele>954</ele>
<time>2017-03-29T18:55:36Z</time>
</trkpt>
<trkpt lat="38.09295100989969" lon="-1.472632348758811">
<ele>953</ele>
<time>2017-03-29T18:55:38Z</time>
</trkpt>
<trkpt lat="38.09301737053305" lon="-1.472532284977448">
<ele>954</ele>
<time>2017-03-29T18:55:40Z</time>
</trkpt>
<trkpt lat="38.09307888026755" lon="-1.4724414539802424">
<ele>954</ele>
<time>2017-03-29T18:55:42Z</time>
</trkpt>
<trkpt lat="38.09310454316385" lon="-1.472352007606382">
<ele>955</ele>
<time>2017-03-29T18:55:44Z</time>
</trkpt>
<trkpt lat="38.09311955633078" lon="-1.4722641688138212">
<ele>955</ele>
<time>2017-03-29T18:55:46Z</time>
</trkpt>
<trkpt lat="38.09314291438833" lon="-1.472158445979242">
<ele>957</ele>
<time>2017-03-29T18:55:48Z</time>
</trkpt>
<trkpt lat="38.093147858016685" lon="-1.4720491714722965">
<ele>958</ele>
<time>2017-03-29T18:55:50Z</time>
</trkpt>
<trkpt lat="38.09317499330691" lon="-1.4719382623225952">
<ele>960</ele>
<time>2017-03-29T18:55:52Z</time>
</trkpt>
<trkpt lat="38.09322238832276" lon="-1.4718483088111025">
<ele>963</ele>
<time>2017-03-29T18:55:54Z</time>
</trkpt>
<trkpt lat="38.09327734287226" lon="-1.471735061037561">
<ele>965</ele>
<time>2017-03-29T18:55:56Z</time>
</trkpt>
<trkpt lat="38.093342770157335" lon="-1.4715946942266893">
<ele>967</ele>
<time>2017-03-29T18:55:58Z</time>
</trkpt>
<trkpt lat="38.09338222427708" lon="-1.4715121068580346">
<ele>968</ele>
<time>2017-03-29T18:56:00Z</time>
</trkpt>
<trkpt lat="38.09341522700755" lon="-1.4714245621734452">
<ele>970</ele>
<time>2017-03-29T18:56:02Z</time>
</trkpt>
<trkpt lat="38.09345872124111" lon="-1.4713021213037185">
<ele>972</ele>
<time>2017-03-29T18:56:04Z</time>
</trkpt>
<trkpt lat="38.093501779187186" lon="-1.4711938557940538">
<ele>974</ele>
<time>2017-03-29T18:56:06Z</time>
</trkpt>
<trkpt lat="38.093547491304214" lon="-1.471089139209462">
<ele>977</ele>
<time>2017-03-29T18:56:08Z</time>
</trkpt>
<trkpt lat="38.093588004427566" lon="-1.4709665627116413">
<ele>979</ele>
<time>2017-03-29T18:56:10Z</time>
</trkpt>
<trkpt lat="38.09362146965622" lon="-1.47085783746339">
<ele>981</ele>
<time>2017-03-29T18:56:12Z</time>
</trkpt>
<trkpt lat="38.093653437691124" lon="-1.4707588507790992">
<ele>984</ele>
<time>2017-03-29T18:56:14Z</time>
</trkpt>
<trkpt lat="38.09368548472812" lon="-1.470634600460777">
<ele>985</ele>
<time>2017-03-29T18:56:16Z</time>
</trkpt>
<trkpt lat="38.0937175789146" lon="-1.470517369259541">
<ele>987</ele>
<time>2017-03-29T18:56:18Z</time>
</trkpt>
<trkpt lat="38.0937521927916" lon="-1.4704100454765083">
<ele>989</ele>
<time>2017-03-29T18:56:20Z</time>
</trkpt>
<trkpt lat="38.09378906502948" lon="-1.4702791619184885">
<ele>990</ele>
<time>2017-03-29T18:56:22Z</time>
</trkpt>
<trkpt lat="38.09382527961549" lon="-1.4701392456592532">
<ele>991</ele>
<time>2017-03-29T18:56:24Z</time>
</trkpt>
<trkpt lat="38.0938618617636" lon="-1.4700202116027827">
<ele>993</ele>
<time>2017-03-29T18:56:26Z</time>
</trkpt>
<trkpt lat="38.09390885399857" lon="-1.4698896498158025">
<ele>994</ele>
<time>2017-03-29T18:56:28Z</time>
</trkpt>
<trkpt lat="38.0939624406733" lon="-1.4697566463067144">
<ele>994</ele>
<time>2017-03-29T18:56:30Z</time>
</trkpt>
<trkpt lat="38.094011771099915" lon="-1.4696394909220667">
<ele>995</ele>
<time>2017-03-29T18:56:32Z</time>
</trkpt>
<trkpt lat="38.094057694128026" lon="-1.4695246851153838">
<ele>996</ele>
<time>2017-03-29T18:56:34Z</time>
</trkpt>
<trkpt lat="38.0941016062973" lon="-1.4694151304108363">
<ele>996</ele>
<time>2017-03-29T18:56:36Z</time>
</trkpt>
<trkpt lat="38.09413495731179" lon="-1.4693076145102189">
<ele>997</ele>
<time>2017-03-29T18:56:38Z</time>
</trkpt>
<trkpt lat="38.09416106778982" lon="-1.469192422894434">
<ele>998</ele>
<time>2017-03-29T18:56:40Z</time>
</trkpt>
<trkpt lat="38.094175801229504" lon="-1.4690945557897785">
<ele>998</ele>
<time>2017-03-29T18:56:42Z</time>
</trkpt>
<trkpt lat="38.09418493480184" lon="-1.4690147123391972">
<ele>998</ele>
<time>2017-03-29T18:56:44Z</time>
</trkpt>
<trkpt lat="38.09420646739521" lon="-1.468914389998382">
<ele>998</ele>
<time>2017-03-29T18:56:46Z</time>
</trkpt>
<trkpt lat="38.09423891770209" lon="-1.4688154421203443">
<ele>999</ele>
<time>2017-03-29T18:56:48Z</time>
</trkpt>
<trkpt lat="38.094274535784656" lon="-1.46873367481777">
<ele>999</ele>
<time>2017-03-29T18:56:50Z</time>
</trkpt>
<trkpt lat="38.09431581146638" lon="-1.468637254306197">
<ele>998</ele>
<time>2017-03-29T18:56:52Z</time>
</trkpt>
<trkpt lat="38.09436062130031" lon="-1.4685364432868024">
<ele>998</ele>
<time>2017-03-29T18:56:54Z</time>
</trkpt>
<trkpt lat="38.09441260723606" lon="-1.4684359690457436">
<ele>998</ele>
<time>2017-03-29T18:56:56Z</time>
</trkpt>
<trkpt lat="38.09446280348601" lon="-1.4683271878229982">
<ele>998</ele>
<time>2017-03-29T18:56:58Z</time>
</trkpt>
<trkpt lat="38.094494274330174" lon="-1.4682250422270557">
<ele>997</ele>
<time>2017-03-29T18:57:00Z</time>
</trkpt>
<trkpt lat="38.09452415546885" lon="-1.468128097244606">
<ele>997</ele>
<time>2017-03-29T18:57:02Z</time>
</trkpt>
<trkpt lat="38.09455862143002" lon="-1.4680252992971115">
<ele>997</ele>
<time>2017-03-29T18:57:04Z</time>
</trkpt>
<trkpt lat="38.094588041352715" lon="-1.4679201241410282">
<ele>996</ele>
<time>2017-03-29T18:57:06Z</time>
</trkpt>
<trkpt lat="38.094617474148244" lon="-1.467815183256121">
<ele>996</ele>
<time>2017-03-29T18:57:08Z</time>
</trkpt>
<trkpt lat="38.094658852432666" lon="-1.4677018379835591">
<ele>996</ele>
<time>2017-03-29T18:57:10Z</time>
</trkpt>
<trkpt lat="38.09470276105486" lon="-1.4675885646297187">
<ele>996</ele>
<time>2017-03-29T18:57:12Z</time>
</trkpt>
<trkpt lat="38.09474586230732" lon="-1.4674918805121338">
<ele>997</ele>
<time>2017-03-29T18:57:14Z</time>
</trkpt>
<trkpt lat="38.09479355094603" lon="-1.4673905505134528">
<ele>998</ele>
<time>2017-03-29T18:57:16Z</time>
</trkpt>
<trkpt lat="38.094844407011756" lon="-1.4672775255458879">
<ele>999</ele>
<time>2017-03-29T18:57:18Z</time>
</trkpt>
<trkpt lat="38.094892675156224" lon="-1.4671669621220358">
<ele>1000</ele>
<time>2017-03-29T18:57:20Z</time>
</trkpt>
<trkpt lat="38.09493691700749" lon="-1.467054933490808">
<ele>1001</ele>
<time>2017-03-29T18:57:22Z</time>
</trkpt>
<trkpt lat="38.0949831048097" lon="-1.4669479987681797">
<ele>1002</ele>
<time>2017-03-29T18:57:24Z</time>
</trkpt>
<trkpt lat="38.09502758171786" lon="-1.4668534686988963">
<ele>1004</ele>
<time>2017-03-29T18:57:26Z</time>
</trkpt>
<trkpt lat="38.0950653582347" lon="-1.466762665914263">
<ele>1006</ele>
<time>2017-03-29T18:57:28Z</time>
</trkpt>
<trkpt lat="38.09511000508833" lon="-1.4666743160501545">
<ele>1006</ele>
<time>2017-03-29T18:57:30Z</time>
</trkpt>
<trkpt lat="38.09515952511259" lon="-1.466579052469245">
<ele>1006</ele>
<time>2017-03-29T18:57:32Z</time>
</trkpt>
<trkpt lat="38.095202733833744" lon="-1.4664908278565592">
<ele>1006</ele>
<time>2017-03-29T18:57:34Z</time>
</trkpt>
<trkpt lat="38.09524708816952" lon="-1.4663945609932716">
<ele>1006</ele>
<time>2017-03-29T18:57:36Z</time>
</trkpt>
<trkpt lat="38.095286461678555" lon="-1.4662917127578974">
<ele>1006</ele>
<time>2017-03-29T18:57:38Z</time>
</trkpt>
<trkpt lat="38.09531657681249" lon="-1.4662032268306662">
<ele>1006</ele>
<time>2017-03-29T18:57:40Z</time>
</trkpt>
<trkpt lat="38.09534632677599" lon="-1.4660991151622822">
<ele>1005</ele>
<time>2017-03-29T18:57:42Z</time>
</trkpt>
<trkpt lat="38.09538055696042" lon="-1.4659735664455058">
<ele>1004</ele>
<time>2017-03-29T18:57:44Z</time>
</trkpt>
<trkpt lat="38.09540543038837" lon="-1.465862017946975">
<ele>1004</ele>
<time>2017-03-29T18:57:46Z</time>
</trkpt>
<trkpt lat="38.095435625168385" lon="-1.4657452681521486">
<ele>1005</ele>
<time>2017-03-29T18:57:48Z</time>
</trkpt>
<trkpt lat="38.0954806321617" lon="-1.4656195506147713">
<ele>1005</ele>
<time>2017-03-29T18:57:50Z</time>
</trkpt>
<trkpt lat="38.09552978350804" lon="-1.4655104313925114">
<ele>1006</ele>
<time>2017-03-29T18:57:52Z</time>
</trkpt>
<trkpt lat="38.0955708624176" lon="-1.4654204737229621">
<ele>1007</ele>
<time>2017-03-29T18:57:54Z</time>
</trkpt>
<trkpt lat="38.09561621848314" lon="-1.4653185733320087">
<ele>1006</ele>
<time>2017-03-29T18:57:56Z</time>
</trkpt>
<trkpt lat="38.09565986769068" lon="-1.4652118087276484">
<ele>1005</ele>
<time>2017-03-29T18:57:58Z</time>
</trkpt>
<trkpt lat="38.09570638401374" lon="-1.4650986234730128">
<ele>1005</ele>
<time>2017-03-29T18:58:00Z</time>
</trkpt>
<trkpt lat="38.09575814183807" lon="-1.464962776895399">
<ele>1004</ele>
<time>2017-03-29T18:58:02Z</time>
</trkpt>
<trkpt lat="38.09580111885805" lon="-1.4648402040731736">
<ele>1004</ele>
<time>2017-03-29T18:58:04Z</time>
</trkpt>
<trkpt lat="38.09583684383308" lon="-1.464729043685269">
<ele>1004</ele>
<time>2017-03-29T18:58:06Z</time>
</trkpt>
<trkpt lat="38.095871758806894" lon="-1.4646110921916822">
<ele>1005</ele>
<time>2017-03-29T18:58:08Z</time>
</trkpt>
<trkpt lat="38.09590507652137" lon="-1.4644898514310696">
<ele>1005</ele>
<time>2017-03-29T18:58:10Z</time>
</trkpt>
<trkpt lat="38.09594205234138" lon="-1.4643666165891365">
<ele>1006</ele>
<time>2017-03-29T18:58:12Z</time>
</trkpt>
<trkpt lat="38.09598249176791" lon="-1.4642454515313812">
<ele>1007</ele>
<time>2017-03-29T18:58:14Z</time>
</trkpt>
<trkpt lat="38.096024436474686" lon="-1.4641326976431694">
<ele>1008</ele>
<time>2017-03-29T18:58:16Z</time>
</trkpt>
<trkpt lat="38.09607369348771" lon="-1.4640176709766275">
<ele>1009</ele>
<time>2017-03-29T18:58:18Z</time>
</trkpt>
<trkpt lat="38.09612759315103" lon="-1.4639016046754163">
<ele>1009</ele>
<time>2017-03-29T18:58:20Z</time>
</trkpt>
<trkpt lat="38.09618172923421" lon="-1.4637838948086845">
<ele>1009</ele>
<time>2017-03-29T18:58:22Z</time>
</trkpt>
<trkpt lat="38.09624222034329" lon="-1.4636625867480813">
<ele>1010</ele>
<time>2017-03-29T18:58:24Z</time>
</trkpt>
<trkpt lat="38.09630195640921" lon="-1.4635471455412832">
<ele>1010</ele>
<time>2017-03-29T18:58:26Z</time>
</trkpt>
<trkpt lat="38.09634580208424" lon="-1.4634368244877984">
<ele>1010</ele>
<time>2017-03-29T18:58:28Z</time>
</trkpt>
<trkpt lat="38.09637555453421" lon="-1.4633195208439511">
<ele>1010</ele>
<time>2017-03-29T18:58:30Z</time>
</trkpt>
<trkpt lat="38.09641018078731" lon="-1.463199593442502">
<ele>1010</ele>
<time>2017-03-29T18:58:32Z</time>
</trkpt>
<trkpt lat="38.09645996517511" lon="-1.4630746110810988">
<ele>1010</ele>
<time>2017-03-29T18:58:34Z</time>
</trkpt>
<trkpt lat="38.09651074707659" lon="-1.462945787108643">
<ele>1010</ele>
<time>2017-03-29T18:58:36Z</time>
</trkpt>
<trkpt lat="38.09655645264165" lon="-1.4628158947776624">
<ele>1010</ele>
<time>2017-03-29T18:58:38Z</time>
</trkpt>
<trkpt lat="38.09659991264326" lon="-1.4626824012906838">
<ele>1010</ele>
<time>2017-03-29T18:58:40Z</time>
</trkpt>
<trkpt lat="38.09664288227612" lon="-1.4625359766662256">
<ele>1009</ele>
<time>2017-03-29T18:58:41Z</time>
</trkpt>
<trkpt lat="38.09668637431128" lon="-1.4623842496699742">
<ele>1008</ele>
<time>2017-03-29T18:58:43Z</time>
</trkpt>
<trkpt lat="38.09673191434035" lon="-1.4622553962205498">
<ele>1008</ele>
<time>2017-03-29T18:58:45Z</time>
</trkpt>
<trkpt lat="38.09676968006628" lon="-1.4621516931747096">
<ele>1008</ele>
<time>2017-03-29T18:58:47Z</time>
</trkpt>
<trkpt lat="38.096810298163156" lon="-1.462036605515263">
<ele>1008</ele>
<time>2017-03-29T18:58:49Z</time>
</trkpt>
<trkpt lat="38.09684977079668" lon="-1.4619240284348005">
<ele>1009</ele>
<time>2017-03-29T18:58:51Z</time>
</trkpt>
<trkpt lat="38.09688349599084" lon="-1.4618355220344752">
<ele>1009</ele>
<time>2017-03-29T18:58:53Z</time>
</trkpt>
<trkpt lat="38.09691510756709" lon="-1.4617277235694868">
<ele>1010</ele>
<time>2017-03-29T18:58:55Z</time>
</trkpt>
<trkpt lat="38.096953110931736" lon="-1.4615988631460908">
<ele>1010</ele>
<time>2017-03-29T18:58:57Z</time>
</trkpt>
<trkpt lat="38.09699848094681" lon="-1.4614706176306362">
<ele>1010</ele>
<time>2017-03-29T18:58:59Z</time>
</trkpt>
<trkpt lat="38.09703782588155" lon="-1.461353173098566">
<ele>1010</ele>
<time>2017-03-29T18:59:01Z</time>
</trkpt>
<trkpt lat="38.097073316800824" lon="-1.4612364773097346">
<ele>1011</ele>
<time>2017-03-29T18:59:03Z</time>
</trkpt>
<trkpt lat="38.09711336414791" lon="-1.461114841122733">
<ele>1011</ele>
<time>2017-03-29T18:59:05Z</time>
</trkpt>
<trkpt lat="38.09715598072648" lon="-1.4609906099305576">
<ele>1012</ele>
<time>2017-03-29T18:59:07Z</time>
</trkpt>
<trkpt lat="38.09720594915765" lon="-1.4608638344970557">
<ele>1012</ele>
<time>2017-03-29T18:59:09Z</time>
</trkpt>
<trkpt lat="38.09726131037157" lon="-1.4607398775461131">
<ele>1012</ele>
<time>2017-03-29T18:59:11Z</time>
</trkpt>
<trkpt lat="38.09731401288205" lon="-1.4606187695417034">
<ele>1011</ele>
<time>2017-03-29T18:59:13Z</time>
</trkpt>
<trkpt lat="38.09737491019596" lon="-1.4605007029353057">
<ele>1010</ele>
<time>2017-03-29T18:59:15Z</time>
</trkpt>
<trkpt lat="38.09744560615056" lon="-1.460381901536475">
<ele>1009</ele>
<time>2017-03-29T18:59:17Z</time>
</trkpt>
<trkpt lat="38.0975113040674" lon="-1.460262071462351">
<ele>1008</ele>
<time>2017-03-29T18:59:19Z</time>
</trkpt>
<trkpt lat="38.097569058008105" lon="-1.4601477782609429">
<ele>1007</ele>
<time>2017-03-29T18:59:21Z</time>
</trkpt>
<trkpt lat="38.09762486274077" lon="-1.460030116405707">
<ele>1006</ele>
<time>2017-03-29T18:59:23Z</time>
</trkpt>
<trkpt lat="38.097689371262625" lon="-1.4599155816963991">
<ele>1005</ele>
<time>2017-03-29T18:59:25Z</time>
</trkpt>
<trkpt lat="38.097758234002185" lon="-1.4597907065742073">
<ele>1003</ele>
<time>2017-03-29T18:59:27Z</time>
</trkpt>
<trkpt lat="38.09783126672687" lon="-1.459665217803947">
<ele>1002</ele>
<time>2017-03-29T18:59:29Z</time>
</trkpt>
<trkpt lat="38.09791178241692" lon="-1.4595405374787167">
<ele>1001</ele>
<time>2017-03-29T18:59:31Z</time>
</trkpt>
<trkpt lat="38.097990301202074" lon="-1.45941272148022">
<ele>1000</ele>
<time>2017-03-29T18:59:33Z</time>
</trkpt>
<trkpt lat="38.09807087765523" lon="-1.4592769487522006">
<ele>1000</ele>
<time>2017-03-29T18:59:35Z</time>
</trkpt>
<trkpt lat="38.09814958166349" lon="-1.459152572795217">
<ele>999</ele>
<time>2017-03-29T18:59:37Z</time>
</trkpt>
<trkpt lat="38.09821509545137" lon="-1.459038393460683">
<ele>999</ele>
<time>2017-03-29T18:59:39Z</time>
</trkpt>
<trkpt lat="38.09827853023151" lon="-1.458912069275905">
<ele>999</ele>
<time>2017-03-29T18:59:41Z</time>
</trkpt>
<trkpt lat="38.098335098996515" lon="-1.458779876920923">
<ele>998</ele>
<time>2017-03-29T18:59:43Z</time>
</trkpt>
<trkpt lat="38.098382689701424" lon="-1.458676123945872">
<ele>997</ele>
<time>2017-03-29T18:59:45Z</time>
</trkpt>
<trkpt lat="38.09843784323582" lon="-1.4585598464269502">
<ele>996</ele>
<time>2017-03-29T18:59:47Z</time>
</trkpt>
<trkpt lat="38.098499304028884" lon="-1.4584179174269758">
<ele>995</ele>
<time>2017-03-29T18:59:49Z</time>
</trkpt>
<trkpt lat="38.09855255243735" lon="-1.4582971495863364">
<ele>995</ele>
<time>2017-03-29T18:59:51Z</time>
</trkpt>
<trkpt lat="38.09860899910831" lon="-1.4581850979968147">
<ele>995</ele>
<time>2017-03-29T18:59:53Z</time>
</trkpt>
<trkpt lat="38.098670304051446" lon="-1.4580594277272807">
<ele>995</ele>
<time>2017-03-29T18:59:55Z</time>
</trkpt>
<trkpt lat="38.09872244929782" lon="-1.4579603021508833">
<ele>995</ele>
<time>2017-03-29T18:59:57Z</time>
</trkpt>
<trkpt lat="38.09877257698103" lon="-1.4578661706310603">
<ele>995</ele>
<time>2017-03-29T18:59:59Z</time>
</trkpt>
<trkpt lat="38.09882909173752" lon="-1.4577440221863933">
<ele>994</ele>
<time>2017-03-29T19:00:01Z</time>
</trkpt>
<trkpt lat="38.09889082792897" lon="-1.4576230455999004">
<ele>994</ele>
<time>2017-03-29T19:00:03Z</time>
</trkpt>
<trkpt lat="38.09894316287221" lon="-1.4575231472782855">
<ele>993</ele>
<time>2017-03-29T19:00:05Z</time>
</trkpt>
<trkpt lat="38.0989960692704" lon="-1.4574068611380842">
<ele>991</ele>
<time>2017-03-29T19:00:07Z</time>
</trkpt>
<trkpt lat="38.09904733781517" lon="-1.4572933580698175">
<ele>990</ele>
<time>2017-03-29T19:00:09Z</time>
</trkpt>
<trkpt lat="38.09910212297597" lon="-1.4571814750012748">
<ele>989</ele>
<time>2017-03-29T19:00:11Z</time>
</trkpt>
<trkpt lat="38.09916376802957" lon="-1.4570517026324201">
<ele>987</ele>
<time>2017-03-29T19:00:13Z</time>
</trkpt>
<trkpt lat="38.099212355646806" lon="-1.4569351548436336">
<ele>986</ele>
<time>2017-03-29T19:00:15Z</time>
</trkpt>
<trkpt lat="38.099257221634865" lon="-1.4568662882189487">
<ele>986</ele>
<time>2017-03-29T19:00:17Z</time>
</trkpt>
<trkpt lat="38.099304673055016" lon="-1.4567886752456187">
<ele>985</ele>
<time>2017-03-29T19:00:19Z</time>
</trkpt>
<trkpt lat="38.09935095509901" lon="-1.4566841216648245">
<ele>984</ele>
<time>2017-03-29T19:00:21Z</time>
</trkpt>
<trkpt lat="38.09939982187365" lon="-1.456595159551043">
<ele>983</ele>
<time>2017-03-29T19:00:23Z</time>
</trkpt>
<trkpt lat="38.09945436427177" lon="-1.4564987986620914">
<ele>983</ele>
<time>2017-03-29T19:00:25Z</time>
</trkpt>
<trkpt lat="38.09949989128451" lon="-1.456398560730959">
<ele>982</ele>
<time>2017-03-29T19:00:27Z</time>
</trkpt>
<trkpt lat="38.09954717204415" lon="-1.4563218339945436">
<ele>982</ele>
<time>2017-03-29T19:00:29Z</time>
</trkpt>
<trkpt lat="38.09960751822908" lon="-1.4562216858835009">
<ele>981</ele>
<time>2017-03-29T19:00:31Z</time>
</trkpt>
<trkpt lat="38.09966874122539" lon="-1.456097811576338">
<ele>981</ele>
<time>2017-03-29T19:00:33Z</time>
</trkpt>
<trkpt lat="38.09972991275531" lon="-1.4559925064307409">
<ele>981</ele>
<time>2017-03-29T19:00:35Z</time>
</trkpt>
<trkpt lat="38.0997966590486" lon="-1.4559052638361656">
<ele>981</ele>
<time>2017-03-29T19:00:37Z</time>
</trkpt>
<trkpt lat="38.09986224934529" lon="-1.4558077777738023">
<ele>981</ele>
<time>2017-03-29T19:00:39Z</time>
</trkpt>
<trkpt lat="38.0999200437262" lon="-1.4557107418793171">
<ele>980</ele>
<time>2017-03-29T19:00:41Z</time>
</trkpt>
<trkpt lat="38.09997403787044" lon="-1.455622815018607">
<ele>980</ele>
<time>2017-03-29T19:00:43Z</time>
</trkpt>
<trkpt lat="38.1000228865145" lon="-1.4555178835432245">
<ele>978</ele>
<time>2017-03-29T19:00:45Z</time>
</trkpt>
<trkpt lat="38.10006439831342" lon="-1.4554096754896833">
<ele>976</ele>
<time>2017-03-29T19:00:47Z</time>
</trkpt>
<trkpt lat="38.10010760586229" lon="-1.4553048027971922">
<ele>975</ele>
<time>2017-03-29T19:00:49Z</time>
</trkpt>
<trkpt lat="38.10015469251968" lon="-1.4552064019293593">
<ele>973</ele>
<time>2017-03-29T19:00:51Z</time>
</trkpt>
<trkpt lat="38.10020060271096" lon="-1.4550874768387874">
<ele>970</ele>
<time>2017-03-29T19:00:53Z</time>
</trkpt>
<trkpt lat="38.100246861718915" lon="-1.4549883402740242">
<ele>969</ele>
<time>2017-03-29T19:00:55Z</time>
</trkpt>
<trkpt lat="38.100297741368315" lon="-1.4549152913801102">
<ele>968</ele>
<time>2017-03-29T19:00:57Z</time>
</trkpt>
<trkpt lat="38.10035500864192" lon="-1.4547945945730143">
<ele>965</ele>
<time>2017-03-29T19:00:59Z</time>
</trkpt>
<trkpt lat="38.10040235394171" lon="-1.4546631782136967">
<ele>962</ele>
<time>2017-03-29T19:01:01Z</time>
</trkpt>
<trkpt lat="38.10045273781386" lon="-1.4545483994379402">
<ele>960</ele>
<time>2017-03-29T19:01:03Z</time>
</trkpt>
<trkpt lat="38.10051573023041" lon="-1.4544219736813195">
<ele>959</ele>
<time>2017-03-29T19:01:05Z</time>
</trkpt>
<trkpt lat="38.10058450562399" lon="-1.4542860813802985">
<ele>959</ele>
<time>2017-03-29T19:01:07Z</time>
</trkpt>
<trkpt lat="38.10065058760176" lon="-1.4541723537657325">
<ele>960</ele>
<time>2017-03-29T19:01:09Z</time>
</trkpt>
<trkpt lat="38.10072429998106" lon="-1.454040381599112">
<ele>960</ele>
<time>2017-03-29T19:01:11Z</time>
</trkpt>
<trkpt lat="38.10079511250472" lon="-1.4539016582269546">
<ele>960</ele>
<time>2017-03-29T19:01:13Z</time>
</trkpt>
<trkpt lat="38.10086337167649" lon="-1.4537637371306744">
<ele>961</ele>
<time>2017-03-29T19:01:15Z</time>
</trkpt>
<trkpt lat="38.100896173655684" lon="-1.4536688837326888">
<ele>962</ele>
<time>2017-03-29T19:01:17Z</time>
</trkpt>
<trkpt lat="38.10092795289302" lon="-1.4535568510302517">
<ele>963</ele>
<time>2017-03-29T19:01:19Z</time>
</trkpt>
<trkpt lat="38.10096305493367" lon="-1.4534261847283436">
<ele>963</ele>
<time>2017-03-29T19:01:21Z</time>
</trkpt>
<trkpt lat="38.10098953693642" lon="-1.453309582173687">
<ele>963</ele>
<time>2017-03-29T19:01:23Z</time>
</trkpt>
<trkpt lat="38.10101964754128" lon="-1.4531883924955888">
<ele>963</ele>
<time>2017-03-29T19:01:25Z</time>
</trkpt>
<trkpt lat="38.101061030620215" lon="-1.4530650361324937">
<ele>963</ele>
<time>2017-03-29T19:01:27Z</time>
</trkpt>
<trkpt lat="38.10111409103811" lon="-1.452941224801585">
<ele>962</ele>
<time>2017-03-29T19:01:29Z</time>
</trkpt>
<trkpt lat="38.101168504739796" lon="-1.4528037533606868">
<ele>962</ele>
<time>2017-03-29T19:01:31Z</time>
</trkpt>
<trkpt lat="38.101222596064176" lon="-1.4526686964100073">
<ele>961</ele>
<time>2017-03-29T19:01:33Z</time>
</trkpt>
<trkpt lat="38.1012854302272" lon="-1.4525495430985713">
<ele>961</ele>
<time>2017-03-29T19:01:35Z</time>
</trkpt>
<trkpt lat="38.101354512109" lon="-1.4524183401025088">
<ele>961</ele>
<time>2017-03-29T19:01:37Z</time>
</trkpt>
<trkpt lat="38.10142485173797" lon="-1.4522657309105966">
<ele>961</ele>
<time>2017-03-29T19:01:39Z</time>
</trkpt>
<trkpt lat="38.101500009867856" lon="-1.452107093066305">
<ele>961</ele>
<time>2017-03-29T19:01:41Z</time>
</trkpt>
<trkpt lat="38.10158156777442" lon="-1.4519673542382232">
<ele>962</ele>
<time>2017-03-29T19:01:43Z</time>
</trkpt>
<trkpt lat="38.10165955525009" lon="-1.4518596842439555">
<ele>962</ele>
<time>2017-03-29T19:01:45Z</time>
</trkpt>
<trkpt lat="38.101715338183496" lon="-1.451747589782595">
<ele>962</ele>
<time>2017-03-29T19:01:47Z</time>
</trkpt>
<trkpt lat="38.10175238975014" lon="-1.4516190279691459">
<ele>961</ele>
<time>2017-03-29T19:01:49Z</time>
</trkpt>
<trkpt lat="38.101798247319344" lon="-1.4515137566235985">
<ele>961</ele>
<time>2017-03-29T19:01:51Z</time>
</trkpt>
<trkpt lat="38.10185280737802" lon="-1.4514047546129036">
<ele>960</ele>
<time>2017-03-29T19:01:53Z</time>
</trkpt>
<trkpt lat="38.101907524614134" lon="-1.4512710483514193">
<ele>959</ele>
<time>2017-03-29T19:01:55Z</time>
</trkpt>
<trkpt lat="38.101967771849296" lon="-1.451126859594673">
<ele>958</ele>
<time>2017-03-29T19:01:57Z</time>
</trkpt>
<trkpt lat="38.102026004627554" lon="-1.4510020043937861">
<ele>958</ele>
<time>2017-03-29T19:01:59Z</time>
</trkpt>
<trkpt lat="38.10208832420109" lon="-1.4508741752831915">
<ele>958</ele>
<time>2017-03-29T19:02:01Z</time>
</trkpt>
<trkpt lat="38.10214817244853" lon="-1.4507288568798518">
<ele>958</ele>
<time>2017-03-29T19:02:03Z</time>
</trkpt>
<trkpt lat="38.102207021098" lon="-1.4506130227853218">
<ele>958</ele>
<time>2017-03-29T19:02:05Z</time>
</trkpt>
<trkpt lat="38.102279793885614" lon="-1.4505099121178378">
<ele>959</ele>
<time>2017-03-29T19:02:07Z</time>
</trkpt>
<trkpt lat="38.10236691716213" lon="-1.4503931815462727">
<ele>959</ele>
<time>2017-03-29T19:02:09Z</time>
</trkpt>
<trkpt lat="38.10245086485044" lon="-1.4502926958280025">
<ele>959</ele>
<time>2017-03-29T19:02:11Z</time>
</trkpt>
<trkpt lat="38.10251798654935" lon="-1.4502080715584373">
<ele>959</ele>
<time>2017-03-29T19:02:13Z</time>
</trkpt>
<trkpt lat="38.10257819303469" lon="-1.450110289585767">
<ele>959</ele>
<time>2017-03-29T19:02:15Z</time>
</trkpt>
<trkpt lat="38.10263350959456" lon="-1.4500143565301085">
<ele>959</ele>
<time>2017-03-29T19:02:17Z</time>
</trkpt>
<trkpt lat="38.10269014587762" lon="-1.4499183009830354">
<ele>959</ele>
<time>2017-03-29T19:02:19Z</time>
</trkpt>
<trkpt lat="38.10274623592658" lon="-1.449815646359585">
<ele>959</ele>
<time>2017-03-29T19:02:21Z</time>
</trkpt>
<trkpt lat="38.10276932562901" lon="-1.4497165670965981">
<ele>960</ele>
<time>2017-03-29T19:02:23Z</time>
</trkpt>
<trkpt lat="38.10280031843371" lon="-1.4496135589674595">
<ele>960</ele>
<time>2017-03-29T19:02:25Z</time>
</trkpt>
<trkpt lat="38.10283752446002" lon="-1.4495089849264318">
<ele>960</ele>
<time>2017-03-29T19:02:27Z</time>
</trkpt>
<trkpt lat="38.10288421129713" lon="-1.449404265058559">
<ele>960</ele>
<time>2017-03-29T19:02:29Z</time>
</trkpt>
<trkpt lat="38.102931944855584" lon="-1.4493011025517077">
<ele>960</ele>
<time>2017-03-29T19:02:31Z</time>
</trkpt>
<trkpt lat="38.10297877145998" lon="-1.4491923946986405">
<ele>960</ele>
<time>2017-03-29T19:02:33Z</time>
</trkpt>
<trkpt lat="38.103035779252664" lon="-1.4490577806665528">
<ele>960</ele>
<time>2017-03-29T19:02:35Z</time>
</trkpt>
<trkpt lat="38.103088777165844" lon="-1.4489531499586499">
<ele>961</ele>
<time>2017-03-29T19:02:37Z</time>
</trkpt>
<trkpt lat="38.10314770440103" lon="-1.448857323962952">
<ele>962</ele>
<time>2017-03-29T19:02:39Z</time>
</trkpt>
<trkpt lat="38.103221561230235" lon="-1.44875329826839">
<ele>963</ele>
<time>2017-03-29T19:02:41Z</time>
</trkpt>
<trkpt lat="38.10330686010037" lon="-1.4486448480624956">
<ele>963</ele>
<time>2017-03-29T19:02:43Z</time>
</trkpt>
<trkpt lat="38.10339097937602" lon="-1.4485187522533471">
<ele>963</ele>
<time>2017-03-29T19:02:45Z</time>
</trkpt>
<trkpt lat="38.103466750475725" lon="-1.448390602991653">
<ele>964</ele>
<time>2017-03-29T19:02:47Z</time>
</trkpt>
<trkpt lat="38.10352982082715" lon="-1.4482848919932143">
<ele>964</ele>
<time>2017-03-29T19:02:49Z</time>
</trkpt>
<trkpt lat="38.103581870452025" lon="-1.448160190876079">
<ele>963</ele>
<time>2017-03-29T19:02:51Z</time>
</trkpt>
<trkpt lat="38.10362728832027" lon="-1.4480321551801913">
<ele>962</ele>
<time>2017-03-29T19:02:53Z</time>
</trkpt>
<trkpt lat="38.10367757051689" lon="-1.447945130475715">
<ele>963</ele>
<time>2017-03-29T19:02:55Z</time>
</trkpt>
<trkpt lat="38.10372390804203" lon="-1.4478589841492475">
<ele>963</ele>
<time>2017-03-29T19:02:57Z</time>
</trkpt>
<trkpt lat="38.10376801368242" lon="-1.447747293306267">
<ele>963</ele>
<time>2017-03-29T19:02:59Z</time>
</trkpt>
<trkpt lat="38.10380948100584" lon="-1.4476441830382627">
<ele>963</ele>
<time>2017-03-29T19:03:01Z</time>
</trkpt>
<trkpt lat="38.10384303517924" lon="-1.4475684665740143">
<ele>962</ele>
<time>2017-03-29T19:03:03Z</time>
</trkpt>
<trkpt lat="38.10388081471833" lon="-1.4474707869947117">
<ele>961</ele>
<time>2017-03-29T19:03:05Z</time>
</trkpt>
<trkpt lat="38.10392830818318" lon="-1.4473533284301285">
<ele>960</ele>
<time>2017-03-29T19:03:07Z</time>
</trkpt>
<trkpt lat="38.10398626706449" lon="-1.4472408700977213">
<ele>959</ele>
<time>2017-03-29T19:03:09Z</time>
</trkpt>
<trkpt lat="38.10403771186688" lon="-1.44713469843207">
<ele>958</ele>
<time>2017-03-29T19:03:11Z</time>
</trkpt>
<trkpt lat="38.104089740430645" lon="-1.4470333055824405">
<ele>957</ele>
<time>2017-03-29T19:03:13Z</time>
</trkpt>
<trkpt lat="38.10415024471636" lon="-1.4469411499282345">
<ele>957</ele>
<time>2017-03-29T19:03:15Z</time>
</trkpt>
<trkpt lat="38.104211139841674" lon="-1.4468351715941918">
<ele>957</ele>
<time>2017-03-29T19:03:17Z</time>
</trkpt>
<trkpt lat="38.10426965191408" lon="-1.4467191733897258">
<ele>956</ele>
<time>2017-03-29T19:03:19Z</time>
</trkpt>
<trkpt lat="38.104323718154134" lon="-1.4466160226536837">
<ele>956</ele>
<time>2017-03-29T19:03:21Z</time>
</trkpt>
<trkpt lat="38.104397352669686" lon="-1.4464963987084671">
<ele>956</ele>
<time>2017-03-29T19:03:23Z</time>
</trkpt>
<trkpt lat="38.104485501157875" lon="-1.4463697199048746">
<ele>956</ele>
<time>2017-03-29T19:03:25Z</time>
</trkpt>
<trkpt lat="38.10457728145487" lon="-1.4462473805455782">
<ele>957</ele>
<time>2017-03-29T19:03:27Z</time>
</trkpt>
<trkpt lat="38.10466685828748" lon="-1.4461267340047887">
<ele>958</ele>
<time>2017-03-29T19:03:29Z</time>
</trkpt>
<trkpt lat="38.104756947112485" lon="-1.446004040004001">
<ele>959</ele>
<time>2017-03-29T19:03:31Z</time>
</trkpt>
<trkpt lat="38.10484410298215" lon="-1.4458832114355136">
<ele>959</ele>
<time>2017-03-29T19:03:33Z</time>
</trkpt>
<trkpt lat="38.10490738061834" lon="-1.4457564761151598">
<ele>959</ele>
<time>2017-03-29T19:03:35Z</time>
</trkpt>
<trkpt lat="38.10495028651754" lon="-1.4456317298028363">
<ele>960</ele>
<time>2017-03-29T19:03:37Z</time>
</trkpt>
<trkpt lat="38.104969522050034" lon="-1.445522303846031">
<ele>961</ele>
<time>2017-03-29T19:03:39Z</time>
</trkpt>
<trkpt lat="38.104958373205484" lon="-1.4454203996224972">
<ele>961</ele>
<time>2017-03-29T19:03:41Z</time>
</trkpt>
<trkpt lat="38.1049345083138" lon="-1.4453636839117086">
<ele>962</ele>
<time>2017-03-29T19:03:43Z</time>
</trkpt>
<trkpt lat="38.104886550648395" lon="-1.445345544826147">
<ele>962</ele>
<time>2017-03-29T19:03:45Z</time>
</trkpt>
<trkpt lat="38.10483134217238" lon="-1.4453724734782043">
<ele>962</ele>
<time>2017-03-29T19:03:47Z</time>
</trkpt>
<trkpt lat="38.10477002204601" lon="-1.4454350337254696">
<ele>963</ele>
<time>2017-03-29T19:03:49Z</time>
</trkpt>
<trkpt lat="38.10470676533079" lon="-1.445528722953693">
<ele>964</ele>
<time>2017-03-29T19:03:51Z</time>
</trkpt>
<trkpt lat="38.104665645383264" lon="-1.4456641091842575">
<ele>966</ele>
<time>2017-03-29T19:03:53Z</time>
</trkpt>
<trkpt lat="38.10464099498275" lon="-1.4458378397779308">
<ele>967</ele>
<time>2017-03-29T19:03:55Z</time>
</trkpt>
<trkpt lat="38.10464166370987" lon="-1.4460744861621084">
<ele>969</ele>
<time>2017-03-29T19:03:57Z</time>
</trkpt>
<trkpt lat="38.10468178620207" lon="-1.446320692436369">
<ele>970</ele>
<time>2017-03-29T19:03:59Z</time>
</trkpt>
<trkpt lat="38.10477612677867" lon="-1.4465801608749127">
<ele>971</ele>
<time>2017-03-29T19:04:01Z</time>
</trkpt>
<trkpt lat="38.10492766757478" lon="-1.4468113529737006">
<ele>972</ele>
<time>2017-03-29T19:04:03Z</time>
</trkpt>
<trkpt lat="38.10512129029882" lon="-1.4469898700415582">
<ele>974</ele>
<time>2017-03-29T19:04:05Z</time>
</trkpt>
<trkpt lat="38.10534155159791" lon="-1.447107014070874">
<ele>977</ele>
<time>2017-03-29T19:04:07Z</time>
</trkpt>
<trkpt lat="38.10556876869018" lon="-1.447079933604069">
<ele>979</ele>
<time>2017-03-29T19:04:09Z</time>
</trkpt>
<trkpt lat="38.10575615583095" lon="-1.4469750648937456">
<ele>981</ele>
<time>2017-03-29T19:04:11Z</time>
</trkpt>
<trkpt lat="38.105879477012344" lon="-1.4468735719818004">
<ele>984</ele>
<time>2017-03-29T19:04:13Z</time>
</trkpt>
<trkpt lat="38.1059760554186" lon="-1.4467529191830806">
<ele>985</ele>
<time>2017-03-29T19:04:15Z</time>
</trkpt>
<trkpt lat="38.106022042870826" lon="-1.446619717952305">
<ele>987</ele>
<time>2017-03-29T19:04:17Z</time>
</trkpt>
<trkpt lat="38.10602162715936" lon="-1.4465410241603691">
<ele>987</ele>
<time>2017-03-29T19:04:19Z</time>
</trkpt>
<trkpt lat="38.1060159023326" lon="-1.4465023439400424">
<ele>987</ele>
<time>2017-03-29T19:04:21Z</time>
</trkpt>
<trkpt lat="38.10600266473631" lon="-1.4464527429842577">
<ele>987</ele>
<time>2017-03-29T19:04:23Z</time>
</trkpt>
<trkpt lat="38.10597920691328" lon="-1.4464243259534786">
<ele>987</ele>
<time>2017-03-29T19:04:25Z</time>
</trkpt>
<trkpt lat="38.10594071199337" lon="-1.4464373019889432">
<ele>987</ele>
<time>2017-03-29T19:04:27Z</time>
</trkpt>
<trkpt lat="38.10589245516252" lon="-1.446492700476197">
<ele>987</ele>
<time>2017-03-29T19:04:29Z</time>
</trkpt>
<trkpt lat="38.10584073748097" lon="-1.4466134655430316">
<ele>990</ele>
<time>2017-03-29T19:04:31Z</time>
</trkpt>
<trkpt lat="38.10582854208689" lon="-1.4468039412979063">
<ele>991</ele>
<time>2017-03-29T19:04:33Z</time>
</trkpt>
<trkpt lat="38.10588251877087" lon="-1.4470410535833287">
<ele>992</ele>
<time>2017-03-29T19:04:35Z</time>
</trkpt>
<trkpt lat="38.10599102328465" lon="-1.4472971193277528">
<ele>993</ele>
<time>2017-03-29T19:04:37Z</time>
</trkpt>
<trkpt lat="38.10614916811958" lon="-1.4475026844066492">
<ele>995</ele>
<time>2017-03-29T19:04:39Z</time>
</trkpt>
<trkpt lat="38.10634898867406" lon="-1.4476758052220862">
<ele>996</ele>
<time>2017-03-29T19:04:41Z</time>
</trkpt>
<trkpt lat="38.10657639399733" lon="-1.4477651097809467">
<ele>998</ele>
<time>2017-03-29T19:04:43Z</time>
</trkpt>
<trkpt lat="38.106789096539195" lon="-1.4477534229801">
<ele>1000</ele>
<time>2017-03-29T19:04:45Z</time>
</trkpt>
<trkpt lat="38.10696606721535" lon="-1.4476883825838032">
<ele>1002</ele>
<time>2017-03-29T19:04:47Z</time>
</trkpt>
<trkpt lat="38.10710788473003" lon="-1.4475871023407079">
<ele>1003</ele>
<time>2017-03-29T19:04:49Z</time>
</trkpt>
<trkpt lat="38.10720340300016" lon="-1.4474577902758565">
<ele>1004</ele>
<time>2017-03-29T19:04:51Z</time>
</trkpt>
<trkpt lat="38.107296942683504" lon="-1.4473185858122344">
<ele>1005</ele>
<time>2017-03-29T19:04:53Z</time>
</trkpt>
<trkpt lat="38.10740079340988" lon="-1.4472025365743928">
<ele>1006</ele>
<time>2017-03-29T19:04:55Z</time>
</trkpt>
<trkpt lat="38.107523980716735" lon="-1.447080018678382">
<ele>1006</ele>
<time>2017-03-29T19:04:57Z</time>
</trkpt>
<trkpt lat="38.10762444757598" lon="-1.4469567073512037">
<ele>1006</ele>
<time>2017-03-29T19:04:59Z</time>
</trkpt>
<trkpt lat="38.107690558885146" lon="-1.4468502934173402">
<ele>1006</ele>
<time>2017-03-29T19:05:01Z</time>
</trkpt>
<trkpt lat="38.10770281464558" lon="-1.4467653176499387">
<ele>1006</ele>
<time>2017-03-29T19:05:03Z</time>
</trkpt>
<trkpt lat="38.10768622264076" lon="-1.4467049235643656">
<ele>1006</ele>
<time>2017-03-29T19:05:05Z</time>
</trkpt>
<trkpt lat="38.10764319375525" lon="-1.4466932051057608">
<ele>1006</ele>
<time>2017-03-29T19:05:07Z</time>
</trkpt>
<trkpt lat="38.107604991435586" lon="-1.4467408766106888">
<ele>1005</ele>
<time>2017-03-29T19:05:09Z</time>
</trkpt>
<trkpt lat="38.1075668708188" lon="-1.4468757657290865">
<ele>1005</ele>
<time>2017-03-29T19:05:11Z</time>
</trkpt>
<trkpt lat="38.10755705828721" lon="-1.4470536503791">
<ele>1004</ele>
<time>2017-03-29T19:05:13Z</time>
</trkpt>
<trkpt lat="38.10761177591201" lon="-1.4472930741930417">
<ele>1004</ele>
<time>2017-03-29T19:05:15Z</time>
</trkpt>
<trkpt lat="38.10773697555239" lon="-1.4475213679326389">
<ele>1003</ele>
<time>2017-03-29T19:05:17Z</time>
</trkpt>
<trkpt lat="38.10790778616" lon="-1.4477223816113933">
<ele>1004</ele>
<time>2017-03-29T19:05:19Z</time>
</trkpt>
<trkpt lat="38.10813141074314" lon="-1.4478594069652062">
<ele>1004</ele>
<time>2017-03-29T19:05:21Z</time>
</trkpt>
<trkpt lat="38.10835261910266" lon="-1.4479144922077802">
<ele>1005</ele>
<time>2017-03-29T19:05:23Z</time>
</trkpt>
<trkpt lat="38.108567970738754" lon="-1.4479025507044867">
<ele>1005</ele>
<time>2017-03-29T19:05:25Z</time>
</trkpt>
<trkpt lat="38.1087569620153" lon="-1.4478070918441788">
<ele>1005</ele>
<time>2017-03-29T19:05:27Z</time>
</trkpt>
<trkpt lat="38.108895598077424" lon="-1.447689610641568">
<ele>1004</ele>
<time>2017-03-29T19:05:29Z</time>
</trkpt>
<trkpt lat="38.10899680191405" lon="-1.4475881092357592">
<ele>1002</ele>
<time>2017-03-29T19:05:31Z</time>
</trkpt>
<trkpt lat="38.10907597489348" lon="-1.4474638261826778">
<ele>1000</ele>
<time>2017-03-29T19:05:33Z</time>
</trkpt>
<trkpt lat="38.10914671098496" lon="-1.4473270538582963">
<ele>998</ele>
<time>2017-03-29T19:05:35Z</time>
</trkpt>
<trkpt lat="38.10919440784307" lon="-1.4472089529239696">
<ele>996</ele>
<time>2017-03-29T19:05:37Z</time>
</trkpt>
<trkpt lat="38.10923886549241" lon="-1.4470997365501368">
<ele>994</ele>
<time>2017-03-29T19:05:39Z</time>
</trkpt>
<trkpt lat="38.1092776854829" lon="-1.446996470794242">
<ele>992</ele>
<time>2017-03-29T19:05:41Z</time>
</trkpt>
<trkpt lat="38.10931419660482" lon="-1.4469044575207046">
<ele>991</ele>
<time>2017-03-29T19:05:43Z</time>
</trkpt>
<trkpt lat="38.109358090749666" lon="-1.4468037017076372">
<ele>989</ele>
<time>2017-03-29T19:05:45Z</time>
</trkpt>
<trkpt lat="38.10938697949296" lon="-1.4466883023233024">
<ele>988</ele>
<time>2017-03-29T19:05:47Z</time>
</trkpt>
<trkpt lat="38.10942221711307" lon="-1.4465926985211317">
<ele>987</ele>
<time>2017-03-29T19:05:49Z</time>
</trkpt>
<trkpt lat="38.109463917815255" lon="-1.4465004970147697">
<ele>987</ele>
<time>2017-03-29T19:05:51Z</time>
</trkpt>
<trkpt lat="38.10950437663162" lon="-1.446401617242062">
<ele>986</ele>
<time>2017-03-29T19:05:53Z</time>
</trkpt>
<trkpt lat="38.1095376769017" lon="-1.4463187398269397">
<ele>987</ele>
<time>2017-03-29T19:05:55Z</time>
</trkpt>
<trkpt lat="38.10956502054702" lon="-1.44623552535997">
<ele>987</ele>
<time>2017-03-29T19:05:57Z</time>
</trkpt>
<trkpt lat="38.10958887152127" lon="-1.4461406885341814">
<ele>988</ele>
<time>2017-03-29T19:05:59Z</time>
</trkpt>
<trkpt lat="38.109610164133386" lon="-1.4460583619594423">
<ele>988</ele>
<time>2017-03-29T19:06:01Z</time>
</trkpt>
<trkpt lat="38.10962394390665" lon="-1.4459670887897378">
<ele>988</ele>
<time>2017-03-29T19:06:03Z</time>
</trkpt>
<trkpt lat="38.1096351922631" lon="-1.4458712963695104">
<ele>989</ele>
<time>2017-03-29T19:06:05Z</time>
</trkpt>
<trkpt lat="38.10965219547166" lon="-1.4457864953654038">
<ele>989</ele>
<time>2017-03-29T19:06:07Z</time>
</trkpt>
<trkpt lat="38.10967581387572" lon="-1.4457052017099847">
<ele>989</ele>
<time>2017-03-29T19:06:09Z</time>
</trkpt>
<trkpt lat="38.109689568362434" lon="-1.4456124955894083">
<ele>990</ele>
<time>2017-03-29T19:06:11Z</time>
</trkpt>
<trkpt lat="38.109689272662735" lon="-1.4455097578262117">
<ele>991</ele>
<time>2017-03-29T19:06:13Z</time>
</trkpt>
<trkpt lat="38.109704635696275" lon="-1.4454169580365606">
<ele>992</ele>
<time>2017-03-29T19:06:15Z</time>
</trkpt>
<trkpt lat="38.109725462863125" lon="-1.445334701400681">
<ele>992</ele>
<time>2017-03-29T19:06:17Z</time>
</trkpt>
<trkpt lat="38.10974584461888" lon="-1.4452630212022106">
<ele>993</ele>
<time>2017-03-29T19:06:19Z</time>
</trkpt>
<trkpt lat="38.10978628238918" lon="-1.4451571547956967">
<ele>1000</ele>
<time>2017-03-29T19:06:21Z</time>
</trkpt>
<trkpt lat="38.10985488787712" lon="-1.4450380222138999">
<ele>1006</ele>
<time>2017-03-29T19:06:23Z</time>
</trkpt>
<trkpt lat="38.10992181092909" lon="-1.4449455656748">
<ele>1011</ele>
<time>2017-03-29T19:06:25Z</time>
</trkpt>
<trkpt lat="38.10997879020856" lon="-1.4448406203107786">
<ele>1015</ele>
<time>2017-03-29T19:06:27Z</time>
</trkpt>
<trkpt lat="38.11004657934968" lon="-1.4446853569075864">
<ele>1018</ele>
<time>2017-03-29T19:06:29Z</time>
</trkpt>
<trkpt lat="38.110120573063725" lon="-1.4445482336014057">
<ele>1022</ele>
<time>2017-03-29T19:06:31Z</time>
</trkpt>
<trkpt lat="38.110178643043035" lon="-1.4444604029396901">
<ele>1025</ele>
<time>2017-03-29T19:06:33Z</time>
</trkpt>
<trkpt lat="38.110215023878446" lon="-1.4443614053002356">
<ele>1029</ele>
<time>2017-03-29T19:06:35Z</time>
</trkpt>
<trkpt lat="38.110268508617025" lon="-1.444211457097038">
<ele>1031</ele>
<time>2017-03-29T19:06:37Z</time>
</trkpt>
<trkpt lat="38.110310081314616" lon="-1.4441176240783662">
<ele>1033</ele>
<time>2017-03-29T19:06:39Z</time>
</trkpt>
<trkpt lat="38.11032557383321" lon="-1.4440773679284797">
<ele>1034</ele>
<time>2017-03-29T19:06:41Z</time>
</trkpt>
<trkpt lat="38.110340405974306" lon="-1.4439971822706377">
<ele>1037</ele>
<time>2017-03-29T19:06:43Z</time>
</trkpt>
<trkpt lat="38.11037047977036" lon="-1.4439003106965984">
<ele>1039</ele>
<time>2017-03-29T19:06:45Z</time>
</trkpt>
<trkpt lat="38.110400839443884" lon="-1.4438485653297353">
<ele>1040</ele>
<time>2017-03-29T19:06:47Z</time>
</trkpt>
<trkpt lat="38.110437825639444" lon="-1.44380370545824">
<ele>1040</ele>
<time>2017-03-29T19:06:49Z</time>
</trkpt>
<trkpt lat="38.110488628978466" lon="-1.4437343397803597">
<ele>1041</ele>
<time>2017-03-29T19:06:51Z</time>
</trkpt>
<trkpt lat="38.11052487707008" lon="-1.4436889930696712">
<ele>1042</ele>
<time>2017-03-29T19:06:53Z</time>
</trkpt>
<trkpt lat="38.11053609229998" lon="-1.4436493785226712">
<ele>1043</ele>
<time>2017-03-29T19:06:55Z</time>
</trkpt>
<trkpt lat="38.11055363207225" lon="-1.4435751410031223">
<ele>1044</ele>
<time>2017-03-29T19:06:57Z</time>
</trkpt>
<trkpt lat="38.11057632715049" lon="-1.4434995609638612">
<ele>1045</ele>
<time>2017-03-29T19:06:59Z</time>
</trkpt>
<trkpt lat="38.1105936266157" lon="-1.4434506974789458">
<ele>1046</ele>
<time>2017-03-29T19:07:01Z</time>
</trkpt>
<trkpt lat="38.11060780379269" lon="-1.443371420127032">
<ele>1050</ele>
<time>2017-03-29T19:07:03Z</time>
</trkpt>
<trkpt lat="38.11061231031633" lon="-1.4432848464299772">
<ele>1050</ele>
<time>2017-03-29T19:07:05Z</time>
</trkpt>
<trkpt lat="38.11060933640918" lon="-1.4432431587846026">
<ele>1051</ele>
<time>2017-03-29T19:07:07Z</time>
</trkpt>
<trkpt lat="38.110599493354826" lon="-1.443167346407992">
<ele>1052</ele>
<time>2017-03-29T19:07:09Z</time>
</trkpt>
<trkpt lat="38.1105920361263" lon="-1.4430658277200306">
<ele>1053</ele>
<time>2017-03-29T19:07:11Z</time>
</trkpt>
<trkpt lat="38.110593219101546" lon="-1.443024248355276">
<ele>1053</ele>
<time>2017-03-29T19:07:13Z</time>
</trkpt>
<trkpt lat="38.110605582232" lon="-1.442963053133887">
<ele>1053</ele>
<time>2017-03-29T19:07:15Z</time>
</trkpt>
<trkpt lat="38.11062671029682" lon="-1.4428946088698893">
<ele>1053</ele>
<time>2017-03-29T19:07:17Z</time>
</trkpt>
<trkpt lat="38.11064392444492" lon="-1.4428309922631712">
<ele>1052</ele>
<time>2017-03-29T19:07:19Z</time>
</trkpt>
<trkpt lat="38.110660265552944" lon="-1.4427656861902927">
<ele>1052</ele>
<time>2017-03-29T19:07:21Z</time>
</trkpt>
<trkpt lat="38.11067983398043" lon="-1.4427016945075946">
<ele>1052</ele>
<time>2017-03-29T19:07:23Z</time>
</trkpt>
<trkpt lat="38.11069738682071" lon="-1.4426436479924427">
<ele>1052</ele>
<time>2017-03-29T19:07:25Z</time>
</trkpt>
<trkpt lat="38.110711264738406" lon="-1.4425902358699627">
<ele>1051</ele>
<time>2017-03-29T19:07:27Z</time>
</trkpt>
<trkpt lat="38.11070978326478" lon="-1.4425364926903794">
<ele>1051</ele>
<time>2017-03-29T19:07:29Z</time>
</trkpt>
<trkpt lat="38.11071941065529" lon="-1.4424741072240568">
<ele>1051</ele>
<time>2017-03-29T19:07:31Z</time>
</trkpt>
<trkpt lat="38.11073785856078" lon="-1.4424150269236133">
<ele>1050</ele>
<time>2017-03-29T19:07:33Z</time>
</trkpt>
<trkpt lat="38.11074852931834" lon="-1.442362583187701">
<ele>1049</ele>
<time>2017-03-29T19:07:35Z</time>
</trkpt>
<trkpt lat="38.110761693605674" lon="-1.4422861758042091">
<ele>1049</ele>
<time>2017-03-29T19:07:37Z</time>
</trkpt>
<trkpt lat="38.110783854568666" lon="-1.4422096226625563">
<ele>1048</ele>
<time>2017-03-29T19:07:39Z</time>
</trkpt>
<trkpt lat="38.11079771720658" lon="-1.44217163148967">
<ele>1048</ele>
<time>2017-03-29T19:07:41Z</time>
</trkpt>
<trkpt lat="38.110815967059295" lon="-1.442126688974209">
<ele>1047</ele>
<time>2017-03-29T19:07:43Z</time>
</trkpt>
<trkpt lat="38.11082017133317" lon="-1.442056364894714">
<ele>1047</ele>
<time>2017-03-29T19:07:45Z</time>
</trkpt>
<trkpt lat="38.11081374315878" lon="-1.4420003455718575">
<ele>1046</ele>
<time>2017-03-29T19:07:47Z</time>
</trkpt>
<trkpt lat="38.11079104810253" lon="-1.4419586674162712">
<ele>1045</ele>
<time>2017-03-29T19:07:49Z</time>
</trkpt>
<trkpt lat="38.1107659789498" lon="-1.4419131123190625">
<ele>1045</ele>
<time>2017-03-29T19:07:51Z</time>
</trkpt>
<trkpt lat="38.11072925195461" lon="-1.4418332687926276">
<ele>1044</ele>
<time>2017-03-29T19:07:53Z</time>
</trkpt>
<trkpt lat="38.11069450499739" lon="-1.441766023858106">
<ele>1044</ele>
<time>2017-03-29T19:07:55Z</time>
</trkpt>
<trkpt lat="38.11067840061983" lon="-1.4417288281359744">
<ele>1043</ele>
<time>2017-03-29T19:07:57Z</time>
</trkpt>
<trkpt lat="38.11066708516824" lon="-1.4416752534411739">
<ele>1043</ele>
<time>2017-03-29T19:07:59Z</time>
</trkpt>
<trkpt lat="38.11066258932708" lon="-1.441605745600203">
<ele>1042</ele>
<time>2017-03-29T19:08:01Z</time>
</trkpt>
<trkpt lat="38.11066373388397" lon="-1.4415370813007913">
<ele>1042</ele>
<time>2017-03-29T19:08:03Z</time>
</trkpt>
<trkpt lat="38.11066377701303" lon="-1.4414624794613302">
<ele>1041</ele>
<time>2017-03-29T19:08:05Z</time>
</trkpt>
<trkpt lat="38.11066858741469" lon="-1.4413694252562133">
<ele>1041</ele>
<time>2017-03-29T19:08:07Z</time>
</trkpt>
<trkpt lat="38.11069285000578" lon="-1.4412866257096861">
<ele>1040</ele>
<time>2017-03-29T19:08:09Z</time>
</trkpt>
<trkpt lat="38.11072756256785" lon="-1.4412034793435393">
<ele>1038</ele>
<time>2017-03-29T19:08:11Z</time>
</trkpt>
<trkpt lat="38.1107633672435" lon="-1.441116616384825">
<ele>1036</ele>
<time>2017-03-29T19:08:13Z</time>
</trkpt>
<trkpt lat="38.1107963576323" lon="-1.441033862582631">
<ele>1036</ele>
<time>2017-03-29T19:08:15Z</time>
</trkpt>
<trkpt lat="38.11082926456784" lon="-1.440952435627652">
<ele>1036</ele>
<time>2017-03-29T19:08:17Z</time>
</trkpt>
<trkpt lat="38.110867536201376" lon="-1.4408778899385348">
<ele>1035</ele>
<time>2017-03-29T19:08:19Z</time>
</trkpt>
<trkpt lat="38.11091325867111" lon="-1.440816789410608">
<ele>1035</ele>
<time>2017-03-29T19:08:21Z</time>
</trkpt>
<trkpt lat="38.11095865113441" lon="-1.4407627762576882">
<ele>1035</ele>
<time>2017-03-29T19:08:23Z</time>
</trkpt>
<trkpt lat="38.110968475842164" lon="-1.4407197757417012">
<ele>1034</ele>
<time>2017-03-29T19:08:25Z</time>
</trkpt>
<trkpt lat="38.11096010416638" lon="-1.4406657932076603">
<ele>1034</ele>
<time>2017-03-29T19:08:27Z</time>
</trkpt>
<trkpt lat="38.11094849912553" lon="-1.4405965159112044">
<ele>1034</ele>
<time>2017-03-29T19:08:29Z</time>
</trkpt>
<trkpt lat="38.11095316582504" lon="-1.4405350618115056">
<ele>1033</ele>
<time>2017-03-29T19:08:31Z</time>
</trkpt>
<trkpt lat="38.1109676304982" lon="-1.4404710872362063">
<ele>1033</ele>
<time>2017-03-29T19:08:33Z</time>
</trkpt>
<trkpt lat="38.11098318500541" lon="-1.4403894888243067">
<ele>1033</ele>
<time>2017-03-29T19:08:35Z</time>
</trkpt>
<trkpt lat="38.11099154238374" lon="-1.4403059884304015">
<ele>1032</ele>
<time>2017-03-29T19:08:37Z</time>
</trkpt>
<trkpt lat="38.11099925417117" lon="-1.4402304076500674">
<ele>1032</ele>
<time>2017-03-29T19:08:39Z</time>
</trkpt>
<trkpt lat="38.1110103468277" lon="-1.4401457628950904">
<ele>1029</ele>
<time>2017-03-29T19:08:41Z</time>
</trkpt>
<trkpt lat="38.11102141515432" lon="-1.4400366528409398">
<ele>1026</ele>
<time>2017-03-29T19:08:43Z</time>
</trkpt>
<trkpt lat="38.111038260249465" lon="-1.4399419268563804">
<ele>1026</ele>
<time>2017-03-29T19:08:45Z</time>
</trkpt>
<trkpt lat="38.11106149345425" lon="-1.4398500022327227">
<ele>1024</ele>
<time>2017-03-29T19:08:47Z</time>
</trkpt>
<trkpt lat="38.11109181489538" lon="-1.4397414569392593">
<ele>1023</ele>
<time>2017-03-29T19:08:49Z</time>
</trkpt>
<trkpt lat="38.1111285396043" lon="-1.4396510291965514">
<ele>1022</ele>
<time>2017-03-29T19:08:51Z</time>
</trkpt>
<trkpt lat="38.1111628330155" lon="-1.4395791236329458">
<ele>1022</ele>
<time>2017-03-29T19:08:53Z</time>
</trkpt>
<trkpt lat="38.11120426376494" lon="-1.4394832387298298">
<ele>1022</ele>
<time>2017-03-29T19:08:55Z</time>
</trkpt>
<trkpt lat="38.11125373824044" lon="-1.4393887836795631">
<ele>1022</ele>
<time>2017-03-29T19:08:57Z</time>
</trkpt>
<trkpt lat="38.111294475045035" lon="-1.4393218237695793">
<ele>1021</ele>
<time>2017-03-29T19:08:59Z</time>
</trkpt>
<trkpt lat="38.11134824288594" lon="-1.4392278811061059">
<ele>1019</ele>
<time>2017-03-29T19:09:01Z</time>
</trkpt>
<trkpt lat="38.11142340717056" lon="-1.439129281227851">
<ele>1017</ele>
<time>2017-03-29T19:09:03Z</time>
</trkpt>
<trkpt lat="38.11149547366998" lon="-1.4390498486971925">
<ele>1015</ele>
<time>2017-03-29T19:09:05Z</time>
</trkpt>
<trkpt lat="38.111554839365176" lon="-1.4389733269830631">
<ele>1013</ele>
<time>2017-03-29T19:09:07Z</time>
</trkpt>
<trkpt lat="38.11161496407433" lon="-1.4388690915598847">
<ele>1012</ele>
<time>2017-03-29T19:09:09Z</time>
</trkpt>
<trkpt lat="38.11166613604551" lon="-1.4387562796045643">
<ele>1011</ele>
<time>2017-03-29T19:09:11Z</time>
</trkpt>
<trkpt lat="38.11170976761613" lon="-1.4386371954939499">
<ele>1011</ele>
<time>2017-03-29T19:09:13Z</time>
</trkpt>
<trkpt lat="38.1117535542988" lon="-1.4385145109805566">
<ele>1010</ele>
<time>2017-03-29T19:09:15Z</time>
</trkpt>
<trkpt lat="38.11183130622125" lon="-1.4383994280613537">
<ele>1010</ele>
<time>2017-03-29T19:09:17Z</time>
</trkpt>
<trkpt lat="38.11192055191036" lon="-1.4383071286799671">
<ele>1010</ele>
<time>2017-03-29T19:09:19Z</time>
</trkpt>
<trkpt lat="38.11202174840457" lon="-1.4382383294022554">
<ele>1009</ele>
<time>2017-03-29T19:09:21Z</time>
</trkpt>
<trkpt lat="38.11212643444107" lon="-1.4381498389080127">
<ele>1008</ele>
<time>2017-03-29T19:09:23Z</time>
</trkpt>
<trkpt lat="38.112222057159244" lon="-1.4380533753138685">
<ele>1007</ele>
<time>2017-03-29T19:09:25Z</time>
</trkpt>
<trkpt lat="38.1123309743697" lon="-1.4380123084672736">
<ele>1007</ele>
<time>2017-03-29T19:09:27Z</time>
</trkpt>
<trkpt lat="38.112445714083705" lon="-1.437946186399174">
<ele>1007</ele>
<time>2017-03-29T19:09:29Z</time>
</trkpt>
<trkpt lat="38.11254342051225" lon="-1.437840485871968">
<ele>1005</ele>
<time>2017-03-29T19:09:31Z</time>
</trkpt>
<trkpt lat="38.11261202170707" lon="-1.4377418525819647">
<ele>1005</ele>
<time>2017-03-29T19:09:33Z</time>
</trkpt>
<trkpt lat="38.112660585191804" lon="-1.437660776040425">
<ele>1003</ele>
<time>2017-03-29T19:09:35Z</time>
</trkpt>
<trkpt lat="38.11271724891797" lon="-1.4375414335921177">
<ele>1000</ele>
<time>2017-03-29T19:09:37Z</time>
</trkpt>
<trkpt lat="38.112763894917336" lon="-1.4374010597710503">
<ele>998</ele>
<time>2017-03-29T19:09:39Z</time>
</trkpt>
<trkpt lat="38.11279282095925" lon="-1.437300578085201">
<ele>995</ele>
<time>2017-03-29T19:09:41Z</time>
</trkpt>
<trkpt lat="38.112837415354846" lon="-1.4371859959814866">
<ele>991</ele>
<time>2017-03-29T19:09:43Z</time>
</trkpt>
<trkpt lat="38.11289715749574" lon="-1.4370372505848557">
<ele>986</ele>
<time>2017-03-29T19:09:45Z</time>
</trkpt>
<trkpt lat="38.112965133736324" lon="-1.4369261911289153">
<ele>983</ele>
<time>2017-03-29T19:09:47Z</time>
</trkpt>
<trkpt lat="38.113024947687556" lon="-1.4368800399540038">
<ele>981</ele>
<time>2017-03-29T19:09:49Z</time>
</trkpt>
<trkpt lat="38.11304286357357" lon="-1.4368000657441649">
<ele>979</ele>
<time>2017-03-29T19:09:51Z</time>
</trkpt>
<trkpt lat="38.1130748396958" lon="-1.4367196304182683">
<ele>976</ele>
<time>2017-03-29T19:09:53Z</time>
</trkpt>
<trkpt lat="38.11311226480953" lon="-1.4366913739449643">
<ele>976</ele>
<time>2017-03-29T19:09:55Z</time>
</trkpt>
<trkpt lat="38.1131526283765" lon="-1.4366338437897672">
<ele>969</ele>
<time>2017-03-29T19:09:57Z</time>
</trkpt>
<trkpt lat="38.113205277707536" lon="-1.4365360241832337">
<ele>965</ele>
<time>2017-03-29T19:09:59Z</time>
</trkpt>
<trkpt lat="38.11324093214156" lon="-1.436494289694965">
<ele>964</ele>
<time>2017-03-29T19:10:01Z</time>
</trkpt>
<trkpt lat="38.11327088168137" lon="-1.4364789527115227">
<ele>962</ele>
<time>2017-03-29T19:10:03Z</time>
</trkpt>
<trkpt lat="38.11334173621436" lon="-1.4363735194093246">
<ele>959</ele>
<time>2017-03-29T19:10:05Z</time>
</trkpt>
<trkpt lat="38.113340612701094" lon="-1.436298018413908">
<ele>959</ele>
<time>2017-03-29T19:10:07Z</time>
</trkpt>
<trkpt lat="38.11334696630668" lon="-1.4362211134860756">
<ele>957</ele>
<time>2017-03-29T19:10:09Z</time>
</trkpt>
<trkpt lat="38.11336811228161" lon="-1.4360937976851054">
<ele>953</ele>
<time>2017-03-29T19:10:11Z</time>
</trkpt>
<trkpt lat="38.113368629574985" lon="-1.4360139870991606">
<ele>953</ele>
<time>2017-03-29T19:10:13Z</time>
</trkpt>
<trkpt lat="38.11335438629805" lon="-1.4359402860642396">
<ele>953</ele>
<time>2017-03-29T19:10:15Z</time>
</trkpt>
<trkpt lat="38.11333902990653" lon="-1.4358530579846196">
<ele>948</ele>
<time>2017-03-29T19:10:17Z</time>
</trkpt>
<trkpt lat="38.11329640970534" lon="-1.4357509833514304">
<ele>943</ele>
<time>2017-03-29T19:10:19Z</time>
</trkpt>
<trkpt lat="38.11326513775909" lon="-1.4356645431298798">
<ele>941</ele>
<time>2017-03-29T19:10:21Z</time>
</trkpt>
<trkpt lat="38.113269961996735" lon="-1.4355993223461823">
<ele>940</ele>
<time>2017-03-29T19:10:23Z</time>
</trkpt>
<trkpt lat="38.11328348708614" lon="-1.4354876910236423">
<ele>935</ele>
<time>2017-03-29T19:10:25Z</time>
</trkpt>
<trkpt lat="38.11329892326" lon="-1.435370499685918">
<ele>930</ele>
<time>2017-03-29T19:10:27Z</time>
</trkpt>
<trkpt lat="38.1133226502029" lon="-1.435308169502631">
<ele>927</ele>
<time>2017-03-29T19:10:29Z</time>
</trkpt>
<trkpt lat="38.113368139339705" lon="-1.4352182867588925">
<ele>922</ele>
<time>2017-03-29T19:10:31Z</time>
</trkpt>
<trkpt lat="38.11340123531878" lon="-1.4350653307140566">
<ele>916</ele>
<time>2017-03-29T19:10:33Z</time>
</trkpt>
<trkpt lat="38.11343590210295" lon="-1.4349569619839333">
<ele>910</ele>
<time>2017-03-29T19:10:35Z</time>
</trkpt>
<trkpt lat="38.113487631938334" lon="-1.434881498985766">
<ele>904</ele>
<time>2017-03-29T19:10:37Z</time>
</trkpt>
<trkpt lat="38.11350041362118" lon="-1.4347632879891408">
<ele>897</ele>
<time>2017-03-29T19:10:39Z</time>
</trkpt>
<trkpt lat="38.11345955752162" lon="-1.4346758634824632">
<ele>890</ele>
<time>2017-03-29T19:10:41Z</time>
</trkpt>
<trkpt lat="38.11339461935441" lon="-1.4346591496108634">
<ele>883</ele>
<time>2017-03-29T19:10:43Z</time>
</trkpt>
<trkpt lat="38.113311944334605" lon="-1.43466562678361">
<ele>877</ele>
<time>2017-03-29T19:10:45Z</time>
</trkpt>
<trkpt lat="38.11320354419818" lon="-1.4346774986125446">
<ele>869</ele>
<time>2017-03-29T19:10:47Z</time>
</trkpt>
<trkpt lat="38.11306853933229" lon="-1.4347044905386752">
<ele>862</ele>
<time>2017-03-29T19:10:49Z</time>
</trkpt>
<trkpt lat="38.112924606565116" lon="-1.4347340506141506">
<ele>857</ele>
<time>2017-03-29T19:10:51Z</time>
</trkpt>
<trkpt lat="38.11276236133128" lon="-1.4347709542413463">
<ele>852</ele>
<time>2017-03-29T19:10:53Z</time>
</trkpt>
<trkpt lat="38.112575476245645" lon="-1.4348127069278342">
<ele>848</ele>
<time>2017-03-29T19:10:55Z</time>
</trkpt>
<trkpt lat="38.11238468671863" lon="-1.4348481815015037">
<ele>845</ele>
<time>2017-03-29T19:10:57Z</time>
</trkpt>
<trkpt lat="38.1122178133081" lon="-1.4349356579140127">
<ele>843</ele>
<time>2017-03-29T19:10:59Z</time>
</trkpt>
<trkpt lat="38.112057646632074" lon="-1.4350136030591358">
<ele>842</ele>
<time>2017-03-29T19:11:01Z</time>
</trkpt>
<trkpt lat="38.11190430925608" lon="-1.435074703008559">
<ele>839</ele>
<time>2017-03-29T19:11:03Z</time>
</trkpt>
<trkpt lat="38.11174363553708" lon="-1.4351490013285186">
<ele>838</ele>
<time>2017-03-29T19:11:05Z</time>
</trkpt>
<trkpt lat="38.11160128929243" lon="-1.4352088347418195">
<ele>837</ele>
<time>2017-03-29T19:11:07Z</time>
</trkpt>
<trkpt lat="38.111465103039386" lon="-1.435182062068183">
<ele>836</ele>
<time>2017-03-29T19:11:09Z</time>
</trkpt>
<trkpt lat="38.11136032743556" lon="-1.4351406938545557">
<ele>836</ele>
<time>2017-03-29T19:11:11Z</time>
</trkpt>
<trkpt lat="38.11127978976559" lon="-1.435124728866861">
<ele>835</ele>
<time>2017-03-29T19:11:13Z</time>
</trkpt>
<trkpt lat="38.11117128161128" lon="-1.435076907536608">
<ele>834</ele>
<time>2017-03-29T19:11:15Z</time>
</trkpt>
<trkpt lat="38.11104427545236" lon="-1.4350549189777786">
<ele>833</ele>
<time>2017-03-29T19:11:17Z</time>
</trkpt>
<trkpt lat="38.11092721130201" lon="-1.4350679767408923">
<ele>831</ele>
<time>2017-03-29T19:11:19Z</time>
</trkpt>
<trkpt lat="38.110805551536075" lon="-1.4350893663818027">
<ele>829</ele>
<time>2017-03-29T19:11:21Z</time>
</trkpt>
<trkpt lat="38.11067236400755" lon="-1.4351255737847424">
<ele>828</ele>
<time>2017-03-29T19:11:23Z</time>
</trkpt>
<trkpt lat="38.110576693479" lon="-1.4351679374497677">
<ele>828</ele>
<time>2017-03-29T19:11:25Z</time>
</trkpt>
<trkpt lat="38.110461916534796" lon="-1.435221336003841">
<ele>829</ele>
<time>2017-03-29T19:11:27Z</time>
</trkpt>
<trkpt lat="38.11031031716212" lon="-1.4352872203261022">
<ele>830</ele>
<time>2017-03-29T19:11:29Z</time>
</trkpt>
<trkpt lat="38.110174539108215" lon="-1.4353407566552183">
<ele>830</ele>
<time>2017-03-29T19:11:31Z</time>
</trkpt>
<trkpt lat="38.1100334765045" lon="-1.4353857221179147">
<ele>831</ele>
<time>2017-03-29T19:11:33Z</time>
</trkpt>
<trkpt lat="38.10989772800138" lon="-1.4354291442601035">
<ele>830</ele>
<time>2017-03-29T19:11:35Z</time>
</trkpt>
<trkpt lat="38.1097607638685" lon="-1.4354771434795441">
<ele>830</ele>
<time>2017-03-29T19:11:37Z</time>
</trkpt>
<trkpt lat="38.10959606092942" lon="-1.435540894429102">
<ele>829</ele>
<time>2017-03-29T19:11:39Z</time>
</trkpt>
<trkpt lat="38.10944746843472" lon="-1.4356035363343072">
<ele>828</ele>
<time>2017-03-29T19:11:41Z</time>
</trkpt>
<trkpt lat="38.1093413763348" lon="-1.4356523386800366">
<ele>829</ele>
<time>2017-03-29T19:11:43Z</time>
</trkpt>
<trkpt lat="38.10924603446688" lon="-1.435714320067794">
<ele>829</ele>
<time>2017-03-29T19:11:45Z</time>
</trkpt>
<trkpt lat="38.10910304163341" lon="-1.4358172894478896">
<ele>829</ele>
<time>2017-03-29T19:11:47Z</time>
</trkpt>
<trkpt lat="38.108998249551824" lon="-1.4359068937229926">
<ele>830</ele>
<time>2017-03-29T19:11:49Z</time>
</trkpt>
<trkpt lat="38.108931260339446" lon="-1.4359527333580742">
<ele>833</ele>
<time>2017-03-29T19:11:51Z</time>
</trkpt>
<trkpt lat="38.108800274824475" lon="-1.4359988861249773">
<ele>835</ele>
<time>2017-03-29T19:11:53Z</time>
</trkpt>
<trkpt lat="38.10869411432523" lon="-1.4360608690405536">
<ele>837</ele>
<time>2017-03-29T19:11:55Z</time>
</trkpt>
<trkpt lat="38.10857121551383" lon="-1.4361500390323854">
<ele>840</ele>
<time>2017-03-29T19:11:57Z</time>
</trkpt>
<trkpt lat="38.108414285764766" lon="-1.4362803012470324">
<ele>843</ele>
<time>2017-03-29T19:11:59Z</time>
</trkpt>
<trkpt lat="38.10827374627101" lon="-1.4364347104270847">
<ele>846</ele>
<time>2017-03-29T19:12:01Z</time>
</trkpt>
<trkpt lat="38.10816251847538" lon="-1.4365989650275777">
<ele>848</ele>
<time>2017-03-29T19:12:03Z</time>
</trkpt>
<trkpt lat="38.10805240462116" lon="-1.4367359307478336">
<ele>850</ele>
<time>2017-03-29T19:12:05Z</time>
</trkpt>
<trkpt lat="38.107954485123656" lon="-1.4368084025022538">
<ele>852</ele>
<time>2017-03-29T19:12:07Z</time>
</trkpt>
<trkpt lat="38.10784643845699" lon="-1.4368484768537269">
<ele>854</ele>
<time>2017-03-29T19:12:09Z</time>
</trkpt>
<trkpt lat="38.10772110965108" lon="-1.4369034454077547">
<ele>854</ele>
<time>2017-03-29T19:12:11Z</time>
</trkpt>
<trkpt lat="38.10757748763235" lon="-1.4370279787869393">
<ele>854</ele>
<time>2017-03-29T19:12:13Z</time>
</trkpt>
<trkpt lat="38.107446122376786" lon="-1.4371789947625435">
<ele>854</ele>
<time>2017-03-29T19:12:15Z</time>
</trkpt>
<trkpt lat="38.107315875383485" lon="-1.437360049331455">
<ele>854</ele>
<time>2017-03-29T19:12:17Z</time>
</trkpt>
<trkpt lat="38.107180995881876" lon="-1.437574957263409">
<ele>855</ele>
<time>2017-03-29T19:12:19Z</time>
</trkpt>
<trkpt lat="38.10706029940911" lon="-1.4377926870936422">
<ele>854</ele>
<time>2017-03-29T19:12:21Z</time>
</trkpt>
<trkpt lat="38.10694137325108" lon="-1.438013530817192">
<ele>854</ele>
<time>2017-03-29T19:12:23Z</time>
</trkpt>
<trkpt lat="38.106818224276985" lon="-1.4382538687889392">
<ele>853</ele>
<time>2017-03-29T19:12:25Z</time>
</trkpt>
<trkpt lat="38.106697301732346" lon="-1.4385077573642069">
<ele>853</ele>
<time>2017-03-29T19:12:27Z</time>
</trkpt>
<trkpt lat="38.10658839667129" lon="-1.4387860419928375">
<ele>853</ele>
<time>2017-03-29T19:12:29Z</time>
</trkpt>
<trkpt lat="38.10648435926806" lon="-1.439067587857611">
<ele>855</ele>
<time>2017-03-29T19:12:31Z</time>
</trkpt>
<trkpt lat="38.10636208066012" lon="-1.4393222942781458">
<ele>858</ele>
<time>2017-03-29T19:12:33Z</time>
</trkpt>
<trkpt lat="38.10623872957317" lon="-1.4395252151074691">
<ele>861</ele>
<time>2017-03-29T19:12:36Z</time>
</trkpt>
<trkpt lat="38.10610207760494" lon="-1.4396749567987135">
<ele>862</ele>
<time>2017-03-29T19:12:38Z</time>
</trkpt>
<trkpt lat="38.10592186761026" lon="-1.439814290626033">
<ele>865</ele>
<time>2017-03-29T19:12:40Z</time>
</trkpt>
<trkpt lat="38.10577247223655" lon="-1.4399345962541918">
<ele>865</ele>
<time>2017-03-29T19:12:42Z</time>
</trkpt>
<trkpt lat="38.10563435877201" lon="-1.4400835762044184">
<ele>864</ele>
<time>2017-03-29T19:12:44Z</time>
</trkpt>
<trkpt lat="38.10550501274986" lon="-1.4402399417753058">
<ele>864</ele>
<time>2017-03-29T19:12:46Z</time>
</trkpt>
<trkpt lat="38.10536982927954" lon="-1.4404128215669925">
<ele>862</ele>
<time>2017-03-29T19:12:48Z</time>
</trkpt>
<trkpt lat="38.10524169112294" lon="-1.4406121147091344">
<ele>861</ele>
<time>2017-03-29T19:12:50Z</time>
</trkpt>
<trkpt lat="38.10512681950059" lon="-1.440851119033561">
<ele>861</ele>
<time>2017-03-29T19:12:52Z</time>
</trkpt>
<trkpt lat="38.10502376573453" lon="-1.4410825558170257">
<ele>861</ele>
<time>2017-03-29T19:12:54Z</time>
</trkpt>
<trkpt lat="38.10491798505853" lon="-1.4413256475815224">
<ele>860</ele>
<time>2017-03-29T19:12:56Z</time>
</trkpt>
<trkpt lat="38.10480215464341" lon="-1.441577819597877">
<ele>861</ele>
<time>2017-03-29T19:12:58Z</time>
</trkpt>
<trkpt lat="38.10468220372591" lon="-1.441809901778105">
<ele>863</ele>
<time>2017-03-29T19:13:00Z</time>
</trkpt>
<trkpt lat="38.104596357724155" lon="-1.4419859074180073">
<ele>864</ele>
<time>2017-03-29T19:13:02Z</time>
</trkpt>
<trkpt lat="38.1044963117563" lon="-1.4421146776194742">
<ele>866</ele>
<time>2017-03-29T19:13:04Z</time>
</trkpt>
<trkpt lat="38.104418484344954" lon="-1.4422013082298328">
<ele>864</ele>
<time>2017-03-29T19:13:06Z</time>
</trkpt>
<trkpt lat="38.1043335547687" lon="-1.4422799232879202">
<ele>864</ele>
<time>2017-03-29T19:13:08Z</time>
</trkpt>
<trkpt lat="38.10425697262388" lon="-1.4423359312018167">
<ele>863</ele>
<time>2017-03-29T19:13:10Z</time>
</trkpt>
<trkpt lat="38.10415973858645" lon="-1.4423983341831157">
<ele>864</ele>
<time>2017-03-29T19:13:12Z</time>
</trkpt>
<trkpt lat="38.10408467255167" lon="-1.4424013846161734">
<ele>865</ele>
<time>2017-03-29T19:13:14Z</time>
</trkpt>
<trkpt lat="38.1039936050287" lon="-1.4423774167028256">
<ele>868</ele>
<time>2017-03-29T19:13:16Z</time>
</trkpt>
<trkpt lat="38.10389806588386" lon="-1.442313739769317">
<ele>871</ele>
<time>2017-03-29T19:13:18Z</time>
</trkpt>
<trkpt lat="38.10381441390849" lon="-1.4422194688737153">
<ele>875</ele>
<time>2017-03-29T19:13:20Z</time>
</trkpt>
<trkpt lat="38.10375900965153" lon="-1.4421090854280698">
<ele>879</ele>
<time>2017-03-29T19:13:22Z</time>
</trkpt>
<trkpt lat="38.10373182409939" lon="-1.4419847865125468">
<ele>883</ele>
<time>2017-03-29T19:13:24Z</time>
</trkpt>
<trkpt lat="38.10371729412552" lon="-1.4418685259079198">
<ele>886</ele>
<time>2017-03-29T19:13:26Z</time>
</trkpt>
<trkpt lat="38.10371014727455" lon="-1.4418012722037707">
<ele>886</ele>
<time>2017-03-29T19:13:28Z</time>
</trkpt>
<trkpt lat="38.10371795820727" lon="-1.4417393442971547">
<ele>887</ele>
<time>2017-03-29T19:13:30Z</time>
</trkpt>
<trkpt lat="38.10370413938318" lon="-1.4416811112329575">
<ele>888</ele>
<time>2017-03-29T19:13:32Z</time>
</trkpt>
<trkpt lat="38.1036582508514" lon="-1.441596425554418">
<ele>896</ele>
<time>2017-03-29T19:13:34Z</time>
</trkpt>
<trkpt lat="38.10362393957056" lon="-1.441536038466982">
<ele>896</ele>
<time>2017-03-29T19:13:36Z</time>
</trkpt>
<trkpt lat="38.103604325833416" lon="-1.441467297087793">
<ele>900</ele>
<time>2017-03-29T19:13:38Z</time>
</trkpt>
<trkpt lat="38.10356765687163" lon="-1.4413467802520596">
<ele>906</ele>
<time>2017-03-29T19:13:40Z</time>
</trkpt>
<trkpt lat="38.10351463106581" lon="-1.4412715525553192">
<ele>908</ele>
<time>2017-03-29T19:13:42Z</time>
</trkpt>
<trkpt lat="38.103457090333535" lon="-1.4411994070823597">
<ele>912</ele>
<time>2017-03-29T19:13:44Z</time>
</trkpt>
<trkpt lat="38.10339714752296" lon="-1.4411309357023825">
<ele>914</ele>
<time>2017-03-29T19:13:46Z</time>
</trkpt>
<trkpt lat="38.10337471020772" lon="-1.4410838286122096">
<ele>915</ele>
<time>2017-03-29T19:13:48Z</time>
</trkpt>
<trkpt lat="38.10334739840301" lon="-1.441010496194745">
<ele>919</ele>
<time>2017-03-29T19:13:50Z</time>
</trkpt>
<trkpt lat="38.10332752025112" lon="-1.440916174374783">
<ele>924</ele>
<time>2017-03-29T19:13:52Z</time>
</trkpt>
<trkpt lat="38.10333525806293" lon="-1.440818669227472">
<ele>928</ele>
<time>2017-03-29T19:13:54Z</time>
</trkpt>
<trkpt lat="38.10333715906252" lon="-1.440686155733638">
<ele>930</ele>
<time>2017-03-29T19:13:56Z</time>
</trkpt>
<trkpt lat="38.103339505023875" lon="-1.4405557083235385">
<ele>932</ele>
<time>2017-03-29T19:13:58Z</time>
</trkpt>
<trkpt lat="38.10336288817536" lon="-1.440430903186502">
<ele>934</ele>
<time>2017-03-29T19:14:00Z</time>
</trkpt>
<trkpt lat="38.103418603241" lon="-1.4403130637491728">
<ele>936</ele>
<time>2017-03-29T19:14:02Z</time>
</trkpt>
<trkpt lat="38.10347513419319" lon="-1.4402039134748676">
<ele>939</ele>
<time>2017-03-29T19:14:04Z</time>
</trkpt>
<trkpt lat="38.10352399920816" lon="-1.4400895160232585">
<ele>940</ele>
<time>2017-03-29T19:14:06Z</time>
</trkpt>
<trkpt lat="38.10353559571395" lon="-1.4399419364010548">
<ele>940</ele>
<time>2017-03-29T19:14:08Z</time>
</trkpt>
<trkpt lat="38.10352728971195" lon="-1.4398038957895314">
<ele>940</ele>
<time>2017-03-29T19:14:10Z</time>
</trkpt>
<trkpt lat="38.1034775275337" lon="-1.43968453930163">
<ele>941</ele>
<time>2017-03-29T19:14:12Z</time>
</trkpt>
<trkpt lat="38.103406277623556" lon="-1.4395931509494013">
<ele>943</ele>
<time>2017-03-29T19:14:14Z</time>
</trkpt>
<trkpt lat="38.10330088155935" lon="-1.4395168142932047">
<ele>945</ele>
<time>2017-03-29T19:14:16Z</time>
</trkpt>
<trkpt lat="38.10319339433742" lon="-1.439477486737398">
<ele>947</ele>
<time>2017-03-29T19:14:18Z</time>
</trkpt>
<trkpt lat="38.10310880961125" lon="-1.4394540938491">
<ele>950</ele>
<time>2017-03-29T19:14:20Z</time>
</trkpt>
<trkpt lat="38.103023011333796" lon="-1.4394538195275741">
<ele>952</ele>
<time>2017-03-29T19:14:22Z</time>
</trkpt>
<trkpt lat="38.102948918389714" lon="-1.4395105087741076">
<ele>953</ele>
<time>2017-03-29T19:14:24Z</time>
</trkpt>
<trkpt lat="38.10287221815269" lon="-1.4395889703819165">
<ele>955</ele>
<time>2017-03-29T19:14:26Z</time>
</trkpt>
<trkpt lat="38.10278648474152" lon="-1.4396723594952103">
<ele>956</ele>
<time>2017-03-29T19:14:28Z</time>
</trkpt>
<trkpt lat="38.102687588062906" lon="-1.439776356582243">
<ele>958</ele>
<time>2017-03-29T19:14:30Z</time>
</trkpt>
<trkpt lat="38.10262196429907" lon="-1.4398706216019102">
<ele>961</ele>
<time>2017-03-29T19:14:32Z</time>
</trkpt>
<trkpt lat="38.1025781526439" lon="-1.439931191313986">
<ele>961</ele>
<time>2017-03-29T19:14:34Z</time>
</trkpt>
<trkpt lat="38.102501202658274" lon="-1.4400060454487835">
<ele>965</ele>
<time>2017-03-29T19:14:36Z</time>
</trkpt>
<trkpt lat="38.10241994777163" lon="-1.44004863460052">
<ele>966</ele>
<time>2017-03-29T19:14:38Z</time>
</trkpt>
<trkpt lat="38.10239126763569" lon="-1.4400493368390583">
<ele>967</ele>
<time>2017-03-29T19:14:40Z</time>
</trkpt>
<trkpt lat="38.10235404249295" lon="-1.4400447815131612">
<ele>970</ele>
<time>2017-03-29T19:14:42Z</time>
</trkpt>
<trkpt lat="38.10223605886682" lon="-1.4399754370850812">
<ele>975</ele>
<time>2017-03-29T19:14:44Z</time>
</trkpt>
<trkpt lat="38.10216494108826" lon="-1.4398753416296122">
<ele>979</ele>
<time>2017-03-29T19:14:46Z</time>
</trkpt>
<trkpt lat="38.10212773176135" lon="-1.439751714976095">
<ele>983</ele>
<time>2017-03-29T19:14:48Z</time>
</trkpt>
<trkpt lat="38.10210745597693" lon="-1.4396155083623754">
<ele>987</ele>
<time>2017-03-29T19:14:50Z</time>
</trkpt>
<trkpt lat="38.10209702041958" lon="-1.4394873100605976">
<ele>990</ele>
<time>2017-03-29T19:14:52Z</time>
</trkpt>
<trkpt lat="38.10210436489652" lon="-1.4393666595942354">
<ele>993</ele>
<time>2017-03-29T19:14:54Z</time>
</trkpt>
<trkpt lat="38.10211895784137" lon="-1.4392372804509512">
<ele>996</ele>
<time>2017-03-29T19:14:56Z</time>
</trkpt>
<trkpt lat="38.10212874353939" lon="-1.4390928271079206">
<ele>998</ele>
<time>2017-03-29T19:14:58Z</time>
</trkpt>
<trkpt lat="38.10210981260764" lon="-1.4389745207309">
<ele>999</ele>
<time>2017-03-29T19:15:00Z</time>
</trkpt>
<trkpt lat="38.1020607033407" lon="-1.438890160733739">
<ele>1001</ele>
<time>2017-03-29T19:15:02Z</time>
</trkpt>
<trkpt lat="38.10199008720367" lon="-1.4388291085406917">
<ele>1002</ele>
<time>2017-03-29T19:15:04Z</time>
</trkpt>
<trkpt lat="38.101908537950344" lon="-1.4388117119639179">
<ele>1004</ele>
<time>2017-03-29T19:15:06Z</time>
</trkpt>
<trkpt lat="38.101809948730136" lon="-1.4388413994233287">
<ele>1005</ele>
<time>2017-03-29T19:15:08Z</time>
</trkpt>
<trkpt lat="38.101719841982565" lon="-1.438923571528683">
<ele>1006</ele>
<time>2017-03-29T19:15:10Z</time>
</trkpt>
<trkpt lat="38.10164957279082" lon="-1.4390501047293607">
<ele>1008</ele>
<time>2017-03-29T19:15:12Z</time>
</trkpt>
<trkpt lat="38.101586462971106" lon="-1.4392052707925307">
<ele>1009</ele>
<time>2017-03-29T19:15:14Z</time>
</trkpt>
<trkpt lat="38.101560695412054" lon="-1.4393983181048977">
<ele>1010</ele>
<time>2017-03-29T19:15:16Z</time>
</trkpt>
<trkpt lat="38.101552903083494" lon="-1.4395951875279174">
<ele>1011</ele>
<time>2017-03-29T19:15:18Z</time>
</trkpt>
<trkpt lat="38.10156331542374" lon="-1.4397900642042412">
<ele>1012</ele>
<time>2017-03-29T19:15:20Z</time>
</trkpt>
<trkpt lat="38.101630566333945" lon="-1.4400566480464565">
<ele>1014</ele>
<time>2017-03-29T19:15:22Z</time>
</trkpt>
<trkpt lat="38.101727904474835" lon="-1.440263325201781">
<ele>1017</ele>
<time>2017-03-29T19:15:24Z</time>
</trkpt>
<trkpt lat="38.1018732127925" lon="-1.4404221639088648">
<ele>1020</ele>
<time>2017-03-29T19:15:26Z</time>
</trkpt>
<trkpt lat="38.1020278984918" lon="-1.4405080934455634">
<ele>1022</ele>
<time>2017-03-29T19:15:28Z</time>
</trkpt>
<trkpt lat="38.102196428375905" lon="-1.440556847678039">
<ele>1024</ele>
<time>2017-03-29T19:15:30Z</time>
</trkpt>
<trkpt lat="38.10239493723503" lon="-1.4405098855698448">
<ele>1025</ele>
<time>2017-03-29T19:15:32Z</time>
</trkpt>
<trkpt lat="38.10253816704077" lon="-1.44035531339829">
<ele>1025</ele>
<time>2017-03-29T19:15:34Z</time>
</trkpt>
<trkpt lat="38.102625850379326" lon="-1.4402101341447027">
<ele>1026</ele>
<time>2017-03-29T19:15:36Z</time>
</trkpt>
<trkpt lat="38.102694313546245" lon="-1.4400518996352312">
<ele>1027</ele>
<time>2017-03-29T19:15:38Z</time>
</trkpt>
<trkpt lat="38.10272128543243" lon="-1.4398897245676754">
<ele>1028</ele>
<time>2017-03-29T19:15:40Z</time>
</trkpt>
<trkpt lat="38.10270778429847" lon="-1.439753801584201">
<ele>1030</ele>
<time>2017-03-29T19:15:42Z</time>
</trkpt>
<trkpt lat="38.10267542565847" lon="-1.439598783994225">
<ele>1030</ele>
<time>2017-03-29T19:15:44Z</time>
</trkpt>
<trkpt lat="38.10263297243085" lon="-1.4394619920097609">
<ele>1031</ele>
<time>2017-03-29T19:15:46Z</time>
</trkpt>
<trkpt lat="38.102584256278305" lon="-1.4393573686844896">
<ele>1032</ele>
<time>2017-03-29T19:15:48Z</time>
</trkpt>
<trkpt lat="38.102528816688086" lon="-1.4392432634891692">
<ele>1033</ele>
<time>2017-03-29T19:15:50Z</time>
</trkpt>
<trkpt lat="38.10247227312853" lon="-1.4391249746537809">
<ele>1034</ele>
<time>2017-03-29T19:15:52Z</time>
</trkpt>
<trkpt lat="38.10239750930475" lon="-1.4390489111078844">
<ele>1034</ele>
<time>2017-03-29T19:15:54Z</time>
</trkpt>
<trkpt lat="38.10231372649312" lon="-1.4390022268136808">
<ele>1035</ele>
<time>2017-03-29T19:15:56Z</time>
</trkpt>
<trkpt lat="38.102211530032115" lon="-1.4389553832670188">
<ele>1036</ele>
<time>2017-03-29T19:15:58Z</time>
</trkpt>
<trkpt lat="38.10208467891727" lon="-1.4389473345148276">
<ele>1036</ele>
<time>2017-03-29T19:16:00Z</time>
</trkpt>
<trkpt lat="38.101981919842274" lon="-1.4389883539297608">
<ele>1037</ele>
<time>2017-03-29T19:16:02Z</time>
</trkpt>
<trkpt lat="38.101899167508854" lon="-1.4390706933200133">
<ele>1039</ele>
<time>2017-03-29T19:16:04Z</time>
</trkpt>
<trkpt lat="38.10181561380687" lon="-1.4392459426791013">
<ele>1041</ele>
<time>2017-03-29T19:16:06Z</time>
</trkpt>
<trkpt lat="38.10174119019" lon="-1.4394431402193089">
<ele>1046</ele>
<time>2017-03-29T19:16:08Z</time>
</trkpt>
<trkpt lat="38.10167374129548" lon="-1.4395947831796971">
<ele>1051</ele>
<time>2017-03-29T19:16:10Z</time>
</trkpt>
<trkpt lat="38.101611603772135" lon="-1.4397500956811145">
<ele>1054</ele>
<time>2017-03-29T19:16:12Z</time>
</trkpt>
<trkpt lat="38.101550322121966" lon="-1.4399259843913506">
<ele>1057</ele>
<time>2017-03-29T19:16:14Z</time>
</trkpt>
<trkpt lat="38.101521645421485" lon="-1.4401034347650041">
<ele>1060</ele>
<time>2017-03-29T19:16:16Z</time>
</trkpt>
<trkpt lat="38.10151029283325" lon="-1.4402873398273452">
<ele>1061</ele>
<time>2017-03-29T19:16:18Z</time>
</trkpt>
<trkpt lat="38.101516900956824" lon="-1.4404811642416389">
<ele>1059</ele>
<time>2017-03-29T19:16:20Z</time>
</trkpt>
<trkpt lat="38.101549381040236" lon="-1.4407464139472623">
<ele>1057</ele>
<time>2017-03-29T19:16:22Z</time>
</trkpt>
<trkpt lat="38.10162488588439" lon="-1.4409872273771431">
<ele>1058</ele>
<time>2017-03-29T19:16:24Z</time>
</trkpt>
<trkpt lat="38.10177470328376" lon="-1.4411943040120812">
<ele>1059</ele>
<time>2017-03-29T19:16:26Z</time>
</trkpt>
<trkpt lat="38.10198313592082" lon="-1.4413272358914773">
<ele>1060</ele>
<time>2017-03-29T19:16:28Z</time>
</trkpt>
<trkpt lat="38.10218875223898" lon="-1.4413461745710947">
<ele>1060</ele>
<time>2017-03-29T19:16:30Z</time>
</trkpt>
<trkpt lat="38.102358599819524" lon="-1.4412851809776686">
<ele>1059</ele>
<time>2017-03-29T19:16:32Z</time>
</trkpt>
<trkpt lat="38.10246902585479" lon="-1.4411807642627863">
<ele>1058</ele>
<time>2017-03-29T19:16:34Z</time>
</trkpt>
<trkpt lat="38.10252052885468" lon="-1.4410581674201683">
<ele>1059</ele>
<time>2017-03-29T19:16:36Z</time>
</trkpt>
<trkpt lat="38.10256047575733" lon="-1.440900732303292">
<ele>1061</ele>
<time>2017-03-29T19:16:38Z</time>
</trkpt>
<trkpt lat="38.102574932715065" lon="-1.4407298455813033">
<ele>1061</ele>
<time>2017-03-29T19:16:40Z</time>
</trkpt>
<trkpt lat="38.10254421658482" lon="-1.4405871928769516">
<ele>1062</ele>
<time>2017-03-29T19:16:42Z</time>
</trkpt>
<trkpt lat="38.10249590574079" lon="-1.4404857809019194">
<ele>1062</ele>
<time>2017-03-29T19:16:44Z</time>
</trkpt>
<trkpt lat="38.102449801451336" lon="-1.440419219559409">
<ele>1063</ele>
<time>2017-03-29T19:16:46Z</time>
</trkpt>
<trkpt lat="38.102395442246305" lon="-1.4403676816524393">
<ele>1064</ele>
<time>2017-03-29T19:16:48Z</time>
</trkpt>
<trkpt lat="38.10232707477457" lon="-1.4403129547311146">
<ele>1066</ele>
<time>2017-03-29T19:16:50Z</time>
</trkpt>
<trkpt lat="38.10225887858285" lon="-1.4402960182670463">
<ele>1066</ele>
<time>2017-03-29T19:16:52Z</time>
</trkpt>
<trkpt lat="38.10217477327257" lon="-1.4403037245968078">
<ele>1070</ele>
<time>2017-03-29T19:16:54Z</time>
</trkpt>
<trkpt lat="38.10208173242585" lon="-1.4403521981584575">
<ele>1073</ele>
<time>2017-03-29T19:16:56Z</time>
</trkpt>
<trkpt lat="38.10198680777851" lon="-1.4404252507427833">
<ele>1075</ele>
<time>2017-03-29T19:16:58Z</time>
</trkpt>
<trkpt lat="38.101889686627004" lon="-1.4405167323733388">
<ele>1078</ele>
<time>2017-03-29T19:17:00Z</time>
</trkpt>
<trkpt lat="38.10178409573765" lon="-1.4406292184014295">
<ele>1079</ele>
<time>2017-03-29T19:17:02Z</time>
</trkpt>
<trkpt lat="38.101684159349404" lon="-1.4407590952448193">
<ele>1080</ele>
<time>2017-03-29T19:17:04Z</time>
</trkpt>
<trkpt lat="38.10161092324377" lon="-1.4408923907946813">
<ele>1080</ele>
<time>2017-03-29T19:17:06Z</time>
</trkpt>
<trkpt lat="38.10153764758329" lon="-1.441055512573592">
<ele>1079</ele>
<time>2017-03-29T19:17:08Z</time>
</trkpt>
<trkpt lat="38.101461400357344" lon="-1.4412354569146644">
<ele>1078</ele>
<time>2017-03-29T19:17:10Z</time>
</trkpt>
<trkpt lat="38.101402294795605" lon="-1.44142895614368">
<ele>1078</ele>
<time>2017-03-29T19:17:12Z</time>
</trkpt>
<trkpt lat="38.10134980323126" lon="-1.44164545902587">
<ele>1078</ele>
<time>2017-03-29T19:17:14Z</time>
</trkpt>
<trkpt lat="38.10129811570228" lon="-1.4418852209613398">
<ele>1080</ele>
<time>2017-03-29T19:17:16Z</time>
</trkpt>
<trkpt lat="38.101264644115965" lon="-1.4421105028843004">
<ele>1081</ele>
<time>2017-03-29T19:17:18Z</time>
</trkpt>
<trkpt lat="38.10123671082845" lon="-1.4423400003047455">
<ele>1083</ele>
<time>2017-03-29T19:17:20Z</time>
</trkpt>
<trkpt lat="38.10122384087919" lon="-1.4425763305999806">
<ele>1084</ele>
<time>2017-03-29T19:17:22Z</time>
</trkpt>
<trkpt lat="38.10128511569852" lon="-1.442881448663513">
<ele>1087</ele>
<time>2017-03-29T19:17:24Z</time>
</trkpt>
<trkpt lat="38.1013558031607" lon="-1.4431350184386555">
<ele>1091</ele>
<time>2017-03-29T19:17:26Z</time>
</trkpt>
<trkpt lat="38.10149199441771" lon="-1.4433516693986361">
<ele>1094</ele>
<time>2017-03-29T19:17:28Z</time>
</trkpt>
<trkpt lat="38.101687077328826" lon="-1.443519455249789">
<ele>1097</ele>
<time>2017-03-29T19:17:30Z</time>
</trkpt>
<trkpt lat="38.10185291113352" lon="-1.4435933153653826">
<ele>1098</ele>
<time>2017-03-29T19:17:32Z</time>
</trkpt>
<trkpt lat="38.10203966926905" lon="-1.4435911795523357">
<ele>1098</ele>
<time>2017-03-29T19:17:34Z</time>
</trkpt>
<trkpt lat="38.10221729038301" lon="-1.4435174333464578">
<ele>1097</ele>
<time>2017-03-29T19:17:36Z</time>
</trkpt>
<trkpt lat="38.10233985768252" lon="-1.4434202411264598">
<ele>1096</ele>
<time>2017-03-29T19:17:38Z</time>
</trkpt>
<trkpt lat="38.10246555945183" lon="-1.4433100170211202">
<ele>1095</ele>
<time>2017-03-29T19:17:40Z</time>
</trkpt>
<trkpt lat="38.102543295982166" lon="-1.4431745280041697">
<ele>1096</ele>
<time>2017-03-29T19:17:42Z</time>
</trkpt>
<trkpt lat="38.10258461166264" lon="-1.4430251335936404">
<ele>1095</ele>
<time>2017-03-29T19:17:44Z</time>
</trkpt>
<trkpt lat="38.10258968958985" lon="-1.4428734174447966">
<ele>1095</ele>
<time>2017-03-29T19:17:46Z</time>
</trkpt>
<trkpt lat="38.102592614867646" lon="-1.4428063343975233">
<ele>1096</ele>
<time>2017-03-29T19:17:48Z</time>
</trkpt>
<trkpt lat="38.10258294028186" lon="-1.4427240220227668">
<ele>1098</ele>
<time>2017-03-29T19:17:50Z</time>
</trkpt>
<trkpt lat="38.10253265045196" lon="-1.4426260100360806">
<ele>1100</ele>
<time>2017-03-29T19:17:52Z</time>
</trkpt>
<trkpt lat="38.10246236443723" lon="-1.4425607631678459">
<ele>1101</ele>
<time>2017-03-29T19:17:54Z</time>
</trkpt>
<trkpt lat="38.1023744124914" lon="-1.4425316148537062">
<ele>1104</ele>
<time>2017-03-29T19:17:56Z</time>
</trkpt>
<trkpt lat="38.10225478462498" lon="-1.4425271311803303">
<ele>1107</ele>
<time>2017-03-29T19:17:58Z</time>
</trkpt>
<trkpt lat="38.10213775106127" lon="-1.4425602091584961">
<ele>1109</ele>
<time>2017-03-29T19:18:00Z</time>
</trkpt>
<trkpt lat="38.102030007673704" lon="-1.4426338869817183">
<ele>1112</ele>
<time>2017-03-29T19:18:02Z</time>
</trkpt>
<trkpt lat="38.10192352649624" lon="-1.4427321027364093">
<ele>1113</ele>
<time>2017-03-29T19:18:04Z</time>
</trkpt>
<trkpt lat="38.10182223963595" lon="-1.4428774374516835">
<ele>1116</ele>
<time>2017-03-29T19:18:06Z</time>
</trkpt>
<trkpt lat="38.10174071471161" lon="-1.4430636928263942">
<ele>1120</ele>
<time>2017-03-29T19:18:08Z</time>
</trkpt>
<trkpt lat="38.10164250066062" lon="-1.4432987641823893">
<ele>1123</ele>
<time>2017-03-29T19:18:10Z</time>
</trkpt>
<trkpt lat="38.10160292088492" lon="-1.44349037533746">
<ele>1123</ele>
<time>2017-03-29T19:18:12Z</time>
</trkpt>
<trkpt lat="38.10159105687979" lon="-1.4437424217809083">
<ele>1123</ele>
<time>2017-03-29T19:18:14Z</time>
</trkpt>
<trkpt lat="38.10161090700977" lon="-1.4440196234512046">
<ele>1122</ele>
<time>2017-03-29T19:18:16Z</time>
</trkpt>
<trkpt lat="38.10167678455843" lon="-1.444300694734936">
<ele>1121</ele>
<time>2017-03-29T19:18:18Z</time>
</trkpt>
<trkpt lat="38.10177692918945" lon="-1.444548940522093">
<ele>1122</ele>
<time>2017-03-29T19:18:20Z</time>
</trkpt>
<trkpt lat="38.10193418322036" lon="-1.4447513106203462">
<ele>1123</ele>
<time>2017-03-29T19:18:22Z</time>
</trkpt>
<trkpt lat="38.1021373502983" lon="-1.444853784625076">
<ele>1126</ele>
<time>2017-03-29T19:18:24Z</time>
</trkpt>
<trkpt lat="38.10232751444202" lon="-1.4448291759712228">
<ele>1128</ele>
<time>2017-03-29T19:18:26Z</time>
</trkpt>
<trkpt lat="38.1024484025092" lon="-1.4447421944879233">
<ele>1129</ele>
<time>2017-03-29T19:18:28Z</time>
</trkpt>
<trkpt lat="38.102548939633536" lon="-1.4446421078269438">
<ele>1130</ele>
<time>2017-03-29T19:18:30Z</time>
</trkpt>
<trkpt lat="38.10261316050838" lon="-1.4445125313608185">
<ele>1131</ele>
<time>2017-03-29T19:18:32Z</time>
</trkpt>
<trkpt lat="38.10263346817673" lon="-1.444399956405263">
<ele>1133</ele>
<time>2017-03-29T19:18:34Z</time>
</trkpt>
<trkpt lat="38.10263817329033" lon="-1.4443112076475566">
<ele>1133</ele>
<time>2017-03-29T19:18:36Z</time>
</trkpt>
<trkpt lat="38.102630600182486" lon="-1.4442295399707665">
<ele>1135</ele>
<time>2017-03-29T19:18:38Z</time>
</trkpt>
<trkpt lat="38.10261250014081" lon="-1.4441230938020595">
<ele>1136</ele>
<time>2017-03-29T19:18:40Z</time>
</trkpt>
<trkpt lat="38.10259855369709" lon="-1.444038358962909">
<ele>1136</ele>
<time>2017-03-29T19:18:42Z</time>
</trkpt>
<trkpt lat="38.10258251407739" lon="-1.4439567188454352">
<ele>1136</ele>
<time>2017-03-29T19:18:44Z</time>
</trkpt>
<trkpt lat="38.102562634487484" lon="-1.4438451361017162">
<ele>1139</ele>
<time>2017-03-29T19:18:46Z</time>
</trkpt>
<trkpt lat="38.10255119343928" lon="-1.4437195448437676">
<ele>1141</ele>
<time>2017-03-29T19:18:48Z</time>
</trkpt>
<trkpt lat="38.102563448952615" lon="-1.4436216192974658">
<ele>1142</ele>
<time>2017-03-29T19:18:50Z</time>
</trkpt>
<trkpt lat="38.10259195703187" lon="-1.4435057444434725">
<ele>1145</ele>
<time>2017-03-29T19:18:52Z</time>
</trkpt>
<trkpt lat="38.10263801089472" lon="-1.4433894732324195">
<ele>1148</ele>
<time>2017-03-29T19:18:54Z</time>
</trkpt>
<trkpt lat="38.10267926175458" lon="-1.4433163710976329">
<ele>1150</ele>
<time>2017-03-29T19:18:56Z</time>
</trkpt>
<trkpt lat="38.10271767585207" lon="-1.4432109980298549">
<ele>1153</ele>
<time>2017-03-29T19:18:58Z</time>
</trkpt>
<trkpt lat="38.102760566779764" lon="-1.4430894373493433">
<ele>1155</ele>
<time>2017-03-29T19:19:00Z</time>
</trkpt>
<trkpt lat="38.10280030843676" lon="-1.4429873424802064">
<ele>1156</ele>
<time>2017-03-29T19:19:02Z</time>
</trkpt>
<trkpt lat="38.10284157343966" lon="-1.4428778346184923">
<ele>1157</ele>
<time>2017-03-29T19:19:04Z</time>
</trkpt>
<trkpt lat="38.10288398189342" lon="-1.442759354994095">
<ele>1158</ele>
<time>2017-03-29T19:19:06Z</time>
</trkpt>
<trkpt lat="38.10292311386978" lon="-1.4426550819157686">
<ele>1160</ele>
<time>2017-03-29T19:19:08Z</time>
</trkpt>
<trkpt lat="38.10296752575041" lon="-1.4425378807067142">
<ele>1161</ele>
<time>2017-03-29T19:19:10Z</time>
</trkpt>
<trkpt lat="38.10301100448873" lon="-1.4424213612950263">
<ele>1162</ele>
<time>2017-03-29T19:19:12Z</time>
</trkpt>
<trkpt lat="38.103040235954666" lon="-1.4423197368246798">
<ele>1164</ele>
<time>2017-03-29T19:19:14Z</time>
</trkpt>
<trkpt lat="38.10306517248942" lon="-1.4422098872178948">
<ele>1165</ele>
<time>2017-03-29T19:19:16Z</time>
</trkpt>
<trkpt lat="38.103096181678566" lon="-1.4420938318044738">
<ele>1167</ele>
<time>2017-03-29T19:19:18Z</time>
</trkpt>
<trkpt lat="38.10313163295529" lon="-1.4419716355475243">
<ele>1169</ele>
<time>2017-03-29T19:19:20Z</time>
</trkpt>
<trkpt lat="38.10316335420956" lon="-1.4418471374251232">
<ele>1171</ele>
<time>2017-03-29T19:19:22Z</time>
</trkpt>
<trkpt lat="38.10319056458582" lon="-1.4417453539210634">
<ele>1172</ele>
<time>2017-03-29T19:19:24Z</time>
</trkpt>
<trkpt lat="38.10318152805918" lon="-1.441650085375544">
<ele>1175</ele>
<time>2017-03-29T19:19:26Z</time>
</trkpt>
<trkpt lat="38.103150258876624" lon="-1.4415522879549565">
<ele>1177</ele>
<time>2017-03-29T19:19:28Z</time>
</trkpt>
<trkpt lat="38.103110647770336" lon="-1.441478952977042">
<ele>1178</ele>
<time>2017-03-29T19:19:30Z</time>
</trkpt>
<trkpt lat="38.10305865189662" lon="-1.4414127797554235">
<ele>1179</ele>
<time>2017-03-29T19:19:32Z</time>
</trkpt>
<trkpt lat="38.102982618667696" lon="-1.4413591489494235">
<ele>1183</ele>
<time>2017-03-29T19:19:34Z</time>
</trkpt>
<trkpt lat="38.10290357545521" lon="-1.4413278989171718">
<ele>1184</ele>
<time>2017-03-29T19:19:36Z</time>
</trkpt>
<trkpt lat="38.102818593220704" lon="-1.4413449262208535">
<ele>1188</ele>
<time>2017-03-29T19:19:38Z</time>
</trkpt>
<trkpt lat="38.10271379243364" lon="-1.4413823283620417">
<ele>1190</ele>
<time>2017-03-29T19:19:40Z</time>
</trkpt>
<trkpt lat="38.10261225905173" lon="-1.4414314149163407">
<ele>1193</ele>
<time>2017-03-29T19:19:42Z</time>
</trkpt>
<trkpt lat="38.10252198812445" lon="-1.4415178078298239">
<ele>1196</ele>
<time>2017-03-29T19:19:44Z</time>
</trkpt>
<trkpt lat="38.10242784868009" lon="-1.441630242224943">
<ele>1199</ele>
<time>2017-03-29T19:19:46Z</time>
</trkpt>
<trkpt lat="38.102352216399126" lon="-1.4417746213797822">
<ele>1201</ele>
<time>2017-03-29T19:19:48Z</time>
</trkpt>
<trkpt lat="38.10228403411976" lon="-1.4419742116351142">
<ele>1204</ele>
<time>2017-03-29T19:19:50Z</time>
</trkpt>
<trkpt lat="38.10223093730563" lon="-1.4422102561650518">
<ele>1207</ele>
<time>2017-03-29T19:19:52Z</time>
</trkpt>
<trkpt lat="38.1022317857665" lon="-1.4424640944455642">
<ele>1210</ele>
<time>2017-03-29T19:19:54Z</time>
</trkpt>
<trkpt lat="38.10228739607418" lon="-1.4427151146703165">
<ele>1213</ele>
<time>2017-03-29T19:19:56Z</time>
</trkpt>
<trkpt lat="38.102380365437625" lon="-1.442971024383206">
<ele>1215</ele>
<time>2017-03-29T19:19:58Z</time>
</trkpt>
<trkpt lat="38.10252794172247" lon="-1.4431852574222572">
<ele>1216</ele>
<time>2017-03-29T19:20:00Z</time>
</trkpt>
<trkpt lat="38.1026904217816" lon="-1.4433811508107948">
<ele>1216</ele>
<time>2017-03-29T19:20:02Z</time>
</trkpt>
<trkpt lat="38.10287553369492" lon="-1.443514827289427">
<ele>1216</ele>
<time>2017-03-29T19:20:04Z</time>
</trkpt>
<trkpt lat="38.1030910689287" lon="-1.443578503825711">
<ele>1215</ele>
<time>2017-03-29T19:20:06Z</time>
</trkpt>
<trkpt lat="38.103300112977934" lon="-1.4435604282320935">
<ele>1215</ele>
<time>2017-03-29T19:20:08Z</time>
</trkpt>
<trkpt lat="38.10348087270253" lon="-1.4434789410341884">
<ele>1214</ele>
<time>2017-03-29T19:20:10Z</time>
</trkpt>
<trkpt lat="38.1035938767631" lon="-1.443367255379982">
<ele>1215</ele>
<time>2017-03-29T19:20:12Z</time>
</trkpt>
<trkpt lat="38.10367361354502" lon="-1.443246892098105">
<ele>1217</ele>
<time>2017-03-29T19:20:14Z</time>
</trkpt>
<trkpt lat="38.10373931062417" lon="-1.4431368216379088">
<ele>1219</ele>
<time>2017-03-29T19:20:16Z</time>
</trkpt>
<trkpt lat="38.103771952615006" lon="-1.4430139500486263">
<ele>1220</ele>
<time>2017-03-29T19:20:18Z</time>
</trkpt>
<trkpt lat="38.10377226927182" lon="-1.4428858245291492">
<ele>1222</ele>
<time>2017-03-29T19:20:20Z</time>
</trkpt>
<trkpt lat="38.10375354158966" lon="-1.4427773874783278">
<ele>1224</ele>
<time>2017-03-29T19:20:22Z</time>
</trkpt>
<trkpt lat="38.10372772306014" lon="-1.4426828521988675">
<ele>1226</ele>
<time>2017-03-29T19:20:24Z</time>
</trkpt>
<trkpt lat="38.10366195273614" lon="-1.4426062687565917">
<ele>1226</ele>
<time>2017-03-29T19:20:26Z</time>
</trkpt>
<trkpt lat="38.10360711753365" lon="-1.4425749253880844">
<ele>1230</ele>
<time>2017-03-29T19:20:28Z</time>
</trkpt>
<trkpt lat="38.10353443415682" lon="-1.4425768148704188">
<ele>1235</ele>
<time>2017-03-29T19:20:30Z</time>
</trkpt>
<trkpt lat="38.1034413124617" lon="-1.4425907575438128">
<ele>1240</ele>
<time>2017-03-29T19:20:32Z</time>
</trkpt>
<trkpt lat="38.1033448141716" lon="-1.4426204842108203">
<ele>1245</ele>
<time>2017-03-29T19:20:34Z</time>
</trkpt>
<trkpt lat="38.10323257562099" lon="-1.4427190064084445">
<ele>1249</ele>
<time>2017-03-29T19:20:36Z</time>
</trkpt>
<trkpt lat="38.103111937862295" lon="-1.4428723453173207">
<ele>1252</ele>
<time>2017-03-29T19:20:38Z</time>
</trkpt>
<trkpt lat="38.103021003680176" lon="-1.4430456157992062">
<ele>1254</ele>
<time>2017-03-29T19:20:40Z</time>
</trkpt>
<trkpt lat="38.102951214652556" lon="-1.4432558548027359">
<ele>1256</ele>
<time>2017-03-29T19:20:42Z</time>
</trkpt>
<trkpt lat="38.10290403235974" lon="-1.4434971778832364">
<ele>1259</ele>
<time>2017-03-29T19:20:44Z</time>
</trkpt>
<trkpt lat="38.102882958608284" lon="-1.4437140186715711">
<ele>1259</ele>
<time>2017-03-29T19:20:46Z</time>
</trkpt>
<trkpt lat="38.10291106946353" lon="-1.4439509275490108">
<ele>1258</ele>
<time>2017-03-29T19:20:48Z</time>
</trkpt>
<trkpt lat="38.10296224315053" lon="-1.444182575595358">
<ele>1257</ele>
<time>2017-03-29T19:20:50Z</time>
</trkpt>
<trkpt lat="38.10308227518579" lon="-1.444448360186594">
<ele>1257</ele>
<time>2017-03-29T19:20:52Z</time>
</trkpt>
<trkpt lat="38.103246576096794" lon="-1.4446925319805948">
<ele>1256</ele>
<time>2017-03-29T19:20:54Z</time>
</trkpt>
<trkpt lat="38.103428911100636" lon="-1.4448793372710715">
<ele>1256</ele>
<time>2017-03-29T19:20:56Z</time>
</trkpt>
<trkpt lat="38.10362659349292" lon="-1.4449893388702868">
<ele>1257</ele>
<time>2017-03-29T19:20:58Z</time>
</trkpt>
<trkpt lat="38.10382417970958" lon="-1.4450425424508664">
<ele>1259</ele>
<time>2017-03-29T19:21:00Z</time>
</trkpt>
<trkpt lat="38.10396970619415" lon="-1.444983566771381">
<ele>1259</ele>
<time>2017-03-29T19:21:02Z</time>
</trkpt>
<trkpt lat="38.10409868774844" lon="-1.4448923034814682">
<ele>1260</ele>
<time>2017-03-29T19:21:04Z</time>
</trkpt>
<trkpt lat="38.104188787700835" lon="-1.444778616690659">
<ele>1260</ele>
<time>2017-03-29T19:21:06Z</time>
</trkpt>
<trkpt lat="38.10426106846661" lon="-1.4446635696090613">
<ele>1261</ele>
<time>2017-03-29T19:21:08Z</time>
</trkpt>
<trkpt lat="38.104298891728696" lon="-1.4445813813955382">
<ele>1262</ele>
<time>2017-03-29T19:21:10Z</time>
</trkpt>
<trkpt lat="38.10432325124312" lon="-1.444493436146629">
<ele>1265</ele>
<time>2017-03-29T19:21:12Z</time>
</trkpt>
<trkpt lat="38.10435190789606" lon="-1.4443631670654542">
<ele>1268</ele>
<time>2017-03-29T19:21:14Z</time>
</trkpt>
<trkpt lat="38.10437629681669" lon="-1.4442544409566869">
<ele>1270</ele>
<time>2017-03-29T19:21:16Z</time>
</trkpt>
<trkpt lat="38.104403615499" lon="-1.4441477004117391">
<ele>1272</ele>
<time>2017-03-29T19:21:18Z</time>
</trkpt>
<trkpt lat="38.10444125956108" lon="-1.4440214207799262">
<ele>1274</ele>
<time>2017-03-29T19:21:20Z</time>
</trkpt>
<trkpt lat="38.10447074001039" lon="-1.443887627791549">
<ele>1275</ele>
<time>2017-03-29T19:21:22Z</time>
</trkpt>
<trkpt lat="38.10449541250291" lon="-1.4437595563280716">
<ele>1276</ele>
<time>2017-03-29T19:21:24Z</time>
</trkpt>
<trkpt lat="38.104526336391444" lon="-1.443625307259468">
<ele>1278</ele>
<time>2017-03-29T19:21:26Z</time>
</trkpt>
<trkpt lat="38.10452911791348" lon="-1.4434953496651295">
<ele>1280</ele>
<time>2017-03-29T19:21:28Z</time>
</trkpt>
<trkpt lat="38.10453032072351" lon="-1.4433658265572624">
<ele>1282</ele>
<time>2017-03-29T19:21:30Z</time>
</trkpt>
<trkpt lat="38.104542576748344" lon="-1.4432132593792197">
<ele>1283</ele>
<time>2017-03-29T19:21:32Z</time>
</trkpt>
<trkpt lat="38.10454753385938" lon="-1.4430661084118273">
<ele>1283</ele>
<time>2017-03-29T19:21:34Z</time>
</trkpt>
<trkpt lat="38.10455677290331" lon="-1.442949293388645">
<ele>1284</ele>
<time>2017-03-29T19:21:36Z</time>
</trkpt>
<trkpt lat="38.10457260493258" lon="-1.4428235974426216">
<ele>1285</ele>
<time>2017-03-29T19:21:38Z</time>
</trkpt>
<trkpt lat="38.10457706140459" lon="-1.442685149857019">
<ele>1285</ele>
<time>2017-03-29T19:21:40Z</time>
</trkpt>
<trkpt lat="38.10460485357593" lon="-1.442545793555492">
<ele>1285</ele>
<time>2017-03-29T19:21:42Z</time>
</trkpt>
<trkpt lat="38.10464197992245" lon="-1.4424140585565195">
<ele>1285</ele>
<time>2017-03-29T19:21:44Z</time>
</trkpt>
<trkpt lat="38.10467219811867" lon="-1.442272637631774">
<ele>1285</ele>
<time>2017-03-29T19:21:46Z</time>
</trkpt>
<trkpt lat="38.10470377555048" lon="-1.4421334263499401">
<ele>1284</ele>
<time>2017-03-29T19:21:48Z</time>
</trkpt>
<trkpt lat="38.10474503216234" lon="-1.441984632116123">
<ele>1284</ele>
<time>2017-03-29T19:21:50Z</time>
</trkpt>
<trkpt lat="38.10480080774682" lon="-1.4418173329815747">
<ele>1284</ele>
<time>2017-03-29T19:21:52Z</time>
</trkpt>
<trkpt lat="38.10486675320335" lon="-1.4416544611315367">
<ele>1284</ele>
<time>2017-03-29T19:21:54Z</time>
</trkpt>
<trkpt lat="38.10493354026472" lon="-1.4415031502935278">
<ele>1284</ele>
<time>2017-03-29T19:21:56Z</time>
</trkpt>
<trkpt lat="38.10500160110736" lon="-1.4413529673314613">
<ele>1284</ele>
<time>2017-03-29T19:21:58Z</time>
</trkpt>
<trkpt lat="38.10505758524891" lon="-1.4412184926408398">
<ele>1284</ele>
<time>2017-03-29T19:22:00Z</time>
</trkpt>
<trkpt lat="38.10510917655029" lon="-1.4410923802539854">
<ele>1285</ele>
<time>2017-03-29T19:22:02Z</time>
</trkpt>
<trkpt lat="38.10516383411673" lon="-1.4409507905467072">
<ele>1285</ele>
<time>2017-03-29T19:22:04Z</time>
</trkpt>
<trkpt lat="38.105200494456845" lon="-1.440789196748906">
<ele>1285</ele>
<time>2017-03-29T19:22:06Z</time>
</trkpt>
<trkpt lat="38.105236878597545" lon="-1.4406316572482118">
<ele>1284</ele>
<time>2017-03-29T19:22:08Z</time>
</trkpt>
<trkpt lat="38.10529228324982" lon="-1.4404814822459597">
<ele>1284</ele>
<time>2017-03-29T19:22:10Z</time>
</trkpt>
<trkpt lat="38.105360273518606" lon="-1.4403002272886891">
<ele>1282</ele>
<time>2017-03-29T19:22:12Z</time>
</trkpt>
<trkpt lat="38.10543661626989" lon="-1.4401131725255474">
<ele>1281</ele>
<time>2017-03-29T19:22:14Z</time>
</trkpt>
<trkpt lat="38.10552058938599" lon="-1.4399558717174288">
<ele>1281</ele>
<time>2017-03-29T19:22:16Z</time>
</trkpt>
<trkpt lat="38.10560992157277" lon="-1.4398150051750078">
<ele>1280</ele>
<time>2017-03-29T19:22:18Z</time>
</trkpt>
<trkpt lat="38.10569852767482" lon="-1.4396797891404667">
<ele>1281</ele>
<time>2017-03-29T19:22:20Z</time>
</trkpt>
<trkpt lat="38.105790723645924" lon="-1.4395292562092488">
<ele>1282</ele>
<time>2017-03-29T19:22:22Z</time>
</trkpt>
<trkpt lat="38.1058858559791" lon="-1.4393710865690903">
<ele>1283</ele>
<time>2017-03-29T19:22:24Z</time>
</trkpt>
<trkpt lat="38.10597404992534" lon="-1.439207501854378">
<ele>1283</ele>
<time>2017-03-29T19:22:26Z</time>
</trkpt>
<trkpt lat="38.10605822837131" lon="-1.4390507799205963">
<ele>1283</ele>
<time>2017-03-29T19:22:28Z</time>
</trkpt>
<trkpt lat="38.10614310738665" lon="-1.4388953183591757">
<ele>1283</ele>
<time>2017-03-29T19:22:30Z</time>
</trkpt>
<trkpt lat="38.106228551474345" lon="-1.4387263150045777">
<ele>1282</ele>
<time>2017-03-29T19:22:32Z</time>
</trkpt>
<trkpt lat="38.10630490147051" lon="-1.4385523302587346">
<ele>1281</ele>
<time>2017-03-29T19:22:34Z</time>
</trkpt>
<trkpt lat="38.10638224850557" lon="-1.43838771057121">
<ele>1281</ele>
<time>2017-03-29T19:22:36Z</time>
</trkpt>
<trkpt lat="38.10648428443875" lon="-1.4381987257961595">
<ele>1279</ele>
<time>2017-03-29T19:22:38Z</time>
</trkpt>
<trkpt lat="38.10660038127107" lon="-1.4380321151297402">
<ele>1279</ele>
<time>2017-03-29T19:22:40Z</time>
</trkpt>
<trkpt lat="38.106723792702226" lon="-1.437862594974111">
<ele>1279</ele>
<time>2017-03-29T19:22:42Z</time>
</trkpt>
<trkpt lat="38.10683558000486" lon="-1.437713621835837">
<ele>1279</ele>
<time>2017-03-29T19:22:44Z</time>
</trkpt>
<trkpt lat="38.106953565892624" lon="-1.4375648233928113">
<ele>1280</ele>
<time>2017-03-29T19:22:46Z</time>
</trkpt>
<trkpt lat="38.1070772042912" lon="-1.4374039322033065">
<ele>1280</ele>
<time>2017-03-29T19:22:48Z</time>
</trkpt>
<trkpt lat="38.10720080664083" lon="-1.437243585139034">
<ele>1279</ele>
<time>2017-03-29T19:22:50Z</time>
</trkpt>
<trkpt lat="38.107318242411125" lon="-1.4371050775036327">
<ele>1280</ele>
<time>2017-03-29T19:22:52Z</time>
</trkpt>
<trkpt lat="38.107420617144875" lon="-1.4369929212426484">
<ele>1280</ele>
<time>2017-03-29T19:22:54Z</time>
</trkpt>
<trkpt lat="38.10751144202886" lon="-1.436845766882381">
<ele>1279</ele>
<time>2017-03-29T19:22:56Z</time>
</trkpt>
<trkpt lat="38.10760745841075" lon="-1.4366564332619858">
<ele>1277</ele>
<time>2017-03-29T19:22:58Z</time>
</trkpt>
<trkpt lat="38.10770211659849" lon="-1.4365229573563512">
<ele>1276</ele>
<time>2017-03-29T19:23:00Z</time>
</trkpt>
<trkpt lat="38.1078147674548" lon="-1.436394579470671">
<ele>1275</ele>
<time>2017-03-29T19:23:02Z</time>
</trkpt>
<trkpt lat="38.107927791848795" lon="-1.4362390614884142">
<ele>1273</ele>
<time>2017-03-29T19:23:04Z</time>
</trkpt>
<trkpt lat="38.10801667192518" lon="-1.4361030963929076">
<ele>1271</ele>
<time>2017-03-29T19:23:06Z</time>
</trkpt>
<trkpt lat="38.108133595051044" lon="-1.435940901075928">
<ele>1269</ele>
<time>2017-03-29T19:23:08Z</time>
</trkpt>
<trkpt lat="38.108271349662424" lon="-1.4357518773010598">
<ele>1266</ele>
<time>2017-03-29T19:23:10Z</time>
</trkpt>
<trkpt lat="38.10838462744098" lon="-1.4355951133449598">
<ele>1264</ele>
<time>2017-03-29T19:23:12Z</time>
</trkpt>
<trkpt lat="38.10851598571073" lon="-1.4354324756110335">
<ele>1261</ele>
<time>2017-03-29T19:23:14Z</time>
</trkpt>
<trkpt lat="38.10864012645174" lon="-1.4352733303944223">
<ele>1257</ele>
<time>2017-03-29T19:23:16Z</time>
</trkpt>
<trkpt lat="38.10875564493627" lon="-1.4351248453132424">
<ele>1253</ele>
<time>2017-03-29T19:23:18Z</time>
</trkpt>
<trkpt lat="38.10887179505511" lon="-1.4349857123406948">
<ele>1249</ele>
<time>2017-03-29T19:23:20Z</time>
</trkpt>
<trkpt lat="38.10898427357716" lon="-1.4348290487398334">
<ele>1245</ele>
<time>2017-03-29T19:23:22Z</time>
</trkpt>
<trkpt lat="38.10910048042836" lon="-1.434660938100419">
<ele>1242</ele>
<time>2017-03-29T19:23:24Z</time>
</trkpt>
<trkpt lat="38.10920478087829" lon="-1.4345145700319732">
<ele>1238</ele>
<time>2017-03-29T19:23:26Z</time>
</trkpt>
<trkpt lat="38.109306567579836" lon="-1.4343722462330069">
<ele>1235</ele>
<time>2017-03-29T19:23:28Z</time>
</trkpt>
<trkpt lat="38.10942173493696" lon="-1.4342222421485922">
<ele>1231</ele>
<time>2017-03-29T19:23:30Z</time>
</trkpt>
<trkpt lat="38.1095363828442" lon="-1.434072989084747">
<ele>1227</ele>
<time>2017-03-29T19:23:32Z</time>
</trkpt>
<trkpt lat="38.109641235894635" lon="-1.4339260739132287">
<ele>1224</ele>
<time>2017-03-29T19:23:34Z</time>
</trkpt>
<trkpt lat="38.109748659498116" lon="-1.4337636237638651">
<ele>1220</ele>
<time>2017-03-29T19:23:36Z</time>
</trkpt>
<trkpt lat="38.10984501154898" lon="-1.4336170204660765">
<ele>1217</ele>
<time>2017-03-29T19:23:38Z</time>
</trkpt>
<trkpt lat="38.10993681999794" lon="-1.4334848511626552">
<ele>1215</ele>
<time>2017-03-29T19:23:40Z</time>
</trkpt>
<trkpt lat="38.1100415839568" lon="-1.4333324370156635">
<ele>1213</ele>
<time>2017-03-29T19:23:42Z</time>
</trkpt>
<trkpt lat="38.110142958578784" lon="-1.4331818843896018">
<ele>1211</ele>
<time>2017-03-29T19:23:44Z</time>
</trkpt>
<trkpt lat="38.11022839427066" lon="-1.433045016780872">
<ele>1211</ele>
<time>2017-03-29T19:23:46Z</time>
</trkpt>
<trkpt lat="38.11030918724513" lon="-1.4329056565619733">
<ele>1211</ele>
<time>2017-03-29T19:23:48Z</time>
</trkpt>
<trkpt lat="38.11038880604926" lon="-1.4328302638834667">
<ele>1212</ele>
<time>2017-03-29T19:23:50Z</time>
</trkpt>
<trkpt lat="38.11044898704146" lon="-1.4327687163516507">
<ele>1212</ele>
<time>2017-03-29T19:23:52Z</time>
</trkpt>
<trkpt lat="38.110485042118576" lon="-1.4326292558564584">
<ele>1212</ele>
<time>2017-03-29T19:23:54Z</time>
</trkpt>
<trkpt lat="38.11048775253019" lon="-1.4325436275946177">
<ele>1212</ele>
<time>2017-03-29T19:23:56Z</time>
</trkpt>
<trkpt lat="38.1104731781319" lon="-1.4324890470824214">
<ele>1212</ele>
<time>2017-03-29T19:23:58Z</time>
</trkpt>
<trkpt lat="38.11043938432126" lon="-1.4323648453316433">
<ele>1214</ele>
<time>2017-03-29T19:24:00Z</time>
</trkpt>
<trkpt lat="38.11044913528615" lon="-1.432264277901868">
<ele>1214</ele>
<time>2017-03-29T19:24:02Z</time>
</trkpt>
<trkpt lat="38.11046918148506" lon="-1.4321920320641648">
<ele>1215</ele>
<time>2017-03-29T19:24:04Z</time>
</trkpt>
<trkpt lat="38.11049864022872" lon="-1.432075938297687">
<ele>1216</ele>
<time>2017-03-29T19:24:06Z</time>
</trkpt>
<trkpt lat="38.11053984153809" lon="-1.4319270886461564">
<ele>1215</ele>
<time>2017-03-29T19:24:08Z</time>
</trkpt>
<trkpt lat="38.11058279341613" lon="-1.431802021918848">
<ele>1215</ele>
<time>2017-03-29T19:24:10Z</time>
</trkpt>
<trkpt lat="38.1106371033234" lon="-1.4316693794809758">
<ele>1214</ele>
<time>2017-03-29T19:24:12Z</time>
</trkpt>
<trkpt lat="38.110706348334496" lon="-1.4315274787501078">
<ele>1214</ele>
<time>2017-03-29T19:24:14Z</time>
</trkpt>
<trkpt lat="38.11077471279182" lon="-1.4313969503687176">
<ele>1213</ele>
<time>2017-03-29T19:24:16Z</time>
</trkpt>
<trkpt lat="38.11086050633995" lon="-1.431242305532281">
<ele>1212</ele>
<time>2017-03-29T19:24:18Z</time>
</trkpt>
<trkpt lat="38.11091905628981" lon="-1.4311061031521277">
<ele>1210</ele>
<time>2017-03-29T19:24:20Z</time>
</trkpt>
<trkpt lat="38.11096829462009" lon="-1.4309960621429993">
<ele>1209</ele>
<time>2017-03-29T19:24:22Z</time>
</trkpt>
<trkpt lat="38.11102712415412" lon="-1.4308505741400956">
<ele>1208</ele>
<time>2017-03-29T19:24:24Z</time>
</trkpt>
<trkpt lat="38.11109005744449" lon="-1.4307021667726776">
<ele>1206</ele>
<time>2017-03-29T19:24:26Z</time>
</trkpt>
<trkpt lat="38.111140944392076" lon="-1.4305903264607909">
<ele>1204</ele>
<time>2017-03-29T19:24:28Z</time>
</trkpt>
<trkpt lat="38.11117843793561" lon="-1.4304782769652438">
<ele>1203</ele>
<time>2017-03-29T19:24:30Z</time>
</trkpt>
<trkpt lat="38.111194259453264" lon="-1.4303160377887587">
<ele>1200</ele>
<time>2017-03-29T19:24:32Z</time>
</trkpt>
<trkpt lat="38.1111990533834" lon="-1.4301547140066793">
<ele>1197</ele>
<time>2017-03-29T19:24:34Z</time>
</trkpt>
<trkpt lat="38.11122748585553" lon="-1.4300270375844566">
<ele>1196</ele>
<time>2017-03-29T19:24:36Z</time>
</trkpt>
<trkpt lat="38.111285616416225" lon="-1.429873564791081">
<ele>1193</ele>
<time>2017-03-29T19:24:38Z</time>
</trkpt>
<trkpt lat="38.11134257359522" lon="-1.4297193310641068">
<ele>1191</ele>
<time>2017-03-29T19:24:40Z</time>
</trkpt>
<trkpt lat="38.111390956873635" lon="-1.4295934592562392">
<ele>1190</ele>
<time>2017-03-29T19:24:42Z</time>
</trkpt>
<trkpt lat="38.11143760320661" lon="-1.4294678715699471">
<ele>1190</ele>
<time>2017-03-29T19:24:44Z</time>
</trkpt>
<trkpt lat="38.111494970640514" lon="-1.4292985102646487">
<ele>1188</ele>
<time>2017-03-29T19:24:46Z</time>
</trkpt>
<trkpt lat="38.1115534473274" lon="-1.429151164134835">
<ele>1187</ele>
<time>2017-03-29T19:24:48Z</time>
</trkpt>
<trkpt lat="38.111610644529726" lon="-1.4290339123228175">
<ele>1185</ele>
<time>2017-03-29T19:24:50Z</time>
</trkpt>
<trkpt lat="38.111675817243196" lon="-1.4289213905941387">
<ele>1185</ele>
<time>2017-03-29T19:24:52Z</time>
</trkpt>
<trkpt lat="38.11173853997062" lon="-1.4287979304890581">
<ele>1186</ele>
<time>2017-03-29T19:24:54Z</time>
</trkpt>
<trkpt lat="38.1118116883028" lon="-1.4286551336566842">
<ele>1186</ele>
<time>2017-03-29T19:24:56Z</time>
</trkpt>
<trkpt lat="38.11188817658223" lon="-1.428491207780251">
<ele>1185</ele>
<time>2017-03-29T19:24:58Z</time>
</trkpt>
<trkpt lat="38.11196122862124" lon="-1.4283304418292186">
<ele>1184</ele>
<time>2017-03-29T19:25:00Z</time>
</trkpt>
<trkpt lat="38.11203483561103" lon="-1.4282209484274258">
<ele>1183</ele>
<time>2017-03-29T19:25:02Z</time>
</trkpt>
<trkpt lat="38.112101146388326" lon="-1.4280811137165137">
<ele>1182</ele>
<time>2017-03-29T19:25:04Z</time>
</trkpt>
<trkpt lat="38.112148141088134" lon="-1.4279294134496683">
<ele>1180</ele>
<time>2017-03-29T19:25:06Z</time>
</trkpt>
<trkpt lat="38.11220169528082" lon="-1.427809565309903">
<ele>1178</ele>
<time>2017-03-29T19:25:08Z</time>
</trkpt>
<trkpt lat="38.11227300534941" lon="-1.4276905823296075">
<ele>1177</ele>
<time>2017-03-29T19:25:10Z</time>
</trkpt>
<trkpt lat="38.1123354994838" lon="-1.427583676305481">
<ele>1176</ele>
<time>2017-03-29T19:25:12Z</time>
</trkpt>
<trkpt lat="38.11238507071408" lon="-1.4275081409757424">
<ele>1176</ele>
<time>2017-03-29T19:25:14Z</time>
</trkpt>
<trkpt lat="38.11241971246005" lon="-1.4274335595443832">
<ele>1174</ele>
<time>2017-03-29T19:25:16Z</time>
</trkpt>
<trkpt lat="38.11244729249758" lon="-1.4273482653658496">
<ele>1173</ele>
<time>2017-03-29T19:25:18Z</time>
</trkpt>
<trkpt lat="38.1124740205251" lon="-1.4272672651354013">
<ele>1172</ele>
<time>2017-03-29T19:25:20Z</time>
</trkpt>
<trkpt lat="38.11251013210028" lon="-1.4271622783432287">
<ele>1170</ele>
<time>2017-03-29T19:25:22Z</time>
</trkpt>
<trkpt lat="38.112549221342995" lon="-1.4270541019056022">
<ele>1168</ele>
<time>2017-03-29T19:25:24Z</time>
</trkpt>
<trkpt lat="38.11259594008865" lon="-1.4269383031213783">
<ele>1167</ele>
<time>2017-03-29T19:25:26Z</time>
</trkpt>
<trkpt lat="38.112650376770226" lon="-1.4268000327016053">
<ele>1165</ele>
<time>2017-03-29T19:25:28Z</time>
</trkpt>
<trkpt lat="38.11269510601662" lon="-1.426678289345269">
<ele>1165</ele>
<time>2017-03-29T19:25:30Z</time>
</trkpt>
<trkpt lat="38.11272706087795" lon="-1.4265721656877244">
<ele>1166</ele>
<time>2017-03-29T19:25:32Z</time>
</trkpt>
<trkpt lat="38.11277400634952" lon="-1.426449675422011">
<ele>1167</ele>
<time>2017-03-29T19:25:34Z</time>
</trkpt>
<trkpt lat="38.112843643621254" lon="-1.426328461365354">
<ele>1168</ele>
<time>2017-03-29T19:25:36Z</time>
</trkpt>
<trkpt lat="38.11292348556583" lon="-1.4262195576971217">
<ele>1168</ele>
<time>2017-03-29T19:25:38Z</time>
</trkpt>
<trkpt lat="38.11301220155743" lon="-1.4261027681792842">
<ele>1167</ele>
<time>2017-03-29T19:25:40Z</time>
</trkpt>
<trkpt lat="38.113095491475256" lon="-1.4259988488603084">
<ele>1166</ele>
<time>2017-03-29T19:25:42Z</time>
</trkpt>
<trkpt lat="38.11317963981154" lon="-1.4258953788089344">
<ele>1165</ele>
<time>2017-03-29T19:25:44Z</time>
</trkpt>
<trkpt lat="38.11330217368815" lon="-1.425784024821365">
<ele>1162</ele>
<time>2017-03-29T19:25:46Z</time>
</trkpt>
<trkpt lat="38.1134265416409" lon="-1.4257022089996993">
<ele>1160</ele>
<time>2017-03-29T19:25:48Z</time>
</trkpt>
<trkpt lat="38.113502172720146" lon="-1.4256250290387178">
<ele>1158</ele>
<time>2017-03-29T19:25:50Z</time>
</trkpt>
<trkpt lat="38.11358735672291" lon="-1.4255087743723296">
<ele>1156</ele>
<time>2017-03-29T19:25:52Z</time>
</trkpt>
<trkpt lat="38.113678050403664" lon="-1.425394189063186">
<ele>1154</ele>
<time>2017-03-29T19:25:54Z</time>
</trkpt>
<trkpt lat="38.11373770355579" lon="-1.4253189069135093">
<ele>1154</ele>
<time>2017-03-29T19:25:56Z</time>
</trkpt>
<trkpt lat="38.11379055988401" lon="-1.4252120816369083">
<ele>1152</ele>
<time>2017-03-29T19:25:58Z</time>
</trkpt>
<trkpt lat="38.113838495971656" lon="-1.425098779459887">
<ele>1151</ele>
<time>2017-03-29T19:26:00Z</time>
</trkpt>
<trkpt lat="38.11390371237908" lon="-1.4250082319909787">
<ele>1149</ele>
<time>2017-03-29T19:26:02Z</time>
</trkpt>
<trkpt lat="38.11399385226671" lon="-1.4248645231760657">
<ele>1145</ele>
<time>2017-03-29T19:26:04Z</time>
</trkpt>
<trkpt lat="38.11408656635814" lon="-1.424734107955748">
<ele>1141</ele>
<time>2017-03-29T19:26:06Z</time>
</trkpt>
<trkpt lat="38.11417831681431" lon="-1.4246138119188012">
<ele>1137</ele>
<time>2017-03-29T19:26:08Z</time>
</trkpt>
<trkpt lat="38.11426728480873" lon="-1.4244983818339094">
<ele>1133</ele>
<time>2017-03-29T19:26:10Z</time>
</trkpt>
<trkpt lat="38.1143628882852" lon="-1.4243897538484969">
<ele>1129</ele>
<time>2017-03-29T19:26:12Z</time>
</trkpt>
<trkpt lat="38.114453996427976" lon="-1.4242862089897939">
<ele>1126</ele>
<time>2017-03-29T19:26:14Z</time>
</trkpt>
<trkpt lat="38.114542271433784" lon="-1.4241678205244979">
<ele>1122</ele>
<time>2017-03-29T19:26:16Z</time>
</trkpt>
<trkpt lat="38.114623944937925" lon="-1.4240433260786938">
<ele>1119</ele>
<time>2017-03-29T19:26:18Z</time>
</trkpt>
<trkpt lat="38.11469488455361" lon="-1.4239123752942553">
<ele>1115</ele>
<time>2017-03-29T19:26:20Z</time>
</trkpt>
<trkpt lat="38.11477213741641" lon="-1.4237618130703475">
<ele>1111</ele>
<time>2017-03-29T19:26:22Z</time>
</trkpt>
<trkpt lat="38.114835801407" lon="-1.4236349453714816">
<ele>1107</ele>
<time>2017-03-29T19:26:23Z</time>
</trkpt>
<trkpt lat="38.114891963882776" lon="-1.4235186247832885">
<ele>1104</ele>
<time>2017-03-29T19:26:25Z</time>
</trkpt>
<trkpt lat="38.11489861803309" lon="-1.4234104169679436">
<ele>1100</ele>
<time>2017-03-29T19:26:27Z</time>
</trkpt>
<trkpt lat="38.11485610734768" lon="-1.4233354146740727">
<ele>1096</ele>
<time>2017-03-29T19:26:29Z</time>
</trkpt>
<trkpt lat="38.114789501983196" lon="-1.4233027093578365">
<ele>1092</ele>
<time>2017-03-29T19:26:31Z</time>
</trkpt>
<trkpt lat="38.11473311748499" lon="-1.4233010354314164">
<ele>1087</ele>
<time>2017-03-29T19:26:33Z</time>
</trkpt>
<trkpt lat="38.114661565650074" lon="-1.4233140179489427">
<ele>1083</ele>
<time>2017-03-29T19:26:35Z</time>
</trkpt>
<trkpt lat="38.11456185583477" lon="-1.4233439569598068">
<ele>1079</ele>
<time>2017-03-29T19:26:37Z</time>
</trkpt>
<trkpt lat="38.11444412612816" lon="-1.4234003401360598">
<ele>1075</ele>
<time>2017-03-29T19:26:39Z</time>
</trkpt>
<trkpt lat="38.11433858239327" lon="-1.423463650475218">
<ele>1071</ele>
<time>2017-03-29T19:26:41Z</time>
</trkpt>
<trkpt lat="38.11424214993715" lon="-1.4235293252503782">
<ele>1067</ele>
<time>2017-03-29T19:26:43Z</time>
</trkpt>
<trkpt lat="38.114175423674666" lon="-1.4236264226325406">
<ele>1064</ele>
<time>2017-03-29T19:26:45Z</time>
</trkpt>
<trkpt lat="38.114075421990655" lon="-1.4237495476567859">
<ele>1061</ele>
<time>2017-03-29T19:26:47Z</time>
</trkpt>
<trkpt lat="38.113978350181725" lon="-1.4238435232386055">
<ele>1058</ele>
<time>2017-03-29T19:26:49Z</time>
</trkpt>
<trkpt lat="38.1138934098218" lon="-1.4239119948760344">
<ele>1056</ele>
<time>2017-03-29T19:26:51Z</time>
</trkpt>
<trkpt lat="38.113809956573675" lon="-1.4239709934557438">
<ele>1053</ele>
<time>2017-03-29T19:26:53Z</time>
</trkpt>
<trkpt lat="38.113715348157974" lon="-1.4240045420978729">
<ele>1051</ele>
<time>2017-03-29T19:26:55Z</time>
</trkpt>
<trkpt lat="38.11363417123743" lon="-1.424013798959145">
<ele>1049</ele>
<time>2017-03-29T19:26:57Z</time>
</trkpt>
<trkpt lat="38.113556613786855" lon="-1.4240221293814903">
<ele>1048</ele>
<time>2017-03-29T19:26:59Z</time>
</trkpt>
<trkpt lat="38.11346528704801" lon="-1.4240264198672041">
<ele>1046</ele>
<time>2017-03-29T19:27:01Z</time>
</trkpt>
<trkpt lat="38.11337455696988" lon="-1.4240434521245147">
<ele>1042</ele>
<time>2017-03-29T19:27:03Z</time>
</trkpt>
<trkpt lat="38.113272728256675" lon="-1.42411309454516">
<ele>1039</ele>
<time>2017-03-29T19:27:05Z</time>
</trkpt>
<trkpt lat="38.11316352293506" lon="-1.4242084303025315">
<ele>1037</ele>
<time>2017-03-29T19:27:07Z</time>
</trkpt>
<trkpt lat="38.11304226210071" lon="-1.4243116601767256">
<ele>1034</ele>
<time>2017-03-29T19:27:09Z</time>
</trkpt>
<trkpt lat="38.11293132066599" lon="-1.424411230525161">
<ele>1030</ele>
<time>2017-03-29T19:27:11Z</time>
</trkpt>
<trkpt lat="38.11281490648631" lon="-1.4245038169094562">
<ele>1027</ele>
<time>2017-03-29T19:27:13Z</time>
</trkpt>
<trkpt lat="38.112684315401744" lon="-1.4246074185231357">
<ele>1025</ele>
<time>2017-03-29T19:27:15Z</time>
</trkpt>
<trkpt lat="38.11259402028825" lon="-1.424693604062848">
<ele>1024</ele>
<time>2017-03-29T19:27:17Z</time>
</trkpt>
<trkpt lat="38.11252187664715" lon="-1.4247607194495162">
<ele>1023</ele>
<time>2017-03-29T19:27:19Z</time>
</trkpt>
<trkpt lat="38.11242544531047" lon="-1.4248196597892002">
<ele>1023</ele>
<time>2017-03-29T19:27:21Z</time>
</trkpt>
<trkpt lat="38.11231934911023" lon="-1.4248733347662181">
<ele>1022</ele>
<time>2017-03-29T19:27:23Z</time>
</trkpt>
<trkpt lat="38.11222170878731" lon="-1.4249173735321854">
<ele>1020</ele>
<time>2017-03-29T19:27:25Z</time>
</trkpt>
<trkpt lat="38.11211909512717" lon="-1.424958212276881">
<ele>1017</ele>
<time>2017-03-29T19:27:27Z</time>
</trkpt>
<trkpt lat="38.11200533454643" lon="-1.4250059255881773">
<ele>1014</ele>
<time>2017-03-29T19:27:29Z</time>
</trkpt>
<trkpt lat="38.111891987417565" lon="-1.425055643013628">
<ele>1011</ele>
<time>2017-03-29T19:27:31Z</time>
</trkpt>
<trkpt lat="38.111782130656565" lon="-1.4251002446998233">
<ele>1008</ele>
<time>2017-03-29T19:27:33Z</time>
</trkpt>
<trkpt lat="38.11166909116777" lon="-1.42515884243466">
<ele>1005</ele>
<time>2017-03-29T19:27:35Z</time>
</trkpt>
<trkpt lat="38.111564821827024" lon="-1.4252620023846825">
<ele>1003</ele>
<time>2017-03-29T19:27:37Z</time>
</trkpt>
<trkpt lat="38.11144970984754" lon="-1.4253800519059525">
<ele>1000</ele>
<time>2017-03-29T19:27:39Z</time>
</trkpt>
<trkpt lat="38.111331793012496" lon="-1.4255072511584903">
<ele>996</ele>
<time>2017-03-29T19:27:41Z</time>
</trkpt>
<trkpt lat="38.111219789439794" lon="-1.425652738866467">
<ele>994</ele>
<time>2017-03-29T19:27:43Z</time>
</trkpt>
<trkpt lat="38.11111717387183" lon="-1.425799627904459">
<ele>991</ele>
<time>2017-03-29T19:27:45Z</time>
</trkpt>
<trkpt lat="38.11099472943907" lon="-1.4259556082866731">
<ele>989</ele>
<time>2017-03-29T19:27:47Z</time>
</trkpt>
<trkpt lat="38.11087753554769" lon="-1.4261134526854218">
<ele>987</ele>
<time>2017-03-29T19:27:49Z</time>
</trkpt>
<trkpt lat="38.11076382487603" lon="-1.426254717511772">
<ele>984</ele>
<time>2017-03-29T19:27:51Z</time>
</trkpt>
<trkpt lat="38.11064618036158" lon="-1.426367667245043">
<ele>982</ele>
<time>2017-03-29T19:27:53Z</time>
</trkpt>
<trkpt lat="38.11052627533645" lon="-1.426459339975375">
<ele>980</ele>
<time>2017-03-29T19:27:55Z</time>
</trkpt>
<trkpt lat="38.11042166094503" lon="-1.4265247033701902">
<ele>978</ele>
<time>2017-03-29T19:27:57Z</time>
</trkpt>
<trkpt lat="38.1103142525093" lon="-1.4265790573310608">
<ele>977</ele>
<time>2017-03-29T19:27:59Z</time>
</trkpt>
<trkpt lat="38.110217187103785" lon="-1.4266280693236326">
<ele>976</ele>
<time>2017-03-29T19:28:01Z</time>
</trkpt>
<trkpt lat="38.11012944535134" lon="-1.4266727729717346">
<ele>976</ele>
<time>2017-03-29T19:28:03Z</time>
</trkpt>
<trkpt lat="38.110039359517" lon="-1.4267264690890764">
<ele>974</ele>
<time>2017-03-29T19:28:05Z</time>
</trkpt>
<trkpt lat="38.10995078560188" lon="-1.4267979705274858">
<ele>973</ele>
<time>2017-03-29T19:28:07Z</time>
</trkpt>
<trkpt lat="38.1098604457214" lon="-1.4268814305952844">
<ele>972</ele>
<time>2017-03-29T19:28:09Z</time>
</trkpt>
<trkpt lat="38.1097556262665" lon="-1.4269849223460882">
<ele>970</ele>
<time>2017-03-29T19:28:11Z</time>
</trkpt>
<trkpt lat="38.109648798820295" lon="-1.4271016769322902">
<ele>969</ele>
<time>2017-03-29T19:28:13Z</time>
</trkpt>
<trkpt lat="38.1095604349514" lon="-1.427222315562965">
<ele>967</ele>
<time>2017-03-29T19:28:15Z</time>
</trkpt>
<trkpt lat="38.10946634461805" lon="-1.4273690024871024">
<ele>965</ele>
<time>2017-03-29T19:28:17Z</time>
</trkpt>
<trkpt lat="38.109385549827955" lon="-1.4275620679812913">
<ele>965</ele>
<time>2017-03-29T19:28:19Z</time>
</trkpt>
<trkpt lat="38.10932964747274" lon="-1.4277816949228745">
<ele>965</ele>
<time>2017-03-29T19:28:21Z</time>
</trkpt>
<trkpt lat="38.109276578803936" lon="-1.427991353155734">
<ele>965</ele>
<time>2017-03-29T19:28:23Z</time>
</trkpt>
<trkpt lat="38.10920848769261" lon="-1.4281864589906397">
<ele>964</ele>
<time>2017-03-29T19:28:25Z</time>
</trkpt>
<trkpt lat="38.109128534509104" lon="-1.4283669185904926">
<ele>962</ele>
<time>2017-03-29T19:28:27Z</time>
</trkpt>
<trkpt lat="38.10903698905008" lon="-1.428539501910113">
<ele>961</ele>
<time>2017-03-29T19:28:29Z</time>
</trkpt>
<trkpt lat="38.108940392970396" lon="-1.4287126495762463">
<ele>960</ele>
<time>2017-03-29T19:28:31Z</time>
</trkpt>
<trkpt lat="38.108848114399144" lon="-1.428886226997029">
<ele>959</ele>
<time>2017-03-29T19:28:33Z</time>
</trkpt>
<trkpt lat="38.108760109847466" lon="-1.4290802172569517">
<ele>958</ele>
<time>2017-03-29T19:28:35Z</time>
</trkpt>
<trkpt lat="38.10866798952275" lon="-1.4292877168416367">
<ele>957</ele>
<time>2017-03-29T19:28:37Z</time>
</trkpt>
<trkpt lat="38.108580049655075" lon="-1.4294846753919495">
<ele>955</ele>
<time>2017-03-29T19:28:39Z</time>
</trkpt>
<trkpt lat="38.108503757424266" lon="-1.4296631162921474">
<ele>954</ele>
<time>2017-03-29T19:28:41Z</time>
</trkpt>
<trkpt lat="38.108429892226916" lon="-1.4298550044786493">
<ele>952</ele>
<time>2017-03-29T19:28:43Z</time>
</trkpt>
<trkpt lat="38.10835716848119" lon="-1.4300501566191794">
<ele>950</ele>
<time>2017-03-29T19:28:45Z</time>
</trkpt>
<trkpt lat="38.10829426091072" lon="-1.4302302479671973">
<ele>947</ele>
<time>2017-03-29T19:28:47Z</time>
</trkpt>
<trkpt lat="38.10822282976992" lon="-1.4304055412002403">
<ele>945</ele>
<time>2017-03-29T19:28:49Z</time>
</trkpt>
<trkpt lat="38.10813663426159" lon="-1.4305782183604043">
<ele>944</ele>
<time>2017-03-29T19:28:51Z</time>
</trkpt>
<trkpt lat="38.108052421319215" lon="-1.4307343292580137">
<ele>943</ele>
<time>2017-03-29T19:28:53Z</time>
</trkpt>
<trkpt lat="38.10796448780583" lon="-1.4308835669782058">
<ele>941</ele>
<time>2017-03-29T19:28:55Z</time>
</trkpt>
<trkpt lat="38.10786737800876" lon="-1.4310280708146392">
<ele>939</ele>
<time>2017-03-29T19:28:57Z</time>
</trkpt>
<trkpt lat="38.10776699157211" lon="-1.4311692570852605">
<ele>938</ele>
<time>2017-03-29T19:28:59Z</time>
</trkpt>
<trkpt lat="38.10766478650109" lon="-1.431308274030074">
<ele>936</ele>
<time>2017-03-29T19:29:01Z</time>
</trkpt>
<trkpt lat="38.10755958027073" lon="-1.431443269784067">
<ele>934</ele>
<time>2017-03-29T19:29:03Z</time>
</trkpt>
<trkpt lat="38.107474453157785" lon="-1.4316141233820647">
<ele>932</ele>
<time>2017-03-29T19:29:05Z</time>
</trkpt>
<trkpt lat="38.10740664414506" lon="-1.431810840296911">
<ele>930</ele>
<time>2017-03-29T19:29:07Z</time>
</trkpt>
<trkpt lat="38.107340274356176" lon="-1.4320231323433883">
<ele>928</ele>
<time>2017-03-29T19:29:09Z</time>
</trkpt>
<trkpt lat="38.10727520393292" lon="-1.432246342928774">
<ele>927</ele>
<time>2017-03-29T19:29:11Z</time>
</trkpt>
<trkpt lat="38.10721193569318" lon="-1.4324913831756143">
<ele>925</ele>
<time>2017-03-29T19:29:13Z</time>
</trkpt>
<trkpt lat="38.107148608714155" lon="-1.4327344788170417">
<ele>922</ele>
<time>2017-03-29T19:29:15Z</time>
</trkpt>
<trkpt lat="38.10710251488246" lon="-1.4329627479801605">
<ele>920</ele>
<time>2017-03-29T19:29:17Z</time>
</trkpt>
<trkpt lat="38.10706291067377" lon="-1.4332009283068314">
<ele>916</ele>
<time>2017-03-29T19:29:19Z</time>
</trkpt>
<trkpt lat="38.10700952411442" lon="-1.433430774027075">
<ele>914</ele>
<time>2017-03-29T19:29:21Z</time>
</trkpt>
<trkpt lat="38.10695701184235" lon="-1.4336223131236894">
<ele>913</ele>
<time>2017-03-29T19:29:23Z</time>
</trkpt>
<trkpt lat="38.106889269892044" lon="-1.4337975753495706">
<ele>912</ele>
<time>2017-03-29T19:29:25Z</time>
</trkpt>
<trkpt lat="38.10679912850914" lon="-1.4339505867951512">
<ele>910</ele>
<time>2017-03-29T19:29:27Z</time>
</trkpt>
<trkpt lat="38.10672135007996" lon="-1.434075422264307">
<ele>908</ele>
<time>2017-03-29T19:29:29Z</time>
</trkpt>
<trkpt lat="38.10665549439864" lon="-1.4341928608111816">
<ele>906</ele>
<time>2017-03-29T19:29:31Z</time>
</trkpt>
<trkpt lat="38.106570873710695" lon="-1.434358137316908">
<ele>905</ele>
<time>2017-03-29T19:29:33Z</time>
</trkpt>
<trkpt lat="38.10648844544634" lon="-1.4345211344216706">
<ele>902</ele>
<time>2017-03-29T19:29:35Z</time>
</trkpt>
<trkpt lat="38.10640493320522" lon="-1.434668412106305">
<ele>901</ele>
<time>2017-03-29T19:29:37Z</time>
</trkpt>
<trkpt lat="38.1063372756813" lon="-1.434812883950987">
<ele>900</ele>
<time>2017-03-29T19:29:39Z</time>
</trkpt>
<trkpt lat="38.10626879754209" lon="-1.4349517109532097">
<ele>900</ele>
<time>2017-03-29T19:29:41Z</time>
</trkpt>
<trkpt lat="38.10618415149419" lon="-1.4350848173025383">
<ele>901</ele>
<time>2017-03-29T19:29:43Z</time>
</trkpt>
<trkpt lat="38.10612145365446" lon="-1.435198499365923">
<ele>901</ele>
<time>2017-03-29T19:29:45Z</time>
</trkpt>
<trkpt lat="38.10604207904703" lon="-1.4353333422823162">
<ele>901</ele>
<time>2017-03-29T19:29:47Z</time>
</trkpt>
<trkpt lat="38.10595630083508" lon="-1.4354869545126696">
<ele>901</ele>
<time>2017-03-29T19:29:49Z</time>
</trkpt>
<trkpt lat="38.10592910598738" lon="-1.4356258393317052">
<ele>902</ele>
<time>2017-03-29T19:29:51Z</time>
</trkpt>
<trkpt lat="38.10590576498909" lon="-1.4357867223471663">
<ele>901</ele>
<time>2017-03-29T19:29:53Z</time>
</trkpt>
<trkpt lat="38.10586738431368" lon="-1.435989888948165">
<ele>901</ele>
<time>2017-03-29T19:29:55Z</time>
</trkpt>
<trkpt lat="38.10583014867113" lon="-1.4361860683398098">
<ele>902</ele>
<time>2017-03-29T19:29:57Z</time>
</trkpt>
<trkpt lat="38.10579486007473" lon="-1.43637313835412">
<ele>903</ele>
<time>2017-03-29T19:29:59Z</time>
</trkpt>
<trkpt lat="38.105763076812806" lon="-1.4365683441375043">
<ele>903</ele>
<time>2017-03-29T19:30:01Z</time>
</trkpt>
<trkpt lat="38.105717215756826" lon="-1.436739253688187">
<ele>904</ele>
<time>2017-03-29T19:30:03Z</time>
</trkpt>
<trkpt lat="38.105650865328926" lon="-1.4369016346928716">
<ele>903</ele>
<time>2017-03-29T19:30:05Z</time>
</trkpt>
<trkpt lat="38.105575459705435" lon="-1.4370592111459783">
<ele>903</ele>
<time>2017-03-29T19:30:07Z</time>
</trkpt>
<trkpt lat="38.105500746764676" lon="-1.4372005744196876">
<ele>902</ele>
<time>2017-03-29T19:30:09Z</time>
</trkpt>
<trkpt lat="38.10542446790777" lon="-1.4373429241001514">
<ele>901</ele>
<time>2017-03-29T19:30:11Z</time>
</trkpt>
<trkpt lat="38.10534619406377" lon="-1.4374862592580993">
<ele>899</ele>
<time>2017-03-29T19:30:13Z</time>
</trkpt>
<trkpt lat="38.105270093285526" lon="-1.4376137075998865">
<ele>897</ele>
<time>2017-03-29T19:30:15Z</time>
</trkpt>
<trkpt lat="38.105188100200785" lon="-1.437749137775472">
<ele>895</ele>
<time>2017-03-29T19:30:17Z</time>
</trkpt>
<trkpt lat="38.10510386798833" lon="-1.4379037743724525">
<ele>894</ele>
<time>2017-03-29T19:30:19Z</time>
</trkpt>
<trkpt lat="38.10503644047506" lon="-1.4380564364961028">
<ele>892</ele>
<time>2017-03-29T19:30:21Z</time>
</trkpt>
<trkpt lat="38.104968348861085" lon="-1.4382102744239047">
<ele>890</ele>
<time>2017-03-29T19:30:23Z</time>
</trkpt>
<trkpt lat="38.10490932739232" lon="-1.4383451867370998">
<ele>888</ele>
<time>2017-03-29T19:30:25Z</time>
</trkpt>
<trkpt lat="38.104856400471064" lon="-1.438422194390429">
<ele>886</ele>
<time>2017-03-29T19:30:27Z</time>
</trkpt>
<trkpt lat="38.10477878950197" lon="-1.4384690519749912">
<ele>884</ele>
<time>2017-03-29T19:30:29Z</time>
</trkpt>
<trkpt lat="38.104673113222596" lon="-1.4385289614594419">
<ele>881</ele>
<time>2017-03-29T19:30:31Z</time>
</trkpt>
<trkpt lat="38.104588057601745" lon="-1.4385863089435404">
<ele>877</ele>
<time>2017-03-29T19:30:33Z</time>
</trkpt>
<trkpt lat="38.10448562438031" lon="-1.438636998256011">
<ele>875</ele>
<time>2017-03-29T19:30:35Z</time>
</trkpt>
<trkpt lat="38.104388701083955" lon="-1.4386703803458705">
<ele>873</ele>
<time>2017-03-29T19:30:37Z</time>
</trkpt>
<trkpt lat="38.104320115482956" lon="-1.4387091392353806">
<ele>870</ele>
<time>2017-03-29T19:30:39Z</time>
</trkpt>
<trkpt lat="38.10421963260719" lon="-1.438771414630317">
<ele>867</ele>
<time>2017-03-29T19:30:41Z</time>
</trkpt>
<trkpt lat="38.104119135075635" lon="-1.4388756323232854">
<ele>865</ele>
<time>2017-03-29T19:30:43Z</time>
</trkpt>
<trkpt lat="38.10403656228472" lon="-1.4389596865967316">
<ele>865</ele>
<time>2017-03-29T19:30:45Z</time>
</trkpt>
<trkpt lat="38.10389079160407" lon="-1.4390487988962108">
<ele>864</ele>
<time>2017-03-29T19:30:47Z</time>
</trkpt>
<trkpt lat="38.10378559859282" lon="-1.4391756931082567">
<ele>862</ele>
<time>2017-03-29T19:30:49Z</time>
</trkpt>
<trkpt lat="38.10373018938939" lon="-1.4392543674700826">
<ele>862</ele>
<time>2017-03-29T19:30:51Z</time>
</trkpt>
<trkpt lat="38.10363975592015" lon="-1.4393299852125092">
<ele>862</ele>
<time>2017-03-29T19:30:53Z</time>
</trkpt>
<trkpt lat="38.10354362724985" lon="-1.4394205136886407">
<ele>862</ele>
<time>2017-03-29T19:30:55Z</time>
</trkpt>
<trkpt lat="38.10350117625968" lon="-1.4394595793575686">
<ele>862</ele>
<time>2017-03-29T19:30:57Z</time>
</trkpt>
<trkpt lat="38.10342196537321" lon="-1.4395062183455374">
<ele>860</ele>
<time>2017-03-29T19:30:59Z</time>
</trkpt>
<trkpt lat="38.10333935634137" lon="-1.439584491531963">
<ele>858</ele>
<time>2017-03-29T19:31:01Z</time>
</trkpt>
<trkpt lat="38.103306730697575" lon="-1.439694188245116">
<ele>854</ele>
<time>2017-03-29T19:31:03Z</time>
</trkpt>
<trkpt lat="38.10327344575853" lon="-1.4398125207748305">
<ele>851</ele>
<time>2017-03-29T19:31:05Z</time>
</trkpt>
<trkpt lat="38.10321703499176" lon="-1.4399551244376834">
<ele>847</ele>
<time>2017-03-29T19:31:07Z</time>
</trkpt>
<trkpt lat="38.10319066487511" lon="-1.4401105945721426">
<ele>845</ele>
<time>2017-03-29T19:31:09Z</time>
</trkpt>
<trkpt lat="38.10316725836488" lon="-1.440286589493187">
<ele>844</ele>
<time>2017-03-29T19:31:11Z</time>
</trkpt>
<trkpt lat="38.10313873541165" lon="-1.4404908139155173">
<ele>843</ele>
<time>2017-03-29T19:31:13Z</time>
</trkpt>
<trkpt lat="38.1031132681324" lon="-1.440689130675778">
<ele>843</ele>
<time>2017-03-29T19:31:15Z</time>
</trkpt>
<trkpt lat="38.1030903539148" lon="-1.440865013823518">
<ele>842</ele>
<time>2017-03-29T19:31:17Z</time>
</trkpt>
<trkpt lat="38.103030105942565" lon="-1.4410193762398802">
<ele>840</ele>
<time>2017-03-29T19:31:19Z</time>
</trkpt>
<trkpt lat="38.1029669085539" lon="-1.441190178255837">
<ele>839</ele>
<time>2017-03-29T19:31:21Z</time>
</trkpt>
<trkpt lat="38.10294177515933" lon="-1.4413693343796241">
<ele>839</ele>
<time>2017-03-29T19:31:23Z</time>
</trkpt>
<trkpt lat="38.10291172662176" lon="-1.4415743210981942">
<ele>840</ele>
<time>2017-03-29T19:31:25Z</time>
</trkpt>
<trkpt lat="38.10286456879678" lon="-1.441774519837596">
<ele>840</ele>
<time>2017-03-29T19:31:27Z</time>
</trkpt>
<trkpt lat="38.102817445756806" lon="-1.4419499254012158">
<ele>841</ele>
<time>2017-03-29T19:31:29Z</time>
</trkpt>
<trkpt lat="38.10276098354205" lon="-1.4421073460792326">
<ele>843</ele>
<time>2017-03-29T19:31:31Z</time>
</trkpt>
<trkpt lat="38.10268254205294" lon="-1.4422075886715404">
<ele>845</ele>
<time>2017-03-29T19:31:33Z</time>
</trkpt>
<trkpt lat="38.10262005305208" lon="-1.442246985481275">
<ele>845</ele>
<time>2017-03-29T19:31:35Z</time>
</trkpt>
<trkpt lat="38.10256670567733" lon="-1.442249058978756">
<ele>846</ele>
<time>2017-03-29T19:31:37Z</time>
</trkpt>
<trkpt lat="38.10254412710225" lon="-1.4422207018796718">
<ele>846</ele>
<time>2017-03-29T19:31:39Z</time>
</trkpt>
<trkpt lat="38.102546206973685" lon="-1.442166891066341">
<ele>846</ele>
<time>2017-03-29T19:31:41Z</time>
</trkpt>
<trkpt lat="38.102581452765016" lon="-1.4420894767142016">
<ele>847</ele>
<time>2017-03-29T19:31:43Z</time>
</trkpt>
<trkpt lat="38.10260503024941" lon="-1.442001616800837">
<ele>847</ele>
<time>2017-03-29T19:31:45Z</time>
</trkpt>
<trkpt lat="38.10261440232275" lon="-1.4419189925145133">
<ele>848</ele>
<time>2017-03-29T19:31:47Z</time>
</trkpt>
<trkpt lat="38.10264013287604" lon="-1.441844817248832">
<ele>848</ele>
<time>2017-03-29T19:31:49Z</time>
</trkpt>
<trkpt lat="38.10266550977516" lon="-1.4417930727915234">
<ele>848</ele>
<time>2017-03-29T19:31:51Z</time>
</trkpt>
<trkpt lat="38.10267593959249" lon="-1.441749870109939">
<ele>849</ele>
<time>2017-03-29T19:31:53Z</time>
</trkpt>
<trkpt lat="38.10264399696803" lon="-1.4416710744911092">
<ele>852</ele>
<time>2017-03-29T19:31:55Z</time>
</trkpt>
<trkpt lat="38.102610376517816" lon="-1.4416343402808667">
<ele>853</ele>
<time>2017-03-29T19:31:57Z</time>
</trkpt>
<trkpt lat="38.10258230758249" lon="-1.441632811954169">
<ele>853</ele>
<time>2017-03-29T19:31:59Z</time>
</trkpt>
<trkpt lat="38.10251965328576" lon="-1.4416319930382464">
<ele>853</ele>
<time>2017-03-29T19:32:01Z</time>
</trkpt>
<trkpt lat="38.10245134303449" lon="-1.441663295359925">
<ele>857</ele>
<time>2017-03-29T19:32:03Z</time>
</trkpt>
<trkpt lat="38.10239547684168" lon="-1.4417169523804225">
<ele>859</ele>
<time>2017-03-29T19:32:05Z</time>
</trkpt>
<trkpt lat="38.10233850768765" lon="-1.4418165915056094">
<ele>861</ele>
<time>2017-03-29T19:32:07Z</time>
</trkpt>
<trkpt lat="38.10226177840711" lon="-1.4419672773535004">
<ele>862</ele>
<time>2017-03-29T19:32:09Z</time>
</trkpt>
<trkpt lat="38.102206242290315" lon="-1.4421295816852429">
<ele>862</ele>
<time>2017-03-29T19:32:11Z</time>
</trkpt>
<trkpt lat="38.102182209226164" lon="-1.4422704908092618">
<ele>863</ele>
<time>2017-03-29T19:32:13Z</time>
</trkpt>
<trkpt lat="38.10214240841377" lon="-1.4424539878299325">
<ele>865</ele>
<time>2017-03-29T19:32:15Z</time>
</trkpt>
<trkpt lat="38.10205014830847" lon="-1.4426702612177478">
<ele>865</ele>
<time>2017-03-29T19:32:17Z</time>
</trkpt>
<trkpt lat="38.1019913215748" lon="-1.4428216054173861">
<ele>865</ele>
<time>2017-03-29T19:32:19Z</time>
</trkpt>
<trkpt lat="38.10192631541604" lon="-1.4429599441096002">
<ele>866</ele>
<time>2017-03-29T19:32:21Z</time>
</trkpt>
<trkpt lat="38.10182068229247" lon="-1.4430879842073028">
<ele>866</ele>
<time>2017-03-29T19:32:23Z</time>
</trkpt>
<trkpt lat="38.10175672343087" lon="-1.443224713892696">
<ele>866</ele>
<time>2017-03-29T19:32:25Z</time>
</trkpt>
<trkpt lat="38.1017074456149" lon="-1.443357467340144">
<ele>865</ele>
<time>2017-03-29T19:32:27Z</time>
</trkpt>
<trkpt lat="38.101619113415076" lon="-1.4434856210664888">
<ele>865</ele>
<time>2017-03-29T19:32:29Z</time>
</trkpt>
<trkpt lat="38.1015256329377" lon="-1.4436171215927456">
<ele>865</ele>
<time>2017-03-29T19:32:31Z</time>
</trkpt>
<trkpt lat="38.10145443600206" lon="-1.4437465129394014">
<ele>865</ele>
<time>2017-03-29T19:32:33Z</time>
</trkpt>
<trkpt lat="38.10136206282709" lon="-1.4439230522358368">
<ele>866</ele>
<time>2017-03-29T19:32:35Z</time>
</trkpt>
<trkpt lat="38.10127017029953" lon="-1.4441061616686857">
<ele>866</ele>
<time>2017-03-29T19:32:37Z</time>
</trkpt>
<trkpt lat="38.1011956122869" lon="-1.4442561310492652">
<ele>867</ele>
<time>2017-03-29T19:32:39Z</time>
</trkpt>
<trkpt lat="38.101120828814935" lon="-1.444398540429504">
<ele>869</ele>
<time>2017-03-29T19:32:41Z</time>
</trkpt>
<trkpt lat="38.101041679753216" lon="-1.444528593758701">
<ele>872</ele>
<time>2017-03-29T19:32:43Z</time>
</trkpt>
<trkpt lat="38.100985603906054" lon="-1.4446174462922337">
<ele>874</ele>
<time>2017-03-29T19:32:45Z</time>
</trkpt>
<trkpt lat="38.10092499882542" lon="-1.4447084831333525">
<ele>877</ele>
<time>2017-03-29T19:32:47Z</time>
</trkpt>
<trkpt lat="38.10084965489918" lon="-1.4447914810773574">
<ele>880</ele>
<time>2017-03-29T19:32:49Z</time>
</trkpt>
<trkpt lat="38.100781080307726" lon="-1.4448581456873126">
<ele>883</ele>
<time>2017-03-29T19:32:51Z</time>
</trkpt>
<trkpt lat="38.1006827614597" lon="-1.4449044667226056">
<ele>886</ele>
<time>2017-03-29T19:32:53Z</time>
</trkpt>
<trkpt lat="38.100592327184444" lon="-1.4449497912011373">
<ele>887</ele>
<time>2017-03-29T19:32:55Z</time>
</trkpt>
<trkpt lat="38.100523016133295" lon="-1.4449827602861844">
<ele>891</ele>
<time>2017-03-29T19:32:57Z</time>
</trkpt>
<trkpt lat="38.10043678371913" lon="-1.4450034378391776">
<ele>892</ele>
<time>2017-03-29T19:32:59Z</time>
</trkpt>
<trkpt lat="38.100372739775764" lon="-1.4449898398281662">
<ele>892</ele>
<time>2017-03-29T19:33:01Z</time>
</trkpt>
<trkpt lat="38.10033859164391" lon="-1.4449543239485407">
<ele>892</ele>
<time>2017-03-29T19:33:03Z</time>
</trkpt>
<trkpt lat="38.10030849448833" lon="-1.4448849075815986">
<ele>891</ele>
<time>2017-03-29T19:33:05Z</time>
</trkpt>
<trkpt lat="38.10031776863291" lon="-1.4447747879864867">
<ele>890</ele>
<time>2017-03-29T19:33:07Z</time>
</trkpt>
<trkpt lat="38.10034958608415" lon="-1.4446570636790559">
<ele>890</ele>
<time>2017-03-29T19:33:09Z</time>
</trkpt>
<trkpt lat="38.100435019029845" lon="-1.444542648896842">
<ele>890</ele>
<time>2017-03-29T19:33:11Z</time>
</trkpt>
<trkpt lat="38.100573935186134" lon="-1.4444534580555557">
<ele>890</ele>
<time>2017-03-29T19:33:13Z</time>
</trkpt>
<trkpt lat="38.10075518284916" lon="-1.4444138807738232">
<ele>891</ele>
<time>2017-03-29T19:33:15Z</time>
</trkpt>
<trkpt lat="38.10094863007939" lon="-1.4444275641930608">
<ele>892</ele>
<time>2017-03-29T19:33:17Z</time>
</trkpt>
<trkpt lat="38.10115968632312" lon="-1.4445171103680068">
<ele>893</ele>
<time>2017-03-29T19:33:19Z</time>
</trkpt>
<trkpt lat="38.10134359918901" lon="-1.4446784574619935">
<ele>893</ele>
<time>2017-03-29T19:33:21Z</time>
</trkpt>
<trkpt lat="38.101472783181094" lon="-1.444883901659924">
<ele>895</ele>
<time>2017-03-29T19:33:23Z</time>
</trkpt>
<trkpt lat="38.10154471009135" lon="-1.4451150794070462">
<ele>897</ele>
<time>2017-03-29T19:33:25Z</time>
</trkpt>
<trkpt lat="38.10156616085898" lon="-1.4453438900830158">
<ele>899</ele>
<time>2017-03-29T19:33:27Z</time>
</trkpt>
<trkpt lat="38.10154260054357" lon="-1.4455361267336415">
<ele>900</ele>
<time>2017-03-29T19:33:29Z</time>
</trkpt>
<trkpt lat="38.10149142831953" lon="-1.445699541492057">
<ele>902</ele>
<time>2017-03-29T19:33:31Z</time>
</trkpt>
<trkpt lat="38.101414572750535" lon="-1.44581361827565">
<ele>903</ele>
<time>2017-03-29T19:33:33Z</time>
</trkpt>
<trkpt lat="38.101339201595756" lon="-1.4458853338558892">
<ele>904</ele>
<time>2017-03-29T19:33:35Z</time>
</trkpt>
<trkpt lat="38.10125554711146" lon="-1.4459237693961535">
<ele>906</ele>
<time>2017-03-29T19:33:37Z</time>
</trkpt>
<trkpt lat="38.10117874111337" lon="-1.4459638320159298">
<ele>908</ele>
<time>2017-03-29T19:33:39Z</time>
</trkpt>
<trkpt lat="38.10109935869046" lon="-1.4460191786452186">
<ele>909</ele>
<time>2017-03-29T19:33:41Z</time>
</trkpt>
<trkpt lat="38.10100521238157" lon="-1.4461010450649086">
<ele>911</ele>
<time>2017-03-29T19:33:43Z</time>
</trkpt>
<trkpt lat="38.100905818577424" lon="-1.4462029748039356">
<ele>912</ele>
<time>2017-03-29T19:33:45Z</time>
</trkpt>
<trkpt lat="38.10081557243189" lon="-1.4463053164936306">
<ele>912</ele>
<time>2017-03-29T19:33:47Z</time>
</trkpt>
<trkpt lat="38.10072924499762" lon="-1.4464159146179463">
<ele>913</ele>
<time>2017-03-29T19:33:49Z</time>
</trkpt>
<trkpt lat="38.10063709786092" lon="-1.4465097749553637">
<ele>914</ele>
<time>2017-03-29T19:33:51Z</time>
</trkpt>
<trkpt lat="38.10055999398791" lon="-1.446567956230472">
<ele>915</ele>
<time>2017-03-29T19:33:53Z</time>
</trkpt>
<trkpt lat="38.10049833549482" lon="-1.4466101481703957">
<ele>915</ele>
<time>2017-03-29T19:33:55Z</time>
</trkpt>
<trkpt lat="38.10042186835675" lon="-1.4466668757874908">
<ele>917</ele>
<time>2017-03-29T19:33:57Z</time>
</trkpt>
<trkpt lat="38.10033527741147" lon="-1.4467457087965103">
<ele>919</ele>
<time>2017-03-29T19:33:59Z</time>
</trkpt>
<trkpt lat="38.100265142381645" lon="-1.4468158187047342">
<ele>921</ele>
<time>2017-03-29T19:34:01Z</time>
</trkpt>
<trkpt lat="38.10018689994815" lon="-1.446834803903681">
<ele>921</ele>
<time>2017-03-29T19:34:03Z</time>
</trkpt>
<trkpt lat="38.10012809863509" lon="-1.446826961135649">
<ele>921</ele>
<time>2017-03-29T19:34:05Z</time>
</trkpt>
<trkpt lat="38.100092397778255" lon="-1.4467779079295853">
<ele>922</ele>
<time>2017-03-29T19:34:07Z</time>
</trkpt>
<trkpt lat="38.10007270641938" lon="-1.4466961054212408">
<ele>925</ele>
<time>2017-03-29T19:34:09Z</time>
</trkpt>
<trkpt lat="38.10007717851454" lon="-1.4465916734285513">
<ele>928</ele>
<time>2017-03-29T19:34:11Z</time>
</trkpt>
<trkpt lat="38.100110861047895" lon="-1.4464911253612787">
<ele>931</ele>
<time>2017-03-29T19:34:13Z</time>
</trkpt>
<trkpt lat="38.10018749224317" lon="-1.446374210026254">
<ele>932</ele>
<time>2017-03-29T19:34:15Z</time>
</trkpt>
<trkpt lat="38.10030832996065" lon="-1.4462740122291455">
<ele>933</ele>
<time>2017-03-29T19:34:17Z</time>
</trkpt>
<trkpt lat="38.100466191105944" lon="-1.4462049848265681">
<ele>933</ele>
<time>2017-03-29T19:34:19Z</time>
</trkpt>
<trkpt lat="38.100658786803706" lon="-1.4461910853492375">
<ele>934</ele>
<time>2017-03-29T19:34:21Z</time>
</trkpt>
<trkpt lat="38.10087870090867" lon="-1.4462443981555633">
<ele>934</ele>
<time>2017-03-29T19:34:23Z</time>
</trkpt>
<trkpt lat="38.101068412710006" lon="-1.4463722761599347">
<ele>935</ele>
<time>2017-03-29T19:34:25Z</time>
</trkpt>
<trkpt lat="38.101245268382996" lon="-1.4465331096104608">
<ele>936</ele>
<time>2017-03-29T19:34:27Z</time>
</trkpt>
<trkpt lat="38.10137094508234" lon="-1.4467576556935264">
<ele>938</ele>
<time>2017-03-29T19:34:29Z</time>
</trkpt>
<trkpt lat="38.10144901170016" lon="-1.4470237006154774">
<ele>941</ele>
<time>2017-03-29T19:34:31Z</time>
</trkpt>
<trkpt lat="38.101463836187335" lon="-1.4472622105553574">
<ele>944</ele>
<time>2017-03-29T19:34:33Z</time>
</trkpt>
<trkpt lat="38.101460829863974" lon="-1.4474697467947442">
<ele>947</ele>
<time>2017-03-29T19:34:35Z</time>
</trkpt>
<trkpt lat="38.1014063120266" lon="-1.4476490614932227">
<ele>949</ele>
<time>2017-03-29T19:34:37Z</time>
</trkpt>
<trkpt lat="38.10131924134704" lon="-1.4477807135225795">
<ele>950</ele>
<time>2017-03-29T19:34:39Z</time>
</trkpt>
<trkpt lat="38.10123529032734" lon="-1.4478556628228283">
<ele>952</ele>
<time>2017-03-29T19:34:41Z</time>
</trkpt>
<trkpt lat="38.10115335954873" lon="-1.447874898522217">
<ele>953</ele>
<time>2017-03-29T19:34:43Z</time>
</trkpt>
<trkpt lat="38.101096144288334" lon="-1.447857684632182">
<ele>953</ele>
<time>2017-03-29T19:34:45Z</time>
</trkpt>
<trkpt lat="38.10106430740843" lon="-1.4478236345284017">
<ele>953</ele>
<time>2017-03-29T19:34:47Z</time>
</trkpt>
<trkpt lat="38.10104296674139" lon="-1.447760609787473">
<ele>953</ele>
<time>2017-03-29T19:34:49Z</time>
</trkpt>
<trkpt lat="38.10102910462337" lon="-1.447658984110249">
<ele>954</ele>
<time>2017-03-29T19:34:51Z</time>
</trkpt>
<trkpt lat="38.10104447334368" lon="-1.4475616980080284">
<ele>955</ele>
<time>2017-03-29T19:34:53Z</time>
</trkpt>
<trkpt lat="38.1010888970423" lon="-1.4474648171152833">
<ele>956</ele>
<time>2017-03-29T19:34:55Z</time>
</trkpt>
<trkpt lat="38.10117580379599" lon="-1.4473482352971498">
<ele>957</ele>
<time>2017-03-29T19:34:57Z</time>
</trkpt>
<trkpt lat="38.10130901297804" lon="-1.447255072408399">
<ele>958</ele>
<time>2017-03-29T19:34:59Z</time>
</trkpt>
<trkpt lat="38.10147526474763" lon="-1.4472105229115197">
<ele>958</ele>
<time>2017-03-29T19:35:01Z</time>
</trkpt>
<trkpt lat="38.101667335005786" lon="-1.447236333559238">
<ele>960</ele>
<time>2017-03-29T19:35:03Z</time>
</trkpt>
<trkpt lat="38.10188600755522" lon="-1.447348602630595">
<ele>961</ele>
<time>2017-03-29T19:35:05Z</time>
</trkpt>
<trkpt lat="38.10205349834817" lon="-1.4475285792376604">
<ele>963</ele>
<time>2017-03-29T19:35:07Z</time>
</trkpt>
<trkpt lat="38.102180685643944" lon="-1.4477661789557315">
<ele>964</ele>
<time>2017-03-29T19:35:09Z</time>
</trkpt>
<trkpt lat="38.10223026171135" lon="-1.4480187690113668">
<ele>965</ele>
<time>2017-03-29T19:35:11Z</time>
</trkpt>
<trkpt lat="38.102235024705976" lon="-1.4482343297045466">
<ele>966</ele>
<time>2017-03-29T19:35:13Z</time>
</trkpt>
<trkpt lat="38.10218721983282" lon="-1.4484042612707742">
<ele>967</ele>
<time>2017-03-29T19:35:15Z</time>
</trkpt>
<trkpt lat="38.10211423668014" lon="-1.4485167188977877">
<ele>969</ele>
<time>2017-03-29T19:35:17Z</time>
</trkpt>
<trkpt lat="38.10204306107694" lon="-1.4485706850244446">
<ele>971</ele>
<time>2017-03-29T19:35:19Z</time>
</trkpt>
<trkpt lat="38.101986856234475" lon="-1.4486084300750983">
<ele>971</ele>
<time>2017-03-29T19:35:21Z</time>
</trkpt>
<trkpt lat="38.10192368695132" lon="-1.448635996111364">
<ele>971</ele>
<time>2017-03-29T19:35:23Z</time>
</trkpt>
<trkpt lat="38.101863868848504" lon="-1.4486331404957138">
<ele>972</ele>
<time>2017-03-29T19:35:25Z</time>
</trkpt>
<trkpt lat="38.10181931544365" lon="-1.4485992443889613">
<ele>972</ele>
<time>2017-03-29T19:35:27Z</time>
</trkpt>
<trkpt lat="38.10177982175637" lon="-1.4485536871407205">
<ele>973</ele>
<time>2017-03-29T19:35:29Z</time>
</trkpt>
<trkpt lat="38.10174228833789" lon="-1.4484766422584352">
<ele>973</ele>
<time>2017-03-29T19:35:31Z</time>
</trkpt>
<trkpt lat="38.101749945645544" lon="-1.4483790441104432">
<ele>974</ele>
<time>2017-03-29T19:35:33Z</time>
</trkpt>
<trkpt lat="38.101784544528634" lon="-1.4482709309340713">
<ele>977</ele>
<time>2017-03-29T19:35:35Z</time>
</trkpt>
<trkpt lat="38.101831160640835" lon="-1.4481585030390212">
<ele>979</ele>
<time>2017-03-29T19:35:37Z</time>
</trkpt>
<trkpt lat="38.10192339055573" lon="-1.4480523529611495">
<ele>980</ele>
<time>2017-03-29T19:35:39Z</time>
</trkpt>
<trkpt lat="38.10204861862039" lon="-1.4479633232031712">
<ele>981</ele>
<time>2017-03-29T19:35:41Z</time>
</trkpt>
<trkpt lat="38.10222051904778" lon="-1.4478984992976123">
<ele>981</ele>
<time>2017-03-29T19:35:43Z</time>
</trkpt>
<trkpt lat="38.10241572312182" lon="-1.447895987585246">
<ele>981</ele>
<time>2017-03-29T19:35:45Z</time>
</trkpt>
<trkpt lat="38.102624516807346" lon="-1.447977423993944">
<ele>981</ele>
<time>2017-03-29T19:35:47Z</time>
</trkpt>
<trkpt lat="38.10281485389529" lon="-1.4481328187266318">
<ele>981</ele>
<time>2017-03-29T19:35:49Z</time>
</trkpt>
<trkpt lat="38.102971404973395" lon="-1.448338106281018">
<ele>982</ele>
<time>2017-03-29T19:35:51Z</time>
</trkpt>
<trkpt lat="38.10307810469687" lon="-1.448592979607252">
<ele>982</ele>
<time>2017-03-29T19:35:53Z</time>
</trkpt>
<trkpt lat="38.103121168712654" lon="-1.448851646784884">
<ele>982</ele>
<time>2017-03-29T19:35:55Z</time>
</trkpt>
<trkpt lat="38.10311203597242" lon="-1.4490789661994234">
<ele>981</ele>
<time>2017-03-29T19:35:57Z</time>
</trkpt>
<trkpt lat="38.10306177742651" lon="-1.449242095143655">
<ele>982</ele>
<time>2017-03-29T19:35:59Z</time>
</trkpt>
<trkpt lat="38.102993510806705" lon="-1.4493663260540723">
<ele>981</ele>
<time>2017-03-29T19:36:01Z</time>
</trkpt>
<trkpt lat="38.10292360192535" lon="-1.4494325305957871">
<ele>981</ele>
<time>2017-03-29T19:36:03Z</time>
</trkpt>
<trkpt lat="38.102854297279336" lon="-1.4494682108128305">
<ele>981</ele>
<time>2017-03-29T19:36:05Z</time>
</trkpt>
<trkpt lat="38.1027848110075" lon="-1.449492797885208">
<ele>981</ele>
<time>2017-03-29T19:36:07Z</time>
</trkpt>
<trkpt lat="38.10272072831364" lon="-1.4495161583470115">
<ele>981</ele>
<time>2017-03-29T19:36:09Z</time>
</trkpt>
<trkpt lat="38.10264829024318" lon="-1.4495332508922398">
<ele>980</ele>
<time>2017-03-29T19:36:11Z</time>
</trkpt>
<trkpt lat="38.10259008500331" lon="-1.4495430746963713">
<ele>980</ele>
<time>2017-03-29T19:36:13Z</time>
</trkpt>
<trkpt lat="38.10251563573497" lon="-1.449534569691728">
<ele>980</ele>
<time>2017-03-29T19:36:15Z</time>
</trkpt>
<trkpt lat="38.102445433874124" lon="-1.4495001665156984">
<ele>980</ele>
<time>2017-03-29T19:36:17Z</time>
</trkpt>
<trkpt lat="38.102397595219436" lon="-1.4494702376473254">
<ele>980</ele>
<time>2017-03-29T19:36:19Z</time>
</trkpt>
<trkpt lat="38.102339246750724" lon="-1.4494304227973402">
<ele>980</ele>
<time>2017-03-29T19:36:21Z</time>
</trkpt>
<trkpt lat="38.102278414102685" lon="-1.4493887088755855">
<ele>980</ele>
<time>2017-03-29T19:36:23Z</time>
</trkpt>
<trkpt lat="38.10220831166019" lon="-1.449353050547407">
<ele>980</ele>
<time>2017-03-29T19:36:25Z</time>
</trkpt>
<trkpt lat="38.10213041160165" lon="-1.4493327836935792">
<ele>981</ele>
<time>2017-03-29T19:36:27Z</time>
</trkpt>
<trkpt lat="38.10204695123563" lon="-1.449316856022944">
<ele>980</ele>
<time>2017-03-29T19:36:29Z</time>
</trkpt>
<trkpt lat="38.101972407858234" lon="-1.449321799792414">
<ele>980</ele>
<time>2017-03-29T19:36:31Z</time>
</trkpt>
<trkpt lat="38.10189551619494" lon="-1.4493441603043293">
<ele>980</ele>
<time>2017-03-29T19:36:33Z</time>
</trkpt>
<trkpt lat="38.101811427010254" lon="-1.4493815058406763">
<ele>980</ele>
<time>2017-03-29T19:36:35Z</time>
</trkpt>
<trkpt lat="38.10173521759181" lon="-1.4494261895101521">
<ele>981</ele>
<time>2017-03-29T19:36:37Z</time>
</trkpt>
<trkpt lat="38.101642746150446" lon="-1.4494664819735852">
<ele>982</ele>
<time>2017-03-29T19:36:39Z</time>
</trkpt>
<trkpt lat="38.10154403847639" lon="-1.4495081839437551">
<ele>982</ele>
<time>2017-03-29T19:36:41Z</time>
</trkpt>
<trkpt lat="38.10144756080559" lon="-1.4495628563539935">
<ele>982</ele>
<time>2017-03-29T19:36:43Z</time>
</trkpt>
<trkpt lat="38.101334583786176" lon="-1.4496315194203706">
<ele>982</ele>
<time>2017-03-29T19:36:45Z</time>
</trkpt>
<trkpt lat="38.10121709947224" lon="-1.4497087590086688">
<ele>982</ele>
<time>2017-03-29T19:36:47Z</time>
</trkpt>
<trkpt lat="38.101122848846444" lon="-1.4497908682754266">
<ele>982</ele>
<time>2017-03-29T19:36:49Z</time>
</trkpt>
<trkpt lat="38.101029253936666" lon="-1.4498581493413107">
<ele>982</ele>
<time>2017-03-29T19:36:51Z</time>
</trkpt>
<trkpt lat="38.100944294988025" lon="-1.4498979857389536">
<ele>983</ele>
<time>2017-03-29T19:36:53Z</time>
</trkpt>
<trkpt lat="38.10086360717507" lon="-1.449916371172711">
<ele>985</ele>
<time>2017-03-29T19:36:55Z</time>
</trkpt>
<trkpt lat="38.100789402991" lon="-1.4499235095308083">
<ele>986</ele>
<time>2017-03-29T19:36:57Z</time>
</trkpt>
<trkpt lat="38.10071028115234" lon="-1.4499203682373898">
<ele>988</ele>
<time>2017-03-29T19:36:59Z</time>
</trkpt>
<trkpt lat="38.10062890111233" lon="-1.4499094869692604">
<ele>989</ele>
<time>2017-03-29T19:37:01Z</time>
</trkpt>
<trkpt lat="38.100548168500964" lon="-1.4498944430532925">
<ele>990</ele>
<time>2017-03-29T19:37:03Z</time>
</trkpt>
<trkpt lat="38.100460234564885" lon="-1.44987539484348">
<ele>990</ele>
<time>2017-03-29T19:37:05Z</time>
</trkpt>
<trkpt lat="38.100372956158" lon="-1.449859411483879">
<ele>991</ele>
<time>2017-03-29T19:37:07Z</time>
</trkpt>
<trkpt lat="38.10028504085265" lon="-1.4498355811698231">
<ele>992</ele>
<time>2017-03-29T19:37:09Z</time>
</trkpt>
<trkpt lat="38.10019904789258" lon="-1.4498095403125548">
<ele>993</ele>
<time>2017-03-29T19:37:11Z</time>
</trkpt>
<trkpt lat="38.10011359006917" lon="-1.4497893565014908">
<ele>994</ele>
<time>2017-03-29T19:37:13Z</time>
</trkpt>
<trkpt lat="38.10002564566363" lon="-1.44976361103108">
<ele>994</ele>
<time>2017-03-29T19:37:15Z</time>
</trkpt>
<trkpt lat="38.099936265570506" lon="-1.4497419873494597">
<ele>995</ele>
<time>2017-03-29T19:37:17Z</time>
</trkpt>
<trkpt lat="38.099844394236506" lon="-1.4497170402265738">
<ele>996</ele>
<time>2017-03-29T19:37:19Z</time>
</trkpt>
<trkpt lat="38.09977348906607" lon="-1.4496845599698296">
<ele>997</ele>
<time>2017-03-29T19:37:21Z</time>
</trkpt>
<trkpt lat="38.09970084722451" lon="-1.4496481145088491">
<ele>998</ele>
<time>2017-03-29T19:37:23Z</time>
</trkpt>
<trkpt lat="38.099620697932174" lon="-1.4496068216004339">
<ele>999</ele>
<time>2017-03-29T19:37:25Z</time>
</trkpt>
<trkpt lat="38.09954237244419" lon="-1.4495670853284077">
<ele>1000</ele>
<time>2017-03-29T19:37:27Z</time>
</trkpt>
<trkpt lat="38.09947555193969" lon="-1.4495328238216045">
<ele>1001</ele>
<time>2017-03-29T19:37:29Z</time>
</trkpt>
<trkpt lat="38.0994350311946" lon="-1.449454733761657">
<ele>1001</ele>
<time>2017-03-29T19:37:31Z</time>
</trkpt>
<trkpt lat="38.099439022347525" lon="-1.449352702190761">
<ele>1002</ele>
<time>2017-03-29T19:37:33Z</time>
</trkpt>
<trkpt lat="38.0994510323843" lon="-1.4492323417317217">
<ele>1004</ele>
<time>2017-03-29T19:37:35Z</time>
</trkpt>
<trkpt lat="38.099475886441006" lon="-1.449139518384441">
<ele>1005</ele>
<time>2017-03-29T19:37:37Z</time>
</trkpt>
<trkpt lat="38.099499678219985" lon="-1.4490403588869258">
<ele>1006</ele>
<time>2017-03-29T19:37:39Z</time>
</trkpt>
<trkpt lat="38.09951880337079" lon="-1.448928040374839">
<ele>1006</ele>
<time>2017-03-29T19:37:41Z</time>
</trkpt>
<trkpt lat="38.099528561556546" lon="-1.4488237132364583">
<ele>1007</ele>
<time>2017-03-29T19:37:43Z</time>
</trkpt>
<trkpt lat="38.099530025114376" lon="-1.4487280649526073">
<ele>1009</ele>
<time>2017-03-29T19:37:45Z</time>
</trkpt>
<trkpt lat="38.09952508918224" lon="-1.448623727519017">
<ele>1011</ele>
<time>2017-03-29T19:37:47Z</time>
</trkpt>
<trkpt lat="38.099490463362635" lon="-1.448542889762926">
<ele>1011</ele>
<time>2017-03-29T19:37:49Z</time>
</trkpt>
<trkpt lat="38.099441396529514" lon="-1.4484680721798757">
<ele>1011</ele>
<time>2017-03-29T19:37:51Z</time>
</trkpt>
<trkpt lat="38.09938392072031" lon="-1.448402728016562">
<ele>1012</ele>
<time>2017-03-29T19:37:53Z</time>
</trkpt>
<trkpt lat="38.0993166324178" lon="-1.4483668025049103">
<ele>1014</ele>
<time>2017-03-29T19:37:55Z</time>
</trkpt>
<trkpt lat="38.099240204482314" lon="-1.4483290245094256">
<ele>1015</ele>
<time>2017-03-29T19:37:57Z</time>
</trkpt>
<trkpt lat="38.09916726398548" lon="-1.448296498418204">
<ele>1015</ele>
<time>2017-03-29T19:37:59Z</time>
</trkpt>
<trkpt lat="38.09909427272902" lon="-1.4482636414631294">
<ele>1015</ele>
<time>2017-03-29T19:38:01Z</time>
</trkpt>
<trkpt lat="38.0990566447834" lon="-1.4481993538496076">
<ele>1016</ele>
<time>2017-03-29T19:38:03Z</time>
</trkpt>
<trkpt lat="38.09902269855069" lon="-1.4481077658530481">
<ele>1018</ele>
<time>2017-03-29T19:38:05Z</time>
</trkpt>
<trkpt lat="38.09900065165725" lon="-1.4480256501263051">
<ele>1018</ele>
<time>2017-03-29T19:38:07Z</time>
</trkpt>
<trkpt lat="38.09897262859725" lon="-1.4479312363807586">
<ele>1021</ele>
<time>2017-03-29T19:38:09Z</time>
</trkpt>
<trkpt lat="38.0989293843293" lon="-1.4478443432584802">
<ele>1026</ele>
<time>2017-03-29T19:38:11Z</time>
</trkpt>
<trkpt lat="38.09888073236855" lon="-1.4477624508721068">
<ele>1026</ele>
<time>2017-03-29T19:38:13Z</time>
</trkpt>
<trkpt lat="38.09883948322039" lon="-1.4477013823450062">
<ele>1028</ele>
<time>2017-03-29T19:38:15Z</time>
</trkpt>
<trkpt lat="38.09878987580139" lon="-1.4476396812155923">
<ele>1029</ele>
<time>2017-03-29T19:38:17Z</time>
</trkpt>
<trkpt lat="38.098726010334595" lon="-1.4475785375148622">
<ele>1029</ele>
<time>2017-03-29T19:38:19Z</time>
</trkpt>
<trkpt lat="38.09866102180144" lon="-1.4475444437909486">
<ele>1030</ele>
<time>2017-03-29T19:38:21Z</time>
</trkpt>
<trkpt lat="38.09857320510213" lon="-1.4475023458706269">
<ele>1031</ele>
<time>2017-03-29T19:38:23Z</time>
</trkpt>
<trkpt lat="38.098502155530696" lon="-1.4474806003950262">
<ele>1035</ele>
<time>2017-03-29T19:38:25Z</time>
</trkpt>
<trkpt lat="38.0984301348552" lon="-1.4474846587164734">
<ele>1039</ele>
<time>2017-03-29T19:38:27Z</time>
</trkpt>
<trkpt lat="38.098329853985724" lon="-1.4474988477278874">
<ele>1046</ele>
<time>2017-03-29T19:38:29Z</time>
</trkpt>
<trkpt lat="38.098219158122646" lon="-1.4475261729899456">
<ele>1051</ele>
<time>2017-03-29T19:38:31Z</time>
</trkpt>
<trkpt lat="38.098102902341" lon="-1.4475871436913847">
<ele>1056</ele>
<time>2017-03-29T19:38:33Z</time>
</trkpt>
<trkpt lat="38.097988209054535" lon="-1.4476773236397535">
<ele>1061</ele>
<time>2017-03-29T19:38:35Z</time>
</trkpt>
<trkpt lat="38.09787281527956" lon="-1.4477936875253539">
<ele>1065</ele>
<time>2017-03-29T19:38:37Z</time>
</trkpt>
<trkpt lat="38.09777399171194" lon="-1.447932613584917">
<ele>1068</ele>
<time>2017-03-29T19:38:39Z</time>
</trkpt>
<trkpt lat="38.09769159592029" lon="-1.4481119138737413">
<ele>1071</ele>
<time>2017-03-29T19:38:41Z</time>
</trkpt>
<trkpt lat="38.09762535492396" lon="-1.4483144013185192">
<ele>1073</ele>
<time>2017-03-29T19:38:43Z</time>
</trkpt>
<trkpt lat="38.09756828731724" lon="-1.4485266138645922">
<ele>1076</ele>
<time>2017-03-29T19:38:45Z</time>
</trkpt>
<trkpt lat="38.09753292870691" lon="-1.4487698963772686">
<ele>1077</ele>
<time>2017-03-29T19:38:47Z</time>
</trkpt>
<trkpt lat="38.09752991363823" lon="-1.4490260731844835">
<ele>1079</ele>
<time>2017-03-29T19:38:49Z</time>
</trkpt>
<trkpt lat="38.097565876175366" lon="-1.4492944507592687">
<ele>1080</ele>
<time>2017-03-29T19:38:51Z</time>
</trkpt>
<trkpt lat="38.09764231871452" lon="-1.4495712290682665">
<ele>1082</ele>
<time>2017-03-29T19:38:53Z</time>
</trkpt>
<trkpt lat="38.097746055124226" lon="-1.4498232507069173">
<ele>1083</ele>
<time>2017-03-29T19:38:55Z</time>
</trkpt>
<trkpt lat="38.09787093761722" lon="-1.4500571478988036">
<ele>1083</ele>
<time>2017-03-29T19:38:57Z</time>
</trkpt>
<trkpt lat="38.09804896588773" lon="-1.4502735837299552">
<ele>1083</ele>
<time>2017-03-29T19:38:59Z</time>
</trkpt>
<trkpt lat="38.09823653473367" lon="-1.4504420167276577">
<ele>1083</ele>
<time>2017-03-29T19:39:01Z</time>
</trkpt>
<trkpt lat="38.0984255172251" lon="-1.4505635720072414">
<ele>1083</ele>
<time>2017-03-29T19:39:03Z</time>
</trkpt>
<trkpt lat="38.09862385286417" lon="-1.450628877654209">
<ele>1084</ele>
<time>2017-03-29T19:39:05Z</time>
</trkpt>
<trkpt lat="38.09886153666973" lon="-1.4506669581482559">
<ele>1084</ele>
<time>2017-03-29T19:39:07Z</time>
</trkpt>
<trkpt lat="38.09905222937234" lon="-1.450635197606682">
<ele>1084</ele>
<time>2017-03-29T19:39:09Z</time>
</trkpt>
<trkpt lat="38.0992219584991" lon="-1.4505859018978577">
<ele>1084</ele>
<time>2017-03-29T19:39:11Z</time>
</trkpt>
<trkpt lat="38.09936801963389" lon="-1.4504991118745985">
<ele>1084</ele>
<time>2017-03-29T19:39:13Z</time>
</trkpt>
<trkpt lat="38.09946923317316" lon="-1.4503998053166125">
<ele>1085</ele>
<time>2017-03-29T19:39:15Z</time>
</trkpt>
<trkpt lat="38.09955144469738" lon="-1.4502883118652725">
<ele>1086</ele>
<time>2017-03-29T19:39:17Z</time>
</trkpt>
<trkpt lat="38.099586057924725" lon="-1.4501746174042947">
<ele>1086</ele>
<time>2017-03-29T19:39:19Z</time>
</trkpt>
<trkpt lat="38.09959011904963" lon="-1.45006513494711">
<ele>1088</ele>
<time>2017-03-29T19:39:21Z</time>
</trkpt>
<trkpt lat="38.09958317614731" lon="-1.4499704476421804">
<ele>1090</ele>
<time>2017-03-29T19:39:23Z</time>
</trkpt>
<trkpt lat="38.09955622362376" lon="-1.4498888638737812">
<ele>1090</ele>
<time>2017-03-29T19:39:25Z</time>
</trkpt>
<trkpt lat="38.09951753109455" lon="-1.4497917430706169">
<ele>1090</ele>
<time>2017-03-29T19:39:27Z</time>
</trkpt>
<trkpt lat="38.0994694524465" lon="-1.449706569698414">
<ele>1091</ele>
<time>2017-03-29T19:39:29Z</time>
</trkpt>
<trkpt lat="38.099417156563376" lon="-1.4496454108102126">
<ele>1091</ele>
<time>2017-03-29T19:39:31Z</time>
</trkpt>
<trkpt lat="38.09935942215656" lon="-1.4496006340351855">
<ele>1091</ele>
<time>2017-03-29T19:39:33Z</time>
</trkpt>
<trkpt lat="38.0992851546167" lon="-1.4495784646493108">
<ele>1094</ele>
<time>2017-03-29T19:39:35Z</time>
</trkpt>
<trkpt lat="38.099200173284125" lon="-1.4496009118826865">
<ele>1098</ele>
<time>2017-03-29T19:39:37Z</time>
</trkpt>
<trkpt lat="38.099102397112254" lon="-1.4496503030320311">
<ele>1102</ele>
<time>2017-03-29T19:39:39Z</time>
</trkpt>
<trkpt lat="38.09900429390671" lon="-1.4497351268029879">
<ele>1106</ele>
<time>2017-03-29T19:39:41Z</time>
</trkpt>
<trkpt lat="38.09891082969216" lon="-1.4498566447236707">
<ele>1109</ele>
<time>2017-03-29T19:39:43Z</time>
</trkpt>
<trkpt lat="38.09882578277495" lon="-1.4499983595553483">
<ele>1111</ele>
<time>2017-03-29T19:39:45Z</time>
</trkpt>
<trkpt lat="38.09874338713225" lon="-1.4501775782041668">
<ele>1113</ele>
<time>2017-03-29T19:39:47Z</time>
</trkpt>
<trkpt lat="38.0987051157371" lon="-1.4503627293795553">
<ele>1114</ele>
<time>2017-03-29T19:39:49Z</time>
</trkpt>
<trkpt lat="38.09869161627713" lon="-1.4505950564223031">
<ele>1116</ele>
<time>2017-03-29T19:39:51Z</time>
</trkpt>
<trkpt lat="38.098729441799186" lon="-1.4508547105565923">
<ele>1118</ele>
<time>2017-03-29T19:39:53Z</time>
</trkpt>
<trkpt lat="38.0987975575874" lon="-1.451120111972253">
<ele>1119</ele>
<time>2017-03-29T19:39:55Z</time>
</trkpt>
<trkpt lat="38.09891734732874" lon="-1.4513424467756924">
<ele>1120</ele>
<time>2017-03-29T19:39:57Z</time>
</trkpt>
<trkpt lat="38.09907804108222" lon="-1.451544732193585">
<ele>1121</ele>
<time>2017-03-29T19:39:59Z</time>
</trkpt>
<trkpt lat="38.09927673853219" lon="-1.4516830138945338">
<ele>1122</ele>
<time>2017-03-29T19:40:01Z</time>
</trkpt>
<trkpt lat="38.099485852951524" lon="-1.451718906065111">
<ele>1123</ele>
<time>2017-03-29T19:40:04Z</time>
</trkpt>
<trkpt lat="38.09965193967271" lon="-1.4516703576902505">
<ele>1124</ele>
<time>2017-03-29T19:40:06Z</time>
</trkpt>
<trkpt lat="38.09975489681037" lon="-1.4515634858936235">
<ele>1124</ele>
<time>2017-03-29T19:40:08Z</time>
</trkpt>
<trkpt lat="38.099828172045676" lon="-1.4514500657914606">
<ele>1125</ele>
<time>2017-03-29T19:40:10Z</time>
</trkpt>
<trkpt lat="38.09988789976524" lon="-1.4513409653796046">
<ele>1125</ele>
<time>2017-03-29T19:40:12Z</time>
</trkpt>
<trkpt lat="38.099899404570486" lon="-1.4512296667223348">
<ele>1126</ele>
<time>2017-03-29T19:40:14Z</time>
</trkpt>
<trkpt lat="38.099883833565016" lon="-1.451126065936137">
<ele>1128</ele>
<time>2017-03-29T19:40:16Z</time>
</trkpt>
<trkpt lat="38.0998580512742" lon="-1.4510351983292182">
<ele>1128</ele>
<time>2017-03-29T19:40:18Z</time>
</trkpt>
<trkpt lat="38.09983217558091" lon="-1.4509602511173647">
<ele>1128</ele>
<time>2017-03-29T19:40:20Z</time>
</trkpt>
<trkpt lat="38.099794658612865" lon="-1.4508836804041891">
<ele>1128</ele>
<time>2017-03-29T19:40:22Z</time>
</trkpt>
<trkpt lat="38.09974877532138" lon="-1.45081456023157">
<ele>1129</ele>
<time>2017-03-29T19:40:24Z</time>
</trkpt>
<trkpt lat="38.099711131026716" lon="-1.4507515610301425">
<ele>1129</ele>
<time>2017-03-29T19:40:26Z</time>
</trkpt>
<trkpt lat="38.09968281521345" lon="-1.4506875650897932">
<ele>1129</ele>
<time>2017-03-29T19:40:28Z</time>
</trkpt>
<trkpt lat="38.09964032966065" lon="-1.4505994654568113">
<ele>1132</ele>
<time>2017-03-29T19:40:30Z</time>
</trkpt>
<trkpt lat="38.09960426078024" lon="-1.4505179535359312">
<ele>1134</ele>
<time>2017-03-29T19:40:32Z</time>
</trkpt>
<trkpt lat="38.09957334933934" lon="-1.4504404954819516">
<ele>1134</ele>
<time>2017-03-29T19:40:34Z</time>
</trkpt>
<trkpt lat="38.099526831443534" lon="-1.4503740959827032">
<ele>1135</ele>
<time>2017-03-29T19:40:36Z</time>
</trkpt>
<trkpt lat="38.099463844632744" lon="-1.4503363561768376">
<ele>1135</ele>
<time>2017-03-29T19:40:38Z</time>
</trkpt>
<trkpt lat="38.09939120563569" lon="-1.4503324438128045">
<ele>1138</ele>
<time>2017-03-29T19:40:40Z</time>
</trkpt>
<trkpt lat="38.09931705977631" lon="-1.4503600374661008">
<ele>1140</ele>
<time>2017-03-29T19:40:42Z</time>
</trkpt>
<trkpt lat="38.09925848635434" lon="-1.450413622156947">
<ele>1141</ele>
<time>2017-03-29T19:40:44Z</time>
</trkpt>
<trkpt lat="38.099182821877115" lon="-1.4504970403636124">
<ele>1142</ele>
<time>2017-03-29T19:40:46Z</time>
</trkpt>
<trkpt lat="38.09909574708473" lon="-1.4505991416738282">
<ele>1143</ele>
<time>2017-03-29T19:40:48Z</time>
</trkpt>
<trkpt lat="38.09904909963356" lon="-1.4507274302036837">
<ele>1144</ele>
<time>2017-03-29T19:40:50Z</time>
</trkpt>
<trkpt lat="38.09899363353942" lon="-1.4508919652366288">
<ele>1144</ele>
<time>2017-03-29T19:40:52Z</time>
</trkpt>
<trkpt lat="38.0989343139135" lon="-1.451071796622164">
<ele>1144</ele>
<time>2017-03-29T19:40:54Z</time>
</trkpt>
<trkpt lat="38.09888333494762" lon="-1.4512606988199288">
<ele>1145</ele>
<time>2017-03-29T19:40:56Z</time>
</trkpt>
<trkpt lat="38.09884548353091" lon="-1.4514621854420362">
<ele>1145</ele>
<time>2017-03-29T19:40:58Z</time>
</trkpt>
<trkpt lat="38.098820070219745" lon="-1.4517063860025203">
<ele>1146</ele>
<time>2017-03-29T19:41:00Z</time>
</trkpt>
<trkpt lat="38.09881866890362" lon="-1.4519716571514207">
<ele>1147</ele>
<time>2017-03-29T19:41:02Z</time>
</trkpt>
<trkpt lat="38.09884296159934" lon="-1.4522325075944797">
<ele>1149</ele>
<time>2017-03-29T19:41:04Z</time>
</trkpt>
<trkpt lat="38.09891736769927" lon="-1.4525023153121894">
<ele>1150</ele>
<time>2017-03-29T19:41:06Z</time>
</trkpt>
<trkpt lat="38.09903266007161" lon="-1.4527538730821927">
<ele>1150</ele>
<time>2017-03-29T19:41:08Z</time>
</trkpt>
<trkpt lat="38.09918645741019" lon="-1.4529646059503742">
<ele>1151</ele>
<time>2017-03-29T19:41:10Z</time>
</trkpt>
<trkpt lat="38.099368718087085" lon="-1.4531547959585827">
<ele>1151</ele>
<time>2017-03-29T19:41:12Z</time>
</trkpt>
<trkpt lat="38.09957192147813" lon="-1.453292920921148">
<ele>1151</ele>
<time>2017-03-29T19:41:14Z</time>
</trkpt>
<trkpt lat="38.0997880642254" lon="-1.453348884209776">
<ele>1151</ele>
<time>2017-03-29T19:41:16Z</time>
</trkpt>
<trkpt lat="38.09998285476131" lon="-1.4533358627604978">
<ele>1151</ele>
<time>2017-03-29T19:41:18Z</time>
</trkpt>
<trkpt lat="38.10013108457299" lon="-1.4532485665555146">
<ele>1151</ele>
<time>2017-03-29T19:41:20Z</time>
</trkpt>
<trkpt lat="38.10021556083117" lon="-1.4531339900726683">
<ele>1151</ele>
<time>2017-03-29T19:41:22Z</time>
</trkpt>
<trkpt lat="38.10026317349388" lon="-1.4530124544797678">
<ele>1151</ele>
<time>2017-03-29T19:41:24Z</time>
</trkpt>
<trkpt lat="38.10031462772777" lon="-1.4529067517569638">
<ele>1151</ele>
<time>2017-03-29T19:41:26Z</time>
</trkpt>
<trkpt lat="38.100324809829466" lon="-1.4528205063910609">
<ele>1151</ele>
<time>2017-03-29T19:41:28Z</time>
</trkpt>
<trkpt lat="38.10031398624104" lon="-1.4527181274387442">
<ele>1152</ele>
<time>2017-03-29T19:41:30Z</time>
</trkpt>
<trkpt lat="38.1002924080961" lon="-1.4526235945650614">
<ele>1152</ele>
<time>2017-03-29T19:41:32Z</time>
</trkpt>
<trkpt lat="38.10027046362484" lon="-1.4525634315289002">
<ele>1152</ele>
<time>2017-03-29T19:41:34Z</time>
</trkpt>
<trkpt lat="38.10024154561192" lon="-1.4525240758097118">
<ele>1152</ele>
<time>2017-03-29T19:41:36Z</time>
</trkpt>
<trkpt lat="38.1001990168134" lon="-1.4524697110218163">
<ele>1152</ele>
<time>2017-03-29T19:41:38Z</time>
</trkpt>
<trkpt lat="38.10015786198068" lon="-1.4524379883026917">
<ele>1152</ele>
<time>2017-03-29T19:41:40Z</time>
</trkpt>
<trkpt lat="38.100122344569336" lon="-1.452415135160729">
<ele>1152</ele>
<time>2017-03-29T19:41:42Z</time>
</trkpt>
<trkpt lat="38.10007397434086" lon="-1.452381014709441">
<ele>1152</ele>
<time>2017-03-29T19:41:44Z</time>
</trkpt>
<trkpt lat="38.100030549481176" lon="-1.4523561274227457">
<ele>1152</ele>
<time>2017-03-29T19:41:46Z</time>
</trkpt>
<trkpt lat="38.099996022697795" lon="-1.452329103983759">
<ele>1152</ele>
<time>2017-03-29T19:41:48Z</time>
</trkpt>
<trkpt lat="38.099956009760874" lon="-1.4523020611978164">
<ele>1152</ele>
<time>2017-03-29T19:41:50Z</time>
</trkpt>
<trkpt lat="38.09991324325763" lon="-1.4522839035425643">
<ele>1152</ele>
<time>2017-03-29T19:41:52Z</time>
</trkpt>
<trkpt lat="38.09986977812535" lon="-1.4522712290807798">
<ele>1152</ele>
<time>2017-03-29T19:41:54Z</time>
</trkpt>
<trkpt lat="38.099814374406144" lon="-1.452277708867842">
<ele>1152</ele>
<time>2017-03-29T19:41:56Z</time>
</trkpt>
<trkpt lat="38.099751609167775" lon="-1.4522875181888555">
<ele>1151</ele>
<time>2017-03-29T19:41:58Z</time>
</trkpt>
<trkpt lat="38.09968701852942" lon="-1.4523153279320953">
<ele>1151</ele>
<time>2017-03-29T19:42:00Z</time>
</trkpt>
<trkpt lat="38.09961171317322" lon="-1.4523421391034803">
<ele>1151</ele>
<time>2017-03-29T19:42:02Z</time>
</trkpt>
<trkpt lat="38.09954975858516" lon="-1.4523679957904378">
<ele>1151</ele>
<time>2017-03-29T19:42:04Z</time>
</trkpt>
<trkpt lat="38.09948829548875" lon="-1.452415450936012">
<ele>1151</ele>
<time>2017-03-29T19:42:06Z</time>
</trkpt>
<trkpt lat="38.09941952021012" lon="-1.4524813704628652">
<ele>1151</ele>
<time>2017-03-29T19:42:08Z</time>
</trkpt>
<trkpt lat="38.09934126958092" lon="-1.4525589141000756">
<ele>1151</ele>
<time>2017-03-29T19:42:10Z</time>
</trkpt>
<trkpt lat="38.099268238193254" lon="-1.452633741639913">
<ele>1151</ele>
<time>2017-03-29T19:42:12Z</time>
</trkpt>
<trkpt lat="38.099204342192905" lon="-1.4527167482545864">
<ele>1151</ele>
<time>2017-03-29T19:42:14Z</time>
</trkpt>
<trkpt lat="38.09913377491769" lon="-1.4528083197925599">
<ele>1150</ele>
<time>2017-03-29T19:42:16Z</time>
</trkpt>
<trkpt lat="38.09905790464808" lon="-1.4529013972535052">
<ele>1150</ele>
<time>2017-03-29T19:42:18Z</time>
</trkpt>
<trkpt lat="38.09898923562316" lon="-1.4529855693021474">
<ele>1149</ele>
<time>2017-03-29T19:42:20Z</time>
</trkpt>
<trkpt lat="38.098920086030446" lon="-1.4530563707474486">
<ele>1149</ele>
<time>2017-03-29T19:42:22Z</time>
</trkpt>
<trkpt lat="38.098851582273724" lon="-1.453119610138989">
<ele>1148</ele>
<time>2017-03-29T19:42:24Z</time>
</trkpt>
<trkpt lat="38.09878750396275" lon="-1.4531772630436184">
<ele>1148</ele>
<time>2017-03-29T19:42:26Z</time>
</trkpt>
<trkpt lat="38.09871277824862" lon="-1.453256861385031">
<ele>1148</ele>
<time>2017-03-29T19:42:28Z</time>
</trkpt>
<trkpt lat="38.098639836735074" lon="-1.453356562133245">
<ele>1148</ele>
<time>2017-03-29T19:42:30Z</time>
</trkpt>
<trkpt lat="38.09856877128319" lon="-1.4534668584819388">
<ele>1148</ele>
<time>2017-03-29T19:42:32Z</time>
</trkpt>
<trkpt lat="38.09849304965239" lon="-1.453585190998764">
<ele>1149</ele>
<time>2017-03-29T19:42:34Z</time>
</trkpt>
<trkpt lat="38.09841460199639" lon="-1.453697184309718">
<ele>1150</ele>
<time>2017-03-29T19:42:36Z</time>
</trkpt>
<trkpt lat="38.09834016931496" lon="-1.4537999138194388">
<ele>1150</ele>
<time>2017-03-29T19:42:38Z</time>
</trkpt>
<trkpt lat="38.098263066165785" lon="-1.4539075639726482">
<ele>1151</ele>
<time>2017-03-29T19:42:40Z</time>
</trkpt>
<trkpt lat="38.09818898235825" lon="-1.4540160675314362">
<ele>1152</ele>
<time>2017-03-29T19:42:42Z</time>
</trkpt>
<trkpt lat="38.09810788304316" lon="-1.454118822867942">
<ele>1153</ele>
<time>2017-03-29T19:42:44Z</time>
</trkpt>
<trkpt lat="38.09801320342836" lon="-1.4542163494000104">
<ele>1154</ele>
<time>2017-03-29T19:42:46Z</time>
</trkpt>
<trkpt lat="38.09791396552433" lon="-1.4543135584321674">
<ele>1155</ele>
<time>2017-03-29T19:42:48Z</time>
</trkpt>
<trkpt lat="38.09782712750894" lon="-1.454429478988794">
<ele>1156</ele>
<time>2017-03-29T19:42:50Z</time>
</trkpt>
<trkpt lat="38.09773916331625" lon="-1.4545723032936289">
<ele>1157</ele>
<time>2017-03-29T19:42:52Z</time>
</trkpt>
<trkpt lat="38.09765204308962" lon="-1.4547357281922473">
<ele>1158</ele>
<time>2017-03-29T19:42:54Z</time>
</trkpt>
<trkpt lat="38.0975770212372" lon="-1.4549062372362995">
<ele>1159</ele>
<time>2017-03-29T19:42:56Z</time>
</trkpt>
<trkpt lat="38.097509894941716" lon="-1.4550867944734662">
<ele>1159</ele>
<time>2017-03-29T19:42:58Z</time>
</trkpt>
<trkpt lat="38.09743674169569" lon="-1.4552769311633014">
<ele>1159</ele>
<time>2017-03-29T19:43:00Z</time>
</trkpt>
<trkpt lat="38.0973708449469" lon="-1.455471860314576">
<ele>1159</ele>
<time>2017-03-29T19:43:02Z</time>
</trkpt>
<trkpt lat="38.09730712939853" lon="-1.4556771195711653">
<ele>1159</ele>
<time>2017-03-29T19:43:04Z</time>
</trkpt>
<trkpt lat="38.09724309114469" lon="-1.4558832587721005">
<ele>1158</ele>
<time>2017-03-29T19:43:06Z</time>
</trkpt>
<trkpt lat="38.097204901152395" lon="-1.4561013510505598">
<ele>1158</ele>
<time>2017-03-29T19:43:08Z</time>
</trkpt>
<trkpt lat="38.097184160865865" lon="-1.456340449584402">
<ele>1157</ele>
<time>2017-03-29T19:43:10Z</time>
</trkpt>
<trkpt lat="38.097179622377936" lon="-1.45660341608361">
<ele>1156</ele>
<time>2017-03-29T19:43:12Z</time>
</trkpt>
<trkpt lat="38.09722383100112" lon="-1.4568674387087104">
<ele>1155</ele>
<time>2017-03-29T19:43:14Z</time>
</trkpt>
<trkpt lat="38.09728717063719" lon="-1.4571473769716223">
<ele>1154</ele>
<time>2017-03-29T19:43:16Z</time>
</trkpt>
<trkpt lat="38.09733758745335" lon="-1.457443935401008">
<ele>1154</ele>
<time>2017-03-29T19:43:18Z</time>
</trkpt>
<trkpt lat="38.09736038712156" lon="-1.4577292473357957">
<ele>1153</ele>
<time>2017-03-29T19:43:20Z</time>
</trkpt>
<trkpt lat="38.09737765795459" lon="-1.4579966770632422">
<ele>1153</ele>
<time>2017-03-29T19:43:22Z</time>
</trkpt>
<trkpt lat="38.097409363966705" lon="-1.4582826189814162">
<ele>1154</ele>
<time>2017-03-29T19:43:24Z</time>
</trkpt>
<trkpt lat="38.097457398646426" lon="-1.4585744623747647">
<ele>1155</ele>
<time>2017-03-29T19:43:26Z</time>
</trkpt>
<trkpt lat="38.09755347211473" lon="-1.4588557439874048">
<ele>1156</ele>
<time>2017-03-29T19:43:28Z</time>
</trkpt>
<trkpt lat="38.09769424424141" lon="-1.4591111524999953">
<ele>1156</ele>
<time>2017-03-29T19:43:30Z</time>
</trkpt>
<trkpt lat="38.0978903424444" lon="-1.4593143974234226">
<ele>1155</ele>
<time>2017-03-29T19:43:32Z</time>
</trkpt>
<trkpt lat="38.098098584987994" lon="-1.4594538078622175">
<ele>1155</ele>
<time>2017-03-29T19:43:34Z</time>
</trkpt>
<trkpt lat="38.09829999374397" lon="-1.4594977834785259">
<ele>1155</ele>
<time>2017-03-29T19:43:36Z</time>
</trkpt>
<trkpt lat="38.09846584291114" lon="-1.4594718690000221">
<ele>1154</ele>
<time>2017-03-29T19:43:38Z</time>
</trkpt>
<trkpt lat="38.0985849952755" lon="-1.4594082958869008">
<ele>1154</ele>
<time>2017-03-29T19:43:40Z</time>
</trkpt>
<trkpt lat="38.09865095850872" lon="-1.4593282534756566">
<ele>1154</ele>
<time>2017-03-29T19:43:42Z</time>
</trkpt>
<trkpt lat="38.09866098999621" lon="-1.4592407330036294">
<ele>1154</ele>
<time>2017-03-29T19:43:44Z</time>
</trkpt>
<trkpt lat="38.09862462788652" lon="-1.4591847237903883">
<ele>1154</ele>
<time>2017-03-29T19:43:46Z</time>
</trkpt>
<trkpt lat="38.098576414770406" lon="-1.4591528936836384">
<ele>1154</ele>
<time>2017-03-29T19:43:48Z</time>
</trkpt>
<trkpt lat="38.09851137694264" lon="-1.4591481337907701">
<ele>1154</ele>
<time>2017-03-29T19:43:50Z</time>
</trkpt>
<trkpt lat="38.098441445525545" lon="-1.4591673472017037">
<ele>1153</ele>
<time>2017-03-29T19:43:52Z</time>
</trkpt>
<trkpt lat="38.09837318805906" lon="-1.4591996867621397">
<ele>1152</ele>
<time>2017-03-29T19:43:54Z</time>
</trkpt>
<trkpt lat="38.098288606842935" lon="-1.4592560255967424">
<ele>1152</ele>
<time>2017-03-29T19:43:56Z</time>
</trkpt>
<trkpt lat="38.098190785760934" lon="-1.4593332696329229">
<ele>1151</ele>
<time>2017-03-29T19:43:58Z</time>
</trkpt>
<trkpt lat="38.09809204157044" lon="-1.459419541616134">
<ele>1151</ele>
<time>2017-03-29T19:44:00Z</time>
</trkpt>
<trkpt lat="38.097987397461345" lon="-1.4594928396835012">
<ele>1152</ele>
<time>2017-03-29T19:44:02Z</time>
</trkpt>
<trkpt lat="38.0978967337415" lon="-1.4595420782241342">
<ele>1153</ele>
<time>2017-03-29T19:44:04Z</time>
</trkpt>
<trkpt lat="38.09781063548067" lon="-1.4595820112776914">
<ele>1152</ele>
<time>2017-03-29T19:44:06Z</time>
</trkpt>
<trkpt lat="38.09772770185626" lon="-1.4596169973274107">
<ele>1152</ele>
<time>2017-03-29T19:44:08Z</time>
</trkpt>
<trkpt lat="38.09763557118443" lon="-1.4596410798018986">
<ele>1151</ele>
<time>2017-03-29T19:44:10Z</time>
</trkpt>
<trkpt lat="38.097549742613" lon="-1.459646910879894">
<ele>1150</ele>
<time>2017-03-29T19:44:12Z</time>
</trkpt>
<trkpt lat="38.09746998731997" lon="-1.4596300766724686">
<ele>1150</ele>
<time>2017-03-29T19:44:14Z</time>
</trkpt>
<trkpt lat="38.097388872436966" lon="-1.459604811339537">
<ele>1149</ele>
<time>2017-03-29T19:44:16Z</time>
</trkpt>
<trkpt lat="38.09731996552835" lon="-1.4595845631399775">
<ele>1149</ele>
<time>2017-03-29T19:44:18Z</time>
</trkpt>
<trkpt lat="38.09724798674309" lon="-1.4595592695075699">
<ele>1149</ele>
<time>2017-03-29T19:44:20Z</time>
</trkpt>
<trkpt lat="38.0971895779544" lon="-1.45953377937485">
<ele>1149</ele>
<time>2017-03-29T19:44:22Z</time>
</trkpt>
<trkpt lat="38.097127048024355" lon="-1.4595075270847429">
<ele>1149</ele>
<time>2017-03-29T19:44:24Z</time>
</trkpt>
<trkpt lat="38.097061956627236" lon="-1.459481879642443">
<ele>1149</ele>
<time>2017-03-29T19:44:26Z</time>
</trkpt>
<trkpt lat="38.096998180601204" lon="-1.4594533237082985">
<ele>1148</ele>
<time>2017-03-29T19:44:28Z</time>
</trkpt>
<trkpt lat="38.096938889296524" lon="-1.459419933833355">
<ele>1148</ele>
<time>2017-03-29T19:44:30Z</time>
</trkpt>
<trkpt lat="38.09688880403533" lon="-1.4593824875823194">
<ele>1148</ele>
<time>2017-03-29T19:44:32Z</time>
</trkpt>
<trkpt lat="38.09684947106757" lon="-1.4593534355807372">
<ele>1148</ele>
<time>2017-03-29T19:44:34Z</time>
</trkpt>
<trkpt lat="38.09681776748713" lon="-1.459320463659926">
<ele>1147</ele>
<time>2017-03-29T19:44:36Z</time>
</trkpt>
<trkpt lat="38.09678768802144" lon="-1.4592668832961386">
<ele>1147</ele>
<time>2017-03-29T19:44:38Z</time>
</trkpt>
<trkpt lat="38.09678566437285" lon="-1.459211748627522">
<ele>1147</ele>
<time>2017-03-29T19:44:40Z</time>
</trkpt>
<trkpt lat="38.0968031525664" lon="-1.4591651198686961">
<ele>1147</ele>
<time>2017-03-29T19:44:42Z</time>
</trkpt>
<trkpt lat="38.096828286753926" lon="-1.4590959500546832">
<ele>1146</ele>
<time>2017-03-29T19:44:44Z</time>
</trkpt>
<trkpt lat="38.096855551830856" lon="-1.4590016456895307">
<ele>1145</ele>
<time>2017-03-29T19:44:46Z</time>
</trkpt>
<trkpt lat="38.09687534054331" lon="-1.4589235345364517">
<ele>1145</ele>
<time>2017-03-29T19:44:48Z</time>
</trkpt>
<trkpt lat="38.09689570448442" lon="-1.4588500290154651">
<ele>1144</ele>
<time>2017-03-29T19:44:50Z</time>
</trkpt>
<trkpt lat="38.09691416840127" lon="-1.4587677361920233">
<ele>1142</ele>
<time>2017-03-29T19:44:52Z</time>
</trkpt>
<trkpt lat="38.096924582271406" lon="-1.4586816686153063">
<ele>1141</ele>
<time>2017-03-29T19:44:54Z</time>
</trkpt>
<trkpt lat="38.09693203108122" lon="-1.4585960856763147">
<ele>1141</ele>
<time>2017-03-29T19:44:56Z</time>
</trkpt>
<trkpt lat="38.09693861670067" lon="-1.4585059459145755">
<ele>1138</ele>
<time>2017-03-29T19:44:58Z</time>
</trkpt>
<trkpt lat="38.09694501946238" lon="-1.4584205892057647">
<ele>1138</ele>
<time>2017-03-29T19:45:00Z</time>
</trkpt>
<trkpt lat="38.0969479515249" lon="-1.4583432800568041">
<ele>1138</ele>
<time>2017-03-29T19:45:02Z</time>
</trkpt>
<trkpt lat="38.09694259972576" lon="-1.4582741705046722">
<ele>1138</ele>
<time>2017-03-29T19:45:04Z</time>
</trkpt>
<trkpt lat="38.096905858695166" lon="-1.4582156568878013">
<ele>1137</ele>
<time>2017-03-29T19:45:06Z</time>
</trkpt>
<trkpt lat="38.09686118988187" lon="-1.4581870438621356">
<ele>1137</ele>
<time>2017-03-29T19:45:08Z</time>
</trkpt>
<trkpt lat="38.096791512250824" lon="-1.4581759909137877">
<ele>1137</ele>
<time>2017-03-29T19:45:10Z</time>
</trkpt>
<trkpt lat="38.09670617167817" lon="-1.4581874049748604">
<ele>1136</ele>
<time>2017-03-29T19:45:12Z</time>
</trkpt>
<trkpt lat="38.096622455333204" lon="-1.4582049988380763">
<ele>1136</ele>
<time>2017-03-29T19:45:14Z</time>
</trkpt>
<trkpt lat="38.09652625069968" lon="-1.4582240125371353">
<ele>1136</ele>
<time>2017-03-29T19:45:16Z</time>
</trkpt>
<trkpt lat="38.096448930844154" lon="-1.4582440481492014">
<ele>1137</ele>
<time>2017-03-29T19:45:18Z</time>
</trkpt>
<trkpt lat="38.09636246527925" lon="-1.45826606734946">
<ele>1137</ele>
<time>2017-03-29T19:45:20Z</time>
</trkpt>
<trkpt lat="38.09628560363924" lon="-1.458286287317775">
<ele>1137</ele>
<time>2017-03-29T19:45:22Z</time>
</trkpt>
<trkpt lat="38.096207262028756" lon="-1.4583082609056344">
<ele>1136</ele>
<time>2017-03-29T19:45:24Z</time>
</trkpt>
<trkpt lat="38.09611819856459" lon="-1.4583279841056334">
<ele>1136</ele>
<time>2017-03-29T19:45:26Z</time>
</trkpt>
<trkpt lat="38.096032821168684" lon="-1.4583529801240525">
<ele>1136</ele>
<time>2017-03-29T19:45:28Z</time>
</trkpt>
<trkpt lat="38.095939807924594" lon="-1.4583941775011664">
<ele>1137</ele>
<time>2017-03-29T19:45:30Z</time>
</trkpt>
<trkpt lat="38.09585476907087" lon="-1.4584531384921886">
<ele>1137</ele>
<time>2017-03-29T19:45:32Z</time>
</trkpt>
<trkpt lat="38.095750386152766" lon="-1.4585397955499029">
<ele>1137</ele>
<time>2017-03-29T19:45:34Z</time>
</trkpt>
<trkpt lat="38.095662808410914" lon="-1.4586609895361142">
<ele>1138</ele>
<time>2017-03-29T19:45:36Z</time>
</trkpt>
<trkpt lat="38.09557005198016" lon="-1.4587944333657548">
<ele>1138</ele>
<time>2017-03-29T19:45:38Z</time>
</trkpt>
<trkpt lat="38.09547664772523" lon="-1.4589153044007481">
<ele>1139</ele>
<time>2017-03-29T19:45:40Z</time>
</trkpt>
<trkpt lat="38.095384323865666" lon="-1.4590496782640583">
<ele>1139</ele>
<time>2017-03-29T19:45:42Z</time>
</trkpt>
<trkpt lat="38.09529212171397" lon="-1.459199495298618">
<ele>1139</ele>
<time>2017-03-29T19:45:44Z</time>
</trkpt>
<trkpt lat="38.09519920317842" lon="-1.4593587854308478">
<ele>1139</ele>
<time>2017-03-29T19:45:46Z</time>
</trkpt>
<trkpt lat="38.0951177292769" lon="-1.4595228007722945">
<ele>1139</ele>
<time>2017-03-29T19:45:48Z</time>
</trkpt>
<trkpt lat="38.09502798713367" lon="-1.4596993974883532">
<ele>1140</ele>
<time>2017-03-29T19:45:50Z</time>
</trkpt>
<trkpt lat="38.09493978784803" lon="-1.4598709475735714">
<ele>1141</ele>
<time>2017-03-29T19:45:52Z</time>
</trkpt>
<trkpt lat="38.09484971008937" lon="-1.4600462263624385">
<ele>1142</ele>
<time>2017-03-29T19:45:54Z</time>
</trkpt>
<trkpt lat="38.09475514093658" lon="-1.4602187792716161">
<ele>1144</ele>
<time>2017-03-29T19:45:56Z</time>
</trkpt>
<trkpt lat="38.09466220553309" lon="-1.460373097594976">
<ele>1145</ele>
<time>2017-03-29T19:45:58Z</time>
</trkpt>
<trkpt lat="38.09456646788901" lon="-1.4605128897078352">
<ele>1145</ele>
<time>2017-03-29T19:46:00Z</time>
</trkpt>
<trkpt lat="38.094467464778425" lon="-1.4606359865545273">
<ele>1145</ele>
<time>2017-03-29T19:46:02Z</time>
</trkpt>
<trkpt lat="38.09436899229452" lon="-1.4607325351233387">
<ele>1145</ele>
<time>2017-03-29T19:46:04Z</time>
</trkpt>
<trkpt lat="38.09427413363931" lon="-1.4608048242247833">
<ele>1146</ele>
<time>2017-03-29T19:46:06Z</time>
</trkpt>
<trkpt lat="38.094157863081556" lon="-1.4608780991574946">
<ele>1146</ele>
<time>2017-03-29T19:46:08Z</time>
</trkpt>
<trkpt lat="38.09404026838432" lon="-1.4609552342783692">
<ele>1146</ele>
<time>2017-03-29T19:46:10Z</time>
</trkpt>
<trkpt lat="38.093942962455245" lon="-1.4610288576548858">
<ele>1145</ele>
<time>2017-03-29T19:46:12Z</time>
</trkpt>
<trkpt lat="38.093837988293075" lon="-1.4611074599881821">
<ele>1145</ele>
<time>2017-03-29T19:46:14Z</time>
</trkpt>
<trkpt lat="38.093722548528774" lon="-1.4611897997012406">
<ele>1144</ele>
<time>2017-03-29T19:46:16Z</time>
</trkpt>
<trkpt lat="38.093609534315284" lon="-1.461270575522215">
<ele>1144</ele>
<time>2017-03-29T19:46:18Z</time>
</trkpt>
<trkpt lat="38.09349045409081" lon="-1.4613522828655607">
<ele>1144</ele>
<time>2017-03-29T19:46:20Z</time>
</trkpt>
<trkpt lat="38.093368831149434" lon="-1.4614336862417208">
<ele>1144</ele>
<time>2017-03-29T19:46:22Z</time>
</trkpt>
<trkpt lat="38.093251375787865" lon="-1.4615120923033813">
<ele>1144</ele>
<time>2017-03-29T19:46:24Z</time>
</trkpt>
<trkpt lat="38.09312861330924" lon="-1.4615870992831492">
<ele>1144</ele>
<time>2017-03-29T19:46:26Z</time>
</trkpt>
<trkpt lat="38.093024774444196" lon="-1.4616461685020359">
<ele>1144</ele>
<time>2017-03-29T19:46:28Z</time>
</trkpt>
<trkpt lat="38.09291163053297" lon="-1.4617094321825235">
<ele>1143</ele>
<time>2017-03-29T19:46:30Z</time>
</trkpt>
<trkpt lat="38.09280031440579" lon="-1.461770830062307">
<ele>1142</ele>
<time>2017-03-29T19:46:32Z</time>
</trkpt>
<trkpt lat="38.09267974232032" lon="-1.46182644609178">
<ele>1140</ele>
<time>2017-03-29T19:46:34Z</time>
</trkpt>
<trkpt lat="38.09256572135277" lon="-1.4618804433309016">
<ele>1139</ele>
<time>2017-03-29T19:46:36Z</time>
</trkpt>
<trkpt lat="38.092455528003356" lon="-1.4619352467842675">
<ele>1139</ele>
<time>2017-03-29T19:46:38Z</time>
</trkpt>
<trkpt lat="38.092344442567715" lon="-1.4619930809242179">
<ele>1138</ele>
<time>2017-03-29T19:46:40Z</time>
</trkpt>
<trkpt lat="38.092231890761646" lon="-1.4620572202806732">
<ele>1138</ele>
<time>2017-03-29T19:46:42Z</time>
</trkpt>
<trkpt lat="38.09212699234855" lon="-1.4621208558781043">
<ele>1137</ele>
<time>2017-03-29T19:46:44Z</time>
</trkpt>
<trkpt lat="38.092011863131816" lon="-1.4621783324027162">
<ele>1137</ele>
<time>2017-03-29T19:46:46Z</time>
</trkpt>
<trkpt lat="38.091901583811776" lon="-1.462228427595645">
<ele>1137</ele>
<time>2017-03-29T19:46:48Z</time>
</trkpt>
<trkpt lat="38.091791150411794" lon="-1.4622797273650494">
<ele>1137</ele>
<time>2017-03-29T19:46:50Z</time>
</trkpt>
<trkpt lat="38.09168299546542" lon="-1.4623292191509132">
<ele>1137</ele>
<time>2017-03-29T19:46:52Z</time>
</trkpt>
<trkpt lat="38.09157448127272" lon="-1.462374774025557">
<ele>1137</ele>
<time>2017-03-29T19:46:54Z</time>
</trkpt>
<trkpt lat="38.09147159105394" lon="-1.4624146789433303">
<ele>1137</ele>
<time>2017-03-29T19:46:56Z</time>
</trkpt>
<trkpt lat="38.09137194621953" lon="-1.462448154734175">
<ele>1138</ele>
<time>2017-03-29T19:46:58Z</time>
</trkpt>
<trkpt lat="38.091274446408235" lon="-1.4624809156034155">
<ele>1138</ele>
<time>2017-03-29T19:47:00Z</time>
</trkpt>
<trkpt lat="38.091177448969844" lon="-1.4625128633785989">
<ele>1138</ele>
<time>2017-03-29T19:47:02Z</time>
</trkpt>
<trkpt lat="38.091074076466235" lon="-1.4625375903091944">
<ele>1138</ele>
<time>2017-03-29T19:47:04Z</time>
</trkpt>
<trkpt lat="38.090962269036766" lon="-1.4625589718428706">
<ele>1138</ele>
<time>2017-03-29T19:47:06Z</time>
</trkpt>
<trkpt lat="38.09085636137647" lon="-1.4625930468055943">
<ele>1137</ele>
<time>2017-03-29T19:47:08Z</time>
</trkpt>
<trkpt lat="38.09073918143667" lon="-1.462631211227177">
<ele>1137</ele>
<time>2017-03-29T19:47:10Z</time>
</trkpt>
<trkpt lat="38.090618136345206" lon="-1.4626636267047923">
<ele>1137</ele>
<time>2017-03-29T19:47:12Z</time>
</trkpt>
<trkpt lat="38.09051264331368" lon="-1.4626940684701022">
<ele>1137</ele>
<time>2017-03-29T19:47:14Z</time>
</trkpt>
<trkpt lat="38.090406034658415" lon="-1.4627164464700537">
<ele>1137</ele>
<time>2017-03-29T19:47:16Z</time>
</trkpt>
<trkpt lat="38.09029625506831" lon="-1.4627287948761163">
<ele>1136</ele>
<time>2017-03-29T19:47:18Z</time>
</trkpt>
<trkpt lat="38.09019167913238" lon="-1.4627374163530527">
<ele>1136</ele>
<time>2017-03-29T19:47:20Z</time>
</trkpt>
<trkpt lat="38.090092769175705" lon="-1.462747657525454">
<ele>1136</ele>
<time>2017-03-29T19:47:22Z</time>
</trkpt>
<trkpt lat="38.0899996194702" lon="-1.462759883533602">
<ele>1136</ele>
<time>2017-03-29T19:47:24Z</time>
</trkpt>
<trkpt lat="38.08990298624925" lon="-1.4627674889480573">
<ele>1135</ele>
<time>2017-03-29T19:47:26Z</time>
</trkpt>
<trkpt lat="38.0898134138305" lon="-1.4627795205103333">
<ele>1135</ele>
<time>2017-03-29T19:47:28Z</time>
</trkpt>
<trkpt lat="38.08971378226948" lon="-1.4627913946684885">
<ele>1134</ele>
<time>2017-03-29T19:47:30Z</time>
</trkpt>
<trkpt lat="38.089628197861494" lon="-1.462805223167577">
<ele>1134</ele>
<time>2017-03-29T19:47:32Z</time>
</trkpt>
<trkpt lat="38.0895422453843" lon="-1.4628191277464337">
<ele>1133</ele>
<time>2017-03-29T19:47:34Z</time>
</trkpt>
<trkpt lat="38.0894578558628" lon="-1.4628374592810196">
<ele>1133</ele>
<time>2017-03-29T19:47:36Z</time>
</trkpt>
<trkpt lat="38.089358630639765" lon="-1.462858975735203">
<ele>1132</ele>
<time>2017-03-29T19:47:38Z</time>
</trkpt>
<trkpt lat="38.08927175929812" lon="-1.4628796144924583">
<ele>1132</ele>
<time>2017-03-29T19:47:40Z</time>
</trkpt>
<trkpt lat="38.089184024814195" lon="-1.462899423149812">
<ele>1131</ele>
<time>2017-03-29T19:47:42Z</time>
</trkpt>
<trkpt lat="38.08909072864877" lon="-1.4629295448237853">
<ele>1131</ele>
<time>2017-03-29T19:47:44Z</time>
</trkpt>
<trkpt lat="38.08898138101814" lon="-1.4630094825805624">
<ele>1130</ele>
<time>2017-03-29T19:47:46Z</time>
</trkpt>
<trkpt lat="38.08886897854829" lon="-1.4631179584827712">
<ele>1130</ele>
<time>2017-03-29T19:47:48Z</time>
</trkpt>
<trkpt lat="38.0887391831949" lon="-1.4632681565609869">
<ele>1130</ele>
<time>2017-03-29T19:47:50Z</time>
</trkpt>
<trkpt lat="38.08862811618464" lon="-1.4634520529490886">
<ele>1131</ele>
<time>2017-03-29T19:47:52Z</time>
</trkpt>
<trkpt lat="38.08852918512039" lon="-1.463663663336943">
<ele>1130</ele>
<time>2017-03-29T19:47:54Z</time>
</trkpt>
<trkpt lat="38.088437719076396" lon="-1.4638609972233083">
<ele>1129</ele>
<time>2017-03-29T19:47:56Z</time>
</trkpt>
<trkpt lat="38.08834656347302" lon="-1.4640291419860014">
<ele>1128</ele>
<time>2017-03-29T19:47:58Z</time>
</trkpt>
<trkpt lat="38.088247231386994" lon="-1.4642011231595402">
<ele>1126</ele>
<time>2017-03-29T19:48:00Z</time>
</trkpt>
<trkpt lat="38.088142356313234" lon="-1.4643979963340388">
<ele>1126</ele>
<time>2017-03-29T19:48:02Z</time>
</trkpt>
<trkpt lat="38.08804495884951" lon="-1.4645898222789464">
<ele>1125</ele>
<time>2017-03-29T19:48:04Z</time>
</trkpt>
<trkpt lat="38.08794873672082" lon="-1.464790336803736">
<ele>1125</ele>
<time>2017-03-29T19:48:06Z</time>
</trkpt>
<trkpt lat="38.08785212295571" lon="-1.4649983056628733">
<ele>1124</ele>
<time>2017-03-29T19:48:08Z</time>
</trkpt>
<trkpt lat="38.08776532357285" lon="-1.4652042854761054">
<ele>1123</ele>
<time>2017-03-29T19:48:10Z</time>
</trkpt>
<trkpt lat="38.087676469919295" lon="-1.4654107103113694">
<ele>1122</ele>
<time>2017-03-29T19:48:12Z</time>
</trkpt>
<trkpt lat="38.08758254630424" lon="-1.465618480469788">
<ele>1121</ele>
<time>2017-03-29T19:48:14Z</time>
</trkpt>
<trkpt lat="38.08749102621374" lon="-1.4658294449624618">
<ele>1120</ele>
<time>2017-03-29T19:48:16Z</time>
</trkpt>
<trkpt lat="38.08740548823151" lon="-1.4660473251973007">
<ele>1120</ele>
<time>2017-03-29T19:48:18Z</time>
</trkpt>
<trkpt lat="38.087315314288205" lon="-1.4662512313395708">
<ele>1118</ele>
<time>2017-03-29T19:48:20Z</time>
</trkpt>
<trkpt lat="38.087217217245346" lon="-1.4664552275271021">
<ele>1117</ele>
<time>2017-03-29T19:48:22Z</time>
</trkpt>
<trkpt lat="38.08712409330025" lon="-1.4666444638256713">
<ele>1116</ele>
<time>2017-03-29T19:48:24Z</time>
</trkpt>
<trkpt lat="38.08701895803854" lon="-1.4668363108096092">
<ele>1115</ele>
<time>2017-03-29T19:48:26Z</time>
</trkpt>
<trkpt lat="38.08689713530549" lon="-1.4670362868799123">
<ele>1115</ele>
<time>2017-03-29T19:48:28Z</time>
</trkpt>
<trkpt lat="38.0867815220065" lon="-1.467225983324466">
<ele>1114</ele>
<time>2017-03-29T19:48:30Z</time>
</trkpt>
<trkpt lat="38.08667126496373" lon="-1.4674298011980513">
<ele>1114</ele>
<time>2017-03-29T19:48:32Z</time>
</trkpt>
<trkpt lat="38.0865556968636" lon="-1.4676332739287243">
<ele>1114</ele>
<time>2017-03-29T19:48:34Z</time>
</trkpt>
<trkpt lat="38.08644959902221" lon="-1.4678110841588472">
<ele>1113</ele>
<time>2017-03-29T19:48:36Z</time>
</trkpt>
<trkpt lat="38.08633831353133" lon="-1.4679787080585154">
<ele>1112</ele>
<time>2017-03-29T19:48:38Z</time>
</trkpt>
<trkpt lat="38.086221331800125" lon="-1.4681329782247459">
<ele>1112</ele>
<time>2017-03-29T19:48:40Z</time>
</trkpt>
<trkpt lat="38.08610830953327" lon="-1.4682626347938594">
<ele>1111</ele>
<time>2017-03-29T19:48:42Z</time>
</trkpt>
<trkpt lat="38.08599625100782" lon="-1.4683774246605583">
<ele>1111</ele>
<time>2017-03-29T19:48:44Z</time>
</trkpt>
<trkpt lat="38.085873818917136" lon="-1.468495935280652">
<ele>1111</ele>
<time>2017-03-29T19:48:46Z</time>
</trkpt>
<trkpt lat="38.0857430859964" lon="-1.4686133292391021">
<ele>1111</ele>
<time>2017-03-29T19:48:48Z</time>
</trkpt>
<trkpt lat="38.08561711159986" lon="-1.4687237815159295">
<ele>1111</ele>
<time>2017-03-29T19:48:50Z</time>
</trkpt>
<trkpt lat="38.085479284949585" lon="-1.4688485503638165">
<ele>1111</ele>
<time>2017-03-29T19:48:52Z</time>
</trkpt>
<trkpt lat="38.08534947265953" lon="-1.4689641271447125">
<ele>1111</ele>
<time>2017-03-29T19:48:54Z</time>
</trkpt>
<trkpt lat="38.08522722173171" lon="-1.4690795280799323">
<ele>1110</ele>
<time>2017-03-29T19:48:56Z</time>
</trkpt>
<trkpt lat="38.085104913725594" lon="-1.4691992739556938">
<ele>1110</ele>
<time>2017-03-29T19:48:58Z</time>
</trkpt>
<trkpt lat="38.08497375744379" lon="-1.469326769036133">
<ele>1109</ele>
<time>2017-03-29T19:49:00Z</time>
</trkpt>
<trkpt lat="38.0848472044664" lon="-1.4694594438612278">
<ele>1107</ele>
<time>2017-03-29T19:49:02Z</time>
</trkpt>
<trkpt lat="38.08473324542665" lon="-1.4695881681990228">
<ele>1106</ele>
<time>2017-03-29T19:49:04Z</time>
</trkpt>
<trkpt lat="38.08462292261783" lon="-1.4697149017237907">
<ele>1104</ele>
<time>2017-03-29T19:49:06Z</time>
</trkpt>
<trkpt lat="38.08450306909041" lon="-1.4698611531739683">
<ele>1103</ele>
<time>2017-03-29T19:49:08Z</time>
</trkpt>
<trkpt lat="38.08438583417525" lon="-1.47001631889207">
<ele>1102</ele>
<time>2017-03-29T19:49:10Z</time>
</trkpt>
<trkpt lat="38.084276908631495" lon="-1.470185419438871">
<ele>1100</ele>
<time>2017-03-29T19:49:12Z</time>
</trkpt>
<trkpt lat="38.084179880788994" lon="-1.470377877765234">
<ele>1098</ele>
<time>2017-03-29T19:49:14Z</time>
</trkpt>
<trkpt lat="38.08409305580019" lon="-1.4706006718306954">
<ele>1096</ele>
<time>2017-03-29T19:49:16Z</time>
</trkpt>
<trkpt lat="38.084012965690995" lon="-1.4708701799131803">
<ele>1095</ele>
<time>2017-03-29T19:49:18Z</time>
</trkpt>
<trkpt lat="38.08396362496754" lon="-1.471157730921605">
<ele>1093</ele>
<time>2017-03-29T19:49:20Z</time>
</trkpt>
<trkpt lat="38.08394903843409" lon="-1.4714555129513003">
<ele>1091</ele>
<time>2017-03-29T19:49:22Z</time>
</trkpt>
<trkpt lat="38.08399912313345" lon="-1.4717855752233133">
<ele>1089</ele>
<time>2017-03-29T19:49:24Z</time>
</trkpt>
<trkpt lat="38.08410435680847" lon="-1.4720975141215138">
<ele>1087</ele>
<time>2017-03-29T19:49:26Z</time>
</trkpt>
<trkpt lat="38.08427363113871" lon="-1.4723511337500872">
<ele>1085</ele>
<time>2017-03-29T19:49:28Z</time>
</trkpt>
<trkpt lat="38.08449083364378" lon="-1.4725323417415757">
<ele>1083</ele>
<time>2017-03-29T19:49:30Z</time>
</trkpt>
<trkpt lat="38.084694199171125" lon="-1.4725919901078741">
<ele>1081</ele>
<time>2017-03-29T19:49:32Z</time>
</trkpt>
<trkpt lat="38.08486877316527" lon="-1.4725878096746965">
<ele>1079</ele>
<time>2017-03-29T19:49:34Z</time>
</trkpt>
<trkpt lat="38.085027719029135" lon="-1.4725825763610252">
<ele>1077</ele>
<time>2017-03-29T19:49:36Z</time>
</trkpt>
<trkpt lat="38.08518321769904" lon="-1.4725446875931436">
<ele>1074</ele>
<time>2017-03-29T19:49:38Z</time>
</trkpt>
<trkpt lat="38.08531219181759" lon="-1.4724869067495263">
<ele>1072</ele>
<time>2017-03-29T19:49:40Z</time>
</trkpt>
<trkpt lat="38.08543012404291" lon="-1.4724385917618268">
<ele>1071</ele>
<time>2017-03-29T19:49:42Z</time>
</trkpt>
<trkpt lat="38.085550962541035" lon="-1.4723870928276075">
<ele>1069</ele>
<time>2017-03-29T19:49:44Z</time>
</trkpt>
<trkpt lat="38.08568121132003" lon="-1.4723175336404588">
<ele>1067</ele>
<time>2017-03-29T19:49:46Z</time>
</trkpt>
<trkpt lat="38.085785726011295" lon="-1.4722520152508067">
<ele>1064</ele>
<time>2017-03-29T19:49:48Z</time>
</trkpt>
<trkpt lat="38.085884673596716" lon="-1.472181592412988">
<ele>1062</ele>
<time>2017-03-29T19:49:50Z</time>
</trkpt>
<trkpt lat="38.08596789519991" lon="-1.4720936385497017">
<ele>1061</ele>
<time>2017-03-29T19:49:52Z</time>
</trkpt>
<trkpt lat="38.08605276389088" lon="-1.4720086661488978">
<ele>1059</ele>
<time>2017-03-29T19:49:54Z</time>
</trkpt>
<trkpt lat="38.08615364146312" lon="-1.471906413719568">
<ele>1057</ele>
<time>2017-03-29T19:49:56Z</time>
</trkpt>
<trkpt lat="38.08621239757542" lon="-1.4718025857274246">
<ele>1055</ele>
<time>2017-03-29T19:49:58Z</time>
</trkpt>
<trkpt lat="38.086202823258546" lon="-1.4717186804199416">
<ele>1055</ele>
<time>2017-03-29T19:50:00Z</time>
</trkpt>
<trkpt lat="38.086153463230644" lon="-1.4716868934249328">
<ele>1055</ele>
<time>2017-03-29T19:50:02Z</time>
</trkpt>
<trkpt lat="38.086045327869215" lon="-1.4717161672367798">
<ele>1054</ele>
<time>2017-03-29T19:50:04Z</time>
</trkpt>
<trkpt lat="38.085945080444574" lon="-1.4718316718270554">
<ele>1053</ele>
<time>2017-03-29T19:50:06Z</time>
</trkpt>
<trkpt lat="38.08587119750977" lon="-1.4720106906286072">
<ele>1050</ele>
<time>2017-03-29T19:50:08Z</time>
</trkpt>
<trkpt lat="38.085816318474485" lon="-1.4722752873597849">
<ele>1048</ele>
<time>2017-03-29T19:50:10Z</time>
</trkpt>
<trkpt lat="38.08583738921074" lon="-1.4725808217558594">
<ele>1046</ele>
<time>2017-03-29T19:50:12Z</time>
</trkpt>
<trkpt lat="38.08593768992547" lon="-1.4728680685144995">
<ele>1046</ele>
<time>2017-03-29T19:50:14Z</time>
</trkpt>
<trkpt lat="38.08610889833245" lon="-1.4730971159231845">
<ele>1045</ele>
<time>2017-03-29T19:50:16Z</time>
</trkpt>
<trkpt lat="38.08631127486569" lon="-1.4732232064301167">
<ele>1045</ele>
<time>2017-03-29T19:50:18Z</time>
</trkpt>
<trkpt lat="38.0864860801433" lon="-1.4732295313373234">
<ele>1044</ele>
<time>2017-03-29T19:50:20Z</time>
</trkpt>
<trkpt lat="38.08661206757382" lon="-1.4731985726749384">
<ele>1043</ele>
<time>2017-03-29T19:50:22Z</time>
</trkpt>
<trkpt lat="38.08674903689016" lon="-1.47316178448304">
<ele>1041</ele>
<time>2017-03-29T19:50:24Z</time>
</trkpt>
<trkpt lat="38.08686919811849" lon="-1.4730883636103371">
<ele>1039</ele>
<time>2017-03-29T19:50:26Z</time>
</trkpt>
<trkpt lat="38.08697986763267" lon="-1.4730180837645257">
<ele>1038</ele>
<time>2017-03-29T19:50:28Z</time>
</trkpt>
<trkpt lat="38.08707194811929" lon="-1.4729491055226738">
<ele>1036</ele>
<time>2017-03-29T19:50:30Z</time>
</trkpt>
<trkpt lat="38.087155632547145" lon="-1.472866484917878">
<ele>1035</ele>
<time>2017-03-29T19:50:32Z</time>
</trkpt>
<trkpt lat="38.087225533885665" lon="-1.4727904770839166">
<ele>1034</ele>
<time>2017-03-29T19:50:34Z</time>
</trkpt>
<trkpt lat="38.087295645485824" lon="-1.4727088340025452">
<ele>1034</ele>
<time>2017-03-29T19:50:36Z</time>
</trkpt>
<trkpt lat="38.08739260015054" lon="-1.472598161568211">
<ele>1033</ele>
<time>2017-03-29T19:50:38Z</time>
</trkpt>
<trkpt lat="38.08747286203128" lon="-1.4725115281862007">
<ele>1032</ele>
<time>2017-03-29T19:50:40Z</time>
</trkpt>
<trkpt lat="38.087549549940114" lon="-1.4724344942767242">
<ele>1032</ele>
<time>2017-03-29T19:50:42Z</time>
</trkpt>
<trkpt lat="38.08762293377083" lon="-1.4723491811368106">
<ele>1032</ele>
<time>2017-03-29T19:50:44Z</time>
</trkpt>
<trkpt lat="38.08767256519513" lon="-1.4722807261314383">
<ele>1032</ele>
<time>2017-03-29T19:50:46Z</time>
</trkpt>
<trkpt lat="38.08771851137458" lon="-1.472193204035082">
<ele>1032</ele>
<time>2017-03-29T19:50:48Z</time>
</trkpt>
<trkpt lat="38.08775848901509" lon="-1.4721064830361439">
<ele>1032</ele>
<time>2017-03-29T19:50:50Z</time>
</trkpt>
<trkpt lat="38.08778789461174" lon="-1.472026176010206">
<ele>1032</ele>
<time>2017-03-29T19:50:52Z</time>
</trkpt>
<trkpt lat="38.08781821008548" lon="-1.4719487073564161">
<ele>1033</ele>
<time>2017-03-29T19:50:54Z</time>
</trkpt>
<trkpt lat="38.08785778214726" lon="-1.4718628918395862">
<ele>1032</ele>
<time>2017-03-29T19:50:56Z</time>
</trkpt>
<trkpt lat="38.0878885680828" lon="-1.4717702629206766">
<ele>1032</ele>
<time>2017-03-29T19:50:58Z</time>
</trkpt>
<trkpt lat="38.087922262242316" lon="-1.4716807261142508">
<ele>1032</ele>
<time>2017-03-29T19:51:00Z</time>
</trkpt>
<trkpt lat="38.08794299424766" lon="-1.4716000001424492">
<ele>1032</ele>
<time>2017-03-29T19:51:02Z</time>
</trkpt>
<trkpt lat="38.08795435852839" lon="-1.4715100799597396">
<ele>1033</ele>
<time>2017-03-29T19:51:04Z</time>
</trkpt>
<trkpt lat="38.087996229153255" lon="-1.471405647916153">
<ele>1033</ele>
<time>2017-03-29T19:51:06Z</time>
</trkpt>
<trkpt lat="38.08804513836626" lon="-1.4713203278332763">
<ele>1033</ele>
<time>2017-03-29T19:51:08Z</time>
</trkpt>
<trkpt lat="38.08808466033461" lon="-1.4712533615898278">
<ele>1032</ele>
<time>2017-03-29T19:51:10Z</time>
</trkpt>
<trkpt lat="38.08811715023694" lon="-1.4711670919907307">
<ele>1031</ele>
<time>2017-03-29T19:51:12Z</time>
</trkpt>
<trkpt lat="38.08815512090378" lon="-1.4710608557153226">
<ele>1031</ele>
<time>2017-03-29T19:51:14Z</time>
</trkpt>
<trkpt lat="38.08818398560765" lon="-1.470974918088994">
<ele>1032</ele>
<time>2017-03-29T19:51:16Z</time>
</trkpt>
<trkpt lat="38.088207880112606" lon="-1.4708907805585434">
<ele>1033</ele>
<time>2017-03-29T19:51:18Z</time>
</trkpt>
<trkpt lat="38.08822902348478" lon="-1.4707937278422245">
<ele>1033</ele>
<time>2017-03-29T19:51:20Z</time>
</trkpt>
<trkpt lat="38.088247037066346" lon="-1.4707009841020084">
<ele>1033</ele>
<time>2017-03-29T19:51:22Z</time>
</trkpt>
<trkpt lat="38.08827877231826" lon="-1.470590051054021">
<ele>1034</ele>
<time>2017-03-29T19:51:24Z</time>
</trkpt>
<trkpt lat="38.0883267109125" lon="-1.470482707677762">
<ele>1035</ele>
<time>2017-03-29T19:51:26Z</time>
</trkpt>
<trkpt lat="38.088392397328626" lon="-1.4703735119363806">
<ele>1034</ele>
<time>2017-03-29T19:51:28Z</time>
</trkpt>
<trkpt lat="38.08847040092459" lon="-1.4702678784209795">
<ele>1033</ele>
<time>2017-03-29T19:51:30Z</time>
</trkpt>
<trkpt lat="38.088550189904204" lon="-1.470155579628098">
<ele>1032</ele>
<time>2017-03-29T19:51:32Z</time>
</trkpt>
<trkpt lat="38.0886222835838" lon="-1.47005215905288">
<ele>1032</ele>
<time>2017-03-29T19:51:34Z</time>
</trkpt>
<trkpt lat="38.088686398190085" lon="-1.4699550892904623">
<ele>1033</ele>
<time>2017-03-29T19:51:36Z</time>
</trkpt>
<trkpt lat="38.08874909813351" lon="-1.4698594193765868">
<ele>1034</ele>
<time>2017-03-29T19:51:38Z</time>
</trkpt>
<trkpt lat="38.08884123281208" lon="-1.4697740277520628">
<ele>1034</ele>
<time>2017-03-29T19:51:40Z</time>
</trkpt>
<trkpt lat="38.08893707155666" lon="-1.4696814148298927">
<ele>1032</ele>
<time>2017-03-29T19:51:42Z</time>
</trkpt>
<trkpt lat="38.08903647647916" lon="-1.4695853709571147">
<ele>1031</ele>
<time>2017-03-29T19:51:44Z</time>
</trkpt>
<trkpt lat="38.08913532382115" lon="-1.469474689034034">
<ele>1031</ele>
<time>2017-03-29T19:51:46Z</time>
</trkpt>
<trkpt lat="38.08923448275322" lon="-1.469359618953849">
<ele>1030</ele>
<time>2017-03-29T19:51:48Z</time>
</trkpt>
<trkpt lat="38.08932917766814" lon="-1.4692529001533186">
<ele>1030</ele>
<time>2017-03-29T19:51:50Z</time>
</trkpt>
<trkpt lat="38.08941814068874" lon="-1.4691568313040382">
<ele>1030</ele>
<time>2017-03-29T19:51:52Z</time>
</trkpt>
<trkpt lat="38.08949022177315" lon="-1.4690729884044202">
<ele>1031</ele>
<time>2017-03-29T19:51:54Z</time>
</trkpt>
<trkpt lat="38.08955205493887" lon="-1.4689869519709746">
<ele>1032</ele>
<time>2017-03-29T19:51:56Z</time>
</trkpt>
<trkpt lat="38.089597743663205" lon="-1.4688851484199574">
<ele>1033</ele>
<time>2017-03-29T19:51:58Z</time>
</trkpt>
<trkpt lat="38.08963936672998" lon="-1.46880567019618">
<ele>1035</ele>
<time>2017-03-29T19:52:00Z</time>
</trkpt>
<trkpt lat="38.08969008758031" lon="-1.468711043593252">
<ele>1036</ele>
<time>2017-03-29T19:52:02Z</time>
</trkpt>
<trkpt lat="38.089733997017525" lon="-1.4686155834406989">
<ele>1037</ele>
<time>2017-03-29T19:52:04Z</time>
</trkpt>
<trkpt lat="38.089793033909864" lon="-1.4685235961751226">
<ele>1037</ele>
<time>2017-03-29T19:52:06Z</time>
</trkpt>
<trkpt lat="38.08986929242826" lon="-1.46842719298882">
<ele>1037</ele>
<time>2017-03-29T19:52:08Z</time>
</trkpt>
<trkpt lat="38.089938250830805" lon="-1.4683444795479217">
<ele>1038</ele>
<time>2017-03-29T19:52:10Z</time>
</trkpt>
<trkpt lat="38.090003996468454" lon="-1.4682544448160963">
<ele>1037</ele>
<time>2017-03-29T19:52:12Z</time>
</trkpt>
<trkpt lat="38.09006674686118" lon="-1.4681735182664013">
<ele>1038</ele>
<time>2017-03-29T19:52:14Z</time>
</trkpt>
<trkpt lat="38.09010985888927" lon="-1.4680795067079189">
<ele>1038</ele>
<time>2017-03-29T19:52:16Z</time>
</trkpt>
<trkpt lat="38.09014716107624" lon="-1.4679891428784726">
<ele>1039</ele>
<time>2017-03-29T19:52:18Z</time>
</trkpt>
<trkpt lat="38.09019073334058" lon="-1.4678938664545569">
<ele>1040</ele>
<time>2017-03-29T19:52:20Z</time>
</trkpt>
<trkpt lat="38.09022456891719" lon="-1.467808429212491">
<ele>1041</ele>
<time>2017-03-29T19:52:22Z</time>
</trkpt>
<trkpt lat="38.09025370585409" lon="-1.4677173316193883">
<ele>1041</ele>
<time>2017-03-29T19:52:24Z</time>
</trkpt>
<trkpt lat="38.090292290996885" lon="-1.4676279804389234">
<ele>1043</ele>
<time>2017-03-29T19:52:26Z</time>
</trkpt>
<trkpt lat="38.09033732747813" lon="-1.4675449342568039">
<ele>1044</ele>
<time>2017-03-29T19:52:28Z</time>
</trkpt>
<trkpt lat="38.09039185013836" lon="-1.4674451253974723">
<ele>1045</ele>
<time>2017-03-29T19:52:30Z</time>
</trkpt>
<trkpt lat="38.09045337012163" lon="-1.467351776537774">
<ele>1046</ele>
<time>2017-03-29T19:52:32Z</time>
</trkpt>
<trkpt lat="38.09051518727431" lon="-1.4672667286144194">
<ele>1047</ele>
<time>2017-03-29T19:52:34Z</time>
</trkpt>
<trkpt lat="38.090577783323845" lon="-1.4671684004714782">
<ele>1048</ele>
<time>2017-03-29T19:52:36Z</time>
</trkpt>
<trkpt lat="38.09062833174975" lon="-1.4670770294920223">
<ele>1048</ele>
<time>2017-03-29T19:52:38Z</time>
</trkpt>
<trkpt lat="38.090676883992444" lon="-1.4670271815224747">
<ele>1048</ele>
<time>2017-03-29T19:52:40Z</time>
</trkpt>
<trkpt lat="38.09074964516059" lon="-1.4669476679006084">
<ele>1050</ele>
<time>2017-03-29T19:52:42Z</time>
</trkpt>
<trkpt lat="38.09083924171095" lon="-1.4668504120014494">
<ele>1051</ele>
<time>2017-03-29T19:52:44Z</time>
</trkpt>
<trkpt lat="38.09094202981877" lon="-1.4667855322911632">
<ele>1051</ele>
<time>2017-03-29T19:52:46Z</time>
</trkpt>
<trkpt lat="38.09104412801532" lon="-1.4667116011193977">
<ele>1052</ele>
<time>2017-03-29T19:52:48Z</time>
</trkpt>
<trkpt lat="38.0911760527554" lon="-1.4666262570891566">
<ele>1052</ele>
<time>2017-03-29T19:52:50Z</time>
</trkpt>
<trkpt lat="38.091286783349155" lon="-1.4665576858799128">
<ele>1053</ele>
<time>2017-03-29T19:52:52Z</time>
</trkpt>
<trkpt lat="38.09138669292325" lon="-1.4664811854932818">
<ele>1054</ele>
<time>2017-03-29T19:52:54Z</time>
</trkpt>
<trkpt lat="38.09149578369525" lon="-1.466395761264966">
<ele>1055</ele>
<time>2017-03-29T19:52:56Z</time>
</trkpt>
<trkpt lat="38.091555882539225" lon="-1.4663109363575775">
<ele>1055</ele>
<time>2017-03-29T19:52:58Z</time>
</trkpt>
<trkpt lat="38.09156055864703" lon="-1.4662417927629794">
<ele>1055</ele>
<time>2017-03-29T19:53:00Z</time>
</trkpt>
<trkpt lat="38.09153006334162" lon="-1.4661778028444672">
<ele>1055</ele>
<time>2017-03-29T19:53:02Z</time>
</trkpt>
<trkpt lat="38.09146919886542" lon="-1.466163128667601">
<ele>1055</ele>
<time>2017-03-29T19:53:04Z</time>
</trkpt>
<trkpt lat="38.09138928574501" lon="-1.4661971566448357">
<ele>1058</ele>
<time>2017-03-29T19:53:06Z</time>
</trkpt>
<trkpt lat="38.091307600717656" lon="-1.4662871896232754">
<ele>1059</ele>
<time>2017-03-29T19:53:08Z</time>
</trkpt>
<trkpt lat="38.09122701739386" lon="-1.4664558908342054">
<ele>1060</ele>
<time>2017-03-29T19:53:10Z</time>
</trkpt>
<trkpt lat="38.091160205723604" lon="-1.4666615643548297">
<ele>1061</ele>
<time>2017-03-29T19:53:12Z</time>
</trkpt>
<trkpt lat="38.09114110892524" lon="-1.466910268791739">
<ele>1061</ele>
<time>2017-03-29T19:53:14Z</time>
</trkpt>
<trkpt lat="38.09115611313636" lon="-1.4671837071969023">
<ele>1061</ele>
<time>2017-03-29T19:53:16Z</time>
</trkpt>
<trkpt lat="38.0912225165188" lon="-1.4674700573142663">
<ele>1060</ele>
<time>2017-03-29T19:53:18Z</time>
</trkpt>
<trkpt lat="38.091334676488806" lon="-1.4677513413185046">
<ele>1059</ele>
<time>2017-03-29T19:53:20Z</time>
</trkpt>
<trkpt lat="38.09151062534212" lon="-1.4679580335512528">
<ele>1059</ele>
<time>2017-03-29T19:53:22Z</time>
</trkpt>
<trkpt lat="38.0917307279235" lon="-1.468112252292017">
<ele>1058</ele>
<time>2017-03-29T19:53:24Z</time>
</trkpt>
<trkpt lat="38.0919294281691" lon="-1.4681841274243272">
<ele>1058</ele>
<time>2017-03-29T19:53:26Z</time>
</trkpt>
<trkpt lat="38.09211363603859" lon="-1.4681853089687777">
<ele>1059</ele>
<time>2017-03-29T19:53:28Z</time>
</trkpt>
<trkpt lat="38.09226720470182" lon="-1.4681366190308902">
<ele>1059</ele>
<time>2017-03-29T19:53:30Z</time>
</trkpt>
<trkpt lat="38.092374213126234" lon="-1.4680713030009096">
<ele>1058</ele>
<time>2017-03-29T19:53:32Z</time>
</trkpt>
<trkpt lat="38.09243253737294" lon="-1.4680072514677716">
<ele>1058</ele>
<time>2017-03-29T19:53:34Z</time>
</trkpt>
<trkpt lat="38.09246255059895" lon="-1.4679423121508568">
<ele>1058</ele>
<time>2017-03-29T19:53:35Z</time>
</trkpt>
<trkpt lat="38.09244114328068" lon="-1.4678951706436665">
<ele>1058</ele>
<time>2017-03-29T19:53:37Z</time>
</trkpt>
<trkpt lat="38.09239200345533" lon="-1.467881134595352">
<ele>1058</ele>
<time>2017-03-29T19:53:39Z</time>
</trkpt>
<trkpt lat="38.09231193869044" lon="-1.4679086361183031">
<ele>1058</ele>
<time>2017-03-29T19:53:41Z</time>
</trkpt>
<trkpt lat="38.092223560803696" lon="-1.4679827647186463">
<ele>1058</ele>
<time>2017-03-29T19:53:43Z</time>
</trkpt>
<trkpt lat="38.09213775365899" lon="-1.4681152554206187">
<ele>1059</ele>
<time>2017-03-29T19:53:45Z</time>
</trkpt>
<trkpt lat="38.09204734393117" lon="-1.4682737514893025">
<ele>1060</ele>
<time>2017-03-29T19:53:47Z</time>
</trkpt>
<trkpt lat="38.09195461446133" lon="-1.4684503875550872">
<ele>1060</ele>
<time>2017-03-29T19:53:49Z</time>
</trkpt>
<trkpt lat="38.091911889805246" lon="-1.468671626710166">
<ele>1061</ele>
<time>2017-03-29T19:53:51Z</time>
</trkpt>
<trkpt lat="38.091930247140425" lon="-1.468939545486202">
<ele>1060</ele>
<time>2017-03-29T19:53:53Z</time>
</trkpt>
<trkpt lat="38.0919713361594" lon="-1.469217826496828">
<ele>1060</ele>
<time>2017-03-29T19:53:55Z</time>
</trkpt>
<trkpt lat="38.09209126336165" lon="-1.4694926216497852">
<ele>1060</ele>
<time>2017-03-29T19:53:57Z</time>
</trkpt>
<trkpt lat="38.09226849678986" lon="-1.4697062779565735">
<ele>1062</ele>
<time>2017-03-29T19:53:59Z</time>
</trkpt>
<trkpt lat="38.0924730345088" lon="-1.4698760754199027">
<ele>1062</ele>
<time>2017-03-29T19:54:01Z</time>
</trkpt>
<trkpt lat="38.0926759237549" lon="-1.4699649171683389">
<ele>1062</ele>
<time>2017-03-29T19:54:03Z</time>
</trkpt>
<trkpt lat="38.0928605138675" lon="-1.4699632932377045">
<ele>1062</ele>
<time>2017-03-29T19:54:05Z</time>
</trkpt>
<trkpt lat="38.09300108111685" lon="-1.4699228882745148">
<ele>1061</ele>
<time>2017-03-29T19:54:07Z</time>
</trkpt>
<trkpt lat="38.09312412868184" lon="-1.4698601381256737">
<ele>1060</ele>
<time>2017-03-29T19:54:09Z</time>
</trkpt>
<trkpt lat="38.09321417343604" lon="-1.4697839806723374">
<ele>1060</ele>
<time>2017-03-29T19:54:11Z</time>
</trkpt>
<trkpt lat="38.09326787424184" lon="-1.4697024389159086">
<ele>1061</ele>
<time>2017-03-29T19:54:13Z</time>
</trkpt>
<trkpt lat="38.0932972783717" lon="-1.4696300682352872">
<ele>1061</ele>
<time>2017-03-29T19:54:15Z</time>
</trkpt>
<trkpt lat="38.09330564021073" lon="-1.4695496782364308">
<ele>1061</ele>
<time>2017-03-29T19:54:17Z</time>
</trkpt>
<trkpt lat="38.09329740021201" lon="-1.4694893698120646">
<ele>1061</ele>
<time>2017-03-29T19:54:19Z</time>
</trkpt>
<trkpt lat="38.09327604693349" lon="-1.469442933834469">
<ele>1061</ele>
<time>2017-03-29T19:54:21Z</time>
</trkpt>
<trkpt lat="38.09324355740075" lon="-1.4694119080796793">
<ele>1061</ele>
<time>2017-03-29T19:54:23Z</time>
</trkpt>
<trkpt lat="38.09320316514438" lon="-1.4693901883876583">
<ele>1061</ele>
<time>2017-03-29T19:54:25Z</time>
</trkpt>
<trkpt lat="38.09315525430775" lon="-1.4693727857969943">
<ele>1061</ele>
<time>2017-03-29T19:54:27Z</time>
</trkpt>
<trkpt lat="38.09309624363917" lon="-1.4693534390009002">
<ele>1061</ele>
<time>2017-03-29T19:54:29Z</time>
</trkpt>
<trkpt lat="38.09303801923237" lon="-1.4693450899973661">
<ele>1061</ele>
<time>2017-03-29T19:54:31Z</time>
</trkpt>
<trkpt lat="38.09297010911897" lon="-1.4693495453580696">
<ele>1061</ele>
<time>2017-03-29T19:54:33Z</time>
</trkpt>
<trkpt lat="38.09289577085104" lon="-1.4693569115267677">
<ele>1061</ele>
<time>2017-03-29T19:54:35Z</time>
</trkpt>
<trkpt lat="38.09282080252767" lon="-1.4693675570219724">
<ele>1061</ele>
<time>2017-03-29T19:54:37Z</time>
</trkpt>
<trkpt lat="38.092744179304844" lon="-1.4693876290872936">
<ele>1060</ele>
<time>2017-03-29T19:54:39Z</time>
</trkpt>
<trkpt lat="38.09266399344805" lon="-1.4694117950679528">
<ele>1060</ele>
<time>2017-03-29T19:54:41Z</time>
</trkpt>
<trkpt lat="38.0925794208543" lon="-1.4694505576972932">
<ele>1059</ele>
<time>2017-03-29T19:54:43Z</time>
</trkpt>
<trkpt lat="38.09248905272539" lon="-1.4695039891542696">
<ele>1058</ele>
<time>2017-03-29T19:54:45Z</time>
</trkpt>
<trkpt lat="38.0923948659801" lon="-1.4695838889087374">
<ele>1057</ele>
<time>2017-03-29T19:54:47Z</time>
</trkpt>
<trkpt lat="38.09231210945767" lon="-1.469688127738876">
<ele>1056</ele>
<time>2017-03-29T19:54:49Z</time>
</trkpt>
<trkpt lat="38.09222222154898" lon="-1.4698208766519352">
<ele>1054</ele>
<time>2017-03-29T19:54:51Z</time>
</trkpt>
<trkpt lat="38.09212825862842" lon="-1.4699883379799203">
<ele>1054</ele>
<time>2017-03-29T19:54:53Z</time>
</trkpt>
<trkpt lat="38.09206505929175" lon="-1.470197398187237">
<ele>1054</ele>
<time>2017-03-29T19:54:55Z</time>
</trkpt>
<trkpt lat="38.09201490189181" lon="-1.4704451863645653">
<ele>1054</ele>
<time>2017-03-29T19:54:57Z</time>
</trkpt>
<trkpt lat="38.092021159444464" lon="-1.470749964981691">
<ele>1055</ele>
<time>2017-03-29T19:54:59Z</time>
</trkpt>
<trkpt lat="38.092082617342044" lon="-1.4710495881161032">
<ele>1055</ele>
<time>2017-03-29T19:55:01Z</time>
</trkpt>
<trkpt lat="38.092187497175445" lon="-1.4713288059885479">
<ele>1055</ele>
<time>2017-03-29T19:55:03Z</time>
</trkpt>
<trkpt lat="38.09235590181775" lon="-1.471574914007053">
<ele>1054</ele>
<time>2017-03-29T19:55:05Z</time>
</trkpt>
<trkpt lat="38.092568506817486" lon="-1.471724342180916">
<ele>1054</ele>
<time>2017-03-29T19:55:07Z</time>
</trkpt>
<trkpt lat="38.09276686127808" lon="-1.4717965412029057">
<ele>1053</ele>
<time>2017-03-29T19:55:09Z</time>
</trkpt>
<trkpt lat="38.09295040249933" lon="-1.4718019612364655">
<ele>1052</ele>
<time>2017-03-29T19:55:11Z</time>
</trkpt>
<trkpt lat="38.0930842103825" lon="-1.471761844228101">
<ele>1051</ele>
<time>2017-03-29T19:55:13Z</time>
</trkpt>
<trkpt lat="38.093170512516544" lon="-1.471694821766502">
<ele>1050</ele>
<time>2017-03-29T19:55:15Z</time>
</trkpt>
<trkpt lat="38.09323582884787" lon="-1.4716250568675313">
<ele>1050</ele>
<time>2017-03-29T19:55:17Z</time>
</trkpt>
<trkpt lat="38.093254917491116" lon="-1.471575526781946">
<ele>1050</ele>
<time>2017-03-29T19:55:19Z</time>
</trkpt>
<trkpt lat="38.093257561273376" lon="-1.4715328043843148">
<ele>1050</ele>
<time>2017-03-29T19:55:21Z</time>
</trkpt>
<trkpt lat="38.09326094250246" lon="-1.4714721979349275">
<ele>1050</ele>
<time>2017-03-29T19:55:23Z</time>
</trkpt>
<trkpt lat="38.09326059908945" lon="-1.4714053523973456">
<ele>1049</ele>
<time>2017-03-29T19:55:25Z</time>
</trkpt>
<trkpt lat="38.093253401701936" lon="-1.471350834004128">
<ele>1049</ele>
<time>2017-03-29T19:55:27Z</time>
</trkpt>
<trkpt lat="38.09324531501927" lon="-1.4713075349018285">
<ele>1049</ele>
<time>2017-03-29T19:55:29Z</time>
</trkpt>
<trkpt lat="38.093230702649194" lon="-1.4712611888562908">
<ele>1049</ele>
<time>2017-03-29T19:55:31Z</time>
</trkpt>
<trkpt lat="38.093194115811535" lon="-1.4712178037725008">
<ele>1049</ele>
<time>2017-03-29T19:55:33Z</time>
</trkpt>
<trkpt lat="38.0931360151147" lon="-1.4711835918465086">
<ele>1048</ele>
<time>2017-03-29T19:55:35Z</time>
</trkpt>
<trkpt lat="38.09307352336994" lon="-1.4711401096430836">
<ele>1048</ele>
<time>2017-03-29T19:55:37Z</time>
</trkpt>
<trkpt lat="38.09303162962493" lon="-1.4711066238089683">
<ele>1048</ele>
<time>2017-03-29T19:55:39Z</time>
</trkpt>
<trkpt lat="38.092986913678594" lon="-1.4710835453088362">
<ele>1048</ele>
<time>2017-03-29T19:55:41Z</time>
</trkpt>
<trkpt lat="38.09294288017775" lon="-1.4710579360443512">
<ele>1047</ele>
<time>2017-03-29T19:55:43Z</time>
</trkpt>
<trkpt lat="38.09289323644219" lon="-1.4710267803106238">
<ele>1047</ele>
<time>2017-03-29T19:55:45Z</time>
</trkpt>
<trkpt lat="38.09283086209405" lon="-1.4709955072209537">
<ele>1047</ele>
<time>2017-03-29T19:55:47Z</time>
</trkpt>
<trkpt lat="38.09277505359891" lon="-1.470977125714909">
<ele>1047</ele>
<time>2017-03-29T19:55:49Z</time>
</trkpt>
<trkpt lat="38.09270785932521" lon="-1.4709646469885358">
<ele>1047</ele>
<time>2017-03-29T19:55:51Z</time>
</trkpt>
<trkpt lat="38.092625796657394" lon="-1.470966256545753">
<ele>1045</ele>
<time>2017-03-29T19:55:53Z</time>
</trkpt>
<trkpt lat="38.09254843371799" lon="-1.4709810794126479">
<ele>1044</ele>
<time>2017-03-29T19:55:55Z</time>
</trkpt>
<trkpt lat="38.0924817537809" lon="-1.470997311536976">
<ele>1044</ele>
<time>2017-03-29T19:55:57Z</time>
</trkpt>
<trkpt lat="38.092431035059825" lon="-1.4709791736002338">
<ele>1044</ele>
<time>2017-03-29T19:55:59Z</time>
</trkpt>
<trkpt lat="38.092397541678174" lon="-1.4709444713298983">
<ele>1044</ele>
<time>2017-03-29T19:56:01Z</time>
</trkpt>
<trkpt lat="38.09236682807149" lon="-1.47089660507342">
<ele>1044</ele>
<time>2017-03-29T19:56:03Z</time>
</trkpt>
<trkpt lat="38.09233517762848" lon="-1.470826103892881">
<ele>1044</ele>
<time>2017-03-29T19:56:05Z</time>
</trkpt>
<trkpt lat="38.09232032237403" lon="-1.470756293547079">
<ele>1043</ele>
<time>2017-03-29T19:56:07Z</time>
</trkpt>
<trkpt lat="38.09230155899251" lon="-1.47069256938442">
<ele>1043</ele>
<time>2017-03-29T19:56:09Z</time>
</trkpt>
<trkpt lat="38.092272599531626" lon="-1.4706427905084078">
<ele>1043</ele>
<time>2017-03-29T19:56:11Z</time>
</trkpt>
<trkpt lat="38.09222528598689" lon="-1.4706031172973988">
<ele>1043</ele>
<time>2017-03-29T19:56:13Z</time>
</trkpt>
<trkpt lat="38.09218576659593" lon="-1.470580370751769">
<ele>1042</ele>
<time>2017-03-29T19:56:15Z</time>
</trkpt>
<trkpt lat="38.09213487489335" lon="-1.4705518904332209">
<ele>1042</ele>
<time>2017-03-29T19:56:17Z</time>
</trkpt>
<trkpt lat="38.092097084399285" lon="-1.4705197703443376">
<ele>1042</ele>
<time>2017-03-29T19:56:19Z</time>
</trkpt>
<trkpt lat="38.092084593510634" lon="-1.4704735781567333">
<ele>1041</ele>
<time>2017-03-29T19:56:21Z</time>
</trkpt>
<trkpt lat="38.09209835132152" lon="-1.4703936439490548">
<ele>1040</ele>
<time>2017-03-29T19:56:23Z</time>
</trkpt>
<trkpt lat="38.0921318729416" lon="-1.4702927628510893">
<ele>1038</ele>
<time>2017-03-29T19:56:25Z</time>
</trkpt>
<trkpt lat="38.092168256078224" lon="-1.4702004510037128">
<ele>1036</ele>
<time>2017-03-29T19:56:27Z</time>
</trkpt>
<trkpt lat="38.092195754663116" lon="-1.4700950660973207">
<ele>1035</ele>
<time>2017-03-29T19:56:29Z</time>
</trkpt>
<trkpt lat="38.0922173557661" lon="-1.4699892413655715">
<ele>1034</ele>
<time>2017-03-29T19:56:31Z</time>
</trkpt>
<trkpt lat="38.09223097732895" lon="-1.4698981562716331">
<ele>1034</ele>
<time>2017-03-29T19:56:33Z</time>
</trkpt>
<trkpt lat="38.0922376230609" lon="-1.469802596059161">
<ele>1033</ele>
<time>2017-03-29T19:56:35Z</time>
</trkpt>
<trkpt lat="38.09223953888842" lon="-1.4697023991310076">
<ele>1032</ele>
<time>2017-03-29T19:56:37Z</time>
</trkpt>
<trkpt lat="38.09224916503507" lon="-1.4696293901273656">
<ele>1032</ele>
<time>2017-03-29T19:56:39Z</time>
</trkpt>
<trkpt lat="38.09227999238972" lon="-1.469542621228402">
<ele>1030</ele>
<time>2017-03-29T19:56:41Z</time>
</trkpt>
<trkpt lat="38.09231982939768" lon="-1.4694360526363746">
<ele>1028</ele>
<time>2017-03-29T19:56:43Z</time>
</trkpt>
<trkpt lat="38.09236343108906" lon="-1.4693260632318053">
<ele>1025</ele>
<time>2017-03-29T19:56:45Z</time>
</trkpt>
<trkpt lat="38.092410274811584" lon="-1.46922826446307">
<ele>1023</ele>
<time>2017-03-29T19:56:47Z</time>
</trkpt>
<trkpt lat="38.09247486256641" lon="-1.46912469450944">
<ele>1022</ele>
<time>2017-03-29T19:56:49Z</time>
</trkpt>
<trkpt lat="38.09253819498571" lon="-1.4690383401786768">
<ele>1022</ele>
<time>2017-03-29T19:56:51Z</time>
</trkpt>
<trkpt lat="38.092599363605395" lon="-1.468954096399277">
<ele>1021</ele>
<time>2017-03-29T19:56:53Z</time>
</trkpt>
<trkpt lat="38.092671880753656" lon="-1.4688366362912062">
<ele>1019</ele>
<time>2017-03-29T19:56:55Z</time>
</trkpt>
<trkpt lat="38.092727530341854" lon="-1.4687387585229368">
<ele>1019</ele>
<time>2017-03-29T19:56:57Z</time>
</trkpt>
<trkpt lat="38.092753902281785" lon="-1.4686683925378965">
<ele>1019</ele>
<time>2017-03-29T19:56:59Z</time>
</trkpt>
<trkpt lat="38.0927747008968" lon="-1.468565961590639">
<ele>1017</ele>
<time>2017-03-29T19:57:01Z</time>
</trkpt>
<trkpt lat="38.09279535591577" lon="-1.4684631187704242">
<ele>1017</ele>
<time>2017-03-29T19:57:03Z</time>
</trkpt>
<trkpt lat="38.09282925057597" lon="-1.4683854868134207">
<ele>1017</ele>
<time>2017-03-29T19:57:05Z</time>
</trkpt>
<trkpt lat="38.09287378891147" lon="-1.468290701600346">
<ele>1017</ele>
<time>2017-03-29T19:57:07Z</time>
</trkpt>
<trkpt lat="38.09292350125302" lon="-1.4681718573904383">
<ele>1016</ele>
<time>2017-03-29T19:57:09Z</time>
</trkpt>
<trkpt lat="38.09296398566206" lon="-1.4680788116975507">
<ele>1016</ele>
<time>2017-03-29T19:57:11Z</time>
</trkpt>
<trkpt lat="38.093014269515585" lon="-1.4679769670638736">
<ele>1016</ele>
<time>2017-03-29T19:57:13Z</time>
</trkpt>
<trkpt lat="38.09306285525284" lon="-1.467863146931233">
<ele>1016</ele>
<time>2017-03-29T19:57:15Z</time>
</trkpt>
<trkpt lat="38.093099433685275" lon="-1.4677643389245305">
<ele>1017</ele>
<time>2017-03-29T19:57:17Z</time>
</trkpt>
<trkpt lat="38.09313234015393" lon="-1.4676776725360265">
<ele>1018</ele>
<time>2017-03-29T19:57:19Z</time>
</trkpt>
<trkpt lat="38.0931646018761" lon="-1.4675735348516414">
<ele>1018</ele>
<time>2017-03-29T19:57:21Z</time>
</trkpt>
<trkpt lat="38.09319470012204" lon="-1.4674676291702944">
<ele>1018</ele>
<time>2017-03-29T19:57:23Z</time>
</trkpt>
<trkpt lat="38.09321803023273" lon="-1.467381933164956">
<ele>1018</ele>
<time>2017-03-29T19:57:25Z</time>
</trkpt>
<trkpt lat="38.093237695410465" lon="-1.467293534437286">
<ele>1018</ele>
<time>2017-03-29T19:57:27Z</time>
</trkpt>
<trkpt lat="38.09325917741276" lon="-1.4671801046925828">
<ele>1017</ele>
<time>2017-03-29T19:57:29Z</time>
</trkpt>
<trkpt lat="38.093279003858285" lon="-1.4670880270652429">
<ele>1018</ele>
<time>2017-03-29T19:57:31Z</time>
</trkpt>
<trkpt lat="38.09330074135519" lon="-1.4669838852066643">
<ele>1017</ele>
<time>2017-03-29T19:57:33Z</time>
</trkpt>
<trkpt lat="38.09331719912537" lon="-1.4668848762624938">
<ele>1017</ele>
<time>2017-03-29T19:57:35Z</time>
</trkpt>
<trkpt lat="38.09333458457917" lon="-1.4667917103129935">
<ele>1017</ele>
<time>2017-03-29T19:57:37Z</time>
</trkpt>
<trkpt lat="38.09335714318322" lon="-1.4666980497391124">
<ele>1017</ele>
<time>2017-03-29T19:57:39Z</time>
</trkpt>
<trkpt lat="38.09337783792263" lon="-1.4665839365611602">
<ele>1017</ele>
<time>2017-03-29T19:57:41Z</time>
</trkpt>
<trkpt lat="38.09339877126279" lon="-1.466454134122532">
<ele>1018</ele>
<time>2017-03-29T19:57:43Z</time>
</trkpt>
<trkpt lat="38.093426234397214" lon="-1.4663517641166388">
<ele>1019</ele>
<time>2017-03-29T19:57:45Z</time>
</trkpt>
<trkpt lat="38.093463116695276" lon="-1.466227194560847">
<ele>1020</ele>
<time>2017-03-29T19:57:47Z</time>
</trkpt>
<trkpt lat="38.093501377493176" lon="-1.4661016366052977">
<ele>1020</ele>
<time>2017-03-29T19:57:49Z</time>
</trkpt>
<trkpt lat="38.09353587445416" lon="-1.465982704976686">
<ele>1022</ele>
<time>2017-03-29T19:57:51Z</time>
</trkpt>
<trkpt lat="38.09355255921989" lon="-1.4658837152585942">
<ele>1023</ele>
<time>2017-03-29T19:57:53Z</time>
</trkpt>
<trkpt lat="38.09356103319596" lon="-1.46577449372447">
<ele>1023</ele>
<time>2017-03-29T19:57:55Z</time>
</trkpt>
<trkpt lat="38.09357083648608" lon="-1.4656859389567667">
<ele>1023</ele>
<time>2017-03-29T19:57:57Z</time>
</trkpt>
<trkpt lat="38.09357806858741" lon="-1.4655646462114853">
<ele>1023</ele>
<time>2017-03-29T19:57:59Z</time>
</trkpt>
<trkpt lat="38.09358523516903" lon="-1.4654422633876172">
<ele>1023</ele>
<time>2017-03-29T19:58:01Z</time>
</trkpt>
<trkpt lat="38.0935972558572" lon="-1.4653118565720145">
<ele>1021</ele>
<time>2017-03-29T19:58:03Z</time>
</trkpt>
<trkpt lat="38.09361059509188" lon="-1.4651894137896235">
<ele>1020</ele>
<time>2017-03-29T19:58:05Z</time>
</trkpt>
<trkpt lat="38.09361868684468" lon="-1.4650664197217336">
<ele>1019</ele>
<time>2017-03-29T19:58:07Z</time>
</trkpt>
<trkpt lat="38.09362144262215" lon="-1.4649404066088694">
<ele>1018</ele>
<time>2017-03-29T19:58:09Z</time>
</trkpt>
<trkpt lat="38.09362064682752" lon="-1.4648341437232129">
<ele>1018</ele>
<time>2017-03-29T19:58:11Z</time>
</trkpt>
<trkpt lat="38.093621201653214" lon="-1.4647272368627258">
<ele>1018</ele>
<time>2017-03-29T19:58:13Z</time>
</trkpt>
<trkpt lat="38.09362559487378" lon="-1.4646271755359235">
<ele>1018</ele>
<time>2017-03-29T19:58:15Z</time>
</trkpt>
<trkpt lat="38.09362397959545" lon="-1.4645208285397384">
<ele>1018</ele>
<time>2017-03-29T19:58:17Z</time>
</trkpt>
<trkpt lat="38.09360826937758" lon="-1.4644444213515588">
<ele>1018</ele>
<time>2017-03-29T19:58:19Z</time>
</trkpt>
<trkpt lat="38.093584795572575" lon="-1.4643535271179189">
<ele>1018</ele>
<time>2017-03-29T19:58:21Z</time>
</trkpt>
<trkpt lat="38.09356063740753" lon="-1.4642822357197005">
<ele>1018</ele>
<time>2017-03-29T19:58:23Z</time>
</trkpt>
<trkpt lat="38.09352687707216" lon="-1.4642074189894774">
<ele>1018</ele>
<time>2017-03-29T19:58:25Z</time>
</trkpt>
<trkpt lat="38.093489154282814" lon="-1.4641360233202372">
<ele>1016</ele>
<time>2017-03-29T19:58:27Z</time>
</trkpt>
<trkpt lat="38.09348362521919" lon="-1.464053201919528">
<ele>1016</ele>
<time>2017-03-29T19:58:29Z</time>
</trkpt>
<trkpt lat="38.09349428928438" lon="-1.46399212313785">
<ele>1016</ele>
<time>2017-03-29T19:58:31Z</time>
</trkpt>
<trkpt lat="38.093507345700964" lon="-1.4639055539739845">
<ele>1015</ele>
<time>2017-03-29T19:58:33Z</time>
</trkpt>
<trkpt lat="38.09352177951056" lon="-1.4638006909117607">
<ele>1014</ele>
<time>2017-03-29T19:58:35Z</time>
</trkpt>
<trkpt lat="38.09353685729754" lon="-1.4637186256305095">
<ele>1014</ele>
<time>2017-03-29T19:58:37Z</time>
</trkpt>
<trkpt lat="38.0935507809469" lon="-1.4636045295659312">
<ele>1013</ele>
<time>2017-03-29T19:58:39Z</time>
</trkpt>
<trkpt lat="38.093555281745964" lon="-1.4634849570385773">
<ele>1012</ele>
<time>2017-03-29T19:58:41Z</time>
</trkpt>
<trkpt lat="38.0935554808415" lon="-1.4634181306022334">
<ele>1011</ele>
<time>2017-03-29T19:58:43Z</time>
</trkpt>
<trkpt lat="38.093539011270046" lon="-1.4633440662605623">
<ele>1010</ele>
<time>2017-03-29T19:58:45Z</time>
</trkpt>
<trkpt lat="38.093538427977386" lon="-1.4632254753708664">
<ele>1007</ele>
<time>2017-03-29T19:58:47Z</time>
</trkpt>
<trkpt lat="38.09355806695619" lon="-1.4630953850405066">
<ele>1005</ele>
<time>2017-03-29T19:58:49Z</time>
</trkpt>
<trkpt lat="38.093577522556004" lon="-1.4630126230580986">
<ele>1003</ele>
<time>2017-03-29T19:58:51Z</time>
</trkpt>
<trkpt lat="38.093615278985695" lon="-1.4629130802546808">
<ele>1002</ele>
<time>2017-03-29T19:58:53Z</time>
</trkpt>
<trkpt lat="38.09366057927482" lon="-1.4628065807979018">
<ele>1001</ele>
<time>2017-03-29T19:58:55Z</time>
</trkpt>
<trkpt lat="38.09370689464132" lon="-1.4626864342192145">
<ele>1001</ele>
<time>2017-03-29T19:58:57Z</time>
</trkpt>
<trkpt lat="38.09375833924868" lon="-1.4625675591927667">
<ele>1001</ele>
<time>2017-03-29T19:58:59Z</time>
</trkpt>
<trkpt lat="38.09380499634002" lon="-1.4624785719386737">
<ele>1001</ele>
<time>2017-03-29T19:59:01Z</time>
</trkpt>
<trkpt lat="38.09385705428526" lon="-1.462357962654838">
<ele>1000</ele>
<time>2017-03-29T19:59:03Z</time>
</trkpt>
<trkpt lat="38.09389784499135" lon="-1.4622497352943582">
<ele>1000</ele>
<time>2017-03-29T19:59:05Z</time>
</trkpt>
<trkpt lat="38.09393223675385" lon="-1.4621639509425555">
<ele>999</ele>
<time>2017-03-29T19:59:07Z</time>
</trkpt>
<trkpt lat="38.09397681047978" lon="-1.4620677521922785">
<ele>998</ele>
<time>2017-03-29T19:59:09Z</time>
</trkpt>
<trkpt lat="38.094024030052026" lon="-1.4619591820021314">
<ele>996</ele>
<time>2017-03-29T19:59:11Z</time>
</trkpt>
<trkpt lat="38.09406277165881" lon="-1.4618649888385464">
<ele>995</ele>
<time>2017-03-29T19:59:13Z</time>
</trkpt>
<trkpt lat="38.094103135986785" lon="-1.4617602410171235">
<ele>993</ele>
<time>2017-03-29T19:59:15Z</time>
</trkpt>
<trkpt lat="38.09416298939682" lon="-1.4616298101389011">
<ele>991</ele>
<time>2017-03-29T19:59:17Z</time>
</trkpt>
<trkpt lat="38.094228905448034" lon="-1.4615205305760184">
<ele>989</ele>
<time>2017-03-29T19:59:19Z</time>
</trkpt>
<trkpt lat="38.09428521892742" lon="-1.461406556104765">
<ele>988</ele>
<time>2017-03-29T19:59:21Z</time>
</trkpt>
<trkpt lat="38.094341926654856" lon="-1.4613006854248094">
<ele>987</ele>
<time>2017-03-29T19:59:23Z</time>
</trkpt>
<trkpt lat="38.094408065302915" lon="-1.4611808764551515">
<ele>986</ele>
<time>2017-03-29T19:59:25Z</time>
</trkpt>
<trkpt lat="38.0944756834296" lon="-1.4610569317256263">
<ele>983</ele>
<time>2017-03-29T19:59:27Z</time>
</trkpt>
<trkpt lat="38.09451440574494" lon="-1.4609337271716374">
<ele>981</ele>
<time>2017-03-29T19:59:29Z</time>
</trkpt>
<trkpt lat="38.094528973770856" lon="-1.4608370134159354">
<ele>980</ele>
<time>2017-03-29T19:59:31Z</time>
</trkpt>
<trkpt lat="38.0945254178364" lon="-1.4607336329104887">
<ele>980</ele>
<time>2017-03-29T19:59:33Z</time>
</trkpt>
<trkpt lat="38.094511486051395" lon="-1.4606458307818884">
<ele>978</ele>
<time>2017-03-29T19:59:35Z</time>
</trkpt>
<trkpt lat="38.09448954844364" lon="-1.4605357812447195">
<ele>977</ele>
<time>2017-03-29T19:59:37Z</time>
</trkpt>
<trkpt lat="38.09446242706263" lon="-1.4604487145808245">
<ele>976</ele>
<time>2017-03-29T19:59:39Z</time>
</trkpt>
<trkpt lat="38.0944196662203" lon="-1.4603888344645395">
<ele>974</ele>
<time>2017-03-29T19:59:41Z</time>
</trkpt>
<trkpt lat="38.09437422352487" lon="-1.4603268631899984">
<ele>972</ele>
<time>2017-03-29T19:59:43Z</time>
</trkpt>
<trkpt lat="38.09433624078752" lon="-1.4602635917336353">
<ele>972</ele>
<time>2017-03-29T19:59:45Z</time>
</trkpt>
<trkpt lat="38.09427681995699" lon="-1.460198306596258">
<ele>969</ele>
<time>2017-03-29T19:59:47Z</time>
</trkpt>
<trkpt lat="38.09420649860499" lon="-1.460151510967625">
<ele>964</ele>
<time>2017-03-29T19:59:49Z</time>
</trkpt>
<trkpt lat="38.09414262645354" lon="-1.4601384914942876">
<ele>963</ele>
<time>2017-03-29T19:59:51Z</time>
</trkpt>
<trkpt lat="38.09405701151881" lon="-1.4601616731286917">
<ele>959</ele>
<time>2017-03-29T19:59:53Z</time>
</trkpt>
<trkpt lat="38.09397110429201" lon="-1.4602209837186664">
<ele>956</ele>
<time>2017-03-29T19:59:55Z</time>
</trkpt>
<trkpt lat="38.0938928245122" lon="-1.4602755029550984">
<ele>952</ele>
<time>2017-03-29T19:59:57Z</time>
</trkpt>
<trkpt lat="38.09381509486027" lon="-1.460357610906745">
<ele>949</ele>
<time>2017-03-29T19:59:59Z</time>
</trkpt>
<trkpt lat="38.09374315387343" lon="-1.4605226024747515">
<ele>948</ele>
<time>2017-03-29T20:00:01Z</time>
</trkpt>
<trkpt lat="38.09367351154686" lon="-1.4607048733426444">
<ele>946</ele>
<time>2017-03-29T20:00:03Z</time>
</trkpt>
<trkpt lat="38.093651691003224" lon="-1.46088932989095">
<ele>943</ele>
<time>2017-03-29T20:00:05Z</time>
</trkpt>
<trkpt lat="38.09365222049214" lon="-1.4610824006151117">
<ele>941</ele>
<time>2017-03-29T20:00:07Z</time>
</trkpt>
<trkpt lat="38.093662915710695" lon="-1.4613279736736153">
<ele>941</ele>
<time>2017-03-29T20:00:09Z</time>
</trkpt>
<trkpt lat="38.0936997212336" lon="-1.4615560355782604">
<ele>941</ele>
<time>2017-03-29T20:00:11Z</time>
</trkpt>
<trkpt lat="38.09374060581042" lon="-1.461818164374741">
<ele>941</ele>
<time>2017-03-29T20:00:13Z</time>
</trkpt>
<trkpt lat="38.09378700581353" lon="-1.4620740665056418">
<ele>939</ele>
<time>2017-03-29T20:00:15Z</time>
</trkpt>
<trkpt lat="38.09383154588595" lon="-1.4623118913853617">
<ele>938</ele>
<time>2017-03-29T20:00:17Z</time>
</trkpt>
<trkpt lat="38.09385742037973" lon="-1.4625540566832076">
<ele>937</ele>
<time>2017-03-29T20:00:19Z</time>
</trkpt>
<trkpt lat="38.09388774084672" lon="-1.462825714667962">
<ele>935</ele>
<time>2017-03-29T20:00:21Z</time>
</trkpt>
<trkpt lat="38.09394983230399" lon="-1.4630823950007354">
<ele>933</ele>
<time>2017-03-29T20:00:23Z</time>
</trkpt>
<trkpt lat="38.09400907308199" lon="-1.4633178940086249">
<ele>930</ele>
<time>2017-03-29T20:00:25Z</time>
</trkpt>
<trkpt lat="38.09407084661757" lon="-1.4635888424310841">
<ele>927</ele>
<time>2017-03-29T20:00:27Z</time>
</trkpt>
<trkpt lat="38.0941110505879" lon="-1.4638483242060842">
<ele>923</ele>
<time>2017-03-29T20:00:29Z</time>
</trkpt>
<trkpt lat="38.09411634241617" lon="-1.4640868311784754">
<ele>920</ele>
<time>2017-03-29T20:00:31Z</time>
</trkpt>
<trkpt lat="38.09411603761365" lon="-1.4643397796194626">
<ele>917</ele>
<time>2017-03-29T20:00:33Z</time>
</trkpt>
<trkpt lat="38.09410070205955" lon="-1.464567941969058">
<ele>913</ele>
<time>2017-03-29T20:00:35Z</time>
</trkpt>
<trkpt lat="38.094061687738844" lon="-1.464800613952012">
<ele>909</ele>
<time>2017-03-29T20:00:37Z</time>
</trkpt>
<trkpt lat="38.094010405838674" lon="-1.4650022943970553">
<ele>906</ele>
<time>2017-03-29T20:00:39Z</time>
</trkpt>
<trkpt lat="38.09393583781235" lon="-1.4651597123632571">
<ele>902</ele>
<time>2017-03-29T20:00:41Z</time>
</trkpt>
<trkpt lat="38.09383839512779" lon="-1.4653098787355996">
<ele>898</ele>
<time>2017-03-29T20:00:43Z</time>
</trkpt>
<trkpt lat="38.09373939823289" lon="-1.4654469755532">
<ele>896</ele>
<time>2017-03-29T20:00:45Z</time>
</trkpt>
<trkpt lat="38.09365250226961" lon="-1.465576581749431">
<ele>894</ele>
<time>2017-03-29T20:00:47Z</time>
</trkpt>
<trkpt lat="38.09356267628983" lon="-1.4657301472958038">
<ele>893</ele>
<time>2017-03-29T20:00:49Z</time>
</trkpt>
<trkpt lat="38.09346045816117" lon="-1.4658758480886234">
<ele>893</ele>
<time>2017-03-29T20:00:51Z</time>
</trkpt>
<trkpt lat="38.093357389252674" lon="-1.4660184925439623">
<ele>893</ele>
<time>2017-03-29T20:00:53Z</time>
</trkpt>
<trkpt lat="38.0932571760173" lon="-1.4661724000970429">
<ele>892</ele>
<time>2017-03-29T20:00:55Z</time>
</trkpt>
<trkpt lat="38.093170243753775" lon="-1.4663176406480567">
<ele>892</ele>
<time>2017-03-29T20:00:57Z</time>
</trkpt>
<trkpt lat="38.09309065266117" lon="-1.4664538469834765">
<ele>891</ele>
<time>2017-03-29T20:00:59Z</time>
</trkpt>
<trkpt lat="38.093005052705735" lon="-1.4665820576910757">
<ele>888</ele>
<time>2017-03-29T20:01:01Z</time>
</trkpt>
<trkpt lat="38.09290653247763" lon="-1.466722627504295">
<ele>887</ele>
<time>2017-03-29T20:01:03Z</time>
</trkpt>
<trkpt lat="38.09281146785729" lon="-1.4668530906577941">
<ele>885</ele>
<time>2017-03-29T20:01:05Z</time>
</trkpt>
<trkpt lat="38.092721883521875" lon="-1.4669354883324581">
<ele>884</ele>
<time>2017-03-29T20:01:07Z</time>
</trkpt>
<trkpt lat="38.092629020686374" lon="-1.4669963430909696">
<ele>883</ele>
<time>2017-03-29T20:01:09Z</time>
</trkpt>
<trkpt lat="38.09253555868075" lon="-1.4670645727693203">
<ele>882</ele>
<time>2017-03-29T20:01:11Z</time>
</trkpt>
<trkpt lat="38.09242275643185" lon="-1.4671548277729098">
<ele>881</ele>
<time>2017-03-29T20:01:13Z</time>
</trkpt>
<trkpt lat="38.092313598711314" lon="-1.4672546465631462">
<ele>880</ele>
<time>2017-03-29T20:01:15Z</time>
</trkpt>
<trkpt lat="38.09221817796856" lon="-1.4673489372798758">
<ele>879</ele>
<time>2017-03-29T20:01:17Z</time>
</trkpt>
<trkpt lat="38.092106586080774" lon="-1.4674388624372283">
<ele>877</ele>
<time>2017-03-29T20:01:19Z</time>
</trkpt>
<trkpt lat="38.0919966537332" lon="-1.467521056640692">
<ele>874</ele>
<time>2017-03-29T20:01:21Z</time>
</trkpt>
<trkpt lat="38.09190315326373" lon="-1.4676101739203404">
<ele>872</ele>
<time>2017-03-29T20:01:23Z</time>
</trkpt>
<trkpt lat="38.0917981243133" lon="-1.4677241465422528">
<ele>870</ele>
<time>2017-03-29T20:01:25Z</time>
</trkpt>
<trkpt lat="38.09170329105915" lon="-1.4678221227278303">
<ele>869</ele>
<time>2017-03-29T20:01:27Z</time>
</trkpt>
<trkpt lat="38.091608486546214" lon="-1.467904966088175">
<ele>869</ele>
<time>2017-03-29T20:01:29Z</time>
</trkpt>
<trkpt lat="38.0914970010084" lon="-1.4679813568021969">
<ele>868</ele>
<time>2017-03-29T20:01:31Z</time>
</trkpt>
<trkpt lat="38.0913932571333" lon="-1.468036684461948">
<ele>867</ele>
<time>2017-03-29T20:01:33Z</time>
</trkpt>
<trkpt lat="38.091306516711825" lon="-1.4680794894563531">
<ele>865</ele>
<time>2017-03-29T20:01:35Z</time>
</trkpt>
<trkpt lat="38.091208493581725" lon="-1.4681329993083938">
<ele>863</ele>
<time>2017-03-29T20:01:37Z</time>
</trkpt>
<trkpt lat="38.0910878521846" lon="-1.4682276039926272">
<ele>863</ele>
<time>2017-03-29T20:01:39Z</time>
</trkpt>
<trkpt lat="38.09096699772793" lon="-1.4683270574797422">
<ele>862</ele>
<time>2017-03-29T20:01:41Z</time>
</trkpt>
<trkpt lat="38.09085213572509" lon="-1.4684210895246903">
<ele>861</ele>
<time>2017-03-29T20:01:43Z</time>
</trkpt>
<trkpt lat="38.090754258211945" lon="-1.4685217426994985">
<ele>860</ele>
<time>2017-03-29T20:01:45Z</time>
</trkpt>
<trkpt lat="38.09066739144334" lon="-1.4686312748834018">
<ele>857</ele>
<time>2017-03-29T20:01:47Z</time>
</trkpt>
<trkpt lat="38.090593952957036" lon="-1.4687452676348536">
<ele>854</ele>
<time>2017-03-29T20:01:49Z</time>
</trkpt>
<trkpt lat="38.09050276219192" lon="-1.46890733403128">
<ele>852</ele>
<time>2017-03-29T20:01:51Z</time>
</trkpt>
<trkpt lat="38.09041838876617" lon="-1.469106784493633">
<ele>849</ele>
<time>2017-03-29T20:01:53Z</time>
</trkpt>
<trkpt lat="38.09036914562911" lon="-1.469329999991533">
<ele>845</ele>
<time>2017-03-29T20:01:55Z</time>
</trkpt>
<trkpt lat="38.0903717123173" lon="-1.4695554973125862">
<ele>842</ele>
<time>2017-03-29T20:01:57Z</time>
</trkpt>
<trkpt lat="38.09041278900348" lon="-1.4697939395564974">
<ele>842</ele>
<time>2017-03-29T20:01:59Z</time>
</trkpt>
<trkpt lat="38.090502178505815" lon="-1.470042740847133">
<ele>842</ele>
<time>2017-03-29T20:02:01Z</time>
</trkpt>
<trkpt lat="38.090636065935826" lon="-1.4702577588464256">
<ele>843</ele>
<time>2017-03-29T20:02:03Z</time>
</trkpt>
<trkpt lat="38.09078731354877" lon="-1.47044404788588">
<ele>843</ele>
<time>2017-03-29T20:02:05Z</time>
</trkpt>
<trkpt lat="38.09094651931341" lon="-1.4706440321422514">
<ele>844</ele>
<time>2017-03-29T20:02:07Z</time>
</trkpt>
<trkpt lat="38.09106284890848" lon="-1.4708825953408606">
<ele>845</ele>
<time>2017-03-29T20:02:09Z</time>
</trkpt>
<trkpt lat="38.09112573231641" lon="-1.4711371932309885">
<ele>846</ele>
<time>2017-03-29T20:02:11Z</time>
</trkpt>
<trkpt lat="38.091138438668644" lon="-1.471407558323468">
<ele>847</ele>
<time>2017-03-29T20:02:13Z</time>
</trkpt>
<trkpt lat="38.091127057531686" lon="-1.4716573709940117">
<ele>848</ele>
<time>2017-03-29T20:02:15Z</time>
</trkpt>
<trkpt lat="38.09109761078673" lon="-1.4719062947428867">
<ele>848</ele>
<time>2017-03-29T20:02:17Z</time>
</trkpt>
<trkpt lat="38.09105061113133" lon="-1.4721210540312133">
<ele>848</ele>
<time>2017-03-29T20:02:19Z</time>
</trkpt>
<trkpt lat="38.09098708887657" lon="-1.4722952793568125">
<ele>848</ele>
<time>2017-03-29T20:02:21Z</time>
</trkpt>
<trkpt lat="38.090894914194294" lon="-1.472480955787465">
<ele>847</ele>
<time>2017-03-29T20:02:23Z</time>
</trkpt>
<trkpt lat="38.090789175104" lon="-1.4726651711968446">
<ele>845</ele>
<time>2017-03-29T20:02:25Z</time>
</trkpt>
<trkpt lat="38.09070155906125" lon="-1.4727932646712145">
<ele>844</ele>
<time>2017-03-29T20:02:27Z</time>
</trkpt>
<trkpt lat="38.090598306675886" lon="-1.472894073417265">
<ele>844</ele>
<time>2017-03-29T20:02:29Z</time>
</trkpt>
<trkpt lat="38.0904811756583" lon="-1.4729768431957988">
<ele>844</ele>
<time>2017-03-29T20:02:31Z</time>
</trkpt>
<trkpt lat="38.090375374421725" lon="-1.473052118284059">
<ele>844</ele>
<time>2017-03-29T20:02:33Z</time>
</trkpt>
<trkpt lat="38.09026784448383" lon="-1.4731324556750056">
<ele>843</ele>
<time>2017-03-29T20:02:35Z</time>
</trkpt>
<trkpt lat="38.09014968325548" lon="-1.4732196744573105">
<ele>841</ele>
<time>2017-03-29T20:02:37Z</time>
</trkpt>
<trkpt lat="38.09004550694096" lon="-1.4732840579751822">
<ele>840</ele>
<time>2017-03-29T20:02:39Z</time>
</trkpt>
<trkpt lat="38.089941485582855" lon="-1.4733239911285103">
<ele>840</ele>
<time>2017-03-29T20:02:41Z</time>
</trkpt>
<trkpt lat="38.089822158147" lon="-1.4733565406059008">
<ele>840</ele>
<time>2017-03-29T20:02:43Z</time>
</trkpt>
<trkpt lat="38.089707082099615" lon="-1.4733872120109723">
<ele>840</ele>
<time>2017-03-29T20:02:45Z</time>
</trkpt>
<trkpt lat="38.08959991777472" lon="-1.4734072792499529">
<ele>840</ele>
<time>2017-03-29T20:02:47Z</time>
</trkpt>
<trkpt lat="38.08949624650275" lon="-1.4734285170861865">
<ele>841</ele>
<time>2017-03-29T20:02:49Z</time>
</trkpt>
<trkpt lat="38.08938566000722" lon="-1.4734554015963524">
<ele>842</ele>
<time>2017-03-29T20:02:51Z</time>
</trkpt>
<trkpt lat="38.089277644774484" lon="-1.4734773091493858">
<ele>842</ele>
<time>2017-03-29T20:02:53Z</time>
</trkpt>
<trkpt lat="38.0891600220457" lon="-1.4735307964142492">
<ele>842</ele>
<time>2017-03-29T20:02:55Z</time>
</trkpt>
<trkpt lat="38.0890324318893" lon="-1.473603712173646">
<ele>842</ele>
<time>2017-03-29T20:02:57Z</time>
</trkpt>
<trkpt lat="38.08891803631797" lon="-1.4736773333589306">
<ele>841</ele>
<time>2017-03-29T20:02:59Z</time>
</trkpt>
<trkpt lat="38.088793754285845" lon="-1.4737635664597886">
<ele>838</ele>
<time>2017-03-29T20:03:01Z</time>
</trkpt>
<trkpt lat="38.08868429407313" lon="-1.473861812459371">
<ele>837</ele>
<time>2017-03-29T20:03:03Z</time>
</trkpt>
<trkpt lat="38.08857372612687" lon="-1.4739610232581408">
<ele>835</ele>
<time>2017-03-29T20:03:05Z</time>
</trkpt>
<trkpt lat="38.088440079644855" lon="-1.474078841394756">
<ele>834</ele>
<time>2017-03-29T20:03:07Z</time>
</trkpt>
<trkpt lat="38.088336598704764" lon="-1.4741811920165684">
<ele>833</ele>
<time>2017-03-29T20:03:09Z</time>
</trkpt>
<trkpt lat="38.088256227065045" lon="-1.4742687592975072">
<ele>833</ele>
<time>2017-03-29T20:03:11Z</time>
</trkpt>
<trkpt lat="38.08816081113179" lon="-1.474310991902688">
<ele>831</ele>
<time>2017-03-29T20:03:13Z</time>
</trkpt>
<trkpt lat="38.088083856565596" lon="-1.4743548598028438">
<ele>831</ele>
<time>2017-03-29T20:03:15Z</time>
</trkpt>
<trkpt lat="38.08803477034001" lon="-1.4743578884126742">
<ele>831</ele>
<time>2017-03-29T20:03:17Z</time>
</trkpt>
<trkpt lat="38.08796255667252" lon="-1.4743467193488387">
<ele>831</ele>
<time>2017-03-29T20:03:19Z</time>
</trkpt>
<trkpt lat="38.087888767845925" lon="-1.4743843940046084">
<ele>832</ele>
<time>2017-03-29T20:03:21Z</time>
</trkpt>
<trkpt lat="38.08781673618473" lon="-1.4744378021188727">
<ele>833</ele>
<time>2017-03-29T20:03:23Z</time>
</trkpt>
<trkpt lat="38.08772838675623" lon="-1.4745012025351438">
<ele>834</ele>
<time>2017-03-29T20:03:25Z</time>
</trkpt>
<trkpt lat="38.08763081176598" lon="-1.474567436850775">
<ele>834</ele>
<time>2017-03-29T20:03:27Z</time>
</trkpt>
<trkpt lat="38.087529305190856" lon="-1.4746497096830438">
<ele>834</ele>
<time>2017-03-29T20:03:29Z</time>
</trkpt>
<trkpt lat="38.087421444798295" lon="-1.4747539694818033">
<ele>834</ele>
<time>2017-03-29T20:03:31Z</time>
</trkpt>
<trkpt lat="38.08733302163436" lon="-1.47487469453114">
<ele>833</ele>
<time>2017-03-29T20:03:33Z</time>
</trkpt>
<trkpt lat="38.08724672221887" lon="-1.4750016974222138">
<ele>832</ele>
<time>2017-03-29T20:03:35Z</time>
</trkpt>
<trkpt lat="38.08715941511179" lon="-1.4751062266446635">
<ele>831</ele>
<time>2017-03-29T20:03:37Z</time>
</trkpt>
<trkpt lat="38.0870855644188" lon="-1.47520201988004">
<ele>829</ele>
<time>2017-03-29T20:03:39Z</time>
</trkpt>
<trkpt lat="38.08702237402095" lon="-1.4752949256674117">
<ele>826</ele>
<time>2017-03-29T20:03:41Z</time>
</trkpt>
<trkpt lat="38.08692960078117" lon="-1.4753933104479697">
<ele>824</ele>
<time>2017-03-29T20:03:43Z</time>
</trkpt>
<trkpt lat="38.08684804549267" lon="-1.4754695852021709">
<ele>823</ele>
<time>2017-03-29T20:03:45Z</time>
</trkpt>
<trkpt lat="38.0867710283014" lon="-1.4755557666186154">
<ele>822</ele>
<time>2017-03-29T20:03:47Z</time>
</trkpt>
<trkpt lat="38.086683271721824" lon="-1.4756362648300358">
<ele>820</ele>
<time>2017-03-29T20:03:49Z</time>
</trkpt>
<trkpt lat="38.08660176230248" lon="-1.475711307455763">
<ele>819</ele>
<time>2017-03-29T20:03:51Z</time>
</trkpt>
<trkpt lat="38.08652150724804" lon="-1.475776073710308">
<ele>818</ele>
<time>2017-03-29T20:03:53Z</time>
</trkpt>
<trkpt lat="38.086446422568905" lon="-1.4758066642248426">
<ele>818</ele>
<time>2017-03-29T20:03:55Z</time>
</trkpt>
<trkpt lat="38.0863966859136" lon="-1.4758299040718061">
<ele>818</ele>
<time>2017-03-29T20:03:57Z</time>
</trkpt>
<trkpt lat="38.08635243948684" lon="-1.4758471764144543">
<ele>817</ele>
<time>2017-03-29T20:03:59Z</time>
</trkpt>
<trkpt lat="38.086286135092585" lon="-1.4758561059436026">
<ele>815</ele>
<time>2017-03-29T20:04:01Z</time>
</trkpt>
<trkpt lat="38.0862228831133" lon="-1.4758729295471762">
<ele>814</ele>
<time>2017-03-29T20:04:03Z</time>
</trkpt>
<trkpt lat="38.086188406127114" lon="-1.4759146680771007">
<ele>814</ele>
<time>2017-03-29T20:04:05Z</time>
</trkpt>
<trkpt lat="38.08612723362879" lon="-1.4759574786357428">
<ele>811</ele>
<time>2017-03-29T20:04:07Z</time>
</trkpt>
<trkpt lat="38.08605231533435" lon="-1.4760055082392525">
<ele>808</ele>
<time>2017-03-29T20:04:09Z</time>
</trkpt>
<trkpt lat="38.085995544115576" lon="-1.4760651328705796">
<ele>808</ele>
<time>2017-03-29T20:04:11Z</time>
</trkpt>
<trkpt lat="38.08594836197081" lon="-1.47612060606333">
<ele>806</ele>
<time>2017-03-29T20:04:13Z</time>
</trkpt>
<trkpt lat="38.08588330173639" lon="-1.4761737272277964">
<ele>803</ele>
<time>2017-03-29T20:04:15Z</time>
</trkpt>
<trkpt lat="38.08580411320874" lon="-1.4762264626186785">
<ele>801</ele>
<time>2017-03-29T20:04:17Z</time>
</trkpt>
<trkpt lat="38.08570356767653" lon="-1.4762941495554458">
<ele>800</ele>
<time>2017-03-29T20:04:19Z</time>
</trkpt>
<trkpt lat="38.08563607078063" lon="-1.4763676141917057">
<ele>798</ele>
<time>2017-03-29T20:04:21Z</time>
</trkpt>
<trkpt lat="38.08557975441657" lon="-1.4764551459172097">
<ele>797</ele>
<time>2017-03-29T20:04:23Z</time>
</trkpt>
<trkpt lat="38.08550164958818" lon="-1.4765821795068452">
<ele>796</ele>
<time>2017-03-29T20:04:25Z</time>
</trkpt>
<trkpt lat="38.085404411155196" lon="-1.4767553304389647">
<ele>795</ele>
<time>2017-03-29T20:04:27Z</time>
</trkpt>
<trkpt lat="38.08532064916818" lon="-1.476900385237081">
<ele>794</ele>
<time>2017-03-29T20:04:29Z</time>
</trkpt>
<trkpt lat="38.08524274954531" lon="-1.4770324040823697">
<ele>794</ele>
<time>2017-03-29T20:04:31Z</time>
</trkpt>
<trkpt lat="38.08515611297571" lon="-1.4772124225461316">
<ele>793</ele>
<time>2017-03-29T20:04:33Z</time>
</trkpt>
<trkpt lat="38.08507928179469" lon="-1.4773910942015542">
<ele>793</ele>
<time>2017-03-29T20:04:35Z</time>
</trkpt>
<trkpt lat="38.08500528899778" lon="-1.4775521125645605">
<ele>792</ele>
<time>2017-03-29T20:04:37Z</time>
</trkpt>
<trkpt lat="38.0849318178104" lon="-1.477656788182627">
<ele>792</ele>
<time>2017-03-29T20:04:39Z</time>
</trkpt>
<trkpt lat="38.08487017444531" lon="-1.4777176141999084">
<ele>791</ele>
<time>2017-03-29T20:04:41Z</time>
</trkpt>
<trkpt lat="38.084810068427196" lon="-1.4777349431529145">
<ele>791</ele>
<time>2017-03-29T20:04:43Z</time>
</trkpt>
<trkpt lat="38.0847424132213" lon="-1.477756209647203">
<ele>791</ele>
<time>2017-03-29T20:04:45Z</time>
</trkpt>
<trkpt lat="38.084684005753424" lon="-1.4777798141215976">
<ele>791</ele>
<time>2017-03-29T20:04:47Z</time>
</trkpt>
<trkpt lat="38.08464001191384" lon="-1.4777895751542127">
<ele>791</ele>
<time>2017-03-29T20:04:49Z</time>
</trkpt>
<trkpt lat="38.08458499649939" lon="-1.477780051099169">
<ele>791</ele>
<time>2017-03-29T20:04:51Z</time>
</trkpt>
<trkpt lat="38.084542079434414" lon="-1.4777945587042793">
<ele>790</ele>
<time>2017-03-29T20:04:53Z</time>
</trkpt>
<trkpt lat="38.08449745561549" lon="-1.4778021520936244">
<ele>790</ele>
<time>2017-03-29T20:04:55Z</time>
</trkpt>
<trkpt lat="38.08443638419832" lon="-1.47780656264704">
<ele>790</ele>
<time>2017-03-29T20:04:57Z</time>
</trkpt>
<trkpt lat="38.08438409816312" lon="-1.4778158432443549">
<ele>789</ele>
<time>2017-03-29T20:04:59Z</time>
</trkpt>
<trkpt lat="38.08434187741353" lon="-1.4778255166001715">
<ele>789</ele>
<time>2017-03-29T20:05:01Z</time>
</trkpt>
<trkpt lat="38.084273047902414" lon="-1.477836464064979">
<ele>786</ele>
<time>2017-03-29T20:05:03Z</time>
</trkpt>
<trkpt lat="38.08420962102037" lon="-1.4778843312576326">
<ele>783</ele>
<time>2017-03-29T20:05:05Z</time>
</trkpt>
<trkpt lat="38.08415411326089" lon="-1.4779310789696622">
<ele>783</ele>
<time>2017-03-29T20:05:07Z</time>
</trkpt>
<trkpt lat="38.084090745719266" lon="-1.4779691063548306">
<ele>779</ele>
<time>2017-03-29T20:05:09Z</time>
</trkpt>
<trkpt lat="38.08401353443488" lon="-1.4780275222337391">
<ele>774</ele>
<time>2017-03-29T20:05:11Z</time>
</trkpt>
<trkpt lat="38.08393695011222" lon="-1.478100952237144">
<ele>769</ele>
<time>2017-03-29T20:05:13Z</time>
</trkpt>
<trkpt lat="38.08385521029883" lon="-1.4781756265121018">
<ele>765</ele>
<time>2017-03-29T20:05:15Z</time>
</trkpt>
<trkpt lat="38.0837654363988" lon="-1.4782608650775764">
<ele>761</ele>
<time>2017-03-29T20:05:17Z</time>
</trkpt>
<trkpt lat="38.083687581425785" lon="-1.4783459607206755">
<ele>757</ele>
<time>2017-03-29T20:05:19Z</time>
</trkpt>
<trkpt lat="38.08359682287981" lon="-1.4784282978379402">
<ele>753</ele>
<time>2017-03-29T20:05:21Z</time>
</trkpt>
<trkpt lat="38.08352331715411" lon="-1.4784618717227447">
<ele>751</ele>
<time>2017-03-29T20:05:23Z</time>
</trkpt>
<trkpt lat="38.08350568799434" lon="-1.4784703638278947">
<ele>751</ele>
<time>2017-03-29T20:05:25Z</time>
</trkpt>
<trkpt lat="38.08350568799434" lon="-1.4784703638278947">
<ele>751</ele>
<time>2017-03-29T20:05:27Z</time>
</trkpt>
<trkpt lat="38.08349992586925" lon="-1.4784415596363825">
<ele>749</ele>
<time>2017-03-29T20:05:29Z</time>
</trkpt>
<trkpt lat="38.08356968587964" lon="-1.4783866546772202">
<ele>746</ele>
<time>2017-03-29T20:05:31Z</time>
</trkpt>
<trkpt lat="38.08365164951357" lon="-1.478360072811187">
<ele>746</ele>
<time>2017-03-29T20:05:33Z</time>
</trkpt>
<trkpt lat="38.083742703418594" lon="-1.4783357634878271">
<ele>741</ele>
<time>2017-03-29T20:05:35Z</time>
</trkpt>
<trkpt lat="38.083850727148146" lon="-1.478290764309361">
<ele>736</ele>
<time>2017-03-29T20:05:37Z</time>
</trkpt>
<trkpt lat="38.08396633862225" lon="-1.478280320617544">
<ele>732</ele>
<time>2017-03-29T20:05:39Z</time>
</trkpt>
<trkpt lat="38.08410965926154" lon="-1.4783064577145144">
<ele>728</ele>
<time>2017-03-29T20:05:41Z</time>
</trkpt>
<trkpt lat="38.08428302191982" lon="-1.4783327644655062">
<ele>724</ele>
<time>2017-03-29T20:05:43Z</time>
</trkpt>
<trkpt lat="38.084442254246845" lon="-1.4783590217593996">
<ele>721</ele>
<time>2017-03-29T20:05:45Z</time>
</trkpt>
<trkpt lat="38.0845641612566" lon="-1.4783885658030298">
<ele>718</ele>
<time>2017-03-29T20:05:47Z</time>
</trkpt>
<trkpt lat="38.08467456599319" lon="-1.4783848654790657">
<ele>715</ele>
<time>2017-03-29T20:05:49Z</time>
</trkpt>
<trkpt lat="38.084794287951766" lon="-1.4783487169983045">
<ele>712</ele>
<time>2017-03-29T20:05:51Z</time>
</trkpt>
<trkpt lat="38.08488830688115" lon="-1.4783130016140522">
<ele>710</ele>
<time>2017-03-29T20:05:53Z</time>
</trkpt>
<trkpt lat="38.08496498495962" lon="-1.4782598626613344">
<ele>710</ele>
<time>2017-03-29T20:05:55Z</time>
</trkpt>
<trkpt lat="38.08504032179788" lon="-1.478201681950339">
<ele>711</ele>
<time>2017-03-29T20:05:57Z</time>
</trkpt>
<trkpt lat="38.085073791639466" lon="-1.47812892157268">
<ele>711</ele>
<time>2017-03-29T20:05:59Z</time>
</trkpt>
<trkpt lat="38.085098416658084" lon="-1.478022566423084">
<ele>711</ele>
<time>2017-03-29T20:06:01Z</time>
</trkpt>
<trkpt lat="38.085120366727445" lon="-1.4779000251600884">
<ele>710</ele>
<time>2017-03-29T20:06:03Z</time>
</trkpt>
<trkpt lat="38.08509982145882" lon="-1.4778028520098365">
<ele>709</ele>
<time>2017-03-29T20:06:05Z</time>
</trkpt>
<trkpt lat="38.08504961701848" lon="-1.4777280410911495">
<ele>708</ele>
<time>2017-03-29T20:06:07Z</time>
</trkpt>
<trkpt lat="38.08496542215415" lon="-1.4776868270778598">
<ele>708</ele>
<time>2017-03-29T20:06:09Z</time>
</trkpt>
<trkpt lat="38.084856355853184" lon="-1.4776992558237418">
<ele>709</ele>
<time>2017-03-29T20:06:11Z</time>
</trkpt>
<trkpt lat="38.08472602628071" lon="-1.4777553098493825">
<ele>709</ele>
<time>2017-03-29T20:06:13Z</time>
</trkpt>
<trkpt lat="38.08456562817937" lon="-1.4778559707391958">
<ele>709</ele>
<time>2017-03-29T20:06:15Z</time>
</trkpt>
<trkpt lat="38.08445544614894" lon="-1.4779523818087155">
<ele>708</ele>
<time>2017-03-29T20:06:17Z</time>
</trkpt>
<trkpt lat="38.084350296269456" lon="-1.4780222542607866">
<ele>707</ele>
<time>2017-03-29T20:06:19Z</time>
</trkpt>
<trkpt lat="38.08427316978829" lon="-1.4780097911603716">
<ele>706</ele>
<time>2017-03-29T20:06:21Z</time>
</trkpt>
<trkpt lat="38.08428738746704" lon="-1.4779500323331503">
<ele>706</ele>
<time>2017-03-29T20:06:23Z</time>
</trkpt>
<trkpt lat="38.08434790683963" lon="-1.4779133410213101">
<ele>703</ele>
<time>2017-03-29T20:06:25Z</time>
</trkpt>
<trkpt lat="38.08445030375497" lon="-1.4778968164644288">
<ele>699</ele>
<time>2017-03-29T20:06:27Z</time>
</trkpt>
<trkpt lat="38.084593362038575" lon="-1.477965297590281">
<ele>695</ele>
<time>2017-03-29T20:06:29Z</time>
</trkpt>
<trkpt lat="38.08474293101793" lon="-1.478062718435211">
<ele>692</ele>
<time>2017-03-29T20:06:31Z</time>
</trkpt>
<trkpt lat="38.08488285837891" lon="-1.478153470671014">
<ele>691</ele>
<time>2017-03-29T20:06:33Z</time>
</trkpt>
<trkpt lat="38.08503525064598" lon="-1.4782205397759334">
<ele>690</ele>
<time>2017-03-29T20:06:35Z</time>
</trkpt>
<trkpt lat="38.085171277322274" lon="-1.4782781148026307">
<ele>689</ele>
<time>2017-03-29T20:06:37Z</time>
</trkpt>
<trkpt lat="38.08530244054312" lon="-1.4784213024010395">
<ele>687</ele>
<time>2017-03-29T20:06:39Z</time>
</trkpt>
<trkpt lat="38.085411283018544" lon="-1.4786717402017169">
<ele>686</ele>
<time>2017-03-29T20:06:41Z</time>
</trkpt>
<trkpt lat="38.08543428440576" lon="-1.4789446182436559">
<ele>684</ele>
<time>2017-03-29T20:06:43Z</time>
</trkpt>
<trkpt lat="38.085385312809784" lon="-1.47918584592979">
<ele>681</ele>
<time>2017-03-29T20:06:45Z</time>
</trkpt>
<trkpt lat="38.085320700643855" lon="-1.4794047245371729">
<ele>678</ele>
<time>2017-03-29T20:06:47Z</time>
</trkpt>
<trkpt lat="38.08520783743254" lon="-1.4795984400409674">
<ele>675</ele>
<time>2017-03-29T20:06:49Z</time>
</trkpt>
<trkpt lat="38.08511118999501" lon="-1.4797743093283098">
<ele>671</ele>
<time>2017-03-29T20:06:51Z</time>
</trkpt>
<trkpt lat="38.0850045545829" lon="-1.4799581504801516">
<ele>667</ele>
<time>2017-03-29T20:06:53Z</time>
</trkpt>
<trkpt lat="38.08486859426475" lon="-1.4801809338716003">
<ele>664</ele>
<time>2017-03-29T20:06:55Z</time>
</trkpt>
<trkpt lat="38.08474735124878" lon="-1.48039037034194">
<ele>662</ele>
<time>2017-03-29T20:06:57Z</time>
</trkpt>
<trkpt lat="38.08463016993239" lon="-1.4806096607414652">
<ele>660</ele>
<time>2017-03-29T20:06:59Z</time>
</trkpt>
<trkpt lat="38.084509107323285" lon="-1.4808329993126366">
<ele>658</ele>
<time>2017-03-29T20:07:01Z</time>
</trkpt>
<trkpt lat="38.08439654631655" lon="-1.4810521958844642">
<ele>655</ele>
<time>2017-03-29T20:07:03Z</time>
</trkpt>
<trkpt lat="38.08428942172537" lon="-1.481246742682632">
<ele>653</ele>
<time>2017-03-29T20:07:06Z</time>
</trkpt>
<trkpt lat="38.084170541331616" lon="-1.4814551945501673">
<ele>651</ele>
<time>2017-03-29T20:07:08Z</time>
</trkpt>
<trkpt lat="38.084047989248525" lon="-1.4816792045534888">
<ele>650</ele>
<time>2017-03-29T20:07:10Z</time>
</trkpt>
<trkpt lat="38.0839292196501" lon="-1.4818881076128212">
<ele>649</ele>
<time>2017-03-29T20:07:12Z</time>
</trkpt>
<trkpt lat="38.08380823162946" lon="-1.4821077157100453">
<ele>649</ele>
<time>2017-03-29T20:07:14Z</time>
</trkpt>
<trkpt lat="38.083689983595626" lon="-1.4823562698471495">
<ele>648</ele>
<time>2017-03-29T20:07:16Z</time>
</trkpt>
<trkpt lat="38.08358299344673" lon="-1.4826081696236795">
<ele>647</ele>
<time>2017-03-29T20:07:18Z</time>
</trkpt>
<trkpt lat="38.0834776564218" lon="-1.482865580542051">
<ele>647</ele>
<time>2017-03-29T20:07:20Z</time>
</trkpt>
<trkpt lat="38.083373697109266" lon="-1.4831142878917816">
<ele>646</ele>
<time>2017-03-29T20:07:22Z</time>
</trkpt>
<trkpt lat="38.0832788515254" lon="-1.4833502947692727">
<ele>646</ele>
<time>2017-03-29T20:07:24Z</time>
</trkpt>
<trkpt lat="38.08319203441377" lon="-1.4836075710109273">
<ele>646</ele>
<time>2017-03-29T20:07:26Z</time>
</trkpt>
<trkpt lat="38.08310025173507" lon="-1.4838774034313222">
<ele>645</ele>
<time>2017-03-29T20:07:28Z</time>
</trkpt>
<trkpt lat="38.08302272141274" lon="-1.484155599929725">
<ele>646</ele>
<time>2017-03-29T20:07:30Z</time>
</trkpt>
<trkpt lat="38.08296514813745" lon="-1.4844470532281633">
<ele>647</ele>
<time>2017-03-29T20:07:32Z</time>
</trkpt>
<trkpt lat="38.08291287492832" lon="-1.4847210591441988">
<ele>648</ele>
<time>2017-03-29T20:07:34Z</time>
</trkpt>
<trkpt lat="38.08287693196057" lon="-1.4850044319148157">
<ele>648</ele>
<time>2017-03-29T20:07:36Z</time>
</trkpt>
<trkpt lat="38.082839623171246" lon="-1.4852672804842073">
<ele>646</ele>
<time>2017-03-29T20:07:38Z</time>
</trkpt>
<trkpt lat="38.08279547321962" lon="-1.4855604620000389">
<ele>643</ele>
<time>2017-03-29T20:07:40Z</time>
</trkpt>
<trkpt lat="38.08277535467506" lon="-1.4858737734301082">
<ele>638</ele>
<time>2017-03-29T20:07:42Z</time>
</trkpt>
<trkpt lat="38.08274712266648" lon="-1.4861821215539308">
<ele>633</ele>
<time>2017-03-29T20:07:44Z</time>
</trkpt>
<trkpt lat="38.082694152631724" lon="-1.486486685729147">
<ele>629</ele>
<time>2017-03-29T20:07:46Z</time>
</trkpt>
<trkpt lat="38.08264603174994" lon="-1.4867860583499728">
<ele>626</ele>
<time>2017-03-29T20:07:48Z</time>
</trkpt>
<trkpt lat="38.08258928706273" lon="-1.4870832466059882">
<ele>624</ele>
<time>2017-03-29T20:07:50Z</time>
</trkpt>
<trkpt lat="38.082531708911134" lon="-1.4873979335662963">
<ele>623</ele>
<time>2017-03-29T20:07:52Z</time>
</trkpt>
<trkpt lat="38.0824811447982" lon="-1.4877546766460876">
<ele>620</ele>
<time>2017-03-29T20:07:54Z</time>
</trkpt>
<trkpt lat="38.0824359061077" lon="-1.4880904262804853">
<ele>617</ele>
<time>2017-03-29T20:07:56Z</time>
</trkpt>
<trkpt lat="38.08238203115753" lon="-1.4884031919105154">
<ele>614</ele>
<time>2017-03-29T20:07:58Z</time>
</trkpt>
<trkpt lat="38.08232670636608" lon="-1.4887347042247505">
<ele>611</ele>
<time>2017-03-29T20:08:00Z</time>
</trkpt>
<trkpt lat="38.082289326546544" lon="-1.4890556707655616">
<ele>608</ele>
<time>2017-03-29T20:08:02Z</time>
</trkpt>
<trkpt lat="38.0822665643346" lon="-1.4893949495605683">
<ele>606</ele>
<time>2017-03-29T20:08:04Z</time>
</trkpt>
<trkpt lat="38.082272505803154" lon="-1.4897414038932104">
<ele>606</ele>
<time>2017-03-29T20:08:06Z</time>
</trkpt>
<trkpt lat="38.082315144273245" lon="-1.4900907244749546">
<ele>605</ele>
<time>2017-03-29T20:08:08Z</time>
</trkpt>
<trkpt lat="38.08238195757841" lon="-1.4904081747313442">
<ele>604</ele>
<time>2017-03-29T20:08:10Z</time>
</trkpt>
<trkpt lat="38.082505064906826" lon="-1.4907010038682829">
<ele>602</ele>
<time>2017-03-29T20:08:12Z</time>
</trkpt>
<trkpt lat="38.08263087472707" lon="-1.4909566689323406">
<ele>601</ele>
<time>2017-03-29T20:08:14Z</time>
</trkpt>
<trkpt lat="38.08277656329586" lon="-1.4912047103537838">
<ele>601</ele>
<time>2017-03-29T20:08:16Z</time>
</trkpt>
<trkpt lat="38.08293576338399" lon="-1.491412141169519">
<ele>600</ele>
<time>2017-03-29T20:08:18Z</time>
</trkpt>
<trkpt lat="38.08308528449023" lon="-1.4915601652191794">
<ele>600</ele>
<time>2017-03-29T20:08:20Z</time>
</trkpt>
<trkpt lat="38.083248745168014" lon="-1.4916758939653287">
<ele>601</ele>
<time>2017-03-29T20:08:22Z</time>
</trkpt>
<trkpt lat="38.08337853893266" lon="-1.491677906469029">
<ele>600</ele>
<time>2017-03-29T20:08:24Z</time>
</trkpt>
<trkpt lat="38.08344998967326" lon="-1.4916466165082838">
<ele>600</ele>
<time>2017-03-29T20:08:26Z</time>
</trkpt>
<trkpt lat="38.083492805896995" lon="-1.4916275169035416">
<ele>600</ele>
<time>2017-03-29T20:08:28Z</time>
</trkpt>
<trkpt lat="38.083512113284485" lon="-1.4915794853676396">
<ele>600</ele>
<time>2017-03-29T20:08:30Z</time>
</trkpt>
<trkpt lat="38.08353862793426" lon="-1.4915490239512912">
<ele>600</ele>
<time>2017-03-29T20:08:32Z</time>
</trkpt>
<trkpt lat="38.08357760232073" lon="-1.4915343207505094">
<ele>600</ele>
<time>2017-03-29T20:08:34Z</time>
</trkpt>
<trkpt lat="38.08365480050377" lon="-1.4915170266198294">
<ele>600</ele>
<time>2017-03-29T20:08:36Z</time>
</trkpt>
<trkpt lat="38.08373830487149" lon="-1.4914890889949959">
<ele>599</ele>
<time>2017-03-29T20:08:38Z</time>
</trkpt>
<trkpt lat="38.083816944186424" lon="-1.4914551001130474">
<ele>598</ele>
<time>2017-03-29T20:08:40Z</time>
</trkpt>
<trkpt lat="38.08388895584379" lon="-1.4914289916149919">
<ele>597</ele>
<time>2017-03-29T20:08:42Z</time>
</trkpt>
<trkpt lat="38.08396913383279" lon="-1.4913912066365431">
<ele>596</ele>
<time>2017-03-29T20:08:44Z</time>
</trkpt>
<trkpt lat="38.08404111929056" lon="-1.4913641575945225">
<ele>596</ele>
<time>2017-03-29T20:08:46Z</time>
</trkpt>
<trkpt lat="38.08412510935821" lon="-1.4913548867536845">
<ele>595</ele>
<time>2017-03-29T20:08:48Z</time>
</trkpt>
<trkpt lat="38.08419762102212" lon="-1.4913177098607093">
<ele>595</ele>
<time>2017-03-29T20:08:50Z</time>
</trkpt>
<trkpt lat="38.08426652677195" lon="-1.4912904542789844">
<ele>595</ele>
<time>2017-03-29T20:08:52Z</time>
</trkpt>
<trkpt lat="38.08435349322746" lon="-1.4912647918565556">
<ele>594</ele>
<time>2017-03-29T20:08:54Z</time>
</trkpt>
<trkpt lat="38.08443432356061" lon="-1.4912306266491546">
<ele>592</ele>
<time>2017-03-29T20:08:56Z</time>
</trkpt>
<trkpt lat="38.08452142838951" lon="-1.4912313256550094">
<ele>590</ele>
<time>2017-03-29T20:08:58Z</time>
</trkpt>
<trkpt lat="38.08461603030812" lon="-1.491235437839551">
<ele>589</ele>
<time>2017-03-29T20:09:00Z</time>
</trkpt>
<trkpt lat="38.084730692038974" lon="-1.4912191732372027">
<ele>588</ele>
<time>2017-03-29T20:09:02Z</time>
</trkpt>
<trkpt lat="38.08483394271265" lon="-1.4912037668545117">
<ele>587</ele>
<time>2017-03-29T20:09:04Z</time>
</trkpt>
<trkpt lat="38.08490955075372" lon="-1.4911913071529688">
<ele>587</ele>
<time>2017-03-29T20:09:06Z</time>
</trkpt>
<trkpt lat="38.08493443137957" lon="-1.4911567753295532">
<ele>587</ele>
<time>2017-03-29T20:09:08Z</time>
</trkpt>
<trkpt lat="38.08490782785759" lon="-1.4911192153986577">
<ele>587</ele>
<time>2017-03-29T20:09:10Z</time>
</trkpt>
<trkpt lat="38.08486949122256" lon="-1.4911151544744552">
<ele>586</ele>
<time>2017-03-29T20:09:12Z</time>
</trkpt>
<trkpt lat="38.08479525099391" lon="-1.4911192522595484">
<ele>585</ele>
<time>2017-03-29T20:09:14Z</time>
</trkpt>
<trkpt lat="38.084707100649396" lon="-1.4910904309645792">
<ele>583</ele>
<time>2017-03-29T20:09:16Z</time>
</trkpt>
<trkpt lat="38.08464414206761" lon="-1.4910626970118313">
<ele>582</ele>
<time>2017-03-29T20:09:18Z</time>
</trkpt>
<trkpt lat="38.08458297836089" lon="-1.4910395273919776">
<ele>582</ele>
<time>2017-03-29T20:09:20Z</time>
</trkpt>
<trkpt lat="38.08449342131861" lon="-1.4910280058494065">
<ele>581</ele>
<time>2017-03-29T20:09:22Z</time>
</trkpt>
<trkpt lat="38.084389395940704" lon="-1.491038063405731">
<ele>580</ele>
<time>2017-03-29T20:09:24Z</time>
</trkpt>
<trkpt lat="38.084323804602676" lon="-1.4910083029884202">
<ele>580</ele>
<time>2017-03-29T20:09:26Z</time>
</trkpt>
<trkpt lat="38.08430416968274" lon="-1.4909825988454308">
<ele>577</ele>
<time>2017-03-29T20:09:28Z</time>
</trkpt>
<trkpt lat="38.08436228083892" lon="-1.49092927680805">
<ele>575</ele>
<time>2017-03-29T20:09:30Z</time>
</trkpt>
<trkpt lat="38.08440304456593" lon="-1.4908929800471789">
<ele>574</ele>
<time>2017-03-29T20:09:32Z</time>
</trkpt>
<trkpt lat="38.08446669843256" lon="-1.4908262337662057">
<ele>574</ele>
<time>2017-03-29T20:09:34Z</time>
</trkpt>
<trkpt lat="38.08452510410068" lon="-1.4907673381005366">
<ele>573</ele>
<time>2017-03-29T20:09:36Z</time>
</trkpt>
<trkpt lat="38.084564816938325" lon="-1.4907166609574711">
<ele>569</ele>
<time>2017-03-29T20:09:38Z</time>
</trkpt>
<trkpt lat="38.08458934032526" lon="-1.4906267022182145">
<ele>565</ele>
<time>2017-03-29T20:09:40Z</time>
</trkpt>
<trkpt lat="38.08461669155185" lon="-1.4905794888698145">
<ele>564</ele>
<time>2017-03-29T20:09:42Z</time>
</trkpt>
<trkpt lat="38.08465981269186" lon="-1.4905425441083877">
<ele>559</ele>
<time>2017-03-29T20:09:44Z</time>
</trkpt>
<trkpt lat="38.08471632664024" lon="-1.4904978483845635">
<ele>552</ele>
<time>2017-03-29T20:09:46Z</time>
</trkpt>
<trkpt lat="38.0847706491024" lon="-1.490455456985682">
<ele>552</ele>
<time>2017-03-29T20:09:48Z</time>
</trkpt>
<trkpt lat="38.08484193162797" lon="-1.4903967045062565">
<ele>552</ele>
<time>2017-03-29T20:09:50Z</time>
</trkpt>
<trkpt lat="38.08489676485283" lon="-1.4903298881833995">
<ele>551</ele>
<time>2017-03-29T20:09:52Z</time>
</trkpt>
<trkpt lat="38.08489724734878" lon="-1.4902617943124936">
<ele>551</ele>
<time>2017-03-29T20:09:54Z</time>
</trkpt>
<trkpt lat="38.08485303335194" lon="-1.4902016125058966">
<ele>549</ele>
<time>2017-03-29T20:09:56Z</time>
</trkpt>
<trkpt lat="38.08477156670926" lon="-1.4901869720738965">
<ele>548</ele>
<time>2017-03-29T20:09:58Z</time>
</trkpt>
<trkpt lat="38.08466999397554" lon="-1.490188243123773">
<ele>546</ele>
<time>2017-03-29T20:10:00Z</time>
</trkpt>
<trkpt lat="38.08459548550736" lon="-1.4901735033489418">
<ele>545</ele>
<time>2017-03-29T20:10:02Z</time>
</trkpt>
<trkpt lat="38.084605351861484" lon="-1.4900788382345307">
<ele>541</ele>
<time>2017-03-29T20:10:04Z</time>
</trkpt>
<trkpt lat="38.08467650463502" lon="-1.4900392018936714">
<ele>539</ele>
<time>2017-03-29T20:10:06Z</time>
</trkpt>
<trkpt lat="38.084693044118936" lon="-1.4900286439564068">
<ele>539</ele>
<time>2017-03-29T20:10:08Z</time>
</trkpt>
<trkpt lat="38.0846669223336" lon="-1.4899414720757613">
<ele>538</ele>
<time>2017-03-29T20:10:10Z</time>
</trkpt>
<trkpt lat="38.08466880867127" lon="-1.489884249872222">
<ele>537</ele>
<time>2017-03-29T20:10:12Z</time>
</trkpt>
<trkpt lat="38.084679385379516" lon="-1.489855529330364">
<ele>537</ele>
<time>2017-03-29T20:10:14Z</time>
</trkpt>
<trkpt lat="38.08466647969446" lon="-1.489781326534712">
<ele>536</ele>
<time>2017-03-29T20:10:16Z</time>
</trkpt>
<trkpt lat="38.08465932967777" lon="-1.4897334511043607">
<ele>536</ele>
<time>2017-03-29T20:10:18Z</time>
</trkpt>
<trkpt lat="38.084654503752695" lon="-1.4896943195893422">
<ele>536</ele>
<time>2017-03-29T20:10:20Z</time>
</trkpt>
<trkpt lat="38.084648078289995" lon="-1.4896282221112704">
<ele>535</ele>
<time>2017-03-29T20:10:22Z</time>
</trkpt>
<trkpt lat="38.08464385604446" lon="-1.4895554357404992">
<ele>534</ele>
<time>2017-03-29T20:10:24Z</time>
</trkpt>
<trkpt lat="38.08464279614768" lon="-1.4894879757503552">
<ele>534</ele>
<time>2017-03-29T20:10:26Z</time>
</trkpt>
<trkpt lat="38.08464400580543" lon="-1.489426540338836">
<ele>533</ele>
<time>2017-03-29T20:10:28Z</time>
</trkpt>
<trkpt lat="38.08464325396153" lon="-1.4893993461707526">
<ele>532</ele>
<time>2017-03-29T20:10:30Z</time>
</trkpt>
<trkpt lat="38.08463661872837" lon="-1.4893619076979105">
<ele>532</ele>
<time>2017-03-29T20:10:32Z</time>
</trkpt>
<trkpt lat="38.08462792586245" lon="-1.489342349840376">
<ele>531</ele>
<time>2017-03-29T20:10:34Z</time>
</trkpt>
<trkpt lat="38.08460612405984" lon="-1.489313794770339">
<ele>531</ele>
<time>2017-03-29T20:10:36Z</time>
</trkpt>
<trkpt lat="38.08459876215223" lon="-1.489290620211937">
<ele>530</ele>
<time>2017-03-29T20:10:38Z</time>
</trkpt>
<trkpt lat="38.084586286036085" lon="-1.489268441800075">
<ele>530</ele>
<time>2017-03-29T20:10:40Z</time>
</trkpt>
<trkpt lat="38.08457759669772" lon="-1.4892530388241436">
<ele>529</ele>
<time>2017-03-29T20:10:42Z</time>
</trkpt>
<trkpt lat="38.08457759669772" lon="-1.4892530388241436">
<ele>529</ele>
<time>2017-03-29T20:10:44Z</time>
</trkpt>
<trkpt lat="38.08457759669772" lon="-1.4892530388241436">
<ele>528</ele>
<time>2017-03-29T20:10:46Z</time>
</trkpt>
<trkpt lat="38.08457759669772" lon="-1.4892530388241436">
<ele>527</ele>
<time>2017-03-29T20:10:48Z</time>
</trkpt>
<trkpt lat="38.08457759669772" lon="-1.4892530388241436">
<ele>527</ele>
<time>2017-03-29T20:10:50Z</time>
</trkpt>
<trkpt lat="38.08457759669772" lon="-1.4892530388241436">
<ele>526</ele>
<time>2017-03-29T20:10:52Z</time>
</trkpt>
<trkpt lat="38.08457759669772" lon="-1.4892530388241436">
<ele>526</ele>
<time>2017-03-29T20:10:54Z</time>
</trkpt>
<trkpt lat="38.08457759669772" lon="-1.4892530388241436">
<ele>526</ele>
<time>2017-03-29T20:10:56Z</time>
</trkpt>
<trkpt lat="38.08457759669772" lon="-1.4892530388241436">
<ele>525</ele>
<time>2017-03-29T20:10:58Z</time>
</trkpt>
<trkpt lat="38.08457759669772" lon="-1.4892530388241436">
<ele>525</ele>
<time>2017-03-29T20:11:00Z</time>
</trkpt>
<trkpt lat="38.08457759669772" lon="-1.4892530388241436">
<ele>524</ele>
<time>2017-03-29T20:11:02Z</time>
</trkpt>
<trkpt lat="38.08457759669772" lon="-1.4892530388241436">
<ele>524</ele>
<time>2017-03-29T20:11:04Z</time>
</trkpt>
<trkpt lat="38.08457759669772" lon="-1.4892530388241436">
<ele>524</ele>
<time>2017-03-29T20:11:06Z</time>
</trkpt>
<trkpt lat="38.08457759669772" lon="-1.4892530388241436">
<ele>524</ele>
<time>2017-03-29T20:11:08Z</time>
</trkpt>
<trkpt lat="38.08457759669772" lon="-1.4892530388241436">
<ele>524</ele>
<time>2017-03-29T20:11:10Z</time>
</trkpt>
<trkpt lat="38.08457759669772" lon="-1.4892530388241436">
<ele>524</ele>
<time>2017-03-29T20:11:12Z</time>
</trkpt>
<trkpt lat="38.08457759669772" lon="-1.4892530388241436">
<ele>524</ele>
<time>2017-03-29T20:11:14Z</time>
</trkpt>
<trkpt lat="38.08457759669772" lon="-1.4892530388241436">
<ele>524</ele>
<time>2017-03-29T20:11:16Z</time>
</trkpt>
<trkpt lat="38.08457759669772" lon="-1.4892530388241436">
<ele>524</ele>
<time>2017-03-29T20:11:18Z</time>
</trkpt>
<trkpt lat="38.08457759669772" lon="-1.4892530388241436">
<ele>524</ele>
<time>2017-03-29T20:11:20Z</time>
</trkpt>
<trkpt lat="38.08457759669772" lon="-1.4892530388241436">
<ele>524</ele>
<time>2017-03-29T20:11:22Z</time>
</trkpt>
<trkpt lat="38.08457759669772" lon="-1.4892530388241436">
<ele>524</ele>
<time>2017-03-29T20:11:24Z</time>
</trkpt>
<trkpt lat="38.08457759669772" lon="-1.4892530388241436">
<ele>524</ele>
<time>2017-03-29T20:11:26Z</time>
</trkpt>
<trkpt lat="38.08457759669772" lon="-1.4892530388241436">
<ele>524</ele>
<time>2017-03-29T20:11:28Z</time>
</trkpt>
<trkpt lat="38.08457759669772" lon="-1.4892530388241436">
<ele>524</ele>
<time>2017-03-29T20:11:30Z</time>
</trkpt>
<trkpt lat="38.08457759669772" lon="-1.4892530388241436">
<ele>523</ele>
<time>2017-03-29T20:11:32Z</time>
</trkpt>
<trkpt lat="38.08457759669772" lon="-1.4892530388241436">
<ele>523</ele>
<time>2017-03-29T20:11:34Z</time>
</trkpt>
<trkpt lat="38.08457759669772" lon="-1.4892530388241436">
<ele>523</ele>
<time>2017-03-29T20:11:36Z</time>
</trkpt>
<trkpt lat="38.08457759669772" lon="-1.4892530388241436">
<ele>523</ele>
<time>2017-03-29T20:11:38Z</time>
</trkpt>
<trkpt lat="38.08457759669772" lon="-1.4892530388241436">
<ele>523</ele>
<time>2017-03-29T20:11:40Z</time>
</trkpt>
<trkpt lat="38.08457759669772" lon="-1.4892530388241436">
<ele>523</ele>
<time>2017-03-29T20:11:42Z</time>
</trkpt>
<trkpt lat="38.08457759669772" lon="-1.4892530388241436">
<ele>522</ele>
<time>2017-03-29T20:11:44Z</time>
</trkpt>
<trkpt lat="38.08457759669772" lon="-1.4892530388241436">
<ele>522</ele>
<time>2017-03-29T20:11:46Z</time>
</trkpt>
<trkpt lat="38.08457759669772" lon="-1.4892530388241436">
<ele>522</ele>
<time>2017-03-29T20:11:48Z</time>
</trkpt>
<trkpt lat="38.08457759669772" lon="-1.4892530388241436">
<ele>521</ele>
<time>2017-03-29T20:11:50Z</time>
</trkpt>
<trkpt lat="38.08457759669772" lon="-1.4892530388241436">
<ele>521</ele>
<time>2017-03-29T20:11:52Z</time>
</trkpt>
<trkpt lat="38.08457759669772" lon="-1.4892530388241436">
<ele>521</ele>
<time>2017-03-29T20:11:54Z</time>
</trkpt>
<trkpt lat="38.08457759669772" lon="-1.4892530388241436">
<ele>521</ele>
<time>2017-03-29T20:11:56Z</time>
</trkpt>
<trkpt lat="38.08457759669772" lon="-1.4892530388241436">
<ele>521</ele>
<time>2017-03-29T20:11:58Z</time>
</trkpt>
<trkpt lat="38.08457759669772" lon="-1.4892530388241436">
<ele>521</ele>
<time>2017-03-29T20:12:00Z</time>
</trkpt>
<trkpt lat="38.08457759669772" lon="-1.4892530388241436">
<ele>521</ele>
<time>2017-03-29T20:12:02Z</time>
</trkpt>
<trkpt lat="38.08457759669772" lon="-1.4892530388241436">
<ele>521</ele>
<time>2017-03-29T20:12:04Z</time>
</trkpt>
<trkpt lat="38.08457759669772" lon="-1.4892530388241436">
<ele>520</ele>
<time>2017-03-29T20:12:06Z</time>
</trkpt>
<trkpt lat="38.08457759669772" lon="-1.4892530388241436">
<ele>520</ele>
<time>2017-03-29T20:12:08Z</time>
</trkpt>
<trkpt lat="38.08457759669772" lon="-1.4892530388241436">
<ele>519</ele>
<time>2017-03-29T20:12:10Z</time>
</trkpt>
<trkpt lat="38.08457759669772" lon="-1.4892530388241436">
<ele>519</ele>
<time>2017-03-29T20:12:12Z</time>
</trkpt>
<trkpt lat="38.08457759669772" lon="-1.4892530388241436">
<ele>519</ele>
<time>2017-03-29T20:12:14Z</time>
</trkpt>
<trkpt lat="38.08457759669772" lon="-1.4892530388241436">
<ele>519</ele>
<time>2017-03-29T20:12:16Z</time>
</trkpt>
<trkpt lat="38.08457759669772" lon="-1.4892530388241436">
<ele>519</ele>
<time>2017-03-29T20:12:18Z</time>
</trkpt>
<trkpt lat="38.08457759669772" lon="-1.4892530388241436">
<ele>519</ele>
<time>2017-03-29T20:12:20Z</time>
</trkpt>
<trkpt lat="38.08457759669772" lon="-1.4892530388241436">
<ele>519</ele>
<time>2017-03-29T20:12:22Z</time>
</trkpt>
<trkpt lat="38.08457759669772" lon="-1.4892530388241436">
<ele>519</ele>
<time>2017-03-29T20:12:24Z</time>
</trkpt>
<trkpt lat="38.08457759669772" lon="-1.4892530388241436">
<ele>519</ele>
<time>2017-03-29T20:12:26Z</time>
</trkpt>
<trkpt lat="38.08457759669772" lon="-1.4892530388241436">
<ele>519</ele>
<time>2017-03-29T20:12:28Z</time>
</trkpt>
<trkpt lat="38.08457759669772" lon="-1.4892530388241436">
<ele>519</ele>
<time>2017-03-29T20:12:30Z</time>
</trkpt>
<trkpt lat="38.08457759669772" lon="-1.4892530388241436">
<ele>519</ele>
<time>2017-03-29T20:12:32Z</time>
</trkpt>
<trkpt lat="38.08457759669772" lon="-1.4892530388241436">
<ele>519</ele>
<time>2017-03-29T20:12:34Z</time>
</trkpt>
<trkpt lat="38.08457759669772" lon="-1.4892530388241436">
<ele>519</ele>
<time>2017-03-29T20:12:38Z</time>
</trkpt>
<trkpt lat="38.08457759669772" lon="-1.4892530388241436">
<ele>519</ele>
<time>2017-03-29T20:12:42Z</time>
</trkpt>
<trkpt lat="38.08457759669772" lon="-1.4892530388241436">
<ele>519</ele>
<time>2017-03-29T20:12:46Z</time>
</trkpt>
<trkpt lat="38.08457759669772" lon="-1.4892530388241436">
<ele>519</ele>
<time>2017-03-29T20:12:50Z</time>
</trkpt>
<trkpt lat="38.08457759669772" lon="-1.4892530388241436">
<ele>519</ele>
<time>2017-03-29T20:12:54Z</time>
</trkpt>
<trkpt lat="38.08457759669772" lon="-1.4892530388241436">
<ele>519</ele>
<time>2017-03-29T20:12:58Z</time>
</trkpt>
<trkpt lat="38.08457759669772" lon="-1.4892530388241436">
<ele>519</ele>
<time>2017-03-29T20:13:02Z</time>
</trkpt>
<trkpt lat="38.08457759669772" lon="-1.4892530388241436">
<ele>519</ele>
<time>2017-03-29T20:13:06Z</time>
</trkpt>
<trkpt lat="38.08457759669772" lon="-1.4892530388241436">
<ele>519</ele>
<time>2017-03-29T20:13:10Z</time>
</trkpt>
<trkpt lat="38.08457759669772" lon="-1.4892530388241436">
<ele>519</ele>
<time>2017-03-29T20:13:14Z</time>
</trkpt>
<trkpt lat="38.08457759669772" lon="-1.4892530388241436">
<ele>519</ele>
<time>2017-03-29T20:13:18Z</time>
</trkpt>
<trkpt lat="38.08457759669772" lon="-1.4892530388241436">
<ele>519</ele>
<time>2017-03-29T20:13:22Z</time>
</trkpt>
<trkpt lat="38.08457759669772" lon="-1.4892530388241436">
<ele>519</ele>
<time>2017-03-29T20:13:26Z</time>
</trkpt>
<trkpt lat="38.08457759669772" lon="-1.4892530388241436">
<ele>519</ele>
<time>2017-03-29T20:13:30Z</time>
</trkpt>
<trkpt lat="38.08457759669772" lon="-1.4892530388241436">
<ele>519</ele>
<time>2017-03-29T20:13:34Z</time>
</trkpt>
<trkpt lat="38.08457759669772" lon="-1.4892530388241436">
<ele>519</ele>
<time>2017-03-29T20:13:38Z</time>
</trkpt>
<trkpt lat="38.08457759669772" lon="-1.4892530388241436">
<ele>519</ele>
<time>2017-03-29T20:13:42Z</time>
</trkpt>
<trkpt lat="38.08457759669772" lon="-1.4892530388241436">
<ele>519</ele>
<time>2017-03-29T20:13:46Z</time>
</trkpt>
<trkpt lat="38.08457759669772" lon="-1.4892530388241436">
<ele>519</ele>
<time>2017-03-29T20:13:50Z</time>
</trkpt>
<trkpt lat="38.08457759669772" lon="-1.4892530388241436">
<ele>518</ele>
<time>2017-03-29T20:13:54Z</time>
</trkpt>
<trkpt lat="38.08457759669772" lon="-1.4892530388241436">
<ele>518</ele>
<time>2017-03-29T20:13:58Z</time>
</trkpt>
<trkpt lat="38.08457759669772" lon="-1.4892530388241436">
<ele>518</ele>
<time>2017-03-29T20:14:02Z</time>
</trkpt>
<trkpt lat="38.08457759669772" lon="-1.4892530388241436">
<ele>518</ele>
<time>2017-03-29T20:14:06Z</time>
</trkpt>
<trkpt lat="38.08457759669772" lon="-1.4892530388241436">
<ele>518</ele>
<time>2017-03-29T20:14:10Z</time>
</trkpt>
<trkpt lat="38.08457759669772" lon="-1.4892530388241436">
<ele>518</ele>
<time>2017-03-29T20:14:14Z</time>
</trkpt>
<trkpt lat="38.08457759669772" lon="-1.4892530388241436">
<ele>518</ele>
<time>2017-03-29T20:14:18Z</time>
</trkpt>
<trkpt lat="38.08457759669772" lon="-1.4892530388241436">
<ele>518</ele>
<time>2017-03-29T20:14:22Z</time>
</trkpt>
<trkpt lat="38.08457759669772" lon="-1.4892530388241436">
<ele>518</ele>
<time>2017-03-29T20:14:26Z</time>
</trkpt>
<trkpt lat="38.08457759669772" lon="-1.4892530388241436">
<ele>518</ele>
<time>2017-03-29T20:14:30Z</time>
</trkpt>
<trkpt lat="38.08457759669772" lon="-1.4892530388241436">
<ele>517</ele>
<time>2017-03-29T20:14:34Z</time>
</trkpt>
<trkpt lat="38.08457759669772" lon="-1.4892530388241436">
<ele>517</ele>
<time>2017-03-29T20:14:38Z</time>
</trkpt>
<trkpt lat="38.08457759669772" lon="-1.4892530388241436">
<ele>517</ele>
<time>2017-03-29T20:14:42Z</time>
</trkpt>
<trkpt lat="38.08457759669772" lon="-1.4892530388241436">
<ele>517</ele>
<time>2017-03-29T20:14:46Z</time>
</trkpt>
<trkpt lat="38.08457759669772" lon="-1.4892530388241436">
<ele>517</ele>
<time>2017-03-29T20:14:50Z</time>
</trkpt>
<trkpt lat="38.08457759669772" lon="-1.4892530388241436">
<ele>517</ele>
<time>2017-03-29T20:14:54Z</time>
</trkpt>
<trkpt lat="38.08457759669772" lon="-1.4892530388241436">
<ele>517</ele>
<time>2017-03-29T20:14:58Z</time>
</trkpt>
<trkpt lat="38.08457759669772" lon="-1.4892530388241436">
<ele>517</ele>
<time>2017-03-29T20:15:02Z</time>
</trkpt>
<trkpt lat="38.08457759669772" lon="-1.4892530388241436">
<ele>517</ele>
<time>2017-03-29T20:15:06Z</time>
</trkpt>
<trkpt lat="38.08457759669772" lon="-1.4892530388241436">
<ele>517</ele>
<time>2017-03-29T20:15:10Z</time>
</trkpt>
<trkpt lat="38.08457759669772" lon="-1.4892530388241436">
<ele>517</ele>
<time>2017-03-29T20:15:14Z</time>
</trkpt>
<trkpt lat="38.08457759669772" lon="-1.4892530388241436">
<ele>517</ele>
<time>2017-03-29T20:15:18Z</time>
</trkpt>
<trkpt lat="38.08457759669772" lon="-1.4892530388241436">
<ele>517</ele>
<time>2017-03-29T20:15:22Z</time>
</trkpt>
<trkpt lat="38.08457759669772" lon="-1.4892530388241436">
<ele>517</ele>
<time>2017-03-29T20:15:26Z</time>
</trkpt>
<trkpt lat="38.08457759669772" lon="-1.4892530388241436">
<ele>517</ele>
<time>2017-03-29T20:15:30Z</time>
</trkpt>
<trkpt lat="38.08457759669772" lon="-1.4892530388241436">
<ele>517</ele>
<time>2017-03-29T20:15:34Z</time>
</trkpt>
<trkpt lat="38.08457759669772" lon="-1.4892530388241436">
<ele>517</ele>
<time>2017-03-29T20:15:38Z</time>
</trkpt>
<trkpt lat="38.08457759669772" lon="-1.4892530388241436">
<ele>517</ele>
<time>2017-03-29T20:15:42Z</time>
</trkpt>
<trkpt lat="38.08457759669772" lon="-1.4892530388241436">
<ele>517</ele>
<time>2017-03-29T20:15:46Z</time>
</trkpt>
<trkpt lat="38.08457759669772" lon="-1.4892530388241436">
<ele>517</ele>
<time>2017-03-29T20:15:50Z</time>
</trkpt>
<trkpt lat="38.08457759669772" lon="-1.4892530388241436">
<ele>517</ele>
<time>2017-03-29T20:15:54Z</time>
</trkpt>
<trkpt lat="38.08457759669772" lon="-1.4892530388241436">
<ele>517</ele>
<time>2017-03-29T20:15:58Z</time>
</trkpt>
<trkpt lat="38.08457759669772" lon="-1.4892530388241436">
<ele>517</ele>
<time>2017-03-29T20:16:02Z</time>
</trkpt>
<trkpt lat="38.08457759669772" lon="-1.4892530388241436">
<ele>517</ele>
<time>2017-03-29T20:16:06Z</time>
</trkpt>
<trkpt lat="38.08457759669772" lon="-1.4892530388241436">
<ele>517</ele>
<time>2017-03-29T20:16:10Z</time>
</trkpt>
<trkpt lat="38.08457759669772" lon="-1.4892530388241436">
<ele>517</ele>
<time>2017-03-29T20:16:14Z</time>
</trkpt>
<trkpt lat="38.08457759669772" lon="-1.4892530388241436">
<ele>517</ele>
<time>2017-03-29T20:16:18Z</time>
</trkpt>
<trkpt lat="38.08457759669772" lon="-1.4892530388241436">
<ele>517</ele>
<time>2017-03-29T20:16:22Z</time>
</trkpt>
<trkpt lat="38.08457759669772" lon="-1.4892530388241436">
<ele>517</ele>
<time>2017-03-29T20:16:26Z</time>
</trkpt>
<trkpt lat="38.08457759669772" lon="-1.4892530388241436">
<ele>517</ele>
<time>2017-03-29T20:16:30Z</time>
</trkpt>
<trkpt lat="38.08457759669772" lon="-1.4892530388241436">
<ele>517</ele>
<time>2017-03-29T20:16:34Z</time>
</trkpt>
<trkpt lat="38.08457759669772" lon="-1.4892530388241436">
<ele>517</ele>
<time>2017-03-29T20:16:38Z</time>
</trkpt>
<trkpt lat="38.08457759669772" lon="-1.4892530388241436">
<ele>517</ele>
<time>2017-03-29T20:16:42Z</time>
</trkpt>
<trkpt lat="38.08457759669772" lon="-1.4892530388241436">
<ele>517</ele>
<time>2017-03-29T20:16:46Z</time>
</trkpt>
<trkpt lat="38.08457759669772" lon="-1.4892530388241436">
<ele>517</ele>
<time>2017-03-29T20:16:50Z</time>
</trkpt>
<trkpt lat="38.08457759669772" lon="-1.4892530388241436">
<ele>517</ele>
<time>2017-03-29T20:16:54Z</time>
</trkpt>
<trkpt lat="38.08457759669772" lon="-1.4892530388241436">
<ele>516</ele>
<time>2017-03-29T20:16:58Z</time>
</trkpt>
<trkpt lat="38.08457759669772" lon="-1.4892530388241436">
<ele>516</ele>
<time>2017-03-29T20:17:02Z</time>
</trkpt>
<trkpt lat="38.08457759669772" lon="-1.4892530388241436">
<ele>516</ele>
<time>2017-03-29T20:17:06Z</time>
</trkpt>
<trkpt lat="38.08457759669772" lon="-1.4892530388241436">
<ele>516</ele>
<time>2017-03-29T20:17:10Z</time>
</trkpt>
<trkpt lat="38.08457759669772" lon="-1.4892530388241436">
<ele>516</ele>
<time>2017-03-29T20:17:14Z</time>
</trkpt>
<trkpt lat="38.08457759669772" lon="-1.4892530388241436">
<ele>516</ele>
<time>2017-03-29T20:17:18Z</time>
</trkpt>
<trkpt lat="38.08457759669772" lon="-1.4892530388241436">
<ele>516</ele>
<time>2017-03-29T20:17:22Z</time>
</trkpt>
<trkpt lat="38.08457759669772" lon="-1.4892530388241436">
<ele>516</ele>
<time>2017-03-29T20:17:26Z</time>
</trkpt>
<trkpt lat="38.08457759669772" lon="-1.4892530388241436">
<ele>516</ele>
<time>2017-03-29T20:17:30Z</time>
</trkpt>
<trkpt lat="38.08457759669772" lon="-1.4892530388241436">
<ele>516</ele>
<time>2017-03-29T20:17:34Z</time>
</trkpt>
<trkpt lat="38.08457759669772" lon="-1.4892530388241436">
<ele>516</ele>
<time>2017-03-29T20:17:38Z</time>
</trkpt>
<trkpt lat="38.08457759669772" lon="-1.4892530388241436">
<ele>516</ele>
<time>2017-03-29T20:17:42Z</time>
</trkpt>
<trkpt lat="38.08457759669772" lon="-1.4892530388241436">
<ele>516</ele>
<time>2017-03-29T20:17:46Z</time>
</trkpt>
<trkpt lat="38.08457759669772" lon="-1.4892530388241436">
<ele>516</ele>
<time>2017-03-29T20:17:50Z</time>
</trkpt>
<trkpt lat="38.08457759669772" lon="-1.4892530388241436">
<ele>516</ele>
<time>2017-03-29T20:17:54Z</time>
</trkpt>
<trkpt lat="38.08457759669772" lon="-1.4892530388241436">
<ele>515</ele>
<time>2017-03-29T20:17:58Z</time>
</trkpt>
<trkpt lat="38.08457759669772" lon="-1.4892530388241436">
<ele>515</ele>
<time>2017-03-29T20:18:02Z</time>
</trkpt>
<trkpt lat="38.08457759669772" lon="-1.4892530388241436">
<ele>515</ele>
<time>2017-03-29T20:18:06Z</time>
</trkpt>
<trkpt lat="38.08457759669772" lon="-1.4892530388241436">
<ele>515</ele>
<time>2017-03-29T20:18:10Z</time>
</trkpt>
<trkpt lat="38.08457759669772" lon="-1.4892530388241436">
<ele>515</ele>
<time>2017-03-29T20:18:14Z</time>
</trkpt>
<trkpt lat="38.08457759669772" lon="-1.4892530388241436">
<ele>515</ele>
<time>2017-03-29T20:18:18Z</time>
</trkpt>
<trkpt lat="38.08457759669772" lon="-1.4892530388241436">
<ele>515</ele>
<time>2017-03-29T20:18:22Z</time>
</trkpt>
<trkpt lat="38.08457759669772" lon="-1.4892530388241436">
<ele>515</ele>
<time>2017-03-29T20:18:26Z</time>
</trkpt>
<trkpt lat="38.08457759669772" lon="-1.4892530388241436">
<ele>515</ele>
<time>2017-03-29T20:18:30Z</time>
</trkpt>
<trkpt lat="38.08457759669772" lon="-1.4892530388241436">
<ele>515</ele>
<time>2017-03-29T20:18:34Z</time>
</trkpt>
<trkpt lat="38.08457759669772" lon="-1.4892530388241436">
<ele>515</ele>
<time>2017-03-29T20:18:38Z</time>
</trkpt>
<trkpt lat="38.08457759669772" lon="-1.4892530388241436">
<ele>515</ele>
<time>2017-03-29T20:18:42Z</time>
</trkpt>
<trkpt lat="38.08457759669772" lon="-1.4892530388241436">
<ele>515</ele>
<time>2017-03-29T20:18:46Z</time>
</trkpt>
<trkpt lat="38.08457759669772" lon="-1.4892530388241436">
<ele>515</ele>
<time>2017-03-29T20:18:50Z</time>
</trkpt>
<trkpt lat="38.08460603656113" lon="-1.4892045449332836">
<ele>524</ele>
<time>2017-03-29T20:19:03Z</time>
</trkpt>
<trkpt lat="38.084597836731874" lon="-1.4892205403281435">
<ele>515</ele>
<time>2017-03-29T20:19:07Z</time>
</trkpt>
<trkpt lat="38.0845863209552" lon="-1.4892239454670824">
<ele>514</ele>
<time>2017-03-29T20:19:12Z</time>
</trkpt>
<trkpt lat="38.08458536609341" lon="-1.4892125569971233">
<ele>511</ele>
<time>2017-03-29T20:19:16Z</time>
</trkpt>
<trkpt lat="38.08458713291213" lon="-1.4892112837601774">
<ele>510</ele>
<time>2017-03-29T20:19:20Z</time>
</trkpt>
<trkpt lat="38.08458589130625" lon="-1.4892081998479347">
<ele>509</ele>
<time>2017-03-29T20:19:24Z</time>
</trkpt>
<trkpt lat="38.08458681718392" lon="-1.4892025615798365">
<ele>507</ele>
<time>2017-03-29T20:19:28Z</time>
</trkpt>
<trkpt lat="38.084590842366644" lon="-1.4891971365609593">
<ele>506</ele>
<time>2017-03-29T20:19:32Z</time>
</trkpt>
<trkpt lat="38.084590842366644" lon="-1.4891971365609593">
<ele>506</ele>
<time>2017-03-29T20:19:36Z</time>
</trkpt>
<trkpt lat="38.084590842366644" lon="-1.4891971365609593">
<ele>506</ele>
<time>2017-03-29T20:19:40Z</time>
</trkpt>
<trkpt lat="38.084590842366644" lon="-1.4891971365609593">
<ele>506</ele>
<time>2017-03-29T20:19:44Z</time>
</trkpt>
<trkpt lat="38.084590842366644" lon="-1.4891971365609593">
<ele>506</ele>
<time>2017-03-29T20:19:48Z</time>
</trkpt>
<trkpt lat="38.084590842366644" lon="-1.4891971365609593">
<ele>506</ele>
<time>2017-03-29T20:19:52Z</time>
</trkpt>
<trkpt lat="38.084590842366644" lon="-1.4891971365609593">
<ele>506</ele>
<time>2017-03-29T20:19:56Z</time>
</trkpt>
<trkpt lat="38.084590842366644" lon="-1.4891971365609593">
<ele>507</ele>
<time>2017-03-29T20:20:00Z</time>
</trkpt>
<trkpt lat="38.084590842366644" lon="-1.4891971365609593">
<ele>507</ele>
<time>2017-03-29T20:20:04Z</time>
</trkpt>
<trkpt lat="38.084590842366644" lon="-1.4891971365609593">
<ele>507</ele>
<time>2017-03-29T20:20:08Z</time>
</trkpt>
<trkpt lat="38.084590842366644" lon="-1.4891971365609593">
<ele>507</ele>
<time>2017-03-29T20:20:12Z</time>
</trkpt>
<trkpt lat="38.084590842366644" lon="-1.4891971365609593">
<ele>507</ele>
<time>2017-03-29T20:20:16Z</time>
</trkpt>
<trkpt lat="38.084590842366644" lon="-1.4891971365609593">
<ele>507</ele>
<time>2017-03-29T20:20:20Z</time>
</trkpt>
<trkpt lat="38.084590842366644" lon="-1.4891971365609593">
<ele>507</ele>
<time>2017-03-29T20:20:24Z</time>
</trkpt>
<trkpt lat="38.084590842366644" lon="-1.4891971365609593">
<ele>507</ele>
<time>2017-03-29T20:20:28Z</time>
</trkpt>
<trkpt lat="38.084590842366644" lon="-1.4891971365609593">
<ele>507</ele>
<time>2017-03-29T20:20:32Z</time>
</trkpt>
<trkpt lat="38.084590842366644" lon="-1.4891971365609593">
<ele>507</ele>
<time>2017-03-29T20:20:36Z</time>
</trkpt>
<trkpt lat="38.084590842366644" lon="-1.4891971365609593">
<ele>507</ele>
<time>2017-03-29T20:20:40Z</time>
</trkpt>
<trkpt lat="38.084590842366644" lon="-1.4891971365609593">
<ele>507</ele>
<time>2017-03-29T20:20:44Z</time>
</trkpt>
<trkpt lat="38.084590842366644" lon="-1.4891971365609593">
<ele>507</ele>
<time>2017-03-29T20:20:48Z</time>
</trkpt>
<trkpt lat="38.084590842366644" lon="-1.4891971365609593">
<ele>507</ele>
<time>2017-03-29T20:20:52Z</time>
</trkpt>
<trkpt lat="38.084590842366644" lon="-1.4891971365609593">
<ele>507</ele>
<time>2017-03-29T20:20:56Z</time>
</trkpt>
<trkpt lat="38.084590842366644" lon="-1.4891971365609593">
<ele>507</ele>
<time>2017-03-29T20:21:00Z</time>
</trkpt>
<trkpt lat="38.084590842366644" lon="-1.4891971365609593">
<ele>507</ele>
<time>2017-03-29T20:21:04Z</time>
</trkpt>
<trkpt lat="38.084590842366644" lon="-1.4891971365609593">
<ele>507</ele>
<time>2017-03-29T20:21:08Z</time>
</trkpt>
<trkpt lat="38.084590842366644" lon="-1.4891971365609593">
<ele>507</ele>
<time>2017-03-29T20:21:12Z</time>
</trkpt>
<trkpt lat="38.084590842366644" lon="-1.4891971365609593">
<ele>507</ele>
<time>2017-03-29T20:21:16Z</time>
</trkpt>
<trkpt lat="38.084590842366644" lon="-1.4891971365609593">
<ele>507</ele>
<time>2017-03-29T20:21:20Z</time>
</trkpt>
<trkpt lat="38.084590842366644" lon="-1.4891971365609593">
<ele>507</ele>
<time>2017-03-29T20:21:24Z</time>
</trkpt>
<trkpt lat="38.084590842366644" lon="-1.4891971365609593">
<ele>507</ele>
<time>2017-03-29T20:21:28Z</time>
</trkpt>
<trkpt lat="38.084590842366644" lon="-1.4891971365609593">
<ele>507</ele>
<time>2017-03-29T20:21:32Z</time>
</trkpt>
<trkpt lat="38.084590842366644" lon="-1.4891971365609593">
<ele>507</ele>
<time>2017-03-29T20:21:36Z</time>
</trkpt>
<trkpt lat="38.084590842366644" lon="-1.4891971365609593">
<ele>507</ele>
<time>2017-03-29T20:21:40Z</time>
</trkpt>
<trkpt lat="38.084590842366644" lon="-1.4891971365609593">
<ele>507</ele>
<time>2017-03-29T20:21:44Z</time>
</trkpt>
<trkpt lat="38.084590842366644" lon="-1.4891971365609593">
<ele>507</ele>
<time>2017-03-29T20:21:48Z</time>
</trkpt>
<trkpt lat="38.084590842366644" lon="-1.4891971365609593">
<ele>507</ele>
<time>2017-03-29T20:21:52Z</time>
</trkpt>
<trkpt lat="38.084590842366644" lon="-1.4891971365609593">
<ele>507</ele>
<time>2017-03-29T20:21:56Z</time>
</trkpt>
<trkpt lat="38.084590842366644" lon="-1.4891971365609593">
<ele>507</ele>
<time>2017-03-29T20:22:00Z</time>
</trkpt>
<trkpt lat="38.084590842366644" lon="-1.4891971365609593">
<ele>507</ele>
<time>2017-03-29T20:22:04Z</time>
</trkpt>
<trkpt lat="38.084590842366644" lon="-1.4891971365609593">
<ele>507</ele>
<time>2017-03-29T20:22:08Z</time>
</trkpt>
<trkpt lat="38.084590842366644" lon="-1.4891971365609593">
<ele>507</ele>
<time>2017-03-29T20:22:12Z</time>
</trkpt>
<trkpt lat="38.084590842366644" lon="-1.4891971365609593">
<ele>507</ele>
<time>2017-03-29T20:22:16Z</time>
</trkpt>
<trkpt lat="38.084590842366644" lon="-1.4891971365609593">
<ele>507</ele>
<time>2017-03-29T20:22:20Z</time>
</trkpt>
<trkpt lat="38.084590842366644" lon="-1.4891971365609593">
<ele>508</ele>
<time>2017-03-29T20:22:25Z</time>
</trkpt>
<trkpt lat="38.084590842366644" lon="-1.4891971365609593">
<ele>508</ele>
<time>2017-03-29T20:22:29Z</time>
</trkpt>
<trkpt lat="38.084590842366644" lon="-1.4891971365609593">
<ele>508</ele>
<time>2017-03-29T20:22:33Z</time>
</trkpt>
<trkpt lat="38.084590842366644" lon="-1.4891971365609593">
<ele>508</ele>
<time>2017-03-29T20:22:37Z</time>
</trkpt>
<trkpt lat="38.084590842366644" lon="-1.4891971365609593">
<ele>508</ele>
<time>2017-03-29T20:22:41Z</time>
</trkpt>
<trkpt lat="38.084590842366644" lon="-1.4891971365609593">
<ele>508</ele>
<time>2017-03-29T20:22:45Z</time>
</trkpt>
<trkpt lat="38.084590842366644" lon="-1.4891971365609593">
<ele>508</ele>
<time>2017-03-29T20:22:49Z</time>
</trkpt>
<trkpt lat="38.084590842366644" lon="-1.4891971365609593">
<ele>508</ele>
<time>2017-03-29T20:22:53Z</time>
</trkpt>
<trkpt lat="38.084590842366644" lon="-1.4891971365609593">
<ele>508</ele>
<time>2017-03-29T20:22:57Z</time>
</trkpt>
<trkpt lat="38.084590842366644" lon="-1.4891971365609593">
<ele>508</ele>
<time>2017-03-29T20:23:01Z</time>
</trkpt>
<trkpt lat="38.084590842366644" lon="-1.4891971365609593">
<ele>508</ele>
<time>2017-03-29T20:23:05Z</time>
</trkpt>
<trkpt lat="38.084590842366644" lon="-1.4891971365609593">
<ele>508</ele>
<time>2017-03-29T20:23:09Z</time>
</trkpt>
<trkpt lat="38.084590842366644" lon="-1.4891971365609593">
<ele>508</ele>
<time>2017-03-29T20:23:13Z</time>
</trkpt>
<trkpt lat="38.084590842366644" lon="-1.4891971365609593">
<ele>508</ele>
<time>2017-03-29T20:23:17Z</time>
</trkpt>
<trkpt lat="38.084590842366644" lon="-1.4891971365609593">
<ele>508</ele>
<time>2017-03-29T20:23:21Z</time>
</trkpt>
<trkpt lat="38.084590842366644" lon="-1.4891971365609593">
<ele>508</ele>
<time>2017-03-29T20:23:25Z</time>
</trkpt>
<trkpt lat="38.084590842366644" lon="-1.4891971365609593">
<ele>508</ele>
<time>2017-03-29T20:23:29Z</time>
</trkpt>
<trkpt lat="38.084590842366644" lon="-1.4891971365609593">
<ele>508</ele>
<time>2017-03-29T20:23:33Z</time>
</trkpt>
<trkpt lat="38.084590842366644" lon="-1.4891971365609593">
<ele>508</ele>
<time>2017-03-29T20:23:37Z</time>
</trkpt>
<trkpt lat="38.084590842366644" lon="-1.4891971365609593">
<ele>508</ele>
<time>2017-03-29T20:23:41Z</time>
</trkpt>
<trkpt lat="38.084590842366644" lon="-1.4891971365609593">
<ele>508</ele>
<time>2017-03-29T20:23:45Z</time>
</trkpt>
<trkpt lat="38.084590842366644" lon="-1.4891971365609593">
<ele>509</ele>
<time>2017-03-29T20:23:49Z</time>
</trkpt>
<trkpt lat="38.084590842366644" lon="-1.4891971365609593">
<ele>509</ele>
<time>2017-03-29T20:23:53Z</time>
</trkpt>
<trkpt lat="38.084590842366644" lon="-1.4891971365609593">
<ele>509</ele>
<time>2017-03-29T20:23:57Z</time>
</trkpt>
<trkpt lat="38.084590842366644" lon="-1.4891971365609593">
<ele>509</ele>
<time>2017-03-29T20:24:01Z</time>
</trkpt>
<trkpt lat="38.084590842366644" lon="-1.4891971365609593">
<ele>509</ele>
<time>2017-03-29T20:24:05Z</time>
</trkpt>
<trkpt lat="38.084590842366644" lon="-1.4891971365609593">
<ele>509</ele>
<time>2017-03-29T20:24:09Z</time>
</trkpt>
<trkpt lat="38.084590842366644" lon="-1.4891971365609593">
<ele>509</ele>
<time>2017-03-29T20:24:13Z</time>
</trkpt>
<trkpt lat="38.084590842366644" lon="-1.4891971365609593">
<ele>509</ele>
<time>2017-03-29T20:24:17Z</time>
</trkpt>
<trkpt lat="38.084590842366644" lon="-1.4891971365609593">
<ele>509</ele>
<time>2017-03-29T20:24:21Z</time>
</trkpt>
<trkpt lat="38.084590842366644" lon="-1.4891971365609593">
<ele>509</ele>
<time>2017-03-29T20:24:25Z</time>
</trkpt>
<trkpt lat="38.084590842366644" lon="-1.4891971365609593">
<ele>509</ele>
<time>2017-03-29T20:24:29Z</time>
</trkpt>
<trkpt lat="38.084590842366644" lon="-1.4891971365609593">
<ele>509</ele>
<time>2017-03-29T20:24:33Z</time>
</trkpt>
<trkpt lat="38.084590842366644" lon="-1.4891971365609593">
<ele>509</ele>
<time>2017-03-29T20:24:37Z</time>
</trkpt>
<trkpt lat="38.084590842366644" lon="-1.4891971365609593">
<ele>509</ele>
<time>2017-03-29T20:24:41Z</time>
</trkpt>
<trkpt lat="38.084590842366644" lon="-1.4891971365609593">
<ele>509</ele>
<time>2017-03-29T20:24:45Z</time>
</trkpt>
<trkpt lat="38.084590842366644" lon="-1.4891971365609593">
<ele>509</ele>
<time>2017-03-29T20:24:49Z</time>
</trkpt>
<trkpt lat="38.084590842366644" lon="-1.4891971365609593">
<ele>509</ele>
<time>2017-03-29T20:24:53Z</time>
</trkpt>
<trkpt lat="38.084590842366644" lon="-1.4891971365609593">
<ele>509</ele>
<time>2017-03-29T20:24:57Z</time>
</trkpt>
<trkpt lat="38.084590842366644" lon="-1.4891971365609593">
<ele>509</ele>
<time>2017-03-29T20:25:01Z</time>
</trkpt>
<trkpt lat="38.084590842366644" lon="-1.4891971365609593">
<ele>509</ele>
<time>2017-03-29T20:25:05Z</time>
</trkpt>
<trkpt lat="38.084590842366644" lon="-1.4891971365609593">
<ele>509</ele>
<time>2017-03-29T20:25:09Z</time>
</trkpt>
<trkpt lat="38.084590842366644" lon="-1.4891971365609593">
<ele>509</ele>
<time>2017-03-29T20:25:13Z</time>
</trkpt>
<trkpt lat="38.084590842366644" lon="-1.4891971365609593">
<ele>509</ele>
<time>2017-03-29T20:25:17Z</time>
</trkpt>
<trkpt lat="38.084590842366644" lon="-1.4891971365609593">
<ele>509</ele>
<time>2017-03-29T20:25:21Z</time>
</trkpt>
<trkpt lat="38.084590842366644" lon="-1.4891971365609593">
<ele>509</ele>
<time>2017-03-29T20:25:25Z</time>
</trkpt>
<trkpt lat="38.084590842366644" lon="-1.4891971365609593">
<ele>509</ele>
<time>2017-03-29T20:25:29Z</time>
</trkpt>
<trkpt lat="38.084590842366644" lon="-1.4891971365609593">
<ele>509</ele>
<time>2017-03-29T20:25:33Z</time>
</trkpt>
<trkpt lat="38.084590842366644" lon="-1.4891971365609593">
<ele>509</ele>
<time>2017-03-29T20:25:37Z</time>
</trkpt>
<trkpt lat="38.084590842366644" lon="-1.4891971365609593">
<ele>510</ele>
<time>2017-03-29T20:25:41Z</time>
</trkpt>
<trkpt lat="38.084590842366644" lon="-1.4891971365609593">
<ele>510</ele>
<time>2017-03-29T20:25:45Z</time>
</trkpt>
<trkpt lat="38.084590842366644" lon="-1.4891971365609593">
<ele>510</ele>
<time>2017-03-29T20:25:49Z</time>
</trkpt>
<trkpt lat="38.084590842366644" lon="-1.4891971365609593">
<ele>510</ele>
<time>2017-03-29T20:25:53Z</time>
</trkpt>
<trkpt lat="38.084590842366644" lon="-1.4891971365609593">
<ele>510</ele>
<time>2017-03-29T20:25:57Z</time>
</trkpt>
<trkpt lat="38.084590842366644" lon="-1.4891971365609593">
<ele>510</ele>
<time>2017-03-29T20:26:01Z</time>
</trkpt>
<trkpt lat="38.084590842366644" lon="-1.4891971365609593">
<ele>510</ele>
<time>2017-03-29T20:26:05Z</time>
</trkpt>
<trkpt lat="38.084590842366644" lon="-1.4891971365609593">
<ele>510</ele>
<time>2017-03-29T20:26:09Z</time>
</trkpt>
<trkpt lat="38.084590842366644" lon="-1.4891971365609593">
<ele>510</ele>
<time>2017-03-29T20:26:13Z</time>
</trkpt>
<trkpt lat="38.084590842366644" lon="-1.4891971365609593">
<ele>510</ele>
<time>2017-03-29T20:26:17Z</time>
</trkpt>
<trkpt lat="38.084590842366644" lon="-1.4891971365609593">
<ele>510</ele>
<time>2017-03-29T20:26:21Z</time>
</trkpt>
<trkpt lat="38.084590842366644" lon="-1.4891971365609593">
<ele>510</ele>
<time>2017-03-29T20:26:25Z</time>
</trkpt>
<trkpt lat="38.084590842366644" lon="-1.4891971365609593">
<ele>510</ele>
<time>2017-03-29T20:26:29Z</time>
</trkpt>
<trkpt lat="38.084590842366644" lon="-1.4891971365609593">
<ele>510</ele>
<time>2017-03-29T20:26:33Z</time>
</trkpt>
<trkpt lat="38.084590842366644" lon="-1.4891971365609593">
<ele>510</ele>
<time>2017-03-29T20:26:37Z</time>
</trkpt>
<trkpt lat="38.084590842366644" lon="-1.4891971365609593">
<ele>510</ele>
<time>2017-03-29T20:26:41Z</time>
</trkpt>
<trkpt lat="38.084590842366644" lon="-1.4891971365609593">
<ele>510</ele>
<time>2017-03-29T20:26:45Z</time>
</trkpt>
<trkpt lat="38.084590842366644" lon="-1.4891971365609593">
<ele>510</ele>
<time>2017-03-29T20:26:49Z</time>
</trkpt>
<trkpt lat="38.084590842366644" lon="-1.4891971365609593">
<ele>510</ele>
<time>2017-03-29T20:26:53Z</time>
</trkpt>
<trkpt lat="38.084590842366644" lon="-1.4891971365609593">
<ele>510</ele>
<time>2017-03-29T20:26:56Z</time>
</trkpt>
<trkpt lat="38.084590842366644" lon="-1.4891971365609593">
<ele>510</ele>
<time>2017-03-29T20:27:00Z</time>
</trkpt>
<trkpt lat="38.084590842366644" lon="-1.4891971365609593">
<ele>510</ele>
<time>2017-03-29T20:27:04Z</time>
</trkpt>
<trkpt lat="38.084590842366644" lon="-1.4891971365609593">
<ele>510</ele>
<time>2017-03-29T20:27:08Z</time>
</trkpt>
<trkpt lat="38.084590842366644" lon="-1.4891971365609593">
<ele>510</ele>
<time>2017-03-29T20:27:12Z</time>
</trkpt>
<trkpt lat="38.084590842366644" lon="-1.4891971365609593">
<ele>510</ele>
<time>2017-03-29T20:27:16Z</time>
</trkpt>
<trkpt lat="38.084590842366644" lon="-1.4891971365609593">
<ele>510</ele>
<time>2017-03-29T20:27:20Z</time>
</trkpt>
<trkpt lat="38.084590842366644" lon="-1.4891971365609593">
<ele>510</ele>
<time>2017-03-29T20:27:24Z</time>
</trkpt>
<trkpt lat="38.084590842366644" lon="-1.4891971365609593">
<ele>510</ele>
<time>2017-03-29T20:27:28Z</time>
</trkpt>
<trkpt lat="38.084590842366644" lon="-1.4891971365609593">
<ele>510</ele>
<time>2017-03-29T20:27:32Z</time>
</trkpt>
<trkpt lat="38.084590842366644" lon="-1.4891971365609593">
<ele>510</ele>
<time>2017-03-29T20:27:36Z</time>
</trkpt>
<trkpt lat="38.084590842366644" lon="-1.4891971365609593">
<ele>510</ele>
<time>2017-03-29T20:27:40Z</time>
</trkpt>
<trkpt lat="38.084590842366644" lon="-1.4891971365609593">
<ele>511</ele>
<time>2017-03-29T20:27:44Z</time>
</trkpt>
<trkpt lat="38.084590842366644" lon="-1.4891971365609593">
<ele>511</ele>
<time>2017-03-29T20:27:48Z</time>
</trkpt>
<trkpt lat="38.084590842366644" lon="-1.4891971365609593">
<ele>511</ele>
<time>2017-03-29T20:27:52Z</time>
</trkpt>
<trkpt lat="38.084590842366644" lon="-1.4891971365609593">
<ele>511</ele>
<time>2017-03-29T20:27:56Z</time>
</trkpt>
<trkpt lat="38.084590842366644" lon="-1.4891971365609593">
<ele>511</ele>
<time>2017-03-29T20:28:00Z</time>
</trkpt>
<trkpt lat="38.084590842366644" lon="-1.4891971365609593">
<ele>511</ele>
<time>2017-03-29T20:28:04Z</time>
</trkpt>
<trkpt lat="38.084590842366644" lon="-1.4891971365609593">
<ele>511</ele>
<time>2017-03-29T20:28:08Z</time>
</trkpt>
<trkpt lat="38.084590842366644" lon="-1.4891971365609593">
<ele>511</ele>
<time>2017-03-29T20:28:12Z</time>
</trkpt>
<trkpt lat="38.084590842366644" lon="-1.4891971365609593">
<ele>511</ele>
<time>2017-03-29T20:28:16Z</time>
</trkpt>
<trkpt lat="38.084590842366644" lon="-1.4891971365609593">
<ele>511</ele>
<time>2017-03-29T20:28:20Z</time>
</trkpt>
<trkpt lat="38.084590842366644" lon="-1.4891971365609593">
<ele>511</ele>
<time>2017-03-29T20:28:24Z</time>
</trkpt>
<trkpt lat="38.084590842366644" lon="-1.4891971365609593">
<ele>511</ele>
<time>2017-03-29T20:28:28Z</time>
</trkpt>
<trkpt lat="38.084590842366644" lon="-1.4891971365609593">
<ele>511</ele>
<time>2017-03-29T20:28:32Z</time>
</trkpt>
<trkpt lat="38.084590842366644" lon="-1.4891971365609593">
<ele>511</ele>
<time>2017-03-29T20:28:36Z</time>
</trkpt>
<trkpt lat="38.084590842366644" lon="-1.4891971365609593">
<ele>511</ele>
<time>2017-03-29T20:28:40Z</time>
</trkpt>
<trkpt lat="38.084590842366644" lon="-1.4891971365609593">
<ele>511</ele>
<time>2017-03-29T20:28:44Z</time>
</trkpt>
<trkpt lat="38.084590842366644" lon="-1.4891971365609593">
<ele>511</ele>
<time>2017-03-29T20:28:48Z</time>
</trkpt>
<trkpt lat="38.084590842366644" lon="-1.4891971365609593">
<ele>511</ele>
<time>2017-03-29T20:28:52Z</time>
</trkpt>
<trkpt lat="38.084590842366644" lon="-1.4891971365609593">
<ele>511</ele>
<time>2017-03-29T20:28:56Z</time>
</trkpt>
<trkpt lat="38.084590842366644" lon="-1.4891971365609593">
<ele>511</ele>
<time>2017-03-29T20:29:00Z</time>
</trkpt>
<trkpt lat="38.084590842366644" lon="-1.4891971365609593">
<ele>511</ele>
<time>2017-03-29T20:29:04Z</time>
</trkpt>
<trkpt lat="38.084590842366644" lon="-1.4891971365609593">
<ele>511</ele>
<time>2017-03-29T20:29:08Z</time>
</trkpt>
<trkpt lat="38.084590842366644" lon="-1.4891971365609593">
<ele>511</ele>
<time>2017-03-29T20:29:12Z</time>
</trkpt>
<trkpt lat="38.084590842366644" lon="-1.4891971365609593">
<ele>511</ele>
<time>2017-03-29T20:29:17Z</time>
</trkpt>
<trkpt lat="38.084590842366644" lon="-1.4891971365609593">
<ele>511</ele>
<time>2017-03-29T20:29:21Z</time>
</trkpt>
<trkpt lat="38.084590842366644" lon="-1.4891971365609593">
<ele>511</ele>
<time>2017-03-29T20:29:25Z</time>
</trkpt>
<trkpt lat="38.084590842366644" lon="-1.4891971365609593">
<ele>511</ele>
<time>2017-03-29T20:29:29Z</time>
</trkpt>
<trkpt lat="38.084590842366644" lon="-1.4891971365609593">
<ele>511</ele>
<time>2017-03-29T20:29:33Z</time>
</trkpt>
<trkpt lat="38.084590842366644" lon="-1.4891971365609593">
<ele>511</ele>
<time>2017-03-29T20:29:37Z</time>
</trkpt>
<trkpt lat="38.084590842366644" lon="-1.4891971365609593">
<ele>511</ele>
<time>2017-03-29T20:29:41Z</time>
</trkpt>
<trkpt lat="" lon="">
<ele></ele>
<time>2017-03-29TZ</time>
</trkpt>
</trkseg>
</trk>
<wpt lat="" lon="">
	<name></name>
	<desc></desc>
	<cmt></cmt>
	<photoid></photoid>
	<type></type>
</wpt>
</gpx>
